<?xml version="1.0" encoding="UTF-8"?>
<gpx
  version="1.0"
  creator="GPSBabel - http://www.gpsbabel.org"
  xmlns:xsi="http://www.w3.org/2001/XMLSchema-instance"
  xmlns="http://www.topografix.com/GPX/1/0"
  xsi:schemaLocation="http://www.topografix.com/GPX/1/1 http://www.topografix.com/GPX/1/1/gpx.xsd">
<time>2012-04-03T12:26:45Z</time>
<bounds minlat="39.698782000" minlon="-0.355783000" maxlat="39.784371000" maxlon="-0.286210000"/>
<trk>
  <name>2012-03-25-01</name>
<trkseg>
<trkpt lat="39.714683000" lon="-0.351063000">
  <ele>120.400000</ele>
  <time>2012-03-25T06:11:39Z</time>
  <sat>6</sat>
</trkpt>
<trkpt lat="39.714683000" lon="-0.351063000">
  <ele>120.400000</ele>
  <time>2012-03-25T06:11:40Z</time>
  <sat>6</sat>
</trkpt>
<trkpt lat="39.714683000" lon="-0.351063000">
  <ele>120.400000</ele>
  <time>2012-03-25T06:11:45Z</time>
  <sat>7</sat>
</trkpt>
<trkpt lat="39.714700000" lon="-0.351040000">
  <ele>121.000000</ele>
  <time>2012-03-25T06:11:48Z</time>
  <sat>7</sat>
</trkpt>
<trkpt lat="39.714731000" lon="-0.351004000">
  <ele>122.000000</ele>
  <time>2012-03-25T06:11:51Z</time>
  <sat>7</sat>
</trkpt>
<trkpt lat="39.714768000" lon="-0.351052000">
  <ele>124.500000</ele>
  <time>2012-03-25T06:11:54Z</time>
  <sat>9</sat>
</trkpt>
<trkpt lat="39.714825000" lon="-0.351103000">
  <ele>125.000000</ele>
  <time>2012-03-25T06:11:57Z</time>
  <sat>8</sat>
</trkpt>
<trkpt lat="39.714881000" lon="-0.351155000">
  <ele>125.300000</ele>
  <time>2012-03-25T06:12:00Z</time>
  <sat>8</sat>
</trkpt>
<trkpt lat="39.714927000" lon="-0.351208000">
  <ele>126.400000</ele>
  <time>2012-03-25T06:12:03Z</time>
  <sat>11</sat>
</trkpt>
<trkpt lat="39.714975000" lon="-0.351255000">
  <ele>126.400000</ele>
  <time>2012-03-25T06:12:06Z</time>
  <sat>11</sat>
</trkpt>
<trkpt lat="39.715029000" lon="-0.351314000">
  <ele>125.900000</ele>
  <time>2012-03-25T06:12:09Z</time>
  <sat>11</sat>
</trkpt>
<trkpt lat="39.715108000" lon="-0.351368000">
  <ele>125.500000</ele>
  <time>2012-03-25T06:12:12Z</time>
  <sat>11</sat>
</trkpt>
<trkpt lat="39.715185000" lon="-0.351443000">
  <ele>125.600000</ele>
  <time>2012-03-25T06:12:15Z</time>
  <sat>8</sat>
</trkpt>
<trkpt lat="39.715210000" lon="-0.351472000">
  <ele>125.500000</ele>
  <time>2012-03-25T06:12:16Z</time>
  <sat>8</sat>
</trkpt>
<trkpt lat="39.716147000" lon="-0.352224000">
  <ele>133.000000</ele>
  <time>2012-03-25T06:12:16Z</time>
</trkpt>
<trkpt lat="39.716695000" lon="-0.352958000">
  <ele>137.100000</ele>
  <time>2012-03-25T06:12:15Z</time>
</trkpt>
<trkpt lat="39.717854000" lon="-0.354157000">
  <ele>134.700000</ele>
  <time>2012-03-25T06:12:21Z</time>
</trkpt>
<trkpt lat="39.718693000" lon="-0.354857000">
  <ele>134.800000</ele>
  <time>2012-03-25T06:11:43Z</time>
</trkpt>
<trkpt lat="39.719227000" lon="-0.354992000">
  <ele>135.500000</ele>
  <time>2012-03-25T06:06:13Z</time>
</trkpt>
<trkpt lat="39.719888000" lon="-0.355388000">
  <ele>138.600000</ele>
  <time>2012-03-25T05:56:24Z</time>
</trkpt>
<trkpt lat="39.720267000" lon="-0.355485000">
  <ele>139.900000</ele>
  <time>2012-03-25T05:37:30Z</time>
</trkpt>
<trkpt lat="39.720583000" lon="-0.355783000">
  <ele>140.900000</ele>
  <time>2012-03-25T05:01:24Z</time>
</trkpt>
<trkpt lat="39.720891000" lon="-0.355772000">
  <ele>140.900000</ele>
  <time>2012-03-25T03:51:03Z</time>
</trkpt>
<trkpt lat="39.721310000" lon="-0.355356000">
  <ele>140.000000</ele>
  <time>2012-03-25T01:29:05Z</time>
</trkpt>
<trkpt lat="39.721816000" lon="-0.355004000">
  <ele>141.700000</ele>
  <time>2012-03-24T20:12:50Z</time>
</trkpt>
<trkpt lat="39.722132000" lon="-0.354570000">
  <ele>144.600000</ele>
  <time>2012-03-24T07:28:21Z</time>
</trkpt>
<trkpt lat="39.722312000" lon="-0.354186000">
  <ele>146.600000</ele>
  <time>2012-03-22T23:01:45Z</time>
</trkpt>
<trkpt lat="39.722559000" lon="-0.353755000">
  <ele>148.600000</ele>
  <time>2012-03-19T09:18:16Z</time>
</trkpt>
<trkpt lat="39.722802000" lon="-0.353878000">
  <ele>151.300000</ele>
  <time>2006-08-30T03:52:01Z</time>
</trkpt>
<trkpt lat="39.723112000" lon="-0.353955000">
  <ele>154.000000</ele>
  <time>2012-07-17T11:33:48Z</time>
</trkpt>
<trkpt lat="39.723322000" lon="-0.354147000">
  <ele>156.800000</ele>
  <time>2012-03-09T05:18:40Z</time>
</trkpt>
<trkpt lat="39.723616000" lon="-0.354269000">
  <ele>160.400000</ele>
  <time>2012-02-05T12:29:37Z</time>
</trkpt>
<trkpt lat="39.723887000" lon="-0.354125000">
  <ele>160.700000</ele>
  <time>2011-10-23T00:00:14Z</time>
</trkpt>
<trkpt lat="39.724053000" lon="-0.353897000">
  <ele>159.000000</ele>
  <time>2010-10-25T08:51:26Z</time>
</trkpt>
<trkpt lat="39.724277000" lon="-0.353933000">
  <ele>160.500000</ele>
  <time>2007-03-27T13:14:50Z</time>
</trkpt>
<trkpt lat="39.724575000" lon="-0.354210000">
  <ele>164.900000</ele>
  </trkpt>
<trkpt lat="39.724980000" lon="-0.354705000">
  <ele>170.700000</ele>
  <time>1993-12-07T23:05:04Z</time>
</trkpt>
<trkpt lat="39.725144000" lon="-0.354344000">
  <ele>167.700000</ele>
  </trkpt>
<trkpt lat="39.725339000" lon="-0.353892000">
  <ele>164.700000</ele>
</trkpt>
<trkpt lat="39.725725000" lon="-0.353544000">
  <ele>167.500000</ele>
</trkpt>
<trkpt lat="39.726266000" lon="-0.353191000">
  <ele>171.900000</ele>
</trkpt>
<trkpt lat="39.725998000" lon="-0.352713000">
  <ele>165.100000</ele>
</trkpt>
<trkpt lat="39.725872000" lon="-0.352473000">
  <ele>162.500000</ele>
</trkpt>
<trkpt lat="39.725730000" lon="-0.352257000">
  <ele>159.900000</ele>
</trkpt>
<trkpt lat="39.725841000" lon="-0.351875000">
  <ele>159.300000</ele>
</trkpt>
<trkpt lat="39.726005000" lon="-0.351536000">
  <ele>159.400000</ele>
</trkpt>
<trkpt lat="39.726861000" lon="-0.350726000">
  <ele>162.100000</ele>
</trkpt>
<trkpt lat="39.727414000" lon="-0.350172000">
  <ele>165.100000</ele>
</trkpt>
<trkpt lat="39.727949000" lon="-0.349574000">
  <ele>165.200000</ele>
</trkpt>
<trkpt lat="39.727309000" lon="-0.349836000">
  <ele>164.100000</ele>
  <time>2012-03-25T06:22:00Z</time>
  <sat>8</sat>
</trkpt>
<trkpt lat="39.727193000" lon="-0.349855000">
  <ele>163.300000</ele>
  <time>2012-03-25T06:22:03Z</time>
  <sat>8</sat>
</trkpt>
<trkpt lat="39.727100000" lon="-0.349888000">
  <ele>162.800000</ele>
  <time>2012-03-25T06:22:06Z</time>
  <sat>8</sat>
</trkpt>
<trkpt lat="39.726964000" lon="-0.349922000">
  <ele>161.600000</ele>
  <time>2012-03-25T06:22:09Z</time>
  <sat>8</sat>
</trkpt>
<trkpt lat="39.726847000" lon="-0.349913000">
  <ele>161.300000</ele>
  <time>2012-03-25T06:22:12Z</time>
  <sat>8</sat>
</trkpt>
<trkpt lat="39.726707000" lon="-0.349935000">
  <ele>160.600000</ele>
  <time>2012-03-25T06:22:15Z</time>
  <sat>8</sat>
</trkpt>
<trkpt lat="39.726561000" lon="-0.349957000">
  <ele>160.500000</ele>
  <time>2012-03-25T06:22:18Z</time>
  <sat>8</sat>
</trkpt>
<trkpt lat="39.726417000" lon="-0.349977000">
  <ele>158.600000</ele>
  <time>2012-03-25T06:22:21Z</time>
  <sat>8</sat>
</trkpt>
<trkpt lat="39.726276000" lon="-0.350002000">
  <ele>158.600000</ele>
  <time>2012-03-25T06:22:24Z</time>
  <sat>5</sat>
</trkpt>
<trkpt lat="39.726135000" lon="-0.350012000">
  <ele>159.000000</ele>
  <time>2012-03-25T06:22:27Z</time>
  <sat>6</sat>
</trkpt>
<trkpt lat="39.725987000" lon="-0.350003000">
  <ele>159.000000</ele>
  <time>2012-03-25T06:22:30Z</time>
  <sat>8</sat>
</trkpt>
<trkpt lat="39.725821000" lon="-0.349999000">
  <ele>157.800000</ele>
  <time>2012-03-25T06:22:33Z</time>
  <sat>8</sat>
</trkpt>
<trkpt lat="39.725638000" lon="-0.349992000">
  <ele>157.800000</ele>
  <time>2012-03-25T06:22:36Z</time>
  <sat>8</sat>
</trkpt>
<trkpt lat="39.725442000" lon="-0.349979000">
  <ele>156.500000</ele>
  <time>2012-03-25T06:22:39Z</time>
  <sat>7</sat>
</trkpt>
<trkpt lat="39.725229000" lon="-0.349969000">
  <ele>155.100000</ele>
  <time>2012-03-25T06:22:42Z</time>
  <sat>8</sat>
</trkpt>
<trkpt lat="39.725082000" lon="-0.349888000">
  <ele>154.100000</ele>
  <time>2012-03-25T06:22:45Z</time>
  <sat>9</sat>
</trkpt>
<trkpt lat="39.724979000" lon="-0.349755000">
  <ele>153.500000</ele>
  <time>2012-03-25T06:22:48Z</time>
  <sat>9</sat>
</trkpt>
<trkpt lat="39.724877000" lon="-0.349606000">
  <ele>154.000000</ele>
  <time>2012-03-25T06:22:51Z</time>
  <sat>9</sat>
</trkpt>
<trkpt lat="39.724786000" lon="-0.349444000">
  <ele>153.100000</ele>
  <time>2012-03-25T06:22:54Z</time>
  <sat>9</sat>
</trkpt>
<trkpt lat="39.724684000" lon="-0.349293000">
  <ele>152.600000</ele>
  <time>2012-03-25T06:22:57Z</time>
  <sat>6</sat>
</trkpt>
<trkpt lat="39.724622000" lon="-0.349197000">
  <ele>152.600000</ele>
  <time>2012-03-25T06:22:59Z</time>
  <sat>6</sat>
</trkpt>
<trkpt lat="39.724560000" lon="-0.349104000">
  <ele>152.500000</ele>
  <time>2012-03-25T06:23:01Z</time>
  <sat>6</sat>
</trkpt>
<trkpt lat="39.724533000" lon="-0.349056000">
  <ele>152.600000</ele>
  <time>2012-03-25T06:23:02Z</time>
  <sat>7</sat>
</trkpt>
<trkpt lat="39.724402000" lon="-0.348784000">
  <ele>151.600000</ele>
  <time>2012-03-25T06:23:07Z</time>
  <sat>9</sat>
</trkpt>
<trkpt lat="39.724330000" lon="-0.348600000">
  <ele>150.300000</ele>
  <time>2012-03-25T06:23:10Z</time>
  <sat>9</sat>
</trkpt>
<trkpt lat="39.724256000" lon="-0.348415000">
  <ele>149.600000</ele>
  <time>2012-03-25T06:23:13Z</time>
  <sat>9</sat>
</trkpt>
<trkpt lat="39.724186000" lon="-0.348229000">
  <ele>149.000000</ele>
  <time>2012-03-25T06:23:16Z</time>
  <sat>8</sat>
</trkpt>
<trkpt lat="39.724114000" lon="-0.348039000">
  <ele>148.300000</ele>
  <time>2012-03-25T06:23:19Z</time>
  <sat>9</sat>
</trkpt>
<trkpt lat="39.724026000" lon="-0.347823000">
  <ele>147.100000</ele>
  <time>2012-03-25T06:23:22Z</time>
  <sat>9</sat>
</trkpt>
<trkpt lat="39.723916000" lon="-0.347623000">
  <ele>146.800000</ele>
  <time>2012-03-25T06:23:25Z</time>
  <sat>9</sat>
</trkpt>
<trkpt lat="39.723811000" lon="-0.347457000">
  <ele>146.300000</ele>
  <time>2012-03-25T06:23:28Z</time>
  <sat>9</sat>
</trkpt>
<trkpt lat="39.723728000" lon="-0.347270000">
  <ele>146.000000</ele>
  <time>2012-03-25T06:23:31Z</time>
  <sat>9</sat>
</trkpt>
<trkpt lat="39.723659000" lon="-0.347090000">
  <ele>146.000000</ele>
  <time>2012-03-25T06:23:34Z</time>
  <sat>9</sat>
</trkpt>
<trkpt lat="39.723585000" lon="-0.346906000">
  <ele>145.500000</ele>
  <time>2012-03-25T06:23:37Z</time>
  <sat>9</sat>
</trkpt>
<trkpt lat="39.723510000" lon="-0.346724000">
  <ele>145.000000</ele>
  <time>2012-03-25T06:23:40Z</time>
  <sat>9</sat>
</trkpt>
<trkpt lat="39.723442000" lon="-0.346547000">
  <ele>144.800000</ele>
  <time>2012-03-25T06:23:43Z</time>
  <sat>6</sat>
</trkpt>
<trkpt lat="39.723373000" lon="-0.346379000">
  <ele>143.800000</ele>
  <time>2012-03-25T06:23:46Z</time>
  <sat>7</sat>
</trkpt>
<trkpt lat="39.723296000" lon="-0.346215000">
  <ele>143.300000</ele>
  <time>2012-03-25T06:23:49Z</time>
  <sat>8</sat>
</trkpt>
<trkpt lat="39.723207000" lon="-0.346068000">
  <ele>143.100000</ele>
  <time>2012-03-25T06:23:52Z</time>
  <sat>10</sat>
</trkpt>
<trkpt lat="39.723098000" lon="-0.345938000">
  <ele>142.300000</ele>
  <time>2012-03-25T06:23:55Z</time>
  <sat>10</sat>
</trkpt>
<trkpt lat="39.722987000" lon="-0.345797000">
  <ele>141.800000</ele>
  <time>2012-03-25T06:23:58Z</time>
  <sat>10</sat>
</trkpt>
<trkpt lat="39.722915000" lon="-0.345715000">
  <ele>141.300000</ele>
  <time>2012-03-25T06:24:00Z</time>
  <sat>10</sat>
</trkpt>
<trkpt lat="39.722806000" lon="-0.345599000">
  <ele>141.300000</ele>
  <time>2012-03-25T06:24:03Z</time>
  <sat>11</sat>
</trkpt>
<trkpt lat="39.722770000" lon="-0.345560000">
  <ele>141.000000</ele>
  <time>2012-03-25T06:24:04Z</time>
  <sat>11</sat>
</trkpt>
<trkpt lat="39.722628000" lon="-0.345297000">
  <ele>140.100000</ele>
  <time>2012-03-25T06:24:09Z</time>
  <sat>7</sat>
</trkpt>
<trkpt lat="39.722559000" lon="-0.345123000">
  <ele>140.500000</ele>
  <time>2012-03-25T06:24:12Z</time>
  <sat>11</sat>
</trkpt>
<trkpt lat="39.722476000" lon="-0.344980000">
  <ele>140.500000</ele>
  <time>2012-03-25T06:24:15Z</time>
  <sat>11</sat>
</trkpt>
<trkpt lat="39.722395000" lon="-0.344857000">
  <ele>140.800000</ele>
  <time>2012-03-25T06:24:18Z</time>
  <sat>11</sat>
</trkpt>
<trkpt lat="39.722334000" lon="-0.344747000">
  <ele>140.800000</ele>
  <time>2012-03-25T06:24:21Z</time>
  <sat>11</sat>
</trkpt>
<trkpt lat="39.722261000" lon="-0.344712000">
  <ele>139.600000</ele>
  <time>2012-03-25T06:24:24Z</time>
  <sat>10</sat>
</trkpt>
<trkpt lat="39.722137000" lon="-0.344756000">
  <ele>139.600000</ele>
  <time>2012-03-25T06:24:27Z</time>
  <sat>10</sat>
</trkpt>
<trkpt lat="39.721972000" lon="-0.344811000">
  <ele>138.300000</ele>
  <time>2012-03-25T06:24:30Z</time>
  <sat>10</sat>
</trkpt>
<trkpt lat="39.721848000" lon="-0.344788000">
  <ele>137.500000</ele>
  <time>2012-03-25T06:24:33Z</time>
  <sat>10</sat>
</trkpt>
<trkpt lat="39.721838000" lon="-0.344652000">
  <ele>137.600000</ele>
  <time>2012-03-25T06:24:36Z</time>
  <sat>10</sat>
</trkpt>
<trkpt lat="39.721832000" lon="-0.344500000">
  <ele>137.100000</ele>
  <time>2012-03-25T06:24:39Z</time>
  <sat>10</sat>
</trkpt>
<trkpt lat="39.721801000" lon="-0.344345000">
  <ele>136.800000</ele>
  <time>2012-03-25T06:24:42Z</time>
  <sat>10</sat>
</trkpt>
<trkpt lat="39.721773000" lon="-0.344199000">
  <ele>137.100000</ele>
  <time>2012-03-25T06:24:45Z</time>
  <sat>10</sat>
</trkpt>
<trkpt lat="39.721764000" lon="-0.344038000">
  <ele>137.300000</ele>
  <time>2012-03-25T06:24:48Z</time>
  <sat>10</sat>
</trkpt>
<trkpt lat="39.721762000" lon="-0.343874000">
  <ele>136.800000</ele>
  <time>2012-03-25T06:24:51Z</time>
  <sat>10</sat>
</trkpt>
<trkpt lat="39.721750000" lon="-0.343690000">
  <ele>136.000000</ele>
  <time>2012-03-25T06:24:54Z</time>
  <sat>10</sat>
</trkpt>
<trkpt lat="39.721717000" lon="-0.343491000">
  <ele>135.100000</ele>
  <time>2012-03-25T06:24:57Z</time>
  <sat>10</sat>
</trkpt>
<trkpt lat="39.721678000" lon="-0.343369000">
  <ele>134.500000</ele>
  <time>2012-03-25T06:24:59Z</time>
  <sat>10</sat>
</trkpt>
<trkpt lat="39.721636000" lon="-0.343237000">
  <ele>133.600000</ele>
  <time>2012-03-25T06:25:01Z</time>
  <sat>10</sat>
</trkpt>
<trkpt lat="39.721561000" lon="-0.343042000">
  <ele>133.100000</ele>
  <time>2012-03-25T06:25:04Z</time>
  <sat>8</sat>
</trkpt>
<trkpt lat="39.721491000" lon="-0.342841000">
  <ele>132.300000</ele>
  <time>2012-03-25T06:25:07Z</time>
  <sat>8</sat>
</trkpt>
<trkpt lat="39.721467000" lon="-0.342768000">
  <ele>132.300000</ele>
  <time>2012-03-25T06:25:08Z</time>
  <sat>8</sat>
</trkpt>
<trkpt lat="39.721341000" lon="-0.342373000">
  <ele>131.100000</ele>
  <time>2012-03-25T06:25:13Z</time>
  <sat>8</sat>
</trkpt>
<trkpt lat="39.721325000" lon="-0.342115000">
  <ele>131.000000</ele>
  <time>2012-03-25T06:25:16Z</time>
  <sat>8</sat>
</trkpt>
<trkpt lat="39.721276000" lon="-0.341898000">
  <ele>130.600000</ele>
  <time>2012-03-25T06:25:19Z</time>
  <sat>9</sat>
</trkpt>
<trkpt lat="39.721215000" lon="-0.341693000">
  <ele>130.500000</ele>
  <time>2012-03-25T06:25:22Z</time>
  <sat>9</sat>
</trkpt>
<trkpt lat="39.721113000" lon="-0.341530000">
  <ele>129.800000</ele>
  <time>2012-03-25T06:25:25Z</time>
  <sat>9</sat>
</trkpt>
<trkpt lat="39.721008000" lon="-0.341349000">
  <ele>127.600000</ele>
  <time>2012-03-25T06:25:28Z</time>
  <sat>9</sat>
</trkpt>
<trkpt lat="39.720950000" lon="-0.341099000">
  <ele>126.600000</ele>
  <time>2012-03-25T06:25:31Z</time>
  <sat>9</sat>
</trkpt>
<trkpt lat="39.720896000" lon="-0.340838000">
  <ele>125.900000</ele>
  <time>2012-03-25T06:25:34Z</time>
  <sat>7</sat>
</trkpt>
<trkpt lat="39.720878000" lon="-0.340574000">
  <ele>125.000000</ele>
  <time>2012-03-25T06:25:37Z</time>
  <sat>10</sat>
</trkpt>
<trkpt lat="39.720882000" lon="-0.340309000">
  <ele>124.000000</ele>
  <time>2012-03-25T06:25:40Z</time>
  <sat>10</sat>
</trkpt>
<trkpt lat="39.720854000" lon="-0.340048000">
  <ele>122.900000</ele>
  <time>2012-03-25T06:25:43Z</time>
  <sat>10</sat>
</trkpt>
<trkpt lat="39.720808000" lon="-0.339804000">
  <ele>123.100000</ele>
  <time>2012-03-25T06:25:46Z</time>
  <sat>10</sat>
</trkpt>
<trkpt lat="39.720796000" lon="-0.339562000">
  <ele>122.000000</ele>
  <time>2012-03-25T06:25:49Z</time>
  <sat>10</sat>
</trkpt>
<trkpt lat="39.720788000" lon="-0.339324000">
  <ele>121.000000</ele>
  <time>2012-03-25T06:25:52Z</time>
  <sat>10</sat>
</trkpt>
<trkpt lat="39.720799000" lon="-0.339092000">
  <ele>119.000000</ele>
  <time>2012-03-25T06:25:55Z</time>
  <sat>10</sat>
</trkpt>
<trkpt lat="39.720834000" lon="-0.338877000">
  <ele>118.800000</ele>
  <time>2012-03-25T06:25:58Z</time>
  <sat>10</sat>
</trkpt>
<trkpt lat="39.720852000" lon="-0.338741000">
  <ele>118.000000</ele>
  <time>2012-03-25T06:26:00Z</time>
  <sat>7</sat>
</trkpt>
<trkpt lat="39.720851000" lon="-0.338541000">
  <ele>118.000000</ele>
  <time>2012-03-25T06:26:03Z</time>
  <sat>10</sat>
</trkpt>
<trkpt lat="39.720872000" lon="-0.338356000">
  <ele>117.500000</ele>
  <time>2012-03-25T06:26:06Z</time>
  <sat>10</sat>
</trkpt>
<trkpt lat="39.720950000" lon="-0.338216000">
  <ele>117.900000</ele>
  <time>2012-03-25T06:26:09Z</time>
  <sat>9</sat>
</trkpt>
<trkpt lat="39.720982000" lon="-0.338167000">
  <ele>118.500000</ele>
  <time>2012-03-25T06:26:10Z</time>
  <sat>9</sat>
</trkpt>
<trkpt lat="39.721174000" lon="-0.338078000">
  <ele>118.600000</ele>
  <time>2012-03-25T06:26:15Z</time>
  <sat>8</sat>
</trkpt>
<trkpt lat="39.721291000" lon="-0.338057000">
  <ele>119.100000</ele>
  <time>2012-03-25T06:26:18Z</time>
  <sat>7</sat>
</trkpt>
<trkpt lat="39.721390000" lon="-0.338039000">
  <ele>120.000000</ele>
  <time>2012-03-25T06:26:21Z</time>
  <sat>7</sat>
</trkpt>
<trkpt lat="39.721485000" lon="-0.338051000">
  <ele>120.500000</ele>
  <time>2012-03-25T06:26:24Z</time>
  <sat>7</sat>
</trkpt>
<trkpt lat="39.721576000" lon="-0.338087000">
  <ele>120.500000</ele>
  <time>2012-03-25T06:26:27Z</time>
  <sat>7</sat>
</trkpt>
<trkpt lat="39.721674000" lon="-0.338084000">
  <ele>121.900000</ele>
  <time>2012-03-25T06:26:30Z</time>
  <sat>8</sat>
</trkpt>
<trkpt lat="39.721753000" lon="-0.338066000">
  <ele>120.500000</ele>
  <time>2012-03-25T06:26:33Z</time>
  <sat>9</sat>
</trkpt>
<trkpt lat="39.721839000" lon="-0.338036000">
  <ele>121.100000</ele>
  <time>2012-03-25T06:26:36Z</time>
  <sat>9</sat>
</trkpt>
<trkpt lat="39.721919000" lon="-0.337967000">
  <ele>120.600000</ele>
  <time>2012-03-25T06:26:39Z</time>
  <sat>8</sat>
</trkpt>
<trkpt lat="39.722000000" lon="-0.337893000">
  <ele>120.800000</ele>
  <time>2012-03-25T06:26:42Z</time>
  <sat>8</sat>
</trkpt>
<trkpt lat="39.722093000" lon="-0.337816000">
  <ele>122.000000</ele>
  <time>2012-03-25T06:26:45Z</time>
  <sat>7</sat>
</trkpt>
<trkpt lat="39.722162000" lon="-0.337725000">
  <ele>123.300000</ele>
  <time>2012-03-25T06:26:48Z</time>
  <sat>7</sat>
</trkpt>
<trkpt lat="39.722226000" lon="-0.337634000">
  <ele>124.100000</ele>
  <time>2012-03-25T06:26:51Z</time>
  <sat>8</sat>
</trkpt>
<trkpt lat="39.722289000" lon="-0.337545000">
  <ele>125.300000</ele>
  <time>2012-03-25T06:26:54Z</time>
  <sat>8</sat>
</trkpt>
<trkpt lat="39.722354000" lon="-0.337449000">
  <ele>125.500000</ele>
  <time>2012-03-25T06:26:57Z</time>
  <sat>7</sat>
</trkpt>
<trkpt lat="39.722396000" lon="-0.337376000">
  <ele>125.100000</ele>
  <time>2012-03-25T06:26:59Z</time>
  <sat>6</sat>
</trkpt>
<trkpt lat="39.722452000" lon="-0.337304000">
  <ele>124.900000</ele>
  <time>2012-03-25T06:27:01Z</time>
  <sat>5</sat>
</trkpt>
<trkpt lat="39.722529000" lon="-0.337218000">
  <ele>123.800000</ele>
  <time>2012-03-25T06:27:04Z</time>
  <sat>5</sat>
</trkpt>
<trkpt lat="39.722638000" lon="-0.337039000">
  <ele>124.500000</ele>
  <time>2012-03-25T06:27:07Z</time>
  <sat>5</sat>
</trkpt>
<trkpt lat="39.722652000" lon="-0.336964000">
  <ele>123.500000</ele>
  <time>2012-03-25T06:27:10Z</time>
  <sat>7</sat>
</trkpt>
<trkpt lat="39.722798000" lon="-0.336931000">
  <ele>122.000000</ele>
  <time>2012-03-25T06:27:13Z</time>
  <sat>9</sat>
</trkpt>
<trkpt lat="39.722826000" lon="-0.336907000">
  <ele>122.500000</ele>
  <time>2012-03-25T06:27:14Z</time>
  <sat>9</sat>
</trkpt>
<trkpt lat="39.722957000" lon="-0.336794000">
  <ele>121.500000</ele>
  <time>2012-03-25T06:27:19Z</time>
  <sat>9</sat>
</trkpt>
<trkpt lat="39.723038000" lon="-0.336721000">
  <ele>119.000000</ele>
  <time>2012-03-25T06:27:22Z</time>
  <sat>8</sat>
</trkpt>
<trkpt lat="39.723102000" lon="-0.336697000">
  <ele>120.000000</ele>
  <time>2012-03-25T06:27:25Z</time>
  <sat>8</sat>
</trkpt>
<trkpt lat="39.723184000" lon="-0.336675000">
  <ele>121.000000</ele>
  <time>2012-03-25T06:27:28Z</time>
  <sat>8</sat>
</trkpt>
<trkpt lat="39.723270000" lon="-0.336662000">
  <ele>123.000000</ele>
  <time>2012-03-25T06:27:31Z</time>
  <sat>7</sat>
</trkpt>
<trkpt lat="39.723366000" lon="-0.336667000">
  <ele>124.000000</ele>
  <time>2012-03-25T06:27:34Z</time>
  <sat>7</sat>
</trkpt>
<trkpt lat="39.723465000" lon="-0.336693000">
  <ele>124.300000</ele>
  <time>2012-03-25T06:27:37Z</time>
  <sat>6</sat>
</trkpt>
<trkpt lat="39.723570000" lon="-0.336740000">
  <ele>125.600000</ele>
  <time>2012-03-25T06:27:40Z</time>
  <sat>10</sat>
</trkpt>
<trkpt lat="39.723659000" lon="-0.336783000">
  <ele>124.800000</ele>
  <time>2012-03-25T06:27:43Z</time>
  <sat>10</sat>
</trkpt>
<trkpt lat="39.723750000" lon="-0.336811000">
  <ele>124.400000</ele>
  <time>2012-03-25T06:27:46Z</time>
  <sat>10</sat>
</trkpt>
<trkpt lat="39.723855000" lon="-0.336812000">
  <ele>125.000000</ele>
  <time>2012-03-25T06:27:49Z</time>
  <sat>10</sat>
</trkpt>
<trkpt lat="39.724001000" lon="-0.336799000">
  <ele>125.000000</ele>
  <time>2012-03-25T06:27:52Z</time>
  <sat>10</sat>
</trkpt>
<trkpt lat="39.724115000" lon="-0.336778000">
  <ele>125.600000</ele>
  <time>2012-03-25T06:27:55Z</time>
  <sat>9</sat>
</trkpt>
<trkpt lat="39.724194000" lon="-0.336716000">
  <ele>125.600000</ele>
  <time>2012-03-25T06:27:58Z</time>
  <sat>8</sat>
</trkpt>
<trkpt lat="39.724225000" lon="-0.336615000">
  <ele>125.500000</ele>
  <time>2012-03-25T06:28:00Z</time>
  <sat>10</sat>
</trkpt>
<trkpt lat="39.724311000" lon="-0.336489000">
  <ele>123.300000</ele>
  <time>2012-03-25T06:28:03Z</time>
  <sat>10</sat>
</trkpt>
<trkpt lat="39.724408000" lon="-0.336417000">
  <ele>122.500000</ele>
  <time>2012-03-25T06:28:06Z</time>
  <sat>10</sat>
</trkpt>
<trkpt lat="39.724519000" lon="-0.336387000">
  <ele>122.600000</ele>
  <time>2012-03-25T06:28:09Z</time>
  <sat>8</sat>
</trkpt>
<trkpt lat="39.724639000" lon="-0.336380000">
  <ele>122.500000</ele>
  <time>2012-03-25T06:28:12Z</time>
  <sat>10</sat>
</trkpt>
<trkpt lat="39.724760000" lon="-0.336365000">
  <ele>121.300000</ele>
  <time>2012-03-25T06:28:15Z</time>
  <sat>10</sat>
</trkpt>
<trkpt lat="39.724776000" lon="-0.336340000">
  <ele>122.000000</ele>
  <time>2012-03-25T06:28:16Z</time>
  <sat>10</sat>
</trkpt>
<trkpt lat="39.724938000" lon="-0.336226000">
  <ele>122.900000</ele>
  <time>2012-03-25T06:28:21Z</time>
  <sat>9</sat>
</trkpt>
<trkpt lat="39.725035000" lon="-0.336173000">
  <ele>122.600000</ele>
  <time>2012-03-25T06:28:24Z</time>
  <sat>8</sat>
</trkpt>
<trkpt lat="39.725136000" lon="-0.336143000">
  <ele>123.400000</ele>
  <time>2012-03-25T06:28:27Z</time>
  <sat>8</sat>
</trkpt>
<trkpt lat="39.725232000" lon="-0.336116000">
  <ele>123.500000</ele>
  <time>2012-03-25T06:28:30Z</time>
  <sat>7</sat>
</trkpt>
<trkpt lat="39.725336000" lon="-0.336099000">
  <ele>123.400000</ele>
  <time>2012-03-25T06:28:33Z</time>
  <sat>7</sat>
</trkpt>
<trkpt lat="39.725439000" lon="-0.336081000">
  <ele>123.500000</ele>
  <time>2012-03-25T06:28:36Z</time>
  <sat>7</sat>
</trkpt>
<trkpt lat="39.725545000" lon="-0.336054000">
  <ele>124.000000</ele>
  <time>2012-03-25T06:28:39Z</time>
  <sat>7</sat>
</trkpt>
<trkpt lat="39.725655000" lon="-0.336038000">
  <ele>123.300000</ele>
  <time>2012-03-25T06:28:42Z</time>
  <sat>9</sat>
</trkpt>
<trkpt lat="39.725758000" lon="-0.336041000">
  <ele>123.400000</ele>
  <time>2012-03-25T06:28:45Z</time>
  <sat>9</sat>
</trkpt>
<trkpt lat="39.725852000" lon="-0.336052000">
  <ele>124.000000</ele>
  <time>2012-03-25T06:28:48Z</time>
  <sat>7</sat>
</trkpt>
<trkpt lat="39.725947000" lon="-0.336058000">
  <ele>124.300000</ele>
  <time>2012-03-25T06:28:51Z</time>
  <sat>8</sat>
</trkpt>
<trkpt lat="39.726057000" lon="-0.336027000">
  <ele>123.500000</ele>
  <time>2012-03-25T06:28:54Z</time>
  <sat>8</sat>
</trkpt>
<trkpt lat="39.726157000" lon="-0.336013000">
  <ele>123.800000</ele>
  <time>2012-03-25T06:28:57Z</time>
  <sat>7</sat>
</trkpt>
<trkpt lat="39.726227000" lon="-0.335999000">
  <ele>123.400000</ele>
  <time>2012-03-25T06:28:59Z</time>
  <sat>7</sat>
</trkpt>
<trkpt lat="39.726296000" lon="-0.335979000">
  <ele>123.300000</ele>
  <time>2012-03-25T06:29:01Z</time>
  <sat>7</sat>
</trkpt>
<trkpt lat="39.726412000" lon="-0.335944000">
  <ele>123.300000</ele>
  <time>2012-03-25T06:29:04Z</time>
  <sat>7</sat>
</trkpt>
<trkpt lat="39.726522000" lon="-0.335905000">
  <ele>123.600000</ele>
  <time>2012-03-25T06:29:07Z</time>
  <sat>8</sat>
</trkpt>
<trkpt lat="39.726630000" lon="-0.335866000">
  <ele>123.600000</ele>
  <time>2012-03-25T06:29:10Z</time>
  <sat>9</sat>
</trkpt>
<trkpt lat="39.726741000" lon="-0.335821000">
  <ele>124.900000</ele>
  <time>2012-03-25T06:29:13Z</time>
  <sat>9</sat>
</trkpt>
<trkpt lat="39.726851000" lon="-0.335769000">
  <ele>125.500000</ele>
  <time>2012-03-25T06:29:16Z</time>
  <sat>8</sat>
</trkpt>
<trkpt lat="39.726954000" lon="-0.335718000">
  <ele>125.300000</ele>
  <time>2012-03-25T06:29:19Z</time>
  <sat>8</sat>
</trkpt>
<trkpt lat="39.726987000" lon="-0.335698000">
  <ele>125.300000</ele>
  <time>2012-03-25T06:29:20Z</time>
  <sat>8</sat>
</trkpt>
<trkpt lat="39.727165000" lon="-0.335609000">
  <ele>125.100000</ele>
  <time>2012-03-25T06:29:25Z</time>
  <sat>8</sat>
</trkpt>
<trkpt lat="39.727274000" lon="-0.335567000">
  <ele>125.400000</ele>
  <time>2012-03-25T06:29:28Z</time>
  <sat>7</sat>
</trkpt>
<trkpt lat="39.727380000" lon="-0.335547000">
  <ele>125.900000</ele>
  <time>2012-03-25T06:29:31Z</time>
  <sat>8</sat>
</trkpt>
<trkpt lat="39.727464000" lon="-0.335598000">
  <ele>126.000000</ele>
  <time>2012-03-25T06:29:34Z</time>
  <sat>8</sat>
</trkpt>
<trkpt lat="39.727554000" lon="-0.335616000">
  <ele>126.500000</ele>
  <time>2012-03-25T06:29:37Z</time>
  <sat>8</sat>
</trkpt>
<trkpt lat="39.727662000" lon="-0.335655000">
  <ele>126.400000</ele>
  <time>2012-03-25T06:29:40Z</time>
  <sat>10</sat>
</trkpt>
<trkpt lat="39.727772000" lon="-0.335703000">
  <ele>126.900000</ele>
  <time>2012-03-25T06:29:43Z</time>
  <sat>10</sat>
</trkpt>
<trkpt lat="39.727883000" lon="-0.335747000">
  <ele>127.600000</ele>
  <time>2012-03-25T06:29:46Z</time>
  <sat>10</sat>
</trkpt>
<trkpt lat="39.727982000" lon="-0.335767000">
  <ele>128.000000</ele>
  <time>2012-03-25T06:29:49Z</time>
  <sat>8</sat>
</trkpt>
<trkpt lat="39.728066000" lon="-0.335764000">
  <ele>128.500000</ele>
  <time>2012-03-25T06:29:52Z</time>
  <sat>9</sat>
</trkpt>
<trkpt lat="39.728096000" lon="-0.335694000">
  <ele>128.800000</ele>
  <time>2012-03-25T06:29:55Z</time>
  <sat>10</sat>
</trkpt>
<trkpt lat="39.728107000" lon="-0.335598000">
  <ele>127.300000</ele>
  <time>2012-03-25T06:29:58Z</time>
  <sat>10</sat>
</trkpt>
<trkpt lat="39.728119000" lon="-0.335554000">
  <ele>126.800000</ele>
  <time>2012-03-25T06:30:00Z</time>
  <sat>10</sat>
</trkpt>
<trkpt lat="39.728155000" lon="-0.335494000">
  <ele>127.100000</ele>
  <time>2012-03-25T06:30:03Z</time>
  <sat>10</sat>
</trkpt>
<trkpt lat="39.728217000" lon="-0.335330000">
  <ele>127.400000</ele>
  <time>2012-03-25T06:30:06Z</time>
  <sat>8</sat>
</trkpt>
<trkpt lat="39.728283000" lon="-0.335222000">
  <ele>126.600000</ele>
  <time>2012-03-25T06:30:09Z</time>
  <sat>7</sat>
</trkpt>
<trkpt lat="39.728351000" lon="-0.335119000">
  <ele>126.900000</ele>
  <time>2012-03-25T06:30:12Z</time>
  <sat>8</sat>
</trkpt>
<trkpt lat="39.728423000" lon="-0.335016000">
  <ele>127.100000</ele>
  <time>2012-03-25T06:30:15Z</time>
  <sat>8</sat>
</trkpt>
<trkpt lat="39.728495000" lon="-0.334918000">
  <ele>127.000000</ele>
  <time>2012-03-25T06:30:18Z</time>
  <sat>8</sat>
</trkpt>
<trkpt lat="39.728576000" lon="-0.334812000">
  <ele>126.800000</ele>
  <time>2012-03-25T06:30:21Z</time>
  <sat>7</sat>
</trkpt>
<trkpt lat="39.728603000" lon="-0.334777000">
  <ele>126.500000</ele>
  <time>2012-03-25T06:30:22Z</time>
  <sat>7</sat>
</trkpt>
<trkpt lat="39.728740000" lon="-0.334624000">
  <ele>126.600000</ele>
  <time>2012-03-25T06:30:27Z</time>
  <sat>8</sat>
</trkpt>
<trkpt lat="39.728830000" lon="-0.334538000">
  <ele>127.000000</ele>
  <time>2012-03-25T06:30:30Z</time>
  <sat>8</sat>
</trkpt>
<trkpt lat="39.728922000" lon="-0.334453000">
  <ele>127.100000</ele>
  <time>2012-03-25T06:30:33Z</time>
  <sat>6</sat>
</trkpt>
<trkpt lat="39.729011000" lon="-0.334369000">
  <ele>127.300000</ele>
  <time>2012-03-25T06:30:36Z</time>
  <sat>7</sat>
</trkpt>
<trkpt lat="39.729106000" lon="-0.334266000">
  <ele>127.000000</ele>
  <time>2012-03-25T06:30:39Z</time>
  <sat>8</sat>
</trkpt>
<trkpt lat="39.729213000" lon="-0.334169000">
  <ele>126.500000</ele>
  <time>2012-03-25T06:30:42Z</time>
  <sat>8</sat>
</trkpt>
<trkpt lat="39.729322000" lon="-0.334108000">
  <ele>126.900000</ele>
  <time>2012-03-25T06:30:45Z</time>
  <sat>8</sat>
</trkpt>
<trkpt lat="39.729429000" lon="-0.334051000">
  <ele>126.900000</ele>
  <time>2012-03-25T06:30:48Z</time>
  <sat>8</sat>
</trkpt>
<trkpt lat="39.729546000" lon="-0.334009000">
  <ele>126.400000</ele>
  <time>2012-03-25T06:30:51Z</time>
  <sat>9</sat>
</trkpt>
<trkpt lat="39.729662000" lon="-0.333980000">
  <ele>125.500000</ele>
  <time>2012-03-25T06:30:54Z</time>
  <sat>9</sat>
</trkpt>
<trkpt lat="39.729748000" lon="-0.333936000">
  <ele>124.800000</ele>
  <time>2012-03-25T06:30:57Z</time>
  <sat>9</sat>
</trkpt>
<trkpt lat="39.729801000" lon="-0.333898000">
  <ele>124.800000</ele>
  <time>2012-03-25T06:30:59Z</time>
  <sat>8</sat>
</trkpt>
<trkpt lat="39.729853000" lon="-0.333851000">
  <ele>124.800000</ele>
  <time>2012-03-25T06:31:01Z</time>
  <sat>9</sat>
</trkpt>
<trkpt lat="39.729933000" lon="-0.333750000">
  <ele>125.000000</ele>
  <time>2012-03-25T06:31:04Z</time>
  <sat>7</sat>
</trkpt>
<trkpt lat="39.730017000" lon="-0.333648000">
  <ele>125.500000</ele>
  <time>2012-03-25T06:31:07Z</time>
  <sat>7</sat>
</trkpt>
<trkpt lat="39.730089000" lon="-0.333555000">
  <ele>125.400000</ele>
  <time>2012-03-25T06:31:10Z</time>
  <sat>8</sat>
</trkpt>
<trkpt lat="39.730177000" lon="-0.333447000">
  <ele>125.800000</ele>
  <time>2012-03-25T06:31:13Z</time>
  <sat>8</sat>
</trkpt>
<trkpt lat="39.730268000" lon="-0.333352000">
  <ele>125.100000</ele>
  <time>2012-03-25T06:31:16Z</time>
  <sat>6</sat>
</trkpt>
<trkpt lat="39.730347000" lon="-0.333257000">
  <ele>125.300000</ele>
  <time>2012-03-25T06:31:19Z</time>
  <sat>7</sat>
</trkpt>
<trkpt lat="39.730400000" lon="-0.333159000">
  <ele>123.800000</ele>
  <time>2012-03-25T06:31:22Z</time>
  <sat>9</sat>
</trkpt>
<trkpt lat="39.730384000" lon="-0.333054000">
  <ele>123.500000</ele>
  <time>2012-03-25T06:31:25Z</time>
  <sat>10</sat>
</trkpt>
<trkpt lat="39.730373000" lon="-0.333020000">
  <ele>123.500000</ele>
  <time>2012-03-25T06:31:26Z</time>
  <sat>10</sat>
</trkpt>
<trkpt lat="39.730273000" lon="-0.332813000">
  <ele>121.900000</ele>
  <time>2012-03-25T06:31:31Z</time>
  <sat>10</sat>
</trkpt>
<trkpt lat="39.730197000" lon="-0.332677000">
  <ele>121.500000</ele>
  <time>2012-03-25T06:31:34Z</time>
  <sat>10</sat>
</trkpt>
<trkpt lat="39.730114000" lon="-0.332522000">
  <ele>120.600000</ele>
  <time>2012-03-25T06:31:37Z</time>
  <sat>10</sat>
</trkpt>
<trkpt lat="39.730023000" lon="-0.332380000">
  <ele>123.000000</ele>
  <time>2012-03-25T06:31:40Z</time>
  <sat>10</sat>
</trkpt>
<trkpt lat="39.729936000" lon="-0.332233000">
  <ele>122.100000</ele>
  <time>2012-03-25T06:31:43Z</time>
  <sat>10</sat>
</trkpt>
<trkpt lat="39.729868000" lon="-0.332065000">
  <ele>120.100000</ele>
  <time>2012-03-25T06:31:46Z</time>
  <sat>10</sat>
</trkpt>
<trkpt lat="39.729802000" lon="-0.331945000">
  <ele>119.000000</ele>
  <time>2012-03-25T06:31:49Z</time>
  <sat>9</sat>
</trkpt>
<trkpt lat="39.729741000" lon="-0.331883000">
  <ele>116.800000</ele>
  <time>2012-03-25T06:31:52Z</time>
  <sat>9</sat>
</trkpt>
<trkpt lat="39.729711000" lon="-0.331796000">
  <ele>115.000000</ele>
  <time>2012-03-25T06:31:55Z</time>
  <sat>10</sat>
</trkpt>
<trkpt lat="39.729758000" lon="-0.331737000">
  <ele>115.500000</ele>
  <time>2012-03-25T06:31:58Z</time>
  <sat>10</sat>
</trkpt>
<trkpt lat="39.729794000" lon="-0.331740000">
  <ele>115.000000</ele>
  <time>2012-03-25T06:32:00Z</time>
  <sat>10</sat>
</trkpt>
<trkpt lat="39.729854000" lon="-0.331756000">
  <ele>115.500000</ele>
  <time>2012-03-25T06:32:03Z</time>
  <sat>10</sat>
</trkpt>
<trkpt lat="39.729917000" lon="-0.331766000">
  <ele>115.100000</ele>
  <time>2012-03-25T06:32:06Z</time>
  <sat>10</sat>
</trkpt>
<trkpt lat="39.729993000" lon="-0.331767000">
  <ele>115.500000</ele>
  <time>2012-03-25T06:32:09Z</time>
  <sat>7</sat>
</trkpt>
<trkpt lat="39.730079000" lon="-0.331765000">
  <ele>115.300000</ele>
  <time>2012-03-25T06:32:12Z</time>
  <sat>7</sat>
</trkpt>
<trkpt lat="39.730179000" lon="-0.331761000">
  <ele>114.500000</ele>
  <time>2012-03-25T06:32:15Z</time>
  <sat>8</sat>
</trkpt>
<trkpt lat="39.730273000" lon="-0.331749000">
  <ele>113.600000</ele>
  <time>2012-03-25T06:32:18Z</time>
  <sat>8</sat>
</trkpt>
<trkpt lat="39.730369000" lon="-0.331743000">
  <ele>113.500000</ele>
  <time>2012-03-25T06:32:21Z</time>
  <sat>8</sat>
</trkpt>
<trkpt lat="39.730467000" lon="-0.331751000">
  <ele>113.000000</ele>
  <time>2012-03-25T06:32:24Z</time>
  <sat>7</sat>
</trkpt>
<trkpt lat="39.730557000" lon="-0.331758000">
  <ele>113.600000</ele>
  <time>2012-03-25T06:32:27Z</time>
  <sat>7</sat>
</trkpt>
<trkpt lat="39.730587000" lon="-0.331756000">
  <ele>114.000000</ele>
  <time>2012-03-25T06:32:28Z</time>
  <sat>7</sat>
</trkpt>
<trkpt lat="39.730748000" lon="-0.331767000">
  <ele>114.500000</ele>
  <time>2012-03-25T06:32:33Z</time>
  <sat>7</sat>
</trkpt>
<trkpt lat="39.730846000" lon="-0.331773000">
  <ele>115.300000</ele>
  <time>2012-03-25T06:32:36Z</time>
  <sat>9</sat>
</trkpt>
<trkpt lat="39.730932000" lon="-0.331788000">
  <ele>115.500000</ele>
  <time>2012-03-25T06:32:39Z</time>
  <sat>8</sat>
</trkpt>
<trkpt lat="39.730999000" lon="-0.331836000">
  <ele>114.400000</ele>
  <time>2012-03-25T06:32:42Z</time>
  <sat>8</sat>
</trkpt>
<trkpt lat="39.731077000" lon="-0.331872000">
  <ele>114.900000</ele>
  <time>2012-03-25T06:32:45Z</time>
  <sat>9</sat>
</trkpt>
<trkpt lat="39.731136000" lon="-0.331892000">
  <ele>115.900000</ele>
  <time>2012-03-25T06:32:48Z</time>
  <sat>9</sat>
</trkpt>
<trkpt lat="39.731205000" lon="-0.331895000">
  <ele>116.300000</ele>
  <time>2012-03-25T06:32:51Z</time>
  <sat>8</sat>
</trkpt>
<trkpt lat="39.731282000" lon="-0.331867000">
  <ele>115.800000</ele>
  <time>2012-03-25T06:32:54Z</time>
  <sat>8</sat>
</trkpt>
<trkpt lat="39.731368000" lon="-0.331829000">
  <ele>116.500000</ele>
  <time>2012-03-25T06:32:57Z</time>
  <sat>8</sat>
</trkpt>
<trkpt lat="39.731421000" lon="-0.331795000">
  <ele>116.300000</ele>
  <time>2012-03-25T06:32:59Z</time>
  <sat>8</sat>
</trkpt>
<trkpt lat="39.731479000" lon="-0.331763000">
  <ele>116.800000</ele>
  <time>2012-03-25T06:33:01Z</time>
  <sat>8</sat>
</trkpt>
<trkpt lat="39.731561000" lon="-0.331715000">
  <ele>117.300000</ele>
  <time>2012-03-25T06:33:04Z</time>
  <sat>8</sat>
</trkpt>
<trkpt lat="39.731646000" lon="-0.331654000">
  <ele>117.000000</ele>
  <time>2012-03-25T06:33:07Z</time>
  <sat>8</sat>
</trkpt>
<trkpt lat="39.731737000" lon="-0.331592000">
  <ele>116.800000</ele>
  <time>2012-03-25T06:33:10Z</time>
  <sat>7</sat>
</trkpt>
<trkpt lat="39.731827000" lon="-0.331545000">
  <ele>117.500000</ele>
  <time>2012-03-25T06:33:13Z</time>
  <sat>7</sat>
</trkpt>
<trkpt lat="39.731917000" lon="-0.331502000">
  <ele>117.500000</ele>
  <time>2012-03-25T06:33:16Z</time>
  <sat>7</sat>
</trkpt>
<trkpt lat="39.731999000" lon="-0.331467000">
  <ele>118.300000</ele>
  <time>2012-03-25T06:33:19Z</time>
  <sat>8</sat>
</trkpt>
<trkpt lat="39.732070000" lon="-0.331430000">
  <ele>118.400000</ele>
  <time>2012-03-25T06:33:22Z</time>
  <sat>9</sat>
</trkpt>
<trkpt lat="39.732160000" lon="-0.331403000">
  <ele>119.000000</ele>
  <time>2012-03-25T06:33:25Z</time>
  <sat>9</sat>
</trkpt>
<trkpt lat="39.732256000" lon="-0.331354000">
  <ele>119.000000</ele>
  <time>2012-03-25T06:33:28Z</time>
  <sat>9</sat>
</trkpt>
<trkpt lat="39.732345000" lon="-0.331291000">
  <ele>118.600000</ele>
  <time>2012-03-25T06:33:31Z</time>
  <sat>8</sat>
</trkpt>
<trkpt lat="39.732375000" lon="-0.331274000">
  <ele>118.500000</ele>
  <time>2012-03-25T06:33:32Z</time>
  <sat>8</sat>
</trkpt>
<trkpt lat="39.732549000" lon="-0.331219000">
  <ele>117.800000</ele>
  <time>2012-03-25T06:33:37Z</time>
  <sat>10</sat>
</trkpt>
<trkpt lat="39.732669000" lon="-0.331277000">
  <ele>117.100000</ele>
  <time>2012-03-25T06:33:40Z</time>
  <sat>10</sat>
</trkpt>
<trkpt lat="39.732743000" lon="-0.331317000">
  <ele>117.800000</ele>
  <time>2012-03-25T06:33:43Z</time>
  <sat>10</sat>
</trkpt>
<trkpt lat="39.732727000" lon="-0.331457000">
  <ele>118.000000</ele>
  <time>2012-03-25T06:33:46Z</time>
  <sat>7</sat>
</trkpt>
<trkpt lat="39.732693000" lon="-0.331602000">
  <ele>119.300000</ele>
  <time>2012-03-25T06:33:49Z</time>
  <sat>6</sat>
</trkpt>
<trkpt lat="39.732647000" lon="-0.331715000">
  <ele>120.300000</ele>
  <time>2012-03-25T06:33:52Z</time>
  <sat>5</sat>
</trkpt>
<trkpt lat="39.732618000" lon="-0.331828000">
  <ele>121.000000</ele>
  <time>2012-03-25T06:33:55Z</time>
  <sat>6</sat>
</trkpt>
<trkpt lat="39.732607000" lon="-0.331924000">
  <ele>122.400000</ele>
  <time>2012-03-25T06:33:58Z</time>
  <sat>6</sat>
</trkpt>
<trkpt lat="39.732598000" lon="-0.331984000">
  <ele>122.800000</ele>
  <time>2012-03-25T06:34:00Z</time>
  <sat>6</sat>
</trkpt>
<trkpt lat="39.732590000" lon="-0.332084000">
  <ele>122.900000</ele>
  <time>2012-03-25T06:34:03Z</time>
  <sat>6</sat>
</trkpt>
<trkpt lat="39.732583000" lon="-0.332185000">
  <ele>123.000000</ele>
  <time>2012-03-25T06:34:06Z</time>
  <sat>8</sat>
</trkpt>
<trkpt lat="39.732579000" lon="-0.332295000">
  <ele>123.400000</ele>
  <time>2012-03-25T06:34:09Z</time>
  <sat>6</sat>
</trkpt>
<trkpt lat="39.732593000" lon="-0.332394000">
  <ele>123.500000</ele>
  <time>2012-03-25T06:34:12Z</time>
  <sat>6</sat>
</trkpt>
<trkpt lat="39.732604000" lon="-0.332495000">
  <ele>124.800000</ele>
  <time>2012-03-25T06:34:15Z</time>
  <sat>5</sat>
</trkpt>
<trkpt lat="39.732624000" lon="-0.332596000">
  <ele>125.000000</ele>
  <time>2012-03-25T06:34:18Z</time>
  <sat>5</sat>
</trkpt>
<trkpt lat="39.732649000" lon="-0.332699000">
  <ele>125.300000</ele>
  <time>2012-03-25T06:34:21Z</time>
  <sat>7</sat>
</trkpt>
<trkpt lat="39.732672000" lon="-0.332800000">
  <ele>125.500000</ele>
  <time>2012-03-25T06:34:24Z</time>
  <sat>8</sat>
</trkpt>
<trkpt lat="39.732704000" lon="-0.332893000">
  <ele>125.400000</ele>
  <time>2012-03-25T06:34:27Z</time>
  <sat>8</sat>
</trkpt>
<trkpt lat="39.732741000" lon="-0.332983000">
  <ele>125.400000</ele>
  <time>2012-03-25T06:34:30Z</time>
  <sat>7</sat>
</trkpt>
<trkpt lat="39.732774000" lon="-0.333082000">
  <ele>125.600000</ele>
  <time>2012-03-25T06:34:33Z</time>
  <sat>7</sat>
</trkpt>
<trkpt lat="39.732786000" lon="-0.333113000">
  <ele>125.900000</ele>
  <time>2012-03-25T06:34:34Z</time>
  <sat>7</sat>
</trkpt>
<trkpt lat="39.732820000" lon="-0.333260000">
  <ele>127.300000</ele>
  <time>2012-03-25T06:34:39Z</time>
  <sat>9</sat>
</trkpt>
<trkpt lat="39.732793000" lon="-0.333320000">
  <ele>127.400000</ele>
  <time>2012-03-25T06:34:42Z</time>
  <sat>10</sat>
</trkpt>
<trkpt lat="39.732739000" lon="-0.333292000">
  <ele>127.100000</ele>
  <time>2012-03-25T06:34:45Z</time>
  <sat>10</sat>
</trkpt>
<trkpt lat="39.732692000" lon="-0.333183000">
  <ele>127.300000</ele>
  <time>2012-03-25T06:34:48Z</time>
  <sat>10</sat>
</trkpt>
<trkpt lat="39.732639000" lon="-0.333071000">
  <ele>127.300000</ele>
  <time>2012-03-25T06:34:51Z</time>
  <sat>10</sat>
</trkpt>
<trkpt lat="39.732592000" lon="-0.332944000">
  <ele>126.600000</ele>
  <time>2012-03-25T06:34:54Z</time>
  <sat>10</sat>
</trkpt>
<trkpt lat="39.732541000" lon="-0.332800000">
  <ele>126.300000</ele>
  <time>2012-03-25T06:34:57Z</time>
  <sat>10</sat>
</trkpt>
<trkpt lat="39.732500000" lon="-0.332705000">
  <ele>126.300000</ele>
  <time>2012-03-25T06:34:59Z</time>
  <sat>10</sat>
</trkpt>
<trkpt lat="39.732475000" lon="-0.332596000">
  <ele>126.000000</ele>
  <time>2012-03-25T06:35:01Z</time>
  <sat>8</sat>
</trkpt>
<trkpt lat="39.732448000" lon="-0.332408000">
  <ele>125.300000</ele>
  <time>2012-03-25T06:35:04Z</time>
  <sat>10</sat>
</trkpt>
<trkpt lat="39.732429000" lon="-0.332217000">
  <ele>124.100000</ele>
  <time>2012-03-25T06:35:07Z</time>
  <sat>10</sat>
</trkpt>
<trkpt lat="39.732418000" lon="-0.332014000">
  <ele>123.600000</ele>
  <time>2012-03-25T06:35:10Z</time>
  <sat>10</sat>
</trkpt>
<trkpt lat="39.732414000" lon="-0.331856000">
  <ele>123.000000</ele>
  <time>2012-03-25T06:35:13Z</time>
  <sat>10</sat>
</trkpt>
<trkpt lat="39.732416000" lon="-0.331684000">
  <ele>123.100000</ele>
  <time>2012-03-25T06:35:16Z</time>
  <sat>7</sat>
</trkpt>
<trkpt lat="39.732427000" lon="-0.331513000">
  <ele>122.600000</ele>
  <time>2012-03-25T06:35:19Z</time>
  <sat>7</sat>
</trkpt>
<trkpt lat="39.732442000" lon="-0.331347000">
  <ele>122.300000</ele>
  <time>2012-03-25T06:35:22Z</time>
  <sat>7</sat>
</trkpt>
<trkpt lat="39.732443000" lon="-0.331181000">
  <ele>122.600000</ele>
  <time>2012-03-25T06:35:25Z</time>
  <sat>7</sat>
</trkpt>
<trkpt lat="39.732452000" lon="-0.331021000">
  <ele>122.500000</ele>
  <time>2012-03-25T06:35:28Z</time>
  <sat>7</sat>
</trkpt>
<trkpt lat="39.732450000" lon="-0.330864000">
  <ele>122.500000</ele>
  <time>2012-03-25T06:35:31Z</time>
  <sat>7</sat>
</trkpt>
<trkpt lat="39.732457000" lon="-0.330709000">
  <ele>122.100000</ele>
  <time>2012-03-25T06:35:34Z</time>
  <sat>7</sat>
</trkpt>
<trkpt lat="39.732463000" lon="-0.330560000">
  <ele>122.400000</ele>
  <time>2012-03-25T06:35:37Z</time>
  <sat>8</sat>
</trkpt>
<trkpt lat="39.732465000" lon="-0.330510000">
  <ele>122.400000</ele>
  <time>2012-03-25T06:35:38Z</time>
  <sat>8</sat>
</trkpt>
<trkpt lat="39.732477000" lon="-0.330272000">
  <ele>122.500000</ele>
  <time>2012-03-25T06:35:43Z</time>
  <sat>7</sat>
</trkpt>
<trkpt lat="39.732483000" lon="-0.330129000">
  <ele>122.600000</ele>
  <time>2012-03-25T06:35:46Z</time>
  <sat>7</sat>
</trkpt>
<trkpt lat="39.732486000" lon="-0.329988000">
  <ele>122.900000</ele>
  <time>2012-03-25T06:35:49Z</time>
  <sat>7</sat>
</trkpt>
<trkpt lat="39.732491000" lon="-0.329840000">
  <ele>123.000000</ele>
  <time>2012-03-25T06:35:52Z</time>
  <sat>7</sat>
</trkpt>
<trkpt lat="39.732493000" lon="-0.329692000">
  <ele>123.300000</ele>
  <time>2012-03-25T06:35:55Z</time>
  <sat>8</sat>
</trkpt>
<trkpt lat="39.732499000" lon="-0.329545000">
  <ele>123.500000</ele>
  <time>2012-03-25T06:35:58Z</time>
  <sat>8</sat>
</trkpt>
<trkpt lat="39.732502000" lon="-0.329445000">
  <ele>123.600000</ele>
  <time>2012-03-25T06:36:00Z</time>
  <sat>8</sat>
</trkpt>
<trkpt lat="39.732510000" lon="-0.329297000">
  <ele>123.800000</ele>
  <time>2012-03-25T06:36:03Z</time>
  <sat>7</sat>
</trkpt>
<trkpt lat="39.732519000" lon="-0.329160000">
  <ele>124.000000</ele>
  <time>2012-03-25T06:36:06Z</time>
  <sat>7</sat>
</trkpt>
<trkpt lat="39.732528000" lon="-0.329021000">
  <ele>124.400000</ele>
  <time>2012-03-25T06:36:09Z</time>
  <sat>7</sat>
</trkpt>
<trkpt lat="39.732536000" lon="-0.328878000">
  <ele>124.900000</ele>
  <time>2012-03-25T06:36:12Z</time>
  <sat>7</sat>
</trkpt>
<trkpt lat="39.732549000" lon="-0.328751000">
  <ele>125.300000</ele>
  <time>2012-03-25T06:36:15Z</time>
  <sat>7</sat>
</trkpt>
<trkpt lat="39.732602000" lon="-0.328657000">
  <ele>125.300000</ele>
  <time>2012-03-25T06:36:18Z</time>
  <sat>10</sat>
</trkpt>
<trkpt lat="39.732691000" lon="-0.328602000">
  <ele>125.100000</ele>
  <time>2012-03-25T06:36:21Z</time>
  <sat>10</sat>
</trkpt>
<trkpt lat="39.732770000" lon="-0.328586000">
  <ele>127.300000</ele>
  <time>2012-03-25T06:36:24Z</time>
  <sat>10</sat>
</trkpt>
<trkpt lat="39.732837000" lon="-0.328552000">
  <ele>128.600000</ele>
  <time>2012-03-25T06:36:27Z</time>
  <sat>8</sat>
</trkpt>
<trkpt lat="39.732886000" lon="-0.328477000">
  <ele>129.500000</ele>
  <time>2012-03-25T06:36:30Z</time>
  <sat>9</sat>
</trkpt>
<trkpt lat="39.732952000" lon="-0.328438000">
  <ele>129.600000</ele>
  <time>2012-03-25T06:36:33Z</time>
  <sat>10</sat>
</trkpt>
<trkpt lat="39.733004000" lon="-0.328479000">
  <ele>129.100000</ele>
  <time>2012-03-25T06:36:36Z</time>
  <sat>10</sat>
</trkpt>
<trkpt lat="39.733027000" lon="-0.328569000">
  <ele>128.000000</ele>
  <time>2012-03-25T06:36:39Z</time>
  <sat>8</sat>
</trkpt>
<trkpt lat="39.733029000" lon="-0.328604000">
  <ele>128.100000</ele>
  <time>2012-03-25T06:36:40Z</time>
  <sat>8</sat>
</trkpt>
<trkpt lat="39.733043000" lon="-0.328733000">
  <ele>127.900000</ele>
  <time>2012-03-25T06:36:45Z</time>
  <sat>7</sat>
</trkpt>
<trkpt lat="39.733039000" lon="-0.328791000">
  <ele>127.800000</ele>
  <time>2012-03-25T06:36:48Z</time>
  <sat>7</sat>
</trkpt>
<trkpt lat="39.733026000" lon="-0.328844000">
  <ele>128.300000</ele>
  <time>2012-03-25T06:36:51Z</time>
  <sat>8</sat>
</trkpt>
<trkpt lat="39.733031000" lon="-0.328836000">
  <ele>128.600000</ele>
  <time>2012-03-25T06:36:54Z</time>
  <sat>8</sat>
</trkpt>
<trkpt lat="39.733042000" lon="-0.328821000">
  <ele>128.300000</ele>
  <time>2012-03-25T06:36:57Z</time>
  <sat>6</sat>
</trkpt>
<trkpt lat="39.733042000" lon="-0.328820000">
  <ele>128.300000</ele>
  <time>2012-03-25T06:36:59Z</time>
  <sat>7</sat>
</trkpt>
<trkpt lat="39.733041000" lon="-0.328821000">
  <ele>128.300000</ele>
  <time>2012-03-25T06:37:01Z</time>
  <sat>9</sat>
</trkpt>
<trkpt lat="39.733022000" lon="-0.328867000">
  <ele>128.800000</ele>
  <time>2012-03-25T06:37:04Z</time>
  <sat>9</sat>
</trkpt>
<trkpt lat="39.732985000" lon="-0.328952000">
  <ele>128.500000</ele>
  <time>2012-03-25T06:37:07Z</time>
  <sat>9</sat>
</trkpt>
<trkpt lat="39.732930000" lon="-0.329061000">
  <ele>127.900000</ele>
  <time>2012-03-25T06:37:10Z</time>
  <sat>9</sat>
</trkpt>
<trkpt lat="39.732836000" lon="-0.329198000">
  <ele>127.500000</ele>
  <time>2012-03-25T06:37:13Z</time>
  <sat>9</sat>
</trkpt>
<trkpt lat="39.732740000" lon="-0.329316000">
  <ele>127.100000</ele>
  <time>2012-03-25T06:37:16Z</time>
  <sat>9</sat>
</trkpt>
<trkpt lat="39.732682000" lon="-0.329457000">
  <ele>126.600000</ele>
  <time>2012-03-25T06:37:19Z</time>
  <sat>9</sat>
</trkpt>
<trkpt lat="39.732690000" lon="-0.329715000">
  <ele>124.100000</ele>
  <time>2012-03-25T06:37:22Z</time>
  <sat>9</sat>
</trkpt>
<trkpt lat="39.732671000" lon="-0.329905000">
  <ele>122.400000</ele>
  <time>2012-03-25T06:37:25Z</time>
  <sat>9</sat>
</trkpt>
<trkpt lat="39.732697000" lon="-0.330074000">
  <ele>120.400000</ele>
  <time>2012-03-25T06:37:28Z</time>
  <sat>9</sat>
</trkpt>
<trkpt lat="39.732826000" lon="-0.330140000">
  <ele>120.500000</ele>
  <time>2012-03-25T06:37:31Z</time>
  <sat>8</sat>
</trkpt>
<trkpt lat="39.732949000" lon="-0.330110000">
  <ele>119.500000</ele>
  <time>2012-03-25T06:37:34Z</time>
  <sat>8</sat>
</trkpt>
<trkpt lat="39.733070000" lon="-0.330065000">
  <ele>119.000000</ele>
  <time>2012-03-25T06:37:37Z</time>
  <sat>7</sat>
</trkpt>
<trkpt lat="39.733201000" lon="-0.330011000">
  <ele>119.000000</ele>
  <time>2012-03-25T06:37:40Z</time>
  <sat>7</sat>
</trkpt>
<trkpt lat="39.733324000" lon="-0.329958000">
  <ele>118.800000</ele>
  <time>2012-03-25T06:37:43Z</time>
  <sat>7</sat>
</trkpt>
<trkpt lat="39.733363000" lon="-0.329940000">
  <ele>119.000000</ele>
  <time>2012-03-25T06:37:44Z</time>
  <sat>7</sat>
</trkpt>
<trkpt lat="39.733560000" lon="-0.329858000">
  <ele>119.000000</ele>
  <time>2012-03-25T06:37:49Z</time>
  <sat>7</sat>
</trkpt>
<trkpt lat="39.733677000" lon="-0.329810000">
  <ele>119.000000</ele>
  <time>2012-03-25T06:37:52Z</time>
  <sat>7</sat>
</trkpt>
<trkpt lat="39.733794000" lon="-0.329785000">
  <ele>118.100000</ele>
  <time>2012-03-25T06:37:55Z</time>
  <sat>8</sat>
</trkpt>
<trkpt lat="39.733916000" lon="-0.329773000">
  <ele>118.400000</ele>
  <time>2012-03-25T06:37:58Z</time>
  <sat>8</sat>
</trkpt>
<trkpt lat="39.733999000" lon="-0.329766000">
  <ele>118.500000</ele>
  <time>2012-03-25T06:38:00Z</time>
  <sat>8</sat>
</trkpt>
<trkpt lat="39.734121000" lon="-0.329759000">
  <ele>118.800000</ele>
  <time>2012-03-25T06:38:03Z</time>
  <sat>7</sat>
</trkpt>
<trkpt lat="39.734234000" lon="-0.329744000">
  <ele>118.600000</ele>
  <time>2012-03-25T06:38:06Z</time>
  <sat>7</sat>
</trkpt>
<trkpt lat="39.734339000" lon="-0.329699000">
  <ele>118.300000</ele>
  <time>2012-03-25T06:38:09Z</time>
  <sat>8</sat>
</trkpt>
<trkpt lat="39.734442000" lon="-0.329648000">
  <ele>118.400000</ele>
  <time>2012-03-25T06:38:12Z</time>
  <sat>8</sat>
</trkpt>
<trkpt lat="39.734541000" lon="-0.329583000">
  <ele>119.400000</ele>
  <time>2012-03-25T06:38:15Z</time>
  <sat>8</sat>
</trkpt>
<trkpt lat="39.734633000" lon="-0.329525000">
  <ele>119.400000</ele>
  <time>2012-03-25T06:38:18Z</time>
  <sat>7</sat>
</trkpt>
<trkpt lat="39.734730000" lon="-0.329466000">
  <ele>119.800000</ele>
  <time>2012-03-25T06:38:21Z</time>
  <sat>7</sat>
</trkpt>
<trkpt lat="39.734836000" lon="-0.329441000">
  <ele>119.600000</ele>
  <time>2012-03-25T06:38:24Z</time>
  <sat>8</sat>
</trkpt>
<trkpt lat="39.734929000" lon="-0.329443000">
  <ele>119.600000</ele>
  <time>2012-03-25T06:38:27Z</time>
  <sat>9</sat>
</trkpt>
<trkpt lat="39.735040000" lon="-0.329464000">
  <ele>119.300000</ele>
  <time>2012-03-25T06:38:30Z</time>
  <sat>9</sat>
</trkpt>
<trkpt lat="39.735140000" lon="-0.329483000">
  <ele>119.400000</ele>
  <time>2012-03-25T06:38:33Z</time>
  <sat>9</sat>
</trkpt>
<trkpt lat="39.735245000" lon="-0.329491000">
  <ele>119.400000</ele>
  <time>2012-03-25T06:38:36Z</time>
  <sat>6</sat>
</trkpt>
<trkpt lat="39.735373000" lon="-0.329506000">
  <ele>119.000000</ele>
  <time>2012-03-25T06:38:39Z</time>
  <sat>5</sat>
</trkpt>
<trkpt lat="39.735484000" lon="-0.329529000">
  <ele>118.500000</ele>
  <time>2012-03-25T06:38:42Z</time>
  <sat>5</sat>
</trkpt>
<trkpt lat="39.735593000" lon="-0.329565000">
  <ele>118.300000</ele>
  <time>2012-03-25T06:38:45Z</time>
  <sat>7</sat>
</trkpt>
<trkpt lat="39.735627000" lon="-0.329579000">
  <ele>118.400000</ele>
  <time>2012-03-25T06:38:46Z</time>
  <sat>8</sat>
</trkpt>
<trkpt lat="39.735797000" lon="-0.329615000">
  <ele>118.600000</ele>
  <time>2012-03-25T06:38:51Z</time>
  <sat>8</sat>
</trkpt>
<trkpt lat="39.735901000" lon="-0.329634000">
  <ele>118.600000</ele>
  <time>2012-03-25T06:38:54Z</time>
  <sat>7</sat>
</trkpt>
<trkpt lat="39.736005000" lon="-0.329655000">
  <ele>119.000000</ele>
  <time>2012-03-25T06:38:57Z</time>
  <sat>7</sat>
</trkpt>
<trkpt lat="39.736090000" lon="-0.329674000">
  <ele>118.300000</ele>
  <time>2012-03-25T06:38:59Z</time>
  <sat>7</sat>
</trkpt>
<trkpt lat="39.736178000" lon="-0.329714000">
  <ele>117.900000</ele>
  <time>2012-03-25T06:39:01Z</time>
  <sat>7</sat>
</trkpt>
<trkpt lat="39.736304000" lon="-0.329756000">
  <ele>117.400000</ele>
  <time>2012-03-25T06:39:04Z</time>
  <sat>7</sat>
</trkpt>
<trkpt lat="39.736425000" lon="-0.329803000">
  <ele>118.000000</ele>
  <time>2012-03-25T06:39:07Z</time>
  <sat>8</sat>
</trkpt>
<trkpt lat="39.736544000" lon="-0.329832000">
  <ele>118.500000</ele>
  <time>2012-03-25T06:39:10Z</time>
  <sat>8</sat>
</trkpt>
<trkpt lat="39.736651000" lon="-0.329855000">
  <ele>119.000000</ele>
  <time>2012-03-25T06:39:13Z</time>
  <sat>8</sat>
</trkpt>
<trkpt lat="39.736724000" lon="-0.329857000">
  <ele>119.500000</ele>
  <time>2012-03-25T06:39:16Z</time>
  <sat>8</sat>
</trkpt>
<trkpt lat="39.736758000" lon="-0.329873000">
  <ele>119.900000</ele>
  <time>2012-03-25T06:39:19Z</time>
  <sat>9</sat>
</trkpt>
<trkpt lat="39.736753000" lon="-0.329876000">
  <ele>120.400000</ele>
  <time>2012-03-25T06:39:22Z</time>
  <sat>9</sat>
</trkpt>
<trkpt lat="39.736749000" lon="-0.329877000">
  <ele>120.400000</ele>
  <time>2012-03-25T06:39:25Z</time>
  <sat>8</sat>
</trkpt>
<trkpt lat="39.736757000" lon="-0.329877000">
  <ele>120.400000</ele>
  <time>2012-03-25T06:39:28Z</time>
  <sat>10</sat>
</trkpt>
<trkpt lat="39.736797000" lon="-0.329883000">
  <ele>120.000000</ele>
  <time>2012-03-25T06:39:31Z</time>
  <sat>10</sat>
</trkpt>
<trkpt lat="39.736867000" lon="-0.329891000">
  <ele>119.800000</ele>
  <time>2012-03-25T06:39:34Z</time>
  <sat>9</sat>
</trkpt>
<trkpt lat="39.736962000" lon="-0.329891000">
  <ele>121.000000</ele>
  <time>2012-03-25T06:39:37Z</time>
  <sat>7</sat>
</trkpt>
<trkpt lat="39.737050000" lon="-0.329906000">
  <ele>121.500000</ele>
  <time>2012-03-25T06:39:40Z</time>
  <sat>6</sat>
</trkpt>
<trkpt lat="39.737153000" lon="-0.329929000">
  <ele>121.300000</ele>
  <time>2012-03-25T06:39:43Z</time>
  <sat>6</sat>
</trkpt>
<trkpt lat="39.737275000" lon="-0.329921000">
  <ele>121.500000</ele>
  <time>2012-03-25T06:39:46Z</time>
  <sat>6</sat>
</trkpt>
<trkpt lat="39.737364000" lon="-0.329935000">
  <ele>122.000000</ele>
  <time>2012-03-25T06:39:49Z</time>
  <sat>10</sat>
</trkpt>
<trkpt lat="39.737396000" lon="-0.329947000">
  <ele>122.000000</ele>
  <time>2012-03-25T06:39:50Z</time>
  <sat>10</sat>
</trkpt>
<trkpt lat="39.737559000" lon="-0.330021000">
  <ele>122.400000</ele>
  <time>2012-03-25T06:39:55Z</time>
  <sat>8</sat>
</trkpt>
<trkpt lat="39.737652000" lon="-0.330067000">
  <ele>123.000000</ele>
  <time>2012-03-25T06:39:58Z</time>
  <sat>9</sat>
</trkpt>
<trkpt lat="39.737712000" lon="-0.330085000">
  <ele>123.400000</ele>
  <time>2012-03-25T06:40:00Z</time>
  <sat>8</sat>
</trkpt>
<trkpt lat="39.737824000" lon="-0.330041000">
  <ele>124.400000</ele>
  <time>2012-03-25T06:40:03Z</time>
  <sat>8</sat>
</trkpt>
<trkpt lat="39.737941000" lon="-0.330028000">
  <ele>123.800000</ele>
  <time>2012-03-25T06:40:06Z</time>
  <sat>10</sat>
</trkpt>
<trkpt lat="39.738050000" lon="-0.329978000">
  <ele>125.000000</ele>
  <time>2012-03-25T06:40:09Z</time>
  <sat>10</sat>
</trkpt>
<trkpt lat="39.738162000" lon="-0.329943000">
  <ele>124.400000</ele>
  <time>2012-03-25T06:40:12Z</time>
  <sat>10</sat>
</trkpt>
<trkpt lat="39.738285000" lon="-0.329924000">
  <ele>124.500000</ele>
  <time>2012-03-25T06:40:15Z</time>
  <sat>7</sat>
</trkpt>
<trkpt lat="39.738388000" lon="-0.329922000">
  <ele>123.400000</ele>
  <time>2012-03-25T06:40:18Z</time>
  <sat>10</sat>
</trkpt>
<trkpt lat="39.738507000" lon="-0.329919000">
  <ele>122.400000</ele>
  <time>2012-03-25T06:40:21Z</time>
  <sat>10</sat>
</trkpt>
<trkpt lat="39.738630000" lon="-0.329961000">
  <ele>122.500000</ele>
  <time>2012-03-25T06:40:24Z</time>
  <sat>10</sat>
</trkpt>
<trkpt lat="39.738742000" lon="-0.329999000">
  <ele>122.900000</ele>
  <time>2012-03-25T06:40:27Z</time>
  <sat>8</sat>
</trkpt>
<trkpt lat="39.738841000" lon="-0.330022000">
  <ele>123.600000</ele>
  <time>2012-03-25T06:40:30Z</time>
  <sat>8</sat>
</trkpt>
<trkpt lat="39.738946000" lon="-0.330023000">
  <ele>124.100000</ele>
  <time>2012-03-25T06:40:33Z</time>
  <sat>6</sat>
</trkpt>
<trkpt lat="39.739045000" lon="-0.329997000">
  <ele>126.000000</ele>
  <time>2012-03-25T06:40:36Z</time>
  <sat>6</sat>
</trkpt>
<trkpt lat="39.739133000" lon="-0.329979000">
  <ele>127.000000</ele>
  <time>2012-03-25T06:40:39Z</time>
  <sat>8</sat>
</trkpt>
<trkpt lat="39.739225000" lon="-0.329957000">
  <ele>127.500000</ele>
  <time>2012-03-25T06:40:42Z</time>
  <sat>9</sat>
</trkpt>
<trkpt lat="39.739328000" lon="-0.329941000">
  <ele>127.900000</ele>
  <time>2012-03-25T06:40:45Z</time>
  <sat>9</sat>
</trkpt>
<trkpt lat="39.739437000" lon="-0.329934000">
  <ele>128.500000</ele>
  <time>2012-03-25T06:40:48Z</time>
  <sat>8</sat>
</trkpt>
<trkpt lat="39.739543000" lon="-0.329944000">
  <ele>129.100000</ele>
  <time>2012-03-25T06:40:51Z</time>
  <sat>8</sat>
</trkpt>
<trkpt lat="39.739573000" lon="-0.329954000">
  <ele>128.600000</ele>
  <time>2012-03-25T06:40:52Z</time>
  <sat>8</sat>
</trkpt>
<trkpt lat="39.739773000" lon="-0.330047000">
  <ele>127.300000</ele>
  <time>2012-03-25T06:40:57Z</time>
  <sat>9</sat>
</trkpt>
<trkpt lat="39.739862000" lon="-0.330087000">
  <ele>126.000000</ele>
  <time>2012-03-25T06:40:59Z</time>
  <sat>7</sat>
</trkpt>
<trkpt lat="39.739952000" lon="-0.330127000">
  <ele>125.900000</ele>
  <time>2012-03-25T06:41:01Z</time>
  <sat>7</sat>
</trkpt>
<trkpt lat="39.740063000" lon="-0.330208000">
  <ele>125.800000</ele>
  <time>2012-03-25T06:41:04Z</time>
  <sat>8</sat>
</trkpt>
<trkpt lat="39.740134000" lon="-0.330355000">
  <ele>125.400000</ele>
  <time>2012-03-25T06:41:07Z</time>
  <sat>8</sat>
</trkpt>
<trkpt lat="39.740082000" lon="-0.330520000">
  <ele>124.600000</ele>
  <time>2012-03-25T06:41:10Z</time>
  <sat>10</sat>
</trkpt>
<trkpt lat="39.740097000" lon="-0.330669000">
  <ele>126.400000</ele>
  <time>2012-03-25T06:41:13Z</time>
  <sat>10</sat>
</trkpt>
<trkpt lat="39.740169000" lon="-0.330711000">
  <ele>126.000000</ele>
  <time>2012-03-25T06:41:16Z</time>
  <sat>9</sat>
</trkpt>
<trkpt lat="39.740305000" lon="-0.330682000">
  <ele>126.300000</ele>
  <time>2012-03-25T06:41:19Z</time>
  <sat>9</sat>
</trkpt>
<trkpt lat="39.740422000" lon="-0.330677000">
  <ele>126.300000</ele>
  <time>2012-03-25T06:41:22Z</time>
  <sat>7</sat>
</trkpt>
<trkpt lat="39.740544000" lon="-0.330683000">
  <ele>126.800000</ele>
  <time>2012-03-25T06:41:25Z</time>
  <sat>6</sat>
</trkpt>
<trkpt lat="39.740658000" lon="-0.330684000">
  <ele>127.000000</ele>
  <time>2012-03-25T06:41:28Z</time>
  <sat>6</sat>
</trkpt>
<trkpt lat="39.740778000" lon="-0.330678000">
  <ele>127.500000</ele>
  <time>2012-03-25T06:41:31Z</time>
  <sat>6</sat>
</trkpt>
<trkpt lat="39.740886000" lon="-0.330682000">
  <ele>127.800000</ele>
  <time>2012-03-25T06:41:34Z</time>
  <sat>6</sat>
</trkpt>
<trkpt lat="39.741000000" lon="-0.330682000">
  <ele>128.600000</ele>
  <time>2012-03-25T06:41:37Z</time>
  <sat>8</sat>
</trkpt>
<trkpt lat="39.741095000" lon="-0.330667000">
  <ele>128.600000</ele>
  <time>2012-03-25T06:41:40Z</time>
  <sat>7</sat>
</trkpt>
<trkpt lat="39.741205000" lon="-0.330665000">
  <ele>129.000000</ele>
  <time>2012-03-25T06:41:43Z</time>
  <sat>8</sat>
</trkpt>
<trkpt lat="39.741327000" lon="-0.330685000">
  <ele>129.600000</ele>
  <time>2012-03-25T06:41:46Z</time>
  <sat>7</sat>
</trkpt>
<trkpt lat="39.741436000" lon="-0.330682000">
  <ele>129.800000</ele>
  <time>2012-03-25T06:41:49Z</time>
  <sat>8</sat>
</trkpt>
<trkpt lat="39.741543000" lon="-0.330695000">
  <ele>130.100000</ele>
  <time>2012-03-25T06:41:52Z</time>
  <sat>9</sat>
</trkpt>
<trkpt lat="39.741616000" lon="-0.330718000">
  <ele>130.600000</ele>
  <time>2012-03-25T06:41:55Z</time>
  <sat>9</sat>
</trkpt>
<trkpt lat="39.741635000" lon="-0.330722000">
  <ele>130.600000</ele>
  <time>2012-03-25T06:41:56Z</time>
  <sat>8</sat>
</trkpt>
<trkpt lat="39.741716000" lon="-0.330745000">
  <ele>131.100000</ele>
  <time>2012-03-25T06:42:00Z</time>
  <sat>6</sat>
</trkpt>
<trkpt lat="39.741794000" lon="-0.330772000">
  <ele>131.600000</ele>
  <time>2012-03-25T06:42:03Z</time>
  <sat>6</sat>
</trkpt>
<trkpt lat="39.741867000" lon="-0.330800000">
  <ele>132.500000</ele>
  <time>2012-03-25T06:42:06Z</time>
  <sat>6</sat>
</trkpt>
<trkpt lat="39.741942000" lon="-0.330815000">
  <ele>133.000000</ele>
  <time>2012-03-25T06:42:09Z</time>
  <sat>6</sat>
</trkpt>
<trkpt lat="39.742022000" lon="-0.330822000">
  <ele>133.100000</ele>
  <time>2012-03-25T06:42:12Z</time>
  <sat>6</sat>
</trkpt>
<trkpt lat="39.742099000" lon="-0.330836000">
  <ele>133.600000</ele>
  <time>2012-03-25T06:42:15Z</time>
  <sat>5</sat>
</trkpt>
<trkpt lat="39.742186000" lon="-0.330863000">
  <ele>134.100000</ele>
  <time>2012-03-25T06:42:18Z</time>
  <sat>6</sat>
</trkpt>
<trkpt lat="39.742249000" lon="-0.330928000">
  <ele>134.300000</ele>
  <time>2012-03-25T06:42:21Z</time>
  <sat>9</sat>
</trkpt>
<trkpt lat="39.742316000" lon="-0.331001000">
  <ele>136.000000</ele>
  <time>2012-03-25T06:42:24Z</time>
  <sat>9</sat>
</trkpt>
<trkpt lat="39.742378000" lon="-0.331087000">
  <ele>136.300000</ele>
  <time>2012-03-25T06:42:27Z</time>
  <sat>9</sat>
</trkpt>
<trkpt lat="39.742445000" lon="-0.331166000">
  <ele>136.300000</ele>
  <time>2012-03-25T06:42:30Z</time>
  <sat>9</sat>
</trkpt>
<trkpt lat="39.742520000" lon="-0.331218000">
  <ele>137.000000</ele>
  <time>2012-03-25T06:42:33Z</time>
  <sat>9</sat>
</trkpt>
<trkpt lat="39.742601000" lon="-0.331254000">
  <ele>137.300000</ele>
  <time>2012-03-25T06:42:36Z</time>
  <sat>6</sat>
</trkpt>
<trkpt lat="39.742686000" lon="-0.331276000">
  <ele>137.600000</ele>
  <time>2012-03-25T06:42:39Z</time>
  <sat>7</sat>
</trkpt>
<trkpt lat="39.742774000" lon="-0.331285000">
  <ele>138.100000</ele>
  <time>2012-03-25T06:42:42Z</time>
  <sat>7</sat>
</trkpt>
<trkpt lat="39.742863000" lon="-0.331303000">
  <ele>138.100000</ele>
  <time>2012-03-25T06:42:45Z</time>
  <sat>8</sat>
</trkpt>
<trkpt lat="39.742940000" lon="-0.331321000">
  <ele>139.300000</ele>
  <time>2012-03-25T06:42:48Z</time>
  <sat>8</sat>
</trkpt>
<trkpt lat="39.743027000" lon="-0.331341000">
  <ele>139.600000</ele>
  <time>2012-03-25T06:42:51Z</time>
  <sat>8</sat>
</trkpt>
<trkpt lat="39.743110000" lon="-0.331358000">
  <ele>140.300000</ele>
  <time>2012-03-25T06:42:54Z</time>
  <sat>8</sat>
</trkpt>
<trkpt lat="39.743190000" lon="-0.331361000">
  <ele>140.600000</ele>
  <time>2012-03-25T06:42:57Z</time>
  <sat>7</sat>
</trkpt>
<trkpt lat="39.743225000" lon="-0.331372000">
  <ele>140.600000</ele>
  <time>2012-03-25T06:42:58Z</time>
  <sat>6</sat>
</trkpt>
<trkpt lat="39.743307000" lon="-0.331397000">
  <ele>141.500000</ele>
  <time>2012-03-25T06:43:01Z</time>
  <sat>7</sat>
</trkpt>
<trkpt lat="39.743383000" lon="-0.331437000">
  <ele>142.600000</ele>
  <time>2012-03-25T06:43:04Z</time>
  <sat>7</sat>
</trkpt>
<trkpt lat="39.743479000" lon="-0.331483000">
  <ele>142.300000</ele>
  <time>2012-03-25T06:43:07Z</time>
  <sat>8</sat>
</trkpt>
<trkpt lat="39.743581000" lon="-0.331528000">
  <ele>142.300000</ele>
  <time>2012-03-25T06:43:10Z</time>
  <sat>7</sat>
</trkpt>
<trkpt lat="39.743685000" lon="-0.331590000">
  <ele>142.300000</ele>
  <time>2012-03-25T06:43:13Z</time>
  <sat>6</sat>
</trkpt>
<trkpt lat="39.743790000" lon="-0.331651000">
  <ele>142.100000</ele>
  <time>2012-03-25T06:43:16Z</time>
  <sat>6</sat>
</trkpt>
<trkpt lat="39.743899000" lon="-0.331713000">
  <ele>141.800000</ele>
  <time>2012-03-25T06:43:19Z</time>
  <sat>6</sat>
</trkpt>
<trkpt lat="39.744011000" lon="-0.331779000">
  <ele>141.600000</ele>
  <time>2012-03-25T06:43:22Z</time>
  <sat>6</sat>
</trkpt>
<trkpt lat="39.744124000" lon="-0.331850000">
  <ele>141.600000</ele>
  <time>2012-03-25T06:43:25Z</time>
  <sat>6</sat>
</trkpt>
<trkpt lat="39.744236000" lon="-0.331917000">
  <ele>141.600000</ele>
  <time>2012-03-25T06:43:28Z</time>
  <sat>6</sat>
</trkpt>
<trkpt lat="39.744350000" lon="-0.331978000">
  <ele>141.500000</ele>
  <time>2012-03-25T06:43:31Z</time>
  <sat>6</sat>
</trkpt>
<trkpt lat="39.744466000" lon="-0.332009000">
  <ele>141.600000</ele>
  <time>2012-03-25T06:43:34Z</time>
  <sat>6</sat>
</trkpt>
<trkpt lat="39.744589000" lon="-0.332012000">
  <ele>141.300000</ele>
  <time>2012-03-25T06:43:37Z</time>
  <sat>7</sat>
</trkpt>
<trkpt lat="39.744714000" lon="-0.331988000">
  <ele>141.600000</ele>
  <time>2012-03-25T06:43:40Z</time>
  <sat>8</sat>
</trkpt>
<trkpt lat="39.744840000" lon="-0.331950000">
  <ele>141.500000</ele>
  <time>2012-03-25T06:43:43Z</time>
  <sat>7</sat>
</trkpt>
<trkpt lat="39.744962000" lon="-0.331899000">
  <ele>142.000000</ele>
  <time>2012-03-25T06:43:46Z</time>
  <sat>8</sat>
</trkpt>
<trkpt lat="39.745081000" lon="-0.331832000">
  <ele>142.100000</ele>
  <time>2012-03-25T06:43:49Z</time>
  <sat>7</sat>
</trkpt>
<trkpt lat="39.745195000" lon="-0.331762000">
  <ele>142.300000</ele>
  <time>2012-03-25T06:43:52Z</time>
  <sat>7</sat>
</trkpt>
<trkpt lat="39.745321000" lon="-0.331716000">
  <ele>142.300000</ele>
  <time>2012-03-25T06:43:55Z</time>
  <sat>8</sat>
</trkpt>
<trkpt lat="39.745449000" lon="-0.331702000">
  <ele>142.100000</ele>
  <time>2012-03-25T06:43:58Z</time>
  <sat>8</sat>
</trkpt>
<trkpt lat="39.745538000" lon="-0.331701000">
  <ele>141.600000</ele>
  <time>2012-03-25T06:44:00Z</time>
  <sat>8</sat>
</trkpt>
<trkpt lat="39.745585000" lon="-0.331704000">
  <ele>141.800000</ele>
  <time>2012-03-25T06:44:01Z</time>
  <sat>8</sat>
</trkpt>
<trkpt lat="39.745805000" lon="-0.331740000">
  <ele>141.300000</ele>
  <time>2012-03-25T06:44:06Z</time>
  <sat>8</sat>
</trkpt>
<trkpt lat="39.745932000" lon="-0.331779000">
  <ele>141.300000</ele>
  <time>2012-03-25T06:44:09Z</time>
  <sat>7</sat>
</trkpt>
<trkpt lat="39.746063000" lon="-0.331819000">
  <ele>141.500000</ele>
  <time>2012-03-25T06:44:12Z</time>
  <sat>6</sat>
</trkpt>
<trkpt lat="39.746191000" lon="-0.331854000">
  <ele>141.500000</ele>
  <time>2012-03-25T06:44:15Z</time>
  <sat>7</sat>
</trkpt>
<trkpt lat="39.746319000" lon="-0.331896000">
  <ele>141.100000</ele>
  <time>2012-03-25T06:44:18Z</time>
  <sat>7</sat>
</trkpt>
<trkpt lat="39.746448000" lon="-0.331928000">
  <ele>141.300000</ele>
  <time>2012-03-25T06:44:21Z</time>
  <sat>6</sat>
</trkpt>
<trkpt lat="39.746578000" lon="-0.331957000">
  <ele>141.100000</ele>
  <time>2012-03-25T06:44:24Z</time>
  <sat>7</sat>
</trkpt>
<trkpt lat="39.746707000" lon="-0.332011000">
  <ele>140.300000</ele>
  <time>2012-03-25T06:44:27Z</time>
  <sat>8</sat>
</trkpt>
<trkpt lat="39.746820000" lon="-0.332080000">
  <ele>140.600000</ele>
  <time>2012-03-25T06:44:30Z</time>
  <sat>9</sat>
</trkpt>
<trkpt lat="39.746922000" lon="-0.332134000">
  <ele>140.800000</ele>
  <time>2012-03-25T06:44:33Z</time>
  <sat>8</sat>
</trkpt>
<trkpt lat="39.747028000" lon="-0.332171000">
  <ele>140.800000</ele>
  <time>2012-03-25T06:44:36Z</time>
  <sat>5</sat>
</trkpt>
<trkpt lat="39.747139000" lon="-0.332197000">
  <ele>141.000000</ele>
  <time>2012-03-25T06:44:39Z</time>
  <sat>5</sat>
</trkpt>
<trkpt lat="39.747249000" lon="-0.332232000">
  <ele>141.800000</ele>
  <time>2012-03-25T06:44:42Z</time>
  <sat>7</sat>
</trkpt>
<trkpt lat="39.747363000" lon="-0.332273000">
  <ele>142.100000</ele>
  <time>2012-03-25T06:44:45Z</time>
  <sat>8</sat>
</trkpt>
<trkpt lat="39.747483000" lon="-0.332314000">
  <ele>142.300000</ele>
  <time>2012-03-25T06:44:48Z</time>
  <sat>8</sat>
</trkpt>
<trkpt lat="39.747586000" lon="-0.332401000">
  <ele>142.300000</ele>
  <time>2012-03-25T06:44:51Z</time>
  <sat>8</sat>
</trkpt>
<trkpt lat="39.747639000" lon="-0.332542000">
  <ele>142.100000</ele>
  <time>2012-03-25T06:44:54Z</time>
  <sat>8</sat>
</trkpt>
<trkpt lat="39.747673000" lon="-0.332686000">
  <ele>141.600000</ele>
  <time>2012-03-25T06:44:57Z</time>
  <sat>7</sat>
</trkpt>
<trkpt lat="39.747697000" lon="-0.332770000">
  <ele>141.800000</ele>
  <time>2012-03-25T06:44:59Z</time>
  <sat>7</sat>
</trkpt>
<trkpt lat="39.747724000" lon="-0.332847000">
  <ele>142.300000</ele>
  <time>2012-03-25T06:45:01Z</time>
  <sat>9</sat>
</trkpt>
<trkpt lat="39.747800000" lon="-0.332856000">
  <ele>141.000000</ele>
  <time>2012-03-25T06:45:04Z</time>
  <sat>9</sat>
</trkpt>
<trkpt lat="39.747835000" lon="-0.332807000">
  <ele>141.800000</ele>
  <time>2012-03-25T06:45:05Z</time>
  <sat>9</sat>
</trkpt>
<trkpt lat="39.747998000" lon="-0.332718000">
  <ele>142.300000</ele>
  <time>2012-03-25T06:45:10Z</time>
  <sat>7</sat>
</trkpt>
<trkpt lat="39.748101000" lon="-0.332651000">
  <ele>142.800000</ele>
  <time>2012-03-25T06:45:13Z</time>
  <sat>7</sat>
</trkpt>
<trkpt lat="39.748210000" lon="-0.332600000">
  <ele>143.100000</ele>
  <time>2012-03-25T06:45:16Z</time>
  <sat>7</sat>
</trkpt>
<trkpt lat="39.748315000" lon="-0.332543000">
  <ele>143.600000</ele>
  <time>2012-03-25T06:45:19Z</time>
  <sat>7</sat>
</trkpt>
<trkpt lat="39.748427000" lon="-0.332468000">
  <ele>144.000000</ele>
  <time>2012-03-25T06:45:22Z</time>
  <sat>7</sat>
</trkpt>
<trkpt lat="39.748550000" lon="-0.332407000">
  <ele>144.600000</ele>
  <time>2012-03-25T06:45:25Z</time>
  <sat>7</sat>
</trkpt>
<trkpt lat="39.748676000" lon="-0.332344000">
  <ele>145.500000</ele>
  <time>2012-03-25T06:45:28Z</time>
  <sat>6</sat>
</trkpt>
<trkpt lat="39.748787000" lon="-0.332272000">
  <ele>146.100000</ele>
  <time>2012-03-25T06:45:31Z</time>
  <sat>7</sat>
</trkpt>
<trkpt lat="39.748884000" lon="-0.332187000">
  <ele>146.300000</ele>
  <time>2012-03-25T06:45:34Z</time>
  <sat>9</sat>
</trkpt>
<trkpt lat="39.748992000" lon="-0.332118000">
  <ele>147.000000</ele>
  <time>2012-03-25T06:45:37Z</time>
  <sat>9</sat>
</trkpt>
<trkpt lat="39.749077000" lon="-0.332031000">
  <ele>146.100000</ele>
  <time>2012-03-25T06:45:40Z</time>
  <sat>9</sat>
</trkpt>
<trkpt lat="39.749104000" lon="-0.331924000">
  <ele>146.100000</ele>
  <time>2012-03-25T06:45:43Z</time>
  <sat>9</sat>
</trkpt>
<trkpt lat="39.749043000" lon="-0.331758000">
  <ele>147.500000</ele>
  <time>2012-03-25T06:45:46Z</time>
  <sat>9</sat>
</trkpt>
<trkpt lat="39.749069000" lon="-0.331684000">
  <ele>147.300000</ele>
  <time>2012-03-25T06:45:49Z</time>
  <sat>9</sat>
</trkpt>
<trkpt lat="39.749174000" lon="-0.331722000">
  <ele>148.100000</ele>
  <time>2012-03-25T06:45:52Z</time>
  <sat>9</sat>
</trkpt>
<trkpt lat="39.749272000" lon="-0.331782000">
  <ele>148.800000</ele>
  <time>2012-03-25T06:45:55Z</time>
  <sat>9</sat>
</trkpt>
<trkpt lat="39.749379000" lon="-0.331825000">
  <ele>148.800000</ele>
  <time>2012-03-25T06:45:58Z</time>
  <sat>9</sat>
</trkpt>
<trkpt lat="39.749459000" lon="-0.331810000">
  <ele>149.600000</ele>
  <time>2012-03-25T06:46:00Z</time>
  <sat>8</sat>
</trkpt>
<trkpt lat="39.749551000" lon="-0.331788000">
  <ele>149.800000</ele>
  <time>2012-03-25T06:46:03Z</time>
  <sat>7</sat>
</trkpt>
<trkpt lat="39.749634000" lon="-0.331840000">
  <ele>150.100000</ele>
  <time>2012-03-25T06:46:06Z</time>
  <sat>9</sat>
</trkpt>
<trkpt lat="39.749660000" lon="-0.331870000">
  <ele>149.600000</ele>
  <time>2012-03-25T06:46:07Z</time>
  <sat>9</sat>
</trkpt>
<trkpt lat="39.749799000" lon="-0.332005000">
  <ele>150.800000</ele>
  <time>2012-03-25T06:46:12Z</time>
  <sat>9</sat>
</trkpt>
<trkpt lat="39.749860000" lon="-0.332085000">
  <ele>152.500000</ele>
  <time>2012-03-25T06:46:15Z</time>
  <sat>9</sat>
</trkpt>
<trkpt lat="39.749884000" lon="-0.332201000">
  <ele>153.100000</ele>
  <time>2012-03-25T06:46:18Z</time>
  <sat>9</sat>
</trkpt>
<trkpt lat="39.749938000" lon="-0.332287000">
  <ele>153.800000</ele>
  <time>2012-03-25T06:46:21Z</time>
  <sat>9</sat>
</trkpt>
<trkpt lat="39.749991000" lon="-0.332336000">
  <ele>153.600000</ele>
  <time>2012-03-25T06:46:24Z</time>
  <sat>9</sat>
</trkpt>
<trkpt lat="39.750048000" lon="-0.332364000">
  <ele>153.100000</ele>
  <time>2012-03-25T06:46:27Z</time>
  <sat>9</sat>
</trkpt>
<trkpt lat="39.750121000" lon="-0.332382000">
  <ele>153.600000</ele>
  <time>2012-03-25T06:46:30Z</time>
  <sat>9</sat>
</trkpt>
<trkpt lat="39.750215000" lon="-0.332381000">
  <ele>152.600000</ele>
  <time>2012-03-25T06:46:33Z</time>
  <sat>7</sat>
</trkpt>
<trkpt lat="39.750306000" lon="-0.332396000">
  <ele>152.600000</ele>
  <time>2012-03-25T06:46:36Z</time>
  <sat>7</sat>
</trkpt>
<trkpt lat="39.750415000" lon="-0.332447000">
  <ele>154.500000</ele>
  <time>2012-03-25T06:46:39Z</time>
  <sat>7</sat>
</trkpt>
<trkpt lat="39.750501000" lon="-0.332494000">
  <ele>156.000000</ele>
  <time>2012-03-25T06:46:42Z</time>
  <sat>6</sat>
</trkpt>
<trkpt lat="39.750577000" lon="-0.332533000">
  <ele>156.600000</ele>
  <time>2012-03-25T06:46:45Z</time>
  <sat>6</sat>
</trkpt>
<trkpt lat="39.750653000" lon="-0.332558000">
  <ele>156.800000</ele>
  <time>2012-03-25T06:46:48Z</time>
  <sat>8</sat>
</trkpt>
<trkpt lat="39.750739000" lon="-0.332583000">
  <ele>157.100000</ele>
  <time>2012-03-25T06:46:51Z</time>
  <sat>8</sat>
</trkpt>
<trkpt lat="39.750840000" lon="-0.332543000">
  <ele>157.300000</ele>
  <time>2012-03-25T06:46:54Z</time>
  <sat>8</sat>
</trkpt>
<trkpt lat="39.750942000" lon="-0.332505000">
  <ele>157.600000</ele>
  <time>2012-03-25T06:46:57Z</time>
  <sat>8</sat>
</trkpt>
<trkpt lat="39.751010000" lon="-0.332496000">
  <ele>157.600000</ele>
  <time>2012-03-25T06:46:59Z</time>
  <sat>8</sat>
</trkpt>
<trkpt lat="39.751085000" lon="-0.332485000">
  <ele>158.000000</ele>
  <time>2012-03-25T06:47:01Z</time>
  <sat>8</sat>
</trkpt>
<trkpt lat="39.751184000" lon="-0.332421000">
  <ele>158.600000</ele>
  <time>2012-03-25T06:47:04Z</time>
  <sat>9</sat>
</trkpt>
<trkpt lat="39.751278000" lon="-0.332340000">
  <ele>158.600000</ele>
  <time>2012-03-25T06:47:07Z</time>
  <sat>8</sat>
</trkpt>
<trkpt lat="39.751370000" lon="-0.332262000">
  <ele>158.600000</ele>
  <time>2012-03-25T06:47:10Z</time>
  <sat>7</sat>
</trkpt>
<trkpt lat="39.751402000" lon="-0.332237000">
  <ele>158.600000</ele>
  <time>2012-03-25T06:47:11Z</time>
  <sat>7</sat>
</trkpt>
<trkpt lat="39.751569000" lon="-0.332159000">
  <ele>158.500000</ele>
  <time>2012-03-25T06:47:16Z</time>
  <sat>9</sat>
</trkpt>
<trkpt lat="39.751670000" lon="-0.332116000">
  <ele>158.800000</ele>
  <time>2012-03-25T06:47:19Z</time>
  <sat>9</sat>
</trkpt>
<trkpt lat="39.751759000" lon="-0.332075000">
  <ele>158.800000</ele>
  <time>2012-03-25T06:47:22Z</time>
  <sat>8</sat>
</trkpt>
<trkpt lat="39.751860000" lon="-0.332021000">
  <ele>159.600000</ele>
  <time>2012-03-25T06:47:25Z</time>
  <sat>6</sat>
</trkpt>
<trkpt lat="39.751957000" lon="-0.331963000">
  <ele>160.600000</ele>
  <time>2012-03-25T06:47:28Z</time>
  <sat>6</sat>
</trkpt>
<trkpt lat="39.752050000" lon="-0.331901000">
  <ele>162.100000</ele>
  <time>2012-03-25T06:47:31Z</time>
  <sat>6</sat>
</trkpt>
<trkpt lat="39.752136000" lon="-0.331841000">
  <ele>163.800000</ele>
  <time>2012-03-25T06:47:34Z</time>
  <sat>5</sat>
</trkpt>
<trkpt lat="39.752225000" lon="-0.331794000">
  <ele>165.600000</ele>
  <time>2012-03-25T06:47:37Z</time>
  <sat>6</sat>
</trkpt>
<trkpt lat="39.752310000" lon="-0.331748000">
  <ele>166.000000</ele>
  <time>2012-03-25T06:47:40Z</time>
  <sat>6</sat>
</trkpt>
<trkpt lat="39.752394000" lon="-0.331688000">
  <ele>166.000000</ele>
  <time>2012-03-25T06:47:43Z</time>
  <sat>7</sat>
</trkpt>
<trkpt lat="39.752471000" lon="-0.331642000">
  <ele>165.300000</ele>
  <time>2012-03-25T06:47:46Z</time>
  <sat>7</sat>
</trkpt>
<trkpt lat="39.752544000" lon="-0.331596000">
  <ele>165.300000</ele>
  <time>2012-03-25T06:47:49Z</time>
  <sat>8</sat>
</trkpt>
<trkpt lat="39.752607000" lon="-0.331583000">
  <ele>165.800000</ele>
  <time>2012-03-25T06:47:52Z</time>
  <sat>8</sat>
</trkpt>
<trkpt lat="39.752681000" lon="-0.331630000">
  <ele>165.100000</ele>
  <time>2012-03-25T06:47:55Z</time>
  <sat>6</sat>
</trkpt>
<trkpt lat="39.752756000" lon="-0.331725000">
  <ele>164.300000</ele>
  <time>2012-03-25T06:47:58Z</time>
  <sat>7</sat>
</trkpt>
<trkpt lat="39.752807000" lon="-0.331791000">
  <ele>164.100000</ele>
  <time>2012-03-25T06:48:00Z</time>
  <sat>8</sat>
</trkpt>
<trkpt lat="39.752892000" lon="-0.331895000">
  <ele>163.300000</ele>
  <time>2012-03-25T06:48:03Z</time>
  <sat>7</sat>
</trkpt>
<trkpt lat="39.752969000" lon="-0.332008000">
  <ele>163.100000</ele>
  <time>2012-03-25T06:48:06Z</time>
  <sat>7</sat>
</trkpt>
<trkpt lat="39.753048000" lon="-0.332136000">
  <ele>162.000000</ele>
  <time>2012-03-25T06:48:09Z</time>
  <sat>9</sat>
</trkpt>
<trkpt lat="39.753146000" lon="-0.332297000">
  <ele>161.300000</ele>
  <time>2012-03-25T06:48:12Z</time>
  <sat>9</sat>
</trkpt>
<trkpt lat="39.753173000" lon="-0.332361000">
  <ele>161.000000</ele>
  <time>2012-03-25T06:48:13Z</time>
  <sat>9</sat>
</trkpt>
<trkpt lat="39.753375000" lon="-0.332646000">
  <ele>160.100000</ele>
  <time>2012-03-25T06:48:18Z</time>
  <sat>9</sat>
</trkpt>
<trkpt lat="39.753506000" lon="-0.332852000">
  <ele>160.600000</ele>
  <time>2012-03-25T06:48:21Z</time>
  <sat>9</sat>
</trkpt>
<trkpt lat="39.753573000" lon="-0.333032000">
  <ele>159.600000</ele>
  <time>2012-03-25T06:48:24Z</time>
  <sat>9</sat>
</trkpt>
<trkpt lat="39.753635000" lon="-0.333141000">
  <ele>160.600000</ele>
  <time>2012-03-25T06:48:27Z</time>
  <sat>9</sat>
</trkpt>
<trkpt lat="39.753685000" lon="-0.333157000">
  <ele>161.800000</ele>
  <time>2012-03-25T06:48:30Z</time>
  <sat>9</sat>
</trkpt>
<trkpt lat="39.753688000" lon="-0.333080000">
  <ele>160.500000</ele>
  <time>2012-03-25T06:48:33Z</time>
  <sat>9</sat>
</trkpt>
<trkpt lat="39.753742000" lon="-0.332886000">
  <ele>159.100000</ele>
  <time>2012-03-25T06:48:36Z</time>
  <sat>9</sat>
</trkpt>
<trkpt lat="39.753846000" lon="-0.332798000">
  <ele>159.800000</ele>
  <time>2012-03-25T06:48:39Z</time>
  <sat>9</sat>
</trkpt>
<trkpt lat="39.753942000" lon="-0.332706000">
  <ele>160.100000</ele>
  <time>2012-03-25T06:48:42Z</time>
  <sat>9</sat>
</trkpt>
<trkpt lat="39.754024000" lon="-0.332610000">
  <ele>160.300000</ele>
  <time>2012-03-25T06:48:45Z</time>
  <sat>9</sat>
</trkpt>
<trkpt lat="39.754119000" lon="-0.332563000">
  <ele>160.800000</ele>
  <time>2012-03-25T06:48:48Z</time>
  <sat>9</sat>
</trkpt>
<trkpt lat="39.754199000" lon="-0.332531000">
  <ele>162.300000</ele>
  <time>2012-03-25T06:48:51Z</time>
  <sat>9</sat>
</trkpt>
<trkpt lat="39.754299000" lon="-0.332491000">
  <ele>162.300000</ele>
  <time>2012-03-25T06:48:54Z</time>
  <sat>9</sat>
</trkpt>
<trkpt lat="39.754397000" lon="-0.332459000">
  <ele>162.800000</ele>
  <time>2012-03-25T06:48:57Z</time>
  <sat>8</sat>
</trkpt>
<trkpt lat="39.754459000" lon="-0.332456000">
  <ele>162.800000</ele>
  <time>2012-03-25T06:48:59Z</time>
  <sat>8</sat>
</trkpt>
<trkpt lat="39.754514000" lon="-0.332447000">
  <ele>163.100000</ele>
  <time>2012-03-25T06:49:01Z</time>
  <sat>7</sat>
</trkpt>
<trkpt lat="39.754595000" lon="-0.332444000">
  <ele>163.600000</ele>
  <time>2012-03-25T06:49:04Z</time>
  <sat>9</sat>
</trkpt>
<trkpt lat="39.754652000" lon="-0.332466000">
  <ele>164.100000</ele>
  <time>2012-03-25T06:49:07Z</time>
  <sat>9</sat>
</trkpt>
<trkpt lat="39.754758000" lon="-0.332501000">
  <ele>163.800000</ele>
  <time>2012-03-25T06:49:10Z</time>
  <sat>9</sat>
</trkpt>
<trkpt lat="39.754836000" lon="-0.332531000">
  <ele>164.600000</ele>
  <time>2012-03-25T06:49:13Z</time>
  <sat>9</sat>
</trkpt>
<trkpt lat="39.754913000" lon="-0.332576000">
  <ele>166.100000</ele>
  <time>2012-03-25T06:49:16Z</time>
  <sat>9</sat>
</trkpt>
<trkpt lat="39.754936000" lon="-0.332576000">
  <ele>167.100000</ele>
  <time>2012-03-25T06:49:17Z</time>
  <sat>9</sat>
</trkpt>
<trkpt lat="39.755090000" lon="-0.332604000">
  <ele>168.600000</ele>
  <time>2012-03-25T06:49:22Z</time>
  <sat>7</sat>
</trkpt>
<trkpt lat="39.755170000" lon="-0.332650000">
  <ele>169.100000</ele>
  <time>2012-03-25T06:49:25Z</time>
  <sat>9</sat>
</trkpt>
<trkpt lat="39.755237000" lon="-0.332663000">
  <ele>169.500000</ele>
  <time>2012-03-25T06:49:28Z</time>
  <sat>9</sat>
</trkpt>
<trkpt lat="39.755316000" lon="-0.332670000">
  <ele>169.100000</ele>
  <time>2012-03-25T06:49:31Z</time>
  <sat>9</sat>
</trkpt>
<trkpt lat="39.755404000" lon="-0.332712000">
  <ele>169.800000</ele>
  <time>2012-03-25T06:49:34Z</time>
  <sat>8</sat>
</trkpt>
<trkpt lat="39.755482000" lon="-0.332766000">
  <ele>170.800000</ele>
  <time>2012-03-25T06:49:37Z</time>
  <sat>7</sat>
</trkpt>
<trkpt lat="39.755555000" lon="-0.332824000">
  <ele>171.600000</ele>
  <time>2012-03-25T06:49:40Z</time>
  <sat>9</sat>
</trkpt>
<trkpt lat="39.755615000" lon="-0.332883000">
  <ele>172.500000</ele>
  <time>2012-03-25T06:49:43Z</time>
  <sat>9</sat>
</trkpt>
<trkpt lat="39.755678000" lon="-0.332911000">
  <ele>173.500000</ele>
  <time>2012-03-25T06:49:46Z</time>
  <sat>9</sat>
</trkpt>
<trkpt lat="39.755743000" lon="-0.332921000">
  <ele>174.000000</ele>
  <time>2012-03-25T06:49:49Z</time>
  <sat>9</sat>
</trkpt>
<trkpt lat="39.755830000" lon="-0.332967000">
  <ele>174.100000</ele>
  <time>2012-03-25T06:49:52Z</time>
  <sat>9</sat>
</trkpt>
<trkpt lat="39.755912000" lon="-0.333032000">
  <ele>173.100000</ele>
  <time>2012-03-25T06:49:55Z</time>
  <sat>9</sat>
</trkpt>
<trkpt lat="39.755957000" lon="-0.333138000">
  <ele>173.100000</ele>
  <time>2012-03-25T06:49:58Z</time>
  <sat>9</sat>
</trkpt>
<trkpt lat="39.756000000" lon="-0.333180000">
  <ele>173.000000</ele>
  <time>2012-03-25T06:50:00Z</time>
  <sat>9</sat>
</trkpt>
<trkpt lat="39.756018000" lon="-0.333256000">
  <ele>173.000000</ele>
  <time>2012-03-25T06:50:03Z</time>
  <sat>9</sat>
</trkpt>
<trkpt lat="39.756010000" lon="-0.333340000">
  <ele>173.800000</ele>
  <time>2012-03-25T06:50:06Z</time>
  <sat>9</sat>
</trkpt>
<trkpt lat="39.756001000" lon="-0.333428000">
  <ele>174.300000</ele>
  <time>2012-03-25T06:50:09Z</time>
  <sat>9</sat>
</trkpt>
<trkpt lat="39.756015000" lon="-0.333529000">
  <ele>174.600000</ele>
  <time>2012-03-25T06:50:12Z</time>
  <sat>9</sat>
</trkpt>
<trkpt lat="39.756038000" lon="-0.333624000">
  <ele>175.100000</ele>
  <time>2012-03-25T06:50:15Z</time>
  <sat>9</sat>
</trkpt>
<trkpt lat="39.756042000" lon="-0.333712000">
  <ele>175.300000</ele>
  <time>2012-03-25T06:50:18Z</time>
  <sat>9</sat>
</trkpt>
<trkpt lat="39.756040000" lon="-0.333746000">
  <ele>175.300000</ele>
  <time>2012-03-25T06:50:19Z</time>
  <sat>9</sat>
</trkpt>
<trkpt lat="39.756053000" lon="-0.333948000">
  <ele>175.800000</ele>
  <time>2012-03-25T06:50:24Z</time>
  <sat>9</sat>
</trkpt>
<trkpt lat="39.756117000" lon="-0.334072000">
  <ele>175.100000</ele>
  <time>2012-03-25T06:50:27Z</time>
  <sat>9</sat>
</trkpt>
<trkpt lat="39.756194000" lon="-0.334174000">
  <ele>174.800000</ele>
  <time>2012-03-25T06:50:30Z</time>
  <sat>9</sat>
</trkpt>
<trkpt lat="39.756282000" lon="-0.334265000">
  <ele>172.300000</ele>
  <time>2012-03-25T06:50:33Z</time>
  <sat>9</sat>
</trkpt>
<trkpt lat="39.756337000" lon="-0.334438000">
  <ele>170.600000</ele>
  <time>2012-03-25T06:50:36Z</time>
  <sat>8</sat>
</trkpt>
<trkpt lat="39.756309000" lon="-0.334667000">
  <ele>171.000000</ele>
  <time>2012-03-25T06:50:39Z</time>
  <sat>7</sat>
</trkpt>
<trkpt lat="39.756295000" lon="-0.334862000">
  <ele>171.100000</ele>
  <time>2012-03-25T06:50:42Z</time>
  <sat>7</sat>
</trkpt>
<trkpt lat="39.756314000" lon="-0.334996000">
  <ele>171.800000</ele>
  <time>2012-03-25T06:50:45Z</time>
  <sat>9</sat>
</trkpt>
<trkpt lat="39.756371000" lon="-0.335042000">
  <ele>171.600000</ele>
  <time>2012-03-25T06:50:48Z</time>
  <sat>9</sat>
</trkpt>
<trkpt lat="39.756459000" lon="-0.334928000">
  <ele>171.600000</ele>
  <time>2012-03-25T06:50:51Z</time>
  <sat>9</sat>
</trkpt>
<trkpt lat="39.756568000" lon="-0.334770000">
  <ele>170.300000</ele>
  <time>2012-03-25T06:50:54Z</time>
  <sat>9</sat>
</trkpt>
<trkpt lat="39.756668000" lon="-0.334644000">
  <ele>170.600000</ele>
  <time>2012-03-25T06:50:57Z</time>
  <sat>9</sat>
</trkpt>
<trkpt lat="39.756735000" lon="-0.334567000">
  <ele>170.600000</ele>
  <time>2012-03-25T06:50:59Z</time>
  <sat>9</sat>
</trkpt>
<trkpt lat="39.756791000" lon="-0.334501000">
  <ele>170.500000</ele>
  <time>2012-03-25T06:51:01Z</time>
  <sat>9</sat>
</trkpt>
<trkpt lat="39.756874000" lon="-0.334403000">
  <ele>170.500000</ele>
  <time>2012-03-25T06:51:04Z</time>
  <sat>9</sat>
</trkpt>
<trkpt lat="39.756990000" lon="-0.334343000">
  <ele>170.100000</ele>
  <time>2012-03-25T06:51:07Z</time>
  <sat>8</sat>
</trkpt>
<trkpt lat="39.757108000" lon="-0.334331000">
  <ele>169.300000</ele>
  <time>2012-03-25T06:51:10Z</time>
  <sat>8</sat>
</trkpt>
<trkpt lat="39.757205000" lon="-0.334473000">
  <ele>169.100000</ele>
  <time>2012-03-25T06:51:13Z</time>
  <sat>6</sat>
</trkpt>
<trkpt lat="39.757294000" lon="-0.334569000">
  <ele>168.600000</ele>
  <time>2012-03-25T06:51:16Z</time>
  <sat>7</sat>
</trkpt>
<trkpt lat="39.757368000" lon="-0.334672000">
  <ele>169.000000</ele>
  <time>2012-03-25T06:51:19Z</time>
  <sat>9</sat>
</trkpt>
<trkpt lat="39.757451000" lon="-0.334733000">
  <ele>169.500000</ele>
  <time>2012-03-25T06:51:22Z</time>
  <sat>9</sat>
</trkpt>
<trkpt lat="39.757477000" lon="-0.334734000">
  <ele>170.000000</ele>
  <time>2012-03-25T06:51:23Z</time>
  <sat>9</sat>
</trkpt>
<trkpt lat="39.757570000" lon="-0.334617000">
  <ele>169.100000</ele>
  <time>2012-03-25T06:51:28Z</time>
  <sat>9</sat>
</trkpt>
<trkpt lat="39.757609000" lon="-0.334457000">
  <ele>170.100000</ele>
  <time>2012-03-25T06:51:31Z</time>
  <sat>9</sat>
</trkpt>
<trkpt lat="39.757655000" lon="-0.334334000">
  <ele>170.800000</ele>
  <time>2012-03-25T06:51:34Z</time>
  <sat>9</sat>
</trkpt>
<trkpt lat="39.757694000" lon="-0.334217000">
  <ele>171.000000</ele>
  <time>2012-03-25T06:51:37Z</time>
  <sat>9</sat>
</trkpt>
<trkpt lat="39.757741000" lon="-0.334088000">
  <ele>171.300000</ele>
  <time>2012-03-25T06:51:40Z</time>
  <sat>8</sat>
</trkpt>
<trkpt lat="39.757773000" lon="-0.333968000">
  <ele>171.600000</ele>
  <time>2012-03-25T06:51:43Z</time>
  <sat>9</sat>
</trkpt>
<trkpt lat="39.757822000" lon="-0.333848000">
  <ele>172.100000</ele>
  <time>2012-03-25T06:51:46Z</time>
  <sat>9</sat>
</trkpt>
<trkpt lat="39.757869000" lon="-0.333746000">
  <ele>172.800000</ele>
  <time>2012-03-25T06:51:49Z</time>
  <sat>9</sat>
</trkpt>
<trkpt lat="39.757891000" lon="-0.333593000">
  <ele>173.300000</ele>
  <time>2012-03-25T06:51:52Z</time>
  <sat>8</sat>
</trkpt>
<trkpt lat="39.757933000" lon="-0.333455000">
  <ele>173.500000</ele>
  <time>2012-03-25T06:51:55Z</time>
  <sat>6</sat>
</trkpt>
<trkpt lat="39.757967000" lon="-0.333302000">
  <ele>174.100000</ele>
  <time>2012-03-25T06:51:58Z</time>
  <sat>6</sat>
</trkpt>
<trkpt lat="39.757996000" lon="-0.333199000">
  <ele>174.600000</ele>
  <time>2012-03-25T06:52:00Z</time>
  <sat>7</sat>
</trkpt>
<trkpt lat="39.758036000" lon="-0.333040000">
  <ele>175.000000</ele>
  <time>2012-03-25T06:52:03Z</time>
  <sat>7</sat>
</trkpt>
<trkpt lat="39.758089000" lon="-0.332904000">
  <ele>174.800000</ele>
  <time>2012-03-25T06:52:06Z</time>
  <sat>7</sat>
</trkpt>
<trkpt lat="39.758142000" lon="-0.332774000">
  <ele>174.300000</ele>
  <time>2012-03-25T06:52:09Z</time>
  <sat>7</sat>
</trkpt>
<trkpt lat="39.758204000" lon="-0.332656000">
  <ele>174.800000</ele>
  <time>2012-03-25T06:52:12Z</time>
  <sat>7</sat>
</trkpt>
<trkpt lat="39.758263000" lon="-0.332533000">
  <ele>175.800000</ele>
  <time>2012-03-25T06:52:15Z</time>
  <sat>9</sat>
</trkpt>
<trkpt lat="39.758314000" lon="-0.332408000">
  <ele>176.600000</ele>
  <time>2012-03-25T06:52:18Z</time>
  <sat>9</sat>
</trkpt>
<trkpt lat="39.758371000" lon="-0.332269000">
  <ele>176.800000</ele>
  <time>2012-03-25T06:52:21Z</time>
  <sat>8</sat>
</trkpt>
<trkpt lat="39.758442000" lon="-0.332145000">
  <ele>177.600000</ele>
  <time>2012-03-25T06:52:24Z</time>
  <sat>7</sat>
</trkpt>
<trkpt lat="39.758465000" lon="-0.332102000">
  <ele>177.600000</ele>
  <time>2012-03-25T06:52:25Z</time>
  <sat>7</sat>
</trkpt>
<trkpt lat="39.758600000" lon="-0.331921000">
  <ele>178.100000</ele>
  <time>2012-03-25T06:52:30Z</time>
  <sat>8</sat>
</trkpt>
<trkpt lat="39.758687000" lon="-0.331829000">
  <ele>178.300000</ele>
  <time>2012-03-25T06:52:33Z</time>
  <sat>8</sat>
</trkpt>
<trkpt lat="39.758775000" lon="-0.331734000">
  <ele>178.600000</ele>
  <time>2012-03-25T06:52:36Z</time>
  <sat>9</sat>
</trkpt>
<trkpt lat="39.758870000" lon="-0.331663000">
  <ele>179.300000</ele>
  <time>2012-03-25T06:52:39Z</time>
  <sat>9</sat>
</trkpt>
<trkpt lat="39.758977000" lon="-0.331640000">
  <ele>180.100000</ele>
  <time>2012-03-25T06:52:42Z</time>
  <sat>9</sat>
</trkpt>
<trkpt lat="39.759080000" lon="-0.331614000">
  <ele>181.000000</ele>
  <time>2012-03-25T06:52:45Z</time>
  <sat>9</sat>
</trkpt>
<trkpt lat="39.759173000" lon="-0.331556000">
  <ele>181.600000</ele>
  <time>2012-03-25T06:52:48Z</time>
  <sat>8</sat>
</trkpt>
<trkpt lat="39.759255000" lon="-0.331475000">
  <ele>182.300000</ele>
  <time>2012-03-25T06:52:51Z</time>
  <sat>9</sat>
</trkpt>
<trkpt lat="39.759330000" lon="-0.331366000">
  <ele>182.500000</ele>
  <time>2012-03-25T06:52:54Z</time>
  <sat>9</sat>
</trkpt>
<trkpt lat="39.759410000" lon="-0.331254000">
  <ele>182.300000</ele>
  <time>2012-03-25T06:52:57Z</time>
  <sat>9</sat>
</trkpt>
<trkpt lat="39.759468000" lon="-0.331188000">
  <ele>182.300000</ele>
  <time>2012-03-25T06:52:59Z</time>
  <sat>9</sat>
</trkpt>
<trkpt lat="39.759529000" lon="-0.331147000">
  <ele>183.000000</ele>
  <time>2012-03-25T06:53:01Z</time>
  <sat>9</sat>
</trkpt>
<trkpt lat="39.759629000" lon="-0.331124000">
  <ele>183.600000</ele>
  <time>2012-03-25T06:53:04Z</time>
  <sat>9</sat>
</trkpt>
<trkpt lat="39.759738000" lon="-0.331137000">
  <ele>184.300000</ele>
  <time>2012-03-25T06:53:07Z</time>
  <sat>8</sat>
</trkpt>
<trkpt lat="39.759844000" lon="-0.331167000">
  <ele>184.600000</ele>
  <time>2012-03-25T06:53:10Z</time>
  <sat>7</sat>
</trkpt>
<trkpt lat="39.759943000" lon="-0.331213000">
  <ele>185.100000</ele>
  <time>2012-03-25T06:53:13Z</time>
  <sat>7</sat>
</trkpt>
<trkpt lat="39.760047000" lon="-0.331265000">
  <ele>185.600000</ele>
  <time>2012-03-25T06:53:16Z</time>
  <sat>8</sat>
</trkpt>
<trkpt lat="39.760141000" lon="-0.331316000">
  <ele>186.300000</ele>
  <time>2012-03-25T06:53:19Z</time>
  <sat>8</sat>
</trkpt>
<trkpt lat="39.760211000" lon="-0.331377000">
  <ele>186.600000</ele>
  <time>2012-03-25T06:53:22Z</time>
  <sat>8</sat>
</trkpt>
<trkpt lat="39.760253000" lon="-0.331423000">
  <ele>186.800000</ele>
  <time>2012-03-25T06:53:25Z</time>
  <sat>7</sat>
</trkpt>
<trkpt lat="39.760247000" lon="-0.331415000">
  <ele>187.100000</ele>
  <time>2012-03-25T06:53:28Z</time>
  <sat>7</sat>
</trkpt>
<trkpt lat="39.760245000" lon="-0.331412000">
  <ele>187.000000</ele>
  <time>2012-03-25T06:53:29Z</time>
  <sat>7</sat>
</trkpt>
<trkpt lat="39.760245000" lon="-0.331410000">
  <ele>187.100000</ele>
  <time>2012-03-25T06:53:34Z</time>
  <sat>6</sat>
</trkpt>
<trkpt lat="39.760244000" lon="-0.331410000">
  <ele>187.300000</ele>
  <time>2012-03-25T06:53:37Z</time>
  <sat>6</sat>
</trkpt>
<trkpt lat="39.760244000" lon="-0.331410000">
  <ele>187.300000</ele>
  <time>2012-03-25T06:53:40Z</time>
  <sat>6</sat>
</trkpt>
<trkpt lat="39.760260000" lon="-0.331458000">
  <ele>187.600000</ele>
  <time>2012-03-25T06:53:43Z</time>
  <sat>8</sat>
</trkpt>
<trkpt lat="39.760239000" lon="-0.331519000">
  <ele>187.800000</ele>
  <time>2012-03-25T06:53:46Z</time>
  <sat>9</sat>
</trkpt>
<trkpt lat="39.760233000" lon="-0.331615000">
  <ele>186.800000</ele>
  <time>2012-03-25T06:53:49Z</time>
  <sat>9</sat>
</trkpt>
<trkpt lat="39.760268000" lon="-0.331721000">
  <ele>187.000000</ele>
  <time>2012-03-25T06:53:52Z</time>
  <sat>9</sat>
</trkpt>
<trkpt lat="39.760312000" lon="-0.331829000">
  <ele>187.300000</ele>
  <time>2012-03-25T06:53:55Z</time>
  <sat>8</sat>
</trkpt>
<trkpt lat="39.760357000" lon="-0.331947000">
  <ele>187.300000</ele>
  <time>2012-03-25T06:53:58Z</time>
  <sat>8</sat>
</trkpt>
<trkpt lat="39.760383000" lon="-0.332029000">
  <ele>187.300000</ele>
  <time>2012-03-25T06:54:00Z</time>
  <sat>8</sat>
</trkpt>
<trkpt lat="39.760406000" lon="-0.332161000">
  <ele>187.100000</ele>
  <time>2012-03-25T06:54:03Z</time>
  <sat>8</sat>
</trkpt>
<trkpt lat="39.760436000" lon="-0.332294000">
  <ele>188.000000</ele>
  <time>2012-03-25T06:54:06Z</time>
  <sat>8</sat>
</trkpt>
<trkpt lat="39.760465000" lon="-0.332432000">
  <ele>188.300000</ele>
  <time>2012-03-25T06:54:09Z</time>
  <sat>7</sat>
</trkpt>
<trkpt lat="39.760499000" lon="-0.332568000">
  <ele>188.500000</ele>
  <time>2012-03-25T06:54:12Z</time>
  <sat>7</sat>
</trkpt>
<trkpt lat="39.760543000" lon="-0.332702000">
  <ele>189.000000</ele>
  <time>2012-03-25T06:54:15Z</time>
  <sat>6</sat>
</trkpt>
<trkpt lat="39.760591000" lon="-0.332831000">
  <ele>189.300000</ele>
  <time>2012-03-25T06:54:18Z</time>
  <sat>8</sat>
</trkpt>
<trkpt lat="39.760644000" lon="-0.332960000">
  <ele>190.300000</ele>
  <time>2012-03-25T06:54:21Z</time>
  <sat>8</sat>
</trkpt>
<trkpt lat="39.760698000" lon="-0.333097000">
  <ele>190.500000</ele>
  <time>2012-03-25T06:54:24Z</time>
  <sat>9</sat>
</trkpt>
<trkpt lat="39.760755000" lon="-0.333229000">
  <ele>190.100000</ele>
  <time>2012-03-25T06:54:27Z</time>
  <sat>9</sat>
</trkpt>
<trkpt lat="39.760806000" lon="-0.333358000">
  <ele>190.600000</ele>
  <time>2012-03-25T06:54:30Z</time>
  <sat>6</sat>
</trkpt>
<trkpt lat="39.760825000" lon="-0.333398000">
  <ele>191.000000</ele>
  <time>2012-03-25T06:54:31Z</time>
  <sat>9</sat>
</trkpt>
<trkpt lat="39.760946000" lon="-0.333553000">
  <ele>191.300000</ele>
  <time>2012-03-25T06:54:36Z</time>
  <sat>9</sat>
</trkpt>
<trkpt lat="39.761046000" lon="-0.333473000">
  <ele>192.300000</ele>
  <time>2012-03-25T06:54:39Z</time>
  <sat>9</sat>
</trkpt>
<trkpt lat="39.761146000" lon="-0.333385000">
  <ele>190.600000</ele>
  <time>2012-03-25T06:54:42Z</time>
  <sat>9</sat>
</trkpt>
<trkpt lat="39.761254000" lon="-0.333312000">
  <ele>190.600000</ele>
  <time>2012-03-25T06:54:45Z</time>
  <sat>9</sat>
</trkpt>
<trkpt lat="39.761369000" lon="-0.333245000">
  <ele>190.600000</ele>
  <time>2012-03-25T06:54:48Z</time>
  <sat>8</sat>
</trkpt>
<trkpt lat="39.761480000" lon="-0.333177000">
  <ele>190.800000</ele>
  <time>2012-03-25T06:54:51Z</time>
  <sat>8</sat>
</trkpt>
<trkpt lat="39.761586000" lon="-0.333109000">
  <ele>191.100000</ele>
  <time>2012-03-25T06:54:54Z</time>
  <sat>8</sat>
</trkpt>
<trkpt lat="39.761698000" lon="-0.333045000">
  <ele>191.300000</ele>
  <time>2012-03-25T06:54:57Z</time>
  <sat>8</sat>
</trkpt>
<trkpt lat="39.761773000" lon="-0.333000000">
  <ele>191.300000</ele>
  <time>2012-03-25T06:54:59Z</time>
  <sat>8</sat>
</trkpt>
<trkpt lat="39.761849000" lon="-0.332957000">
  <ele>191.600000</ele>
  <time>2012-03-25T06:55:01Z</time>
  <sat>8</sat>
</trkpt>
<trkpt lat="39.761960000" lon="-0.332890000">
  <ele>191.800000</ele>
  <time>2012-03-25T06:55:04Z</time>
  <sat>8</sat>
</trkpt>
<trkpt lat="39.762070000" lon="-0.332828000">
  <ele>191.600000</ele>
  <time>2012-03-25T06:55:07Z</time>
  <sat>8</sat>
</trkpt>
<trkpt lat="39.762175000" lon="-0.332753000">
  <ele>191.800000</ele>
  <time>2012-03-25T06:55:10Z</time>
  <sat>8</sat>
</trkpt>
<trkpt lat="39.762279000" lon="-0.332682000">
  <ele>192.100000</ele>
  <time>2012-03-25T06:55:13Z</time>
  <sat>8</sat>
</trkpt>
<trkpt lat="39.762383000" lon="-0.332607000">
  <ele>192.300000</ele>
  <time>2012-03-25T06:55:16Z</time>
  <sat>8</sat>
</trkpt>
<trkpt lat="39.762486000" lon="-0.332532000">
  <ele>192.800000</ele>
  <time>2012-03-25T06:55:19Z</time>
  <sat>8</sat>
</trkpt>
<trkpt lat="39.762589000" lon="-0.332467000">
  <ele>193.600000</ele>
  <time>2012-03-25T06:55:22Z</time>
  <sat>9</sat>
</trkpt>
<trkpt lat="39.762686000" lon="-0.332396000">
  <ele>194.100000</ele>
  <time>2012-03-25T06:55:25Z</time>
  <sat>9</sat>
</trkpt>
<trkpt lat="39.762777000" lon="-0.332311000">
  <ele>194.600000</ele>
  <time>2012-03-25T06:55:28Z</time>
  <sat>9</sat>
</trkpt>
<trkpt lat="39.762849000" lon="-0.332207000">
  <ele>195.600000</ele>
  <time>2012-03-25T06:55:31Z</time>
  <sat>9</sat>
</trkpt>
<trkpt lat="39.762920000" lon="-0.332104000">
  <ele>196.300000</ele>
  <time>2012-03-25T06:55:34Z</time>
  <sat>9</sat>
</trkpt>
<trkpt lat="39.762942000" lon="-0.332068000">
  <ele>196.600000</ele>
  <time>2012-03-25T06:55:35Z</time>
  <sat>9</sat>
</trkpt>
<trkpt lat="39.763063000" lon="-0.331895000">
  <ele>198.300000</ele>
  <time>2012-03-25T06:55:40Z</time>
  <sat>9</sat>
</trkpt>
<trkpt lat="39.763133000" lon="-0.331802000">
  <ele>199.300000</ele>
  <time>2012-03-25T06:55:43Z</time>
  <sat>9</sat>
</trkpt>
<trkpt lat="39.763198000" lon="-0.331699000">
  <ele>200.300000</ele>
  <time>2012-03-25T06:55:46Z</time>
  <sat>9</sat>
</trkpt>
<trkpt lat="39.763270000" lon="-0.331601000">
  <ele>200.500000</ele>
  <time>2012-03-25T06:55:49Z</time>
  <sat>9</sat>
</trkpt>
<trkpt lat="39.763343000" lon="-0.331502000">
  <ele>200.800000</ele>
  <time>2012-03-25T06:55:52Z</time>
  <sat>9</sat>
</trkpt>
<trkpt lat="39.763419000" lon="-0.331406000">
  <ele>200.600000</ele>
  <time>2012-03-25T06:55:55Z</time>
  <sat>9</sat>
</trkpt>
<trkpt lat="39.763495000" lon="-0.331312000">
  <ele>201.100000</ele>
  <time>2012-03-25T06:55:58Z</time>
  <sat>9</sat>
</trkpt>
<trkpt lat="39.763542000" lon="-0.331249000">
  <ele>201.500000</ele>
  <time>2012-03-25T06:56:00Z</time>
  <sat>9</sat>
</trkpt>
<trkpt lat="39.763614000" lon="-0.331149000">
  <ele>202.100000</ele>
  <time>2012-03-25T06:56:03Z</time>
  <sat>9</sat>
</trkpt>
<trkpt lat="39.763680000" lon="-0.331054000">
  <ele>201.800000</ele>
  <time>2012-03-25T06:56:06Z</time>
  <sat>9</sat>
</trkpt>
<trkpt lat="39.763741000" lon="-0.330961000">
  <ele>203.100000</ele>
  <time>2012-03-25T06:56:09Z</time>
  <sat>9</sat>
</trkpt>
<trkpt lat="39.763827000" lon="-0.330875000">
  <ele>203.800000</ele>
  <time>2012-03-25T06:56:12Z</time>
  <sat>9</sat>
</trkpt>
<trkpt lat="39.763913000" lon="-0.330788000">
  <ele>204.300000</ele>
  <time>2012-03-25T06:56:15Z</time>
  <sat>9</sat>
</trkpt>
<trkpt lat="39.763996000" lon="-0.330698000">
  <ele>204.800000</ele>
  <time>2012-03-25T06:56:18Z</time>
  <sat>9</sat>
</trkpt>
<trkpt lat="39.764063000" lon="-0.330623000">
  <ele>206.300000</ele>
  <time>2012-03-25T06:56:21Z</time>
  <sat>9</sat>
</trkpt>
<trkpt lat="39.764135000" lon="-0.330522000">
  <ele>206.100000</ele>
  <time>2012-03-25T06:56:24Z</time>
  <sat>9</sat>
</trkpt>
<trkpt lat="39.764220000" lon="-0.330428000">
  <ele>207.800000</ele>
  <time>2012-03-25T06:56:27Z</time>
  <sat>9</sat>
</trkpt>
<trkpt lat="39.764287000" lon="-0.330336000">
  <ele>208.300000</ele>
  <time>2012-03-25T06:56:30Z</time>
  <sat>9</sat>
</trkpt>
<trkpt lat="39.764357000" lon="-0.330243000">
  <ele>209.100000</ele>
  <time>2012-03-25T06:56:33Z</time>
  <sat>9</sat>
</trkpt>
<trkpt lat="39.764436000" lon="-0.330153000">
  <ele>209.300000</ele>
  <time>2012-03-25T06:56:36Z</time>
  <sat>9</sat>
</trkpt>
<trkpt lat="39.764472000" lon="-0.330121000">
  <ele>209.800000</ele>
  <time>2012-03-25T06:56:37Z</time>
  <sat>9</sat>
</trkpt>
<trkpt lat="39.764595000" lon="-0.329985000">
  <ele>210.100000</ele>
  <time>2012-03-25T06:56:42Z</time>
  <sat>9</sat>
</trkpt>
<trkpt lat="39.764689000" lon="-0.329899000">
  <ele>209.800000</ele>
  <time>2012-03-25T06:56:45Z</time>
  <sat>9</sat>
</trkpt>
<trkpt lat="39.764774000" lon="-0.329833000">
  <ele>210.000000</ele>
  <time>2012-03-25T06:56:48Z</time>
  <sat>9</sat>
</trkpt>
<trkpt lat="39.764824000" lon="-0.329798000">
  <ele>209.100000</ele>
  <time>2012-03-25T06:56:51Z</time>
  <sat>9</sat>
</trkpt>
<trkpt lat="39.764811000" lon="-0.329814000">
  <ele>209.800000</ele>
  <time>2012-03-25T06:56:54Z</time>
  <sat>8</sat>
</trkpt>
<trkpt lat="39.764795000" lon="-0.329825000">
  <ele>210.600000</ele>
  <time>2012-03-25T06:56:57Z</time>
  <sat>9</sat>
</trkpt>
<trkpt lat="39.764800000" lon="-0.329823000">
  <ele>210.800000</ele>
  <time>2012-03-25T06:56:59Z</time>
  <sat>9</sat>
</trkpt>
<trkpt lat="39.764800000" lon="-0.329823000">
  <ele>211.000000</ele>
  <time>2012-03-25T06:57:01Z</time>
  <sat>9</sat>
</trkpt>
<trkpt lat="39.764800000" lon="-0.329823000">
  <ele>211.000000</ele>
  <time>2012-03-25T06:57:04Z</time>
  <sat>9</sat>
</trkpt>
<trkpt lat="39.764800000" lon="-0.329823000">
  <ele>211.000000</ele>
  <time>2012-03-25T06:57:07Z</time>
  <sat>9</sat>
</trkpt>
<trkpt lat="39.764800000" lon="-0.329823000">
  <ele>211.000000</ele>
  <time>2012-03-25T06:57:10Z</time>
  <sat>9</sat>
</trkpt>
<trkpt lat="39.764800000" lon="-0.329823000">
  <ele>211.000000</ele>
  <time>2012-03-25T06:57:13Z</time>
  <sat>9</sat>
</trkpt>
<trkpt lat="39.764800000" lon="-0.329823000">
  <ele>211.000000</ele>
  <time>2012-03-25T06:57:16Z</time>
  <sat>9</sat>
</trkpt>
<trkpt lat="39.764800000" lon="-0.329823000">
  <ele>211.000000</ele>
  <time>2012-03-25T06:57:19Z</time>
  <sat>9</sat>
</trkpt>
<trkpt lat="39.764800000" lon="-0.329823000">
  <ele>211.000000</ele>
  <time>2012-03-25T06:57:22Z</time>
  <sat>9</sat>
</trkpt>
<trkpt lat="39.764800000" lon="-0.329823000">
  <ele>211.000000</ele>
  <time>2012-03-25T06:57:25Z</time>
  <sat>9</sat>
</trkpt>
<trkpt lat="39.764800000" lon="-0.329823000">
  <ele>211.000000</ele>
  <time>2012-03-25T06:57:28Z</time>
  <sat>9</sat>
</trkpt>
<trkpt lat="39.764809000" lon="-0.329840000">
  <ele>211.000000</ele>
  <time>2012-03-25T06:57:31Z</time>
  <sat>9</sat>
</trkpt>
<trkpt lat="39.764772000" lon="-0.329868000">
  <ele>212.100000</ele>
  <time>2012-03-25T06:57:34Z</time>
  <sat>9</sat>
</trkpt>
<trkpt lat="39.764737000" lon="-0.329853000">
  <ele>212.500000</ele>
  <time>2012-03-25T06:57:37Z</time>
  <sat>9</sat>
</trkpt>
<trkpt lat="39.764695000" lon="-0.329755000">
  <ele>213.100000</ele>
  <time>2012-03-25T06:57:40Z</time>
  <sat>9</sat>
</trkpt>
<trkpt lat="39.764676000" lon="-0.329722000">
  <ele>213.300000</ele>
  <time>2012-03-25T06:57:41Z</time>
  <sat>9</sat>
</trkpt>
<trkpt lat="39.764555000" lon="-0.329454000">
  <ele>214.600000</ele>
  <time>2012-03-25T06:57:48Z</time>
  <sat>5</sat>
</trkpt>
<trkpt lat="39.764525000" lon="-0.329321000">
  <ele>214.300000</ele>
  <time>2012-03-25T06:57:51Z</time>
  <sat>6</sat>
</trkpt>
<trkpt lat="39.764493000" lon="-0.329190000">
  <ele>214.100000</ele>
  <time>2012-03-25T06:57:54Z</time>
  <sat>7</sat>
</trkpt>
<trkpt lat="39.764468000" lon="-0.329000000">
  <ele>213.800000</ele>
  <time>2012-03-25T06:57:57Z</time>
  <sat>7</sat>
</trkpt>
<trkpt lat="39.764429000" lon="-0.328881000">
  <ele>214.300000</ele>
  <time>2012-03-25T06:57:59Z</time>
  <sat>7</sat>
</trkpt>
<trkpt lat="39.764375000" lon="-0.328828000">
  <ele>215.100000</ele>
  <time>2012-03-25T06:58:01Z</time>
  <sat>7</sat>
</trkpt>
<trkpt lat="39.764304000" lon="-0.328680000">
  <ele>211.300000</ele>
  <time>2012-03-25T06:58:04Z</time>
  <sat>9</sat>
</trkpt>
<trkpt lat="39.764190000" lon="-0.328603000">
  <ele>210.300000</ele>
  <time>2012-03-25T06:58:07Z</time>
  <sat>9</sat>
</trkpt>
<trkpt lat="39.764077000" lon="-0.328528000">
  <ele>209.800000</ele>
  <time>2012-03-25T06:58:10Z</time>
  <sat>9</sat>
</trkpt>
<trkpt lat="39.763959000" lon="-0.328427000">
  <ele>208.800000</ele>
  <time>2012-03-25T06:58:13Z</time>
  <sat>9</sat>
</trkpt>
<trkpt lat="39.763847000" lon="-0.328304000">
  <ele>208.100000</ele>
  <time>2012-03-25T06:58:16Z</time>
  <sat>9</sat>
</trkpt>
<trkpt lat="39.763744000" lon="-0.328155000">
  <ele>207.000000</ele>
  <time>2012-03-25T06:58:19Z</time>
  <sat>9</sat>
</trkpt>
<trkpt lat="39.763670000" lon="-0.328040000">
  <ele>205.500000</ele>
  <time>2012-03-25T06:58:22Z</time>
  <sat>9</sat>
</trkpt>
<trkpt lat="39.763630000" lon="-0.327963000">
  <ele>205.100000</ele>
  <time>2012-03-25T06:58:25Z</time>
  <sat>9</sat>
</trkpt>
<trkpt lat="39.763600000" lon="-0.327896000">
  <ele>204.800000</ele>
  <time>2012-03-25T06:58:28Z</time>
  <sat>9</sat>
</trkpt>
<trkpt lat="39.763558000" lon="-0.327796000">
  <ele>204.300000</ele>
  <time>2012-03-25T06:58:31Z</time>
  <sat>9</sat>
</trkpt>
<trkpt lat="39.763512000" lon="-0.327677000">
  <ele>203.600000</ele>
  <time>2012-03-25T06:58:34Z</time>
  <sat>9</sat>
</trkpt>
<trkpt lat="39.763444000" lon="-0.327525000">
  <ele>203.100000</ele>
  <time>2012-03-25T06:58:37Z</time>
  <sat>9</sat>
</trkpt>
<trkpt lat="39.763358000" lon="-0.327418000">
  <ele>203.800000</ele>
  <time>2012-03-25T06:58:40Z</time>
  <sat>9</sat>
</trkpt>
<trkpt lat="39.763240000" lon="-0.327407000">
  <ele>205.000000</ele>
  <time>2012-03-25T06:58:43Z</time>
  <sat>8</sat>
</trkpt>
<trkpt lat="39.763205000" lon="-0.327461000">
  <ele>203.800000</ele>
  <time>2012-03-25T06:58:44Z</time>
  <sat>8</sat>
</trkpt>
<trkpt lat="39.762997000" lon="-0.327525000">
  <ele>203.600000</ele>
  <time>2012-03-25T06:58:49Z</time>
  <sat>8</sat>
</trkpt>
<trkpt lat="39.762864000" lon="-0.327545000">
  <ele>203.600000</ele>
  <time>2012-03-25T06:58:52Z</time>
  <sat>7</sat>
</trkpt>
<trkpt lat="39.762717000" lon="-0.327569000">
  <ele>202.800000</ele>
  <time>2012-03-25T06:58:55Z</time>
  <sat>7</sat>
</trkpt>
<trkpt lat="39.762556000" lon="-0.327626000">
  <ele>201.600000</ele>
  <time>2012-03-25T06:58:58Z</time>
  <sat>8</sat>
</trkpt>
<trkpt lat="39.762442000" lon="-0.327674000">
  <ele>200.800000</ele>
  <time>2012-03-25T06:59:00Z</time>
  <sat>8</sat>
</trkpt>
<trkpt lat="39.762274000" lon="-0.327749000">
  <ele>200.300000</ele>
  <time>2012-03-25T06:59:03Z</time>
  <sat>8</sat>
</trkpt>
<trkpt lat="39.762105000" lon="-0.327825000">
  <ele>199.600000</ele>
  <time>2012-03-25T06:59:06Z</time>
  <sat>7</sat>
</trkpt>
<trkpt lat="39.761974000" lon="-0.327894000">
  <ele>199.100000</ele>
  <time>2012-03-25T06:59:09Z</time>
  <sat>7</sat>
</trkpt>
<trkpt lat="39.761904000" lon="-0.327956000">
  <ele>199.100000</ele>
  <time>2012-03-25T06:59:12Z</time>
  <sat>9</sat>
</trkpt>
<trkpt lat="39.761884000" lon="-0.327968000">
  <ele>199.300000</ele>
  <time>2012-03-25T06:59:15Z</time>
  <sat>9</sat>
</trkpt>
<trkpt lat="39.761901000" lon="-0.327944000">
  <ele>198.300000</ele>
  <time>2012-03-25T06:59:18Z</time>
  <sat>9</sat>
</trkpt>
<trkpt lat="39.761900000" lon="-0.327946000">
  <ele>198.100000</ele>
  <time>2012-03-25T06:59:21Z</time>
  <sat>9</sat>
</trkpt>
<trkpt lat="39.761880000" lon="-0.327873000">
  <ele>198.000000</ele>
  <time>2012-03-25T06:59:24Z</time>
  <sat>9</sat>
</trkpt>
<trkpt lat="39.761799000" lon="-0.327762000">
  <ele>198.300000</ele>
  <time>2012-03-25T06:59:27Z</time>
  <sat>9</sat>
</trkpt>
<trkpt lat="39.761740000" lon="-0.327636000">
  <ele>198.100000</ele>
  <time>2012-03-25T06:59:30Z</time>
  <sat>9</sat>
</trkpt>
<trkpt lat="39.761731000" lon="-0.327481000">
  <ele>198.600000</ele>
  <time>2012-03-25T06:59:33Z</time>
  <sat>9</sat>
</trkpt>
<trkpt lat="39.761731000" lon="-0.327327000">
  <ele>198.800000</ele>
  <time>2012-03-25T06:59:36Z</time>
  <sat>9</sat>
</trkpt>
<trkpt lat="39.761682000" lon="-0.327195000">
  <ele>198.800000</ele>
  <time>2012-03-25T06:59:39Z</time>
  <sat>9</sat>
</trkpt>
<trkpt lat="39.761589000" lon="-0.327054000">
  <ele>197.300000</ele>
  <time>2012-03-25T06:59:42Z</time>
  <sat>9</sat>
</trkpt>
<trkpt lat="39.761538000" lon="-0.326895000">
  <ele>197.300000</ele>
  <time>2012-03-25T06:59:45Z</time>
  <sat>9</sat>
</trkpt>
<trkpt lat="39.761536000" lon="-0.326851000">
  <ele>197.600000</ele>
  <time>2012-03-25T06:59:46Z</time>
  <sat>9</sat>
</trkpt>
<trkpt lat="39.761604000" lon="-0.326647000">
  <ele>195.800000</ele>
  <time>2012-03-25T06:59:51Z</time>
  <sat>9</sat>
</trkpt>
<trkpt lat="39.761648000" lon="-0.326510000">
  <ele>196.100000</ele>
  <time>2012-03-25T06:59:54Z</time>
  <sat>9</sat>
</trkpt>
<trkpt lat="39.761572000" lon="-0.326310000">
  <ele>195.300000</ele>
  <time>2012-03-25T06:59:57Z</time>
  <sat>9</sat>
</trkpt>
<trkpt lat="39.761528000" lon="-0.326177000">
  <ele>195.600000</ele>
  <time>2012-03-25T06:59:59Z</time>
  <sat>9</sat>
</trkpt>
<trkpt lat="39.761485000" lon="-0.326054000">
  <ele>194.800000</ele>
  <time>2012-03-25T07:00:01Z</time>
  <sat>9</sat>
</trkpt>
<trkpt lat="39.761419000" lon="-0.325888000">
  <ele>194.800000</ele>
  <time>2012-03-25T07:00:04Z</time>
  <sat>9</sat>
</trkpt>
<trkpt lat="39.761365000" lon="-0.325736000">
  <ele>192.600000</ele>
  <time>2012-03-25T07:00:07Z</time>
  <sat>9</sat>
</trkpt>
<trkpt lat="39.761386000" lon="-0.325593000">
  <ele>192.100000</ele>
  <time>2012-03-25T07:00:10Z</time>
  <sat>9</sat>
</trkpt>
<trkpt lat="39.761561000" lon="-0.325464000">
  <ele>191.500000</ele>
  <time>2012-03-25T07:00:13Z</time>
  <sat>9</sat>
</trkpt>
<trkpt lat="39.761687000" lon="-0.325329000">
  <ele>191.600000</ele>
  <time>2012-03-25T07:00:16Z</time>
  <sat>9</sat>
</trkpt>
<trkpt lat="39.761790000" lon="-0.325176000">
  <ele>191.600000</ele>
  <time>2012-03-25T07:00:19Z</time>
  <sat>9</sat>
</trkpt>
<trkpt lat="39.761750000" lon="-0.324981000">
  <ele>191.000000</ele>
  <time>2012-03-25T07:00:22Z</time>
  <sat>9</sat>
</trkpt>
<trkpt lat="39.761679000" lon="-0.324794000">
  <ele>191.100000</ele>
  <time>2012-03-25T07:00:25Z</time>
  <sat>9</sat>
</trkpt>
<trkpt lat="39.761662000" lon="-0.324691000">
  <ele>190.600000</ele>
  <time>2012-03-25T07:00:28Z</time>
  <sat>9</sat>
</trkpt>
<trkpt lat="39.761657000" lon="-0.324675000">
  <ele>191.000000</ele>
  <time>2012-03-25T07:00:31Z</time>
  <sat>9</sat>
</trkpt>
<trkpt lat="39.761654000" lon="-0.324684000">
  <ele>191.000000</ele>
  <time>2012-03-25T07:00:34Z</time>
  <sat>7</sat>
</trkpt>
<trkpt lat="39.761672000" lon="-0.324677000">
  <ele>190.600000</ele>
  <time>2012-03-25T07:00:37Z</time>
  <sat>8</sat>
</trkpt>
<trkpt lat="39.761732000" lon="-0.324625000">
  <ele>190.100000</ele>
  <time>2012-03-25T07:00:40Z</time>
  <sat>8</sat>
</trkpt>
<trkpt lat="39.761819000" lon="-0.324571000">
  <ele>189.800000</ele>
  <time>2012-03-25T07:00:43Z</time>
  <sat>9</sat>
</trkpt>
<trkpt lat="39.761912000" lon="-0.324515000">
  <ele>189.300000</ele>
  <time>2012-03-25T07:00:46Z</time>
  <sat>9</sat>
</trkpt>
<trkpt lat="39.761993000" lon="-0.324456000">
  <ele>189.000000</ele>
  <time>2012-03-25T07:00:49Z</time>
  <sat>9</sat>
</trkpt>
<trkpt lat="39.762017000" lon="-0.324439000">
  <ele>188.800000</ele>
  <time>2012-03-25T07:00:50Z</time>
  <sat>9</sat>
</trkpt>
<trkpt lat="39.762056000" lon="-0.324402000">
  <ele>189.100000</ele>
  <time>2012-03-25T07:00:54Z</time>
  <sat>9</sat>
</trkpt>
<trkpt lat="39.762057000" lon="-0.324402000">
  <ele>189.000000</ele>
  <time>2012-03-25T07:00:57Z</time>
  <sat>9</sat>
</trkpt>
<trkpt lat="39.762058000" lon="-0.324402000">
  <ele>189.000000</ele>
  <time>2012-03-25T07:00:59Z</time>
  <sat>9</sat>
</trkpt>
<trkpt lat="39.762059000" lon="-0.324401000">
  <ele>188.800000</ele>
  <time>2012-03-25T07:01:01Z</time>
  <sat>9</sat>
</trkpt>
<trkpt lat="39.762060000" lon="-0.324402000">
  <ele>188.800000</ele>
  <time>2012-03-25T07:01:04Z</time>
  <sat>9</sat>
</trkpt>
<trkpt lat="39.762062000" lon="-0.324397000">
  <ele>188.800000</ele>
  <time>2012-03-25T07:01:07Z</time>
  <sat>9</sat>
</trkpt>
<trkpt lat="39.762071000" lon="-0.324383000">
  <ele>189.600000</ele>
  <time>2012-03-25T07:01:10Z</time>
  <sat>9</sat>
</trkpt>
<trkpt lat="39.762054000" lon="-0.324411000">
  <ele>189.100000</ele>
  <time>2012-03-25T07:01:13Z</time>
  <sat>9</sat>
</trkpt>
<trkpt lat="39.761930000" lon="-0.324521000">
  <ele>189.000000</ele>
  <time>2012-03-25T07:01:16Z</time>
  <sat>9</sat>
</trkpt>
<trkpt lat="39.761808000" lon="-0.324608000">
  <ele>188.500000</ele>
  <time>2012-03-25T07:01:19Z</time>
  <sat>7</sat>
</trkpt>
<trkpt lat="39.761682000" lon="-0.324701000">
  <ele>188.300000</ele>
  <time>2012-03-25T07:01:22Z</time>
  <sat>7</sat>
</trkpt>
<trkpt lat="39.761560000" lon="-0.324774000">
  <ele>187.800000</ele>
  <time>2012-03-25T07:01:25Z</time>
  <sat>8</sat>
</trkpt>
<trkpt lat="39.761454000" lon="-0.324855000">
  <ele>189.000000</ele>
  <time>2012-03-25T07:01:28Z</time>
  <sat>9</sat>
</trkpt>
<trkpt lat="39.761357000" lon="-0.324926000">
  <ele>189.500000</ele>
  <time>2012-03-25T07:01:31Z</time>
  <sat>9</sat>
</trkpt>
<trkpt lat="39.761264000" lon="-0.324996000">
  <ele>189.300000</ele>
  <time>2012-03-25T07:01:34Z</time>
  <sat>9</sat>
</trkpt>
<trkpt lat="39.761162000" lon="-0.325067000">
  <ele>188.800000</ele>
  <time>2012-03-25T07:01:37Z</time>
  <sat>8</sat>
</trkpt>
<trkpt lat="39.761068000" lon="-0.325136000">
  <ele>189.300000</ele>
  <time>2012-03-25T07:01:40Z</time>
  <sat>9</sat>
</trkpt>
<trkpt lat="39.761002000" lon="-0.325116000">
  <ele>190.300000</ele>
  <time>2012-03-25T07:01:43Z</time>
  <sat>9</sat>
</trkpt>
<trkpt lat="39.760948000" lon="-0.325039000">
  <ele>190.000000</ele>
  <time>2012-03-25T07:01:46Z</time>
  <sat>9</sat>
</trkpt>
<trkpt lat="39.760888000" lon="-0.324904000">
  <ele>190.600000</ele>
  <time>2012-03-25T07:01:49Z</time>
  <sat>9</sat>
</trkpt>
<trkpt lat="39.760813000" lon="-0.324758000">
  <ele>189.800000</ele>
  <time>2012-03-25T07:01:52Z</time>
  <sat>9</sat>
</trkpt>
<trkpt lat="39.760791000" lon="-0.324712000">
  <ele>189.500000</ele>
  <time>2012-03-25T07:01:53Z</time>
  <sat>9</sat>
</trkpt>
<trkpt lat="39.760723000" lon="-0.324546000">
  <ele>188.800000</ele>
  <time>2012-03-25T07:01:58Z</time>
  <sat>9</sat>
</trkpt>
<trkpt lat="39.760661000" lon="-0.324601000">
  <ele>188.800000</ele>
  <time>2012-03-25T07:02:00Z</time>
  <sat>9</sat>
</trkpt>
<trkpt lat="39.760594000" lon="-0.324704000">
  <ele>189.300000</ele>
  <time>2012-03-25T07:02:03Z</time>
  <sat>9</sat>
</trkpt>
<trkpt lat="39.760535000" lon="-0.324764000">
  <ele>190.500000</ele>
  <time>2012-03-25T07:02:06Z</time>
  <sat>9</sat>
</trkpt>
<trkpt lat="39.760494000" lon="-0.324708000">
  <ele>189.100000</ele>
  <time>2012-03-25T07:02:09Z</time>
  <sat>9</sat>
</trkpt>
<trkpt lat="39.760421000" lon="-0.324647000">
  <ele>189.600000</ele>
  <time>2012-03-25T07:02:12Z</time>
  <sat>9</sat>
</trkpt>
<trkpt lat="39.760331000" lon="-0.324577000">
  <ele>189.100000</ele>
  <time>2012-03-25T07:02:15Z</time>
  <sat>9</sat>
</trkpt>
<trkpt lat="39.760260000" lon="-0.324506000">
  <ele>187.600000</ele>
  <time>2012-03-25T07:02:18Z</time>
  <sat>9</sat>
</trkpt>
<trkpt lat="39.760188000" lon="-0.324432000">
  <ele>187.300000</ele>
  <time>2012-03-25T07:02:21Z</time>
  <sat>9</sat>
</trkpt>
<trkpt lat="39.760124000" lon="-0.324368000">
  <ele>187.000000</ele>
  <time>2012-03-25T07:02:24Z</time>
  <sat>9</sat>
</trkpt>
<trkpt lat="39.760111000" lon="-0.324352000">
  <ele>186.100000</ele>
  <time>2012-03-25T07:02:27Z</time>
  <sat>9</sat>
</trkpt>
<trkpt lat="39.760131000" lon="-0.324373000">
  <ele>186.600000</ele>
  <time>2012-03-25T07:02:30Z</time>
  <sat>8</sat>
</trkpt>
<trkpt lat="39.760162000" lon="-0.324394000">
  <ele>186.100000</ele>
  <time>2012-03-25T07:02:33Z</time>
  <sat>6</sat>
</trkpt>
<trkpt lat="39.760210000" lon="-0.324437000">
  <ele>185.600000</ele>
  <time>2012-03-25T07:02:36Z</time>
  <sat>9</sat>
</trkpt>
<trkpt lat="39.760276000" lon="-0.324492000">
  <ele>184.600000</ele>
  <time>2012-03-25T07:02:39Z</time>
  <sat>9</sat>
</trkpt>
<trkpt lat="39.760344000" lon="-0.324576000">
  <ele>184.500000</ele>
  <time>2012-03-25T07:02:42Z</time>
  <sat>9</sat>
</trkpt>
<trkpt lat="39.760436000" lon="-0.324646000">
  <ele>184.500000</ele>
  <time>2012-03-25T07:02:45Z</time>
  <sat>9</sat>
</trkpt>
<trkpt lat="39.760524000" lon="-0.324712000">
  <ele>184.600000</ele>
  <time>2012-03-25T07:02:48Z</time>
  <sat>9</sat>
</trkpt>
<trkpt lat="39.760627000" lon="-0.324715000">
  <ele>185.300000</ele>
  <time>2012-03-25T07:02:51Z</time>
  <sat>9</sat>
</trkpt>
<trkpt lat="39.760702000" lon="-0.324628000">
  <ele>186.100000</ele>
  <time>2012-03-25T07:02:54Z</time>
  <sat>9</sat>
</trkpt>
<trkpt lat="39.760725000" lon="-0.324626000">
  <ele>185.600000</ele>
  <time>2012-03-25T07:02:55Z</time>
  <sat>9</sat>
</trkpt>
<trkpt lat="39.760823000" lon="-0.324645000">
  <ele>185.600000</ele>
  <time>2012-03-25T07:02:59Z</time>
  <sat>9</sat>
</trkpt>
<trkpt lat="39.760862000" lon="-0.324719000">
  <ele>186.000000</ele>
  <time>2012-03-25T07:03:01Z</time>
  <sat>9</sat>
</trkpt>
<trkpt lat="39.760933000" lon="-0.324860000">
  <ele>186.300000</ele>
  <time>2012-03-25T07:03:04Z</time>
  <sat>9</sat>
</trkpt>
<trkpt lat="39.760999000" lon="-0.325009000">
  <ele>185.300000</ele>
  <time>2012-03-25T07:03:07Z</time>
  <sat>9</sat>
</trkpt>
<trkpt lat="39.761064000" lon="-0.325110000">
  <ele>186.600000</ele>
  <time>2012-03-25T07:03:10Z</time>
  <sat>9</sat>
</trkpt>
<trkpt lat="39.761130000" lon="-0.325118000">
  <ele>187.100000</ele>
  <time>2012-03-25T07:03:13Z</time>
  <sat>9</sat>
</trkpt>
<trkpt lat="39.761211000" lon="-0.325029000">
  <ele>187.600000</ele>
  <time>2012-03-25T07:03:16Z</time>
  <sat>9</sat>
</trkpt>
<trkpt lat="39.761306000" lon="-0.324964000">
  <ele>187.800000</ele>
  <time>2012-03-25T07:03:19Z</time>
  <sat>9</sat>
</trkpt>
<trkpt lat="39.761404000" lon="-0.324904000">
  <ele>187.300000</ele>
  <time>2012-03-25T07:03:22Z</time>
  <sat>9</sat>
</trkpt>
<trkpt lat="39.761531000" lon="-0.324811000">
  <ele>186.600000</ele>
  <time>2012-03-25T07:03:25Z</time>
  <sat>9</sat>
</trkpt>
<trkpt lat="39.761654000" lon="-0.324713000">
  <ele>186.100000</ele>
  <time>2012-03-25T07:03:28Z</time>
  <sat>9</sat>
</trkpt>
<trkpt lat="39.761753000" lon="-0.324617000">
  <ele>186.300000</ele>
  <time>2012-03-25T07:03:31Z</time>
  <sat>9</sat>
</trkpt>
<trkpt lat="39.761870000" lon="-0.324542000">
  <ele>186.500000</ele>
  <time>2012-03-25T07:03:34Z</time>
  <sat>9</sat>
</trkpt>
<trkpt lat="39.761993000" lon="-0.324465000">
  <ele>187.300000</ele>
  <time>2012-03-25T07:03:37Z</time>
  <sat>9</sat>
</trkpt>
<trkpt lat="39.762114000" lon="-0.324373000">
  <ele>187.000000</ele>
  <time>2012-03-25T07:03:40Z</time>
  <sat>9</sat>
</trkpt>
<trkpt lat="39.762247000" lon="-0.324287000">
  <ele>187.300000</ele>
  <time>2012-03-25T07:03:43Z</time>
  <sat>9</sat>
</trkpt>
<trkpt lat="39.762371000" lon="-0.324194000">
  <ele>186.800000</ele>
  <time>2012-03-25T07:03:46Z</time>
  <sat>9</sat>
</trkpt>
<trkpt lat="39.762499000" lon="-0.324092000">
  <ele>187.100000</ele>
  <time>2012-03-25T07:03:49Z</time>
  <sat>9</sat>
</trkpt>
<trkpt lat="39.762624000" lon="-0.323995000">
  <ele>188.300000</ele>
  <time>2012-03-25T07:03:52Z</time>
  <sat>9</sat>
</trkpt>
<trkpt lat="39.762746000" lon="-0.323902000">
  <ele>188.600000</ele>
  <time>2012-03-25T07:03:55Z</time>
  <sat>9</sat>
</trkpt>
<trkpt lat="39.762868000" lon="-0.323810000">
  <ele>188.800000</ele>
  <time>2012-03-25T07:03:58Z</time>
  <sat>8</sat>
</trkpt>
<trkpt lat="39.762905000" lon="-0.323783000">
  <ele>189.100000</ele>
  <time>2012-03-25T07:03:59Z</time>
  <sat>8</sat>
</trkpt>
<trkpt lat="39.763050000" lon="-0.323682000">
  <ele>190.100000</ele>
  <time>2012-03-25T07:04:03Z</time>
  <sat>9</sat>
</trkpt>
<trkpt lat="39.763156000" lon="-0.323599000">
  <ele>190.600000</ele>
  <time>2012-03-25T07:04:06Z</time>
  <sat>9</sat>
</trkpt>
<trkpt lat="39.763256000" lon="-0.323521000">
  <ele>191.100000</ele>
  <time>2012-03-25T07:04:09Z</time>
  <sat>9</sat>
</trkpt>
<trkpt lat="39.763355000" lon="-0.323446000">
  <ele>191.300000</ele>
  <time>2012-03-25T07:04:12Z</time>
  <sat>9</sat>
</trkpt>
<trkpt lat="39.763466000" lon="-0.323367000">
  <ele>191.100000</ele>
  <time>2012-03-25T07:04:15Z</time>
  <sat>9</sat>
</trkpt>
<trkpt lat="39.763588000" lon="-0.323281000">
  <ele>190.600000</ele>
  <time>2012-03-25T07:04:18Z</time>
  <sat>8</sat>
</trkpt>
<trkpt lat="39.763724000" lon="-0.323185000">
  <ele>190.100000</ele>
  <time>2012-03-25T07:04:21Z</time>
  <sat>8</sat>
</trkpt>
<trkpt lat="39.763867000" lon="-0.323076000">
  <ele>190.000000</ele>
  <time>2012-03-25T07:04:24Z</time>
  <sat>9</sat>
</trkpt>
<trkpt lat="39.764014000" lon="-0.322967000">
  <ele>189.000000</ele>
  <time>2012-03-25T07:04:27Z</time>
  <sat>9</sat>
</trkpt>
<trkpt lat="39.764168000" lon="-0.322853000">
  <ele>187.800000</ele>
  <time>2012-03-25T07:04:30Z</time>
  <sat>9</sat>
</trkpt>
<trkpt lat="39.764334000" lon="-0.322736000">
  <ele>186.100000</ele>
  <time>2012-03-25T07:04:33Z</time>
  <sat>9</sat>
</trkpt>
<trkpt lat="39.764529000" lon="-0.322599000">
  <ele>183.600000</ele>
  <time>2012-03-25T07:04:36Z</time>
  <sat>9</sat>
</trkpt>
<trkpt lat="39.764744000" lon="-0.322454000">
  <ele>182.300000</ele>
  <time>2012-03-25T07:04:39Z</time>
  <sat>9</sat>
</trkpt>
<trkpt lat="39.764931000" lon="-0.322311000">
  <ele>181.800000</ele>
  <time>2012-03-25T07:04:42Z</time>
  <sat>9</sat>
</trkpt>
<trkpt lat="39.765033000" lon="-0.322166000">
  <ele>182.100000</ele>
  <time>2012-03-25T07:04:45Z</time>
  <sat>9</sat>
</trkpt>
<trkpt lat="39.764987000" lon="-0.322007000">
  <ele>182.300000</ele>
  <time>2012-03-25T07:04:48Z</time>
  <sat>9</sat>
</trkpt>
<trkpt lat="39.764847000" lon="-0.321941000">
  <ele>182.300000</ele>
  <time>2012-03-25T07:04:51Z</time>
  <sat>9</sat>
</trkpt>
<trkpt lat="39.764702000" lon="-0.321888000">
  <ele>181.800000</ele>
  <time>2012-03-25T07:04:54Z</time>
  <sat>8</sat>
</trkpt>
<trkpt lat="39.764557000" lon="-0.321860000">
  <ele>181.600000</ele>
  <time>2012-03-25T07:04:57Z</time>
  <sat>8</sat>
</trkpt>
<trkpt lat="39.764459000" lon="-0.321835000">
  <ele>182.300000</ele>
  <time>2012-03-25T07:04:59Z</time>
  <sat>8</sat>
</trkpt>
<trkpt lat="39.764361000" lon="-0.321815000">
  <ele>182.500000</ele>
  <time>2012-03-25T07:05:01Z</time>
  <sat>7</sat>
</trkpt>
<trkpt lat="39.764309000" lon="-0.321800000">
  <ele>182.300000</ele>
  <time>2012-03-25T07:05:02Z</time>
  <sat>8</sat>
</trkpt>
<trkpt lat="39.764069000" lon="-0.321675000">
  <ele>181.800000</ele>
  <time>2012-03-25T07:05:07Z</time>
  <sat>8</sat>
</trkpt>
<trkpt lat="39.763927000" lon="-0.321560000">
  <ele>180.800000</ele>
  <time>2012-03-25T07:05:10Z</time>
  <sat>8</sat>
</trkpt>
<trkpt lat="39.763757000" lon="-0.321492000">
  <ele>181.300000</ele>
  <time>2012-03-25T07:05:13Z</time>
  <sat>8</sat>
</trkpt>
<trkpt lat="39.763594000" lon="-0.321428000">
  <ele>180.600000</ele>
  <time>2012-03-25T07:05:16Z</time>
  <sat>8</sat>
</trkpt>
<trkpt lat="39.763423000" lon="-0.321371000">
  <ele>179.800000</ele>
  <time>2012-03-25T07:05:19Z</time>
  <sat>8</sat>
</trkpt>
<trkpt lat="39.763249000" lon="-0.321310000">
  <ele>179.600000</ele>
  <time>2012-03-25T07:05:22Z</time>
  <sat>8</sat>
</trkpt>
<trkpt lat="39.763077000" lon="-0.321239000">
  <ele>180.000000</ele>
  <time>2012-03-25T07:05:25Z</time>
  <sat>8</sat>
</trkpt>
<trkpt lat="39.762911000" lon="-0.321177000">
  <ele>179.600000</ele>
  <time>2012-03-25T07:05:28Z</time>
  <sat>8</sat>
</trkpt>
<trkpt lat="39.762751000" lon="-0.321096000">
  <ele>179.600000</ele>
  <time>2012-03-25T07:05:31Z</time>
  <sat>9</sat>
</trkpt>
<trkpt lat="39.762604000" lon="-0.320981000">
  <ele>179.100000</ele>
  <time>2012-03-25T07:05:34Z</time>
  <sat>9</sat>
</trkpt>
<trkpt lat="39.762441000" lon="-0.320897000">
  <ele>178.800000</ele>
  <time>2012-03-25T07:05:37Z</time>
  <sat>9</sat>
</trkpt>
<trkpt lat="39.762267000" lon="-0.320866000">
  <ele>178.500000</ele>
  <time>2012-03-25T07:05:40Z</time>
  <sat>7</sat>
</trkpt>
<trkpt lat="39.762082000" lon="-0.320833000">
  <ele>177.800000</ele>
  <time>2012-03-25T07:05:43Z</time>
  <sat>8</sat>
</trkpt>
<trkpt lat="39.761890000" lon="-0.320792000">
  <ele>177.800000</ele>
  <time>2012-03-25T07:05:46Z</time>
  <sat>8</sat>
</trkpt>
<trkpt lat="39.761699000" lon="-0.320750000">
  <ele>177.600000</ele>
  <time>2012-03-25T07:05:49Z</time>
  <sat>7</sat>
</trkpt>
<trkpt lat="39.761516000" lon="-0.320704000">
  <ele>177.800000</ele>
  <time>2012-03-25T07:05:52Z</time>
  <sat>8</sat>
</trkpt>
<trkpt lat="39.761362000" lon="-0.320667000">
  <ele>176.600000</ele>
  <time>2012-03-25T07:05:55Z</time>
  <sat>9</sat>
</trkpt>
<trkpt lat="39.761266000" lon="-0.320634000">
  <ele>176.600000</ele>
  <time>2012-03-25T07:05:58Z</time>
  <sat>9</sat>
</trkpt>
<trkpt lat="39.761190000" lon="-0.320627000">
  <ele>176.000000</ele>
  <time>2012-03-25T07:06:00Z</time>
  <sat>8</sat>
</trkpt>
<trkpt lat="39.761057000" lon="-0.320613000">
  <ele>175.800000</ele>
  <time>2012-03-25T07:06:03Z</time>
  <sat>9</sat>
</trkpt>
<trkpt lat="39.761006000" lon="-0.320620000">
  <ele>175.800000</ele>
  <time>2012-03-25T07:06:04Z</time>
  <sat>9</sat>
</trkpt>
<trkpt lat="39.760758000" lon="-0.320713000">
  <ele>175.300000</ele>
  <time>2012-03-25T07:06:09Z</time>
  <sat>6</sat>
</trkpt>
<trkpt lat="39.760604000" lon="-0.320785000">
  <ele>174.600000</ele>
  <time>2012-03-25T07:06:12Z</time>
  <sat>6</sat>
</trkpt>
<trkpt lat="39.760440000" lon="-0.320840000">
  <ele>174.500000</ele>
  <time>2012-03-25T07:06:15Z</time>
  <sat>8</sat>
</trkpt>
<trkpt lat="39.760268000" lon="-0.320831000">
  <ele>174.300000</ele>
  <time>2012-03-25T07:06:18Z</time>
  <sat>8</sat>
</trkpt>
<trkpt lat="39.760110000" lon="-0.320773000">
  <ele>174.000000</ele>
  <time>2012-03-25T07:06:21Z</time>
  <sat>9</sat>
</trkpt>
<trkpt lat="39.759966000" lon="-0.320711000">
  <ele>173.800000</ele>
  <time>2012-03-25T07:06:24Z</time>
  <sat>9</sat>
</trkpt>
<trkpt lat="39.759826000" lon="-0.320651000">
  <ele>172.800000</ele>
  <time>2012-03-25T07:06:27Z</time>
  <sat>9</sat>
</trkpt>
<trkpt lat="39.759693000" lon="-0.320583000">
  <ele>172.500000</ele>
  <time>2012-03-25T07:06:30Z</time>
  <sat>8</sat>
</trkpt>
<trkpt lat="39.759596000" lon="-0.320451000">
  <ele>171.800000</ele>
  <time>2012-03-25T07:06:33Z</time>
  <sat>9</sat>
</trkpt>
<trkpt lat="39.759519000" lon="-0.320281000">
  <ele>172.600000</ele>
  <time>2012-03-25T07:06:36Z</time>
  <sat>9</sat>
</trkpt>
<trkpt lat="39.759437000" lon="-0.320152000">
  <ele>173.100000</ele>
  <time>2012-03-25T07:06:39Z</time>
  <sat>9</sat>
</trkpt>
<trkpt lat="39.759331000" lon="-0.320094000">
  <ele>172.500000</ele>
  <time>2012-03-25T07:06:42Z</time>
  <sat>9</sat>
</trkpt>
<trkpt lat="39.759209000" lon="-0.320050000">
  <ele>171.300000</ele>
  <time>2012-03-25T07:06:45Z</time>
  <sat>9</sat>
</trkpt>
<trkpt lat="39.759081000" lon="-0.320018000">
  <ele>170.500000</ele>
  <time>2012-03-25T07:06:48Z</time>
  <sat>9</sat>
</trkpt>
<trkpt lat="39.758939000" lon="-0.319980000">
  <ele>170.100000</ele>
  <time>2012-03-25T07:06:51Z</time>
  <sat>7</sat>
</trkpt>
<trkpt lat="39.758780000" lon="-0.319936000">
  <ele>169.100000</ele>
  <time>2012-03-25T07:06:54Z</time>
  <sat>7</sat>
</trkpt>
<trkpt lat="39.758609000" lon="-0.319871000">
  <ele>169.000000</ele>
  <time>2012-03-25T07:06:57Z</time>
  <sat>8</sat>
</trkpt>
<trkpt lat="39.758493000" lon="-0.319836000">
  <ele>169.100000</ele>
  <time>2012-03-25T07:06:59Z</time>
  <sat>9</sat>
</trkpt>
<trkpt lat="39.758376000" lon="-0.319798000">
  <ele>168.500000</ele>
  <time>2012-03-25T07:07:01Z</time>
  <sat>9</sat>
</trkpt>
<trkpt lat="39.758209000" lon="-0.319743000">
  <ele>168.000000</ele>
  <time>2012-03-25T07:07:04Z</time>
  <sat>8</sat>
</trkpt>
<trkpt lat="39.758051000" lon="-0.319711000">
  <ele>168.800000</ele>
  <time>2012-03-25T07:07:07Z</time>
  <sat>8</sat>
</trkpt>
<trkpt lat="39.758000000" lon="-0.319705000">
  <ele>168.600000</ele>
  <time>2012-03-25T07:07:08Z</time>
  <sat>8</sat>
</trkpt>
<trkpt lat="39.757771000" lon="-0.319665000">
  <ele>168.300000</ele>
  <time>2012-03-25T07:07:13Z</time>
  <sat>7</sat>
</trkpt>
<trkpt lat="39.757702000" lon="-0.319575000">
  <ele>168.300000</ele>
  <time>2012-03-25T07:07:16Z</time>
  <sat>9</sat>
</trkpt>
<trkpt lat="39.757708000" lon="-0.319398000">
  <ele>168.100000</ele>
  <time>2012-03-25T07:07:19Z</time>
  <sat>9</sat>
</trkpt>
<trkpt lat="39.757703000" lon="-0.319193000">
  <ele>167.800000</ele>
  <time>2012-03-25T07:07:22Z</time>
  <sat>9</sat>
</trkpt>
<trkpt lat="39.757699000" lon="-0.318976000">
  <ele>168.000000</ele>
  <time>2012-03-25T07:07:25Z</time>
  <sat>8</sat>
</trkpt>
<trkpt lat="39.757694000" lon="-0.318761000">
  <ele>168.500000</ele>
  <time>2012-03-25T07:07:28Z</time>
  <sat>8</sat>
</trkpt>
<trkpt lat="39.757685000" lon="-0.318551000">
  <ele>168.600000</ele>
  <time>2012-03-25T07:07:31Z</time>
  <sat>8</sat>
</trkpt>
<trkpt lat="39.757680000" lon="-0.318344000">
  <ele>168.800000</ele>
  <time>2012-03-25T07:07:34Z</time>
  <sat>8</sat>
</trkpt>
<trkpt lat="39.757664000" lon="-0.318138000">
  <ele>170.300000</ele>
  <time>2012-03-25T07:07:37Z</time>
  <sat>8</sat>
</trkpt>
<trkpt lat="39.757666000" lon="-0.317941000">
  <ele>170.600000</ele>
  <time>2012-03-25T07:07:40Z</time>
  <sat>9</sat>
</trkpt>
<trkpt lat="39.757645000" lon="-0.317794000">
  <ele>172.500000</ele>
  <time>2012-03-25T07:07:43Z</time>
  <sat>9</sat>
</trkpt>
<trkpt lat="39.757641000" lon="-0.317692000">
  <ele>173.100000</ele>
  <time>2012-03-25T07:07:46Z</time>
  <sat>9</sat>
</trkpt>
<trkpt lat="39.757708000" lon="-0.317643000">
  <ele>173.100000</ele>
  <time>2012-03-25T07:07:49Z</time>
  <sat>9</sat>
</trkpt>
<trkpt lat="39.757770000" lon="-0.317673000">
  <ele>173.500000</ele>
  <time>2012-03-25T07:07:52Z</time>
  <sat>9</sat>
</trkpt>
<trkpt lat="39.757829000" lon="-0.317728000">
  <ele>174.100000</ele>
  <time>2012-03-25T07:07:55Z</time>
  <sat>9</sat>
</trkpt>
<trkpt lat="39.757905000" lon="-0.317789000">
  <ele>175.600000</ele>
  <time>2012-03-25T07:07:58Z</time>
  <sat>9</sat>
</trkpt>
<trkpt lat="39.757961000" lon="-0.317817000">
  <ele>176.600000</ele>
  <time>2012-03-25T07:08:00Z</time>
  <sat>9</sat>
</trkpt>
<trkpt lat="39.758043000" lon="-0.317911000">
  <ele>175.800000</ele>
  <time>2012-03-25T07:08:03Z</time>
  <sat>9</sat>
</trkpt>
<trkpt lat="39.758130000" lon="-0.317998000">
  <ele>175.600000</ele>
  <time>2012-03-25T07:08:06Z</time>
  <sat>9</sat>
</trkpt>
<trkpt lat="39.758202000" lon="-0.318066000">
  <ele>177.600000</ele>
  <time>2012-03-25T07:08:09Z</time>
  <sat>9</sat>
</trkpt>
<trkpt lat="39.758223000" lon="-0.318085000">
  <ele>178.500000</ele>
  <time>2012-03-25T07:08:10Z</time>
  <sat>9</sat>
</trkpt>
<trkpt lat="39.758378000" lon="-0.318199000">
  <ele>178.300000</ele>
  <time>2012-03-25T07:08:15Z</time>
  <sat>9</sat>
</trkpt>
<trkpt lat="39.758465000" lon="-0.318153000">
  <ele>177.600000</ele>
  <time>2012-03-25T07:08:18Z</time>
  <sat>9</sat>
</trkpt>
<trkpt lat="39.758517000" lon="-0.318056000">
  <ele>178.300000</ele>
  <time>2012-03-25T07:08:21Z</time>
  <sat>9</sat>
</trkpt>
<trkpt lat="39.758583000" lon="-0.317930000">
  <ele>177.000000</ele>
  <time>2012-03-25T07:08:24Z</time>
  <sat>9</sat>
</trkpt>
<trkpt lat="39.758640000" lon="-0.317797000">
  <ele>175.600000</ele>
  <time>2012-03-25T07:08:27Z</time>
  <sat>9</sat>
</trkpt>
<trkpt lat="39.758693000" lon="-0.317678000">
  <ele>174.800000</ele>
  <time>2012-03-25T07:08:30Z</time>
  <sat>9</sat>
</trkpt>
<trkpt lat="39.758756000" lon="-0.317572000">
  <ele>175.600000</ele>
  <time>2012-03-25T07:08:33Z</time>
  <sat>9</sat>
</trkpt>
<trkpt lat="39.758821000" lon="-0.317456000">
  <ele>175.800000</ele>
  <time>2012-03-25T07:08:36Z</time>
  <sat>9</sat>
</trkpt>
<trkpt lat="39.758892000" lon="-0.317341000">
  <ele>176.100000</ele>
  <time>2012-03-25T07:08:39Z</time>
  <sat>9</sat>
</trkpt>
<trkpt lat="39.758954000" lon="-0.317224000">
  <ele>176.300000</ele>
  <time>2012-03-25T07:08:42Z</time>
  <sat>9</sat>
</trkpt>
<trkpt lat="39.759028000" lon="-0.317106000">
  <ele>175.800000</ele>
  <time>2012-03-25T07:08:45Z</time>
  <sat>9</sat>
</trkpt>
<trkpt lat="39.759113000" lon="-0.316960000">
  <ele>174.600000</ele>
  <time>2012-03-25T07:08:48Z</time>
  <sat>9</sat>
</trkpt>
<trkpt lat="39.759243000" lon="-0.316790000">
  <ele>173.500000</ele>
  <time>2012-03-25T07:08:51Z</time>
  <sat>9</sat>
</trkpt>
<trkpt lat="39.759354000" lon="-0.316625000">
  <ele>172.800000</ele>
  <time>2012-03-25T07:08:54Z</time>
  <sat>9</sat>
</trkpt>
<trkpt lat="39.759460000" lon="-0.316476000">
  <ele>172.800000</ele>
  <time>2012-03-25T07:08:57Z</time>
  <sat>9</sat>
</trkpt>
<trkpt lat="39.759515000" lon="-0.316402000">
  <ele>173.100000</ele>
  <time>2012-03-25T07:08:59Z</time>
  <sat>9</sat>
</trkpt>
<trkpt lat="39.759556000" lon="-0.316333000">
  <ele>173.300000</ele>
  <time>2012-03-25T07:09:01Z</time>
  <sat>9</sat>
</trkpt>
<trkpt lat="39.759614000" lon="-0.316250000">
  <ele>173.500000</ele>
  <time>2012-03-25T07:09:04Z</time>
  <sat>9</sat>
</trkpt>
<trkpt lat="39.759671000" lon="-0.316170000">
  <ele>174.000000</ele>
  <time>2012-03-25T07:09:07Z</time>
  <sat>9</sat>
</trkpt>
<trkpt lat="39.759744000" lon="-0.316119000">
  <ele>174.300000</ele>
  <time>2012-03-25T07:09:10Z</time>
  <sat>9</sat>
</trkpt>
<trkpt lat="39.759831000" lon="-0.316104000">
  <ele>174.800000</ele>
  <time>2012-03-25T07:09:13Z</time>
  <sat>9</sat>
</trkpt>
<trkpt lat="39.759859000" lon="-0.316102000">
  <ele>175.100000</ele>
  <time>2012-03-25T07:09:14Z</time>
  <sat>9</sat>
</trkpt>
<trkpt lat="39.760006000" lon="-0.316087000">
  <ele>175.600000</ele>
  <time>2012-03-25T07:09:19Z</time>
  <sat>8</sat>
</trkpt>
<trkpt lat="39.760091000" lon="-0.316053000">
  <ele>175.800000</ele>
  <time>2012-03-25T07:09:22Z</time>
  <sat>8</sat>
</trkpt>
<trkpt lat="39.760166000" lon="-0.316018000">
  <ele>175.600000</ele>
  <time>2012-03-25T07:09:25Z</time>
  <sat>8</sat>
</trkpt>
<trkpt lat="39.760251000" lon="-0.315989000">
  <ele>176.100000</ele>
  <time>2012-03-25T07:09:28Z</time>
  <sat>8</sat>
</trkpt>
<trkpt lat="39.760328000" lon="-0.315971000">
  <ele>176.100000</ele>
  <time>2012-03-25T07:09:31Z</time>
  <sat>7</sat>
</trkpt>
<trkpt lat="39.760414000" lon="-0.315955000">
  <ele>175.800000</ele>
  <time>2012-03-25T07:09:34Z</time>
  <sat>7</sat>
</trkpt>
<trkpt lat="39.760502000" lon="-0.315933000">
  <ele>175.100000</ele>
  <time>2012-03-25T07:09:37Z</time>
  <sat>8</sat>
</trkpt>
<trkpt lat="39.760592000" lon="-0.315907000">
  <ele>175.800000</ele>
  <time>2012-03-25T07:09:40Z</time>
  <sat>8</sat>
</trkpt>
<trkpt lat="39.760691000" lon="-0.315898000">
  <ele>176.500000</ele>
  <time>2012-03-25T07:09:43Z</time>
  <sat>8</sat>
</trkpt>
<trkpt lat="39.760782000" lon="-0.315899000">
  <ele>176.600000</ele>
  <time>2012-03-25T07:09:46Z</time>
  <sat>7</sat>
</trkpt>
<trkpt lat="39.760871000" lon="-0.315885000">
  <ele>177.500000</ele>
  <time>2012-03-25T07:09:49Z</time>
  <sat>9</sat>
</trkpt>
<trkpt lat="39.760961000" lon="-0.315853000">
  <ele>177.800000</ele>
  <time>2012-03-25T07:09:52Z</time>
  <sat>9</sat>
</trkpt>
<trkpt lat="39.761051000" lon="-0.315839000">
  <ele>178.100000</ele>
  <time>2012-03-25T07:09:55Z</time>
  <sat>9</sat>
</trkpt>
<trkpt lat="39.761139000" lon="-0.315853000">
  <ele>178.100000</ele>
  <time>2012-03-25T07:09:58Z</time>
  <sat>9</sat>
</trkpt>
<trkpt lat="39.761193000" lon="-0.315864000">
  <ele>178.600000</ele>
  <time>2012-03-25T07:10:00Z</time>
  <sat>9</sat>
</trkpt>
<trkpt lat="39.761272000" lon="-0.315874000">
  <ele>179.100000</ele>
  <time>2012-03-25T07:10:03Z</time>
  <sat>7</sat>
</trkpt>
<trkpt lat="39.761351000" lon="-0.315888000">
  <ele>178.800000</ele>
  <time>2012-03-25T07:10:06Z</time>
  <sat>6</sat>
</trkpt>
<trkpt lat="39.761426000" lon="-0.315879000">
  <ele>178.100000</ele>
  <time>2012-03-25T07:10:09Z</time>
  <sat>7</sat>
</trkpt>
<trkpt lat="39.761494000" lon="-0.315866000">
  <ele>179.100000</ele>
  <time>2012-03-25T07:10:12Z</time>
  <sat>8</sat>
</trkpt>
<trkpt lat="39.761557000" lon="-0.315843000">
  <ele>179.300000</ele>
  <time>2012-03-25T07:10:15Z</time>
  <sat>8</sat>
</trkpt>
<trkpt lat="39.761581000" lon="-0.315840000">
  <ele>179.600000</ele>
  <time>2012-03-25T07:10:16Z</time>
  <sat>9</sat>
</trkpt>
<trkpt lat="39.761702000" lon="-0.315801000">
  <ele>180.100000</ele>
  <time>2012-03-25T07:10:21Z</time>
  <sat>9</sat>
</trkpt>
<trkpt lat="39.761781000" lon="-0.315789000">
  <ele>180.800000</ele>
  <time>2012-03-25T07:10:24Z</time>
  <sat>9</sat>
</trkpt>
<trkpt lat="39.761857000" lon="-0.315764000">
  <ele>181.600000</ele>
  <time>2012-03-25T07:10:27Z</time>
  <sat>8</sat>
</trkpt>
<trkpt lat="39.761924000" lon="-0.315724000">
  <ele>181.600000</ele>
  <time>2012-03-25T07:10:30Z</time>
  <sat>8</sat>
</trkpt>
<trkpt lat="39.762002000" lon="-0.315705000">
  <ele>182.800000</ele>
  <time>2012-03-25T07:10:33Z</time>
  <sat>9</sat>
</trkpt>
<trkpt lat="39.762073000" lon="-0.315694000">
  <ele>182.800000</ele>
  <time>2012-03-25T07:10:36Z</time>
  <sat>8</sat>
</trkpt>
<trkpt lat="39.762146000" lon="-0.315711000">
  <ele>183.600000</ele>
  <time>2012-03-25T07:10:39Z</time>
  <sat>7</sat>
</trkpt>
<trkpt lat="39.762215000" lon="-0.315710000">
  <ele>183.600000</ele>
  <time>2012-03-25T07:10:42Z</time>
  <sat>9</sat>
</trkpt>
<trkpt lat="39.762287000" lon="-0.315695000">
  <ele>184.100000</ele>
  <time>2012-03-25T07:10:45Z</time>
  <sat>9</sat>
</trkpt>
<trkpt lat="39.762362000" lon="-0.315702000">
  <ele>184.500000</ele>
  <time>2012-03-25T07:10:48Z</time>
  <sat>9</sat>
</trkpt>
<trkpt lat="39.762433000" lon="-0.315706000">
  <ele>184.600000</ele>
  <time>2012-03-25T07:10:51Z</time>
  <sat>6</sat>
</trkpt>
<trkpt lat="39.762505000" lon="-0.315713000">
  <ele>185.000000</ele>
  <time>2012-03-25T07:10:54Z</time>
  <sat>6</sat>
</trkpt>
<trkpt lat="39.762580000" lon="-0.315701000">
  <ele>185.800000</ele>
  <time>2012-03-25T07:10:57Z</time>
  <sat>7</sat>
</trkpt>
<trkpt lat="39.762628000" lon="-0.315693000">
  <ele>185.800000</ele>
  <time>2012-03-25T07:10:59Z</time>
  <sat>7</sat>
</trkpt>
<trkpt lat="39.762675000" lon="-0.315686000">
  <ele>185.600000</ele>
  <time>2012-03-25T07:11:01Z</time>
  <sat>7</sat>
</trkpt>
<trkpt lat="39.762739000" lon="-0.315686000">
  <ele>185.300000</ele>
  <time>2012-03-25T07:11:04Z</time>
  <sat>8</sat>
</trkpt>
<trkpt lat="39.762802000" lon="-0.315652000">
  <ele>185.800000</ele>
  <time>2012-03-25T07:11:07Z</time>
  <sat>9</sat>
</trkpt>
<trkpt lat="39.762879000" lon="-0.315634000">
  <ele>186.600000</ele>
  <time>2012-03-25T07:11:10Z</time>
  <sat>9</sat>
</trkpt>
<trkpt lat="39.762956000" lon="-0.315646000">
  <ele>186.600000</ele>
  <time>2012-03-25T07:11:13Z</time>
  <sat>8</sat>
</trkpt>
<trkpt lat="39.763023000" lon="-0.315650000">
  <ele>186.800000</ele>
  <time>2012-03-25T07:11:16Z</time>
  <sat>7</sat>
</trkpt>
<trkpt lat="39.763087000" lon="-0.315632000">
  <ele>188.000000</ele>
  <time>2012-03-25T07:11:19Z</time>
  <sat>7</sat>
</trkpt>
<trkpt lat="39.763106000" lon="-0.315636000">
  <ele>187.800000</ele>
  <time>2012-03-25T07:11:20Z</time>
  <sat>7</sat>
</trkpt>
<trkpt lat="39.763191000" lon="-0.315629000">
  <ele>187.800000</ele>
  <time>2012-03-25T07:11:25Z</time>
  <sat>8</sat>
</trkpt>
<trkpt lat="39.763252000" lon="-0.315595000">
  <ele>188.500000</ele>
  <time>2012-03-25T07:11:28Z</time>
  <sat>8</sat>
</trkpt>
<trkpt lat="39.763308000" lon="-0.315560000">
  <ele>188.500000</ele>
  <time>2012-03-25T07:11:31Z</time>
  <sat>8</sat>
</trkpt>
<trkpt lat="39.763374000" lon="-0.315536000">
  <ele>188.800000</ele>
  <time>2012-03-25T07:11:34Z</time>
  <sat>8</sat>
</trkpt>
<trkpt lat="39.763429000" lon="-0.315504000">
  <ele>189.600000</ele>
  <time>2012-03-25T07:11:37Z</time>
  <sat>9</sat>
</trkpt>
<trkpt lat="39.763490000" lon="-0.315457000">
  <ele>190.100000</ele>
  <time>2012-03-25T07:11:40Z</time>
  <sat>9</sat>
</trkpt>
<trkpt lat="39.763557000" lon="-0.315455000">
  <ele>190.300000</ele>
  <time>2012-03-25T07:11:43Z</time>
  <sat>9</sat>
</trkpt>
<trkpt lat="39.763628000" lon="-0.315469000">
  <ele>190.100000</ele>
  <time>2012-03-25T07:11:46Z</time>
  <sat>8</sat>
</trkpt>
<trkpt lat="39.763694000" lon="-0.315460000">
  <ele>190.600000</ele>
  <time>2012-03-25T07:11:49Z</time>
  <sat>7</sat>
</trkpt>
<trkpt lat="39.763780000" lon="-0.315475000">
  <ele>191.300000</ele>
  <time>2012-03-25T07:11:52Z</time>
  <sat>6</sat>
</trkpt>
<trkpt lat="39.763852000" lon="-0.315467000">
  <ele>191.600000</ele>
  <time>2012-03-25T07:11:55Z</time>
  <sat>7</sat>
</trkpt>
<trkpt lat="39.763927000" lon="-0.315423000">
  <ele>193.100000</ele>
  <time>2012-03-25T07:11:58Z</time>
  <sat>9</sat>
</trkpt>
<trkpt lat="39.763968000" lon="-0.315396000">
  <ele>193.600000</ele>
  <time>2012-03-25T07:12:00Z</time>
  <sat>9</sat>
</trkpt>
<trkpt lat="39.764026000" lon="-0.315361000">
  <ele>193.600000</ele>
  <time>2012-03-25T07:12:03Z</time>
  <sat>9</sat>
</trkpt>
<trkpt lat="39.764078000" lon="-0.315341000">
  <ele>194.300000</ele>
  <time>2012-03-25T07:12:06Z</time>
  <sat>9</sat>
</trkpt>
<trkpt lat="39.764153000" lon="-0.315327000">
  <ele>195.000000</ele>
  <time>2012-03-25T07:12:09Z</time>
  <sat>9</sat>
</trkpt>
<trkpt lat="39.764217000" lon="-0.315348000">
  <ele>194.600000</ele>
  <time>2012-03-25T07:12:12Z</time>
  <sat>9</sat>
</trkpt>
<trkpt lat="39.764284000" lon="-0.315340000">
  <ele>195.100000</ele>
  <time>2012-03-25T07:12:15Z</time>
  <sat>5</sat>
</trkpt>
<trkpt lat="39.764357000" lon="-0.315331000">
  <ele>195.500000</ele>
  <time>2012-03-25T07:12:18Z</time>
  <sat>6</sat>
</trkpt>
<trkpt lat="39.764419000" lon="-0.315291000">
  <ele>196.000000</ele>
  <time>2012-03-25T07:12:21Z</time>
  <sat>8</sat>
</trkpt>
<trkpt lat="39.764440000" lon="-0.315276000">
  <ele>196.300000</ele>
  <time>2012-03-25T07:12:22Z</time>
  <sat>8</sat>
</trkpt>
<trkpt lat="39.764555000" lon="-0.315245000">
  <ele>196.600000</ele>
  <time>2012-03-25T07:12:27Z</time>
  <sat>8</sat>
</trkpt>
<trkpt lat="39.764622000" lon="-0.315208000">
  <ele>196.600000</ele>
  <time>2012-03-25T07:12:30Z</time>
  <sat>9</sat>
</trkpt>
<trkpt lat="39.764681000" lon="-0.315161000">
  <ele>196.800000</ele>
  <time>2012-03-25T07:12:33Z</time>
  <sat>9</sat>
</trkpt>
<trkpt lat="39.764754000" lon="-0.315139000">
  <ele>197.300000</ele>
  <time>2012-03-25T07:12:36Z</time>
  <sat>9</sat>
</trkpt>
<trkpt lat="39.764822000" lon="-0.315110000">
  <ele>197.800000</ele>
  <time>2012-03-25T07:12:39Z</time>
  <sat>9</sat>
</trkpt>
<trkpt lat="39.764896000" lon="-0.315090000">
  <ele>197.800000</ele>
  <time>2012-03-25T07:12:42Z</time>
  <sat>9</sat>
</trkpt>
<trkpt lat="39.764969000" lon="-0.315069000">
  <ele>197.800000</ele>
  <time>2012-03-25T07:12:45Z</time>
  <sat>9</sat>
</trkpt>
<trkpt lat="39.765048000" lon="-0.315065000">
  <ele>198.300000</ele>
  <time>2012-03-25T07:12:48Z</time>
  <sat>8</sat>
</trkpt>
<trkpt lat="39.765115000" lon="-0.315037000">
  <ele>198.800000</ele>
  <time>2012-03-25T07:12:51Z</time>
  <sat>8</sat>
</trkpt>
<trkpt lat="39.765161000" lon="-0.314967000">
  <ele>198.800000</ele>
  <time>2012-03-25T07:12:54Z</time>
  <sat>9</sat>
</trkpt>
<trkpt lat="39.765208000" lon="-0.314888000">
  <ele>198.800000</ele>
  <time>2012-03-25T07:12:57Z</time>
  <sat>9</sat>
</trkpt>
<trkpt lat="39.765241000" lon="-0.314838000">
  <ele>198.800000</ele>
  <time>2012-03-25T07:12:59Z</time>
  <sat>9</sat>
</trkpt>
<trkpt lat="39.765271000" lon="-0.314788000">
  <ele>199.100000</ele>
  <time>2012-03-25T07:13:01Z</time>
  <sat>9</sat>
</trkpt>
<trkpt lat="39.765306000" lon="-0.314705000">
  <ele>199.300000</ele>
  <time>2012-03-25T07:13:04Z</time>
  <sat>9</sat>
</trkpt>
<trkpt lat="39.765349000" lon="-0.314622000">
  <ele>199.600000</ele>
  <time>2012-03-25T07:13:07Z</time>
  <sat>9</sat>
</trkpt>
<trkpt lat="39.765385000" lon="-0.314533000">
  <ele>200.300000</ele>
  <time>2012-03-25T07:13:10Z</time>
  <sat>9</sat>
</trkpt>
<trkpt lat="39.765418000" lon="-0.314452000">
  <ele>201.100000</ele>
  <time>2012-03-25T07:13:13Z</time>
  <sat>9</sat>
</trkpt>
<trkpt lat="39.765444000" lon="-0.314375000">
  <ele>201.100000</ele>
  <time>2012-03-25T07:13:16Z</time>
  <sat>7</sat>
</trkpt>
<trkpt lat="39.765479000" lon="-0.314299000">
  <ele>202.500000</ele>
  <time>2012-03-25T07:13:19Z</time>
  <sat>9</sat>
</trkpt>
<trkpt lat="39.765521000" lon="-0.314223000">
  <ele>202.800000</ele>
  <time>2012-03-25T07:13:22Z</time>
  <sat>9</sat>
</trkpt>
<trkpt lat="39.765556000" lon="-0.314143000">
  <ele>203.300000</ele>
  <time>2012-03-25T07:13:25Z</time>
  <sat>9</sat>
</trkpt>
<trkpt lat="39.765567000" lon="-0.314122000">
  <ele>203.600000</ele>
  <time>2012-03-25T07:13:26Z</time>
  <sat>9</sat>
</trkpt>
<trkpt lat="39.765617000" lon="-0.314003000">
  <ele>205.000000</ele>
  <time>2012-03-25T07:13:31Z</time>
  <sat>9</sat>
</trkpt>
<trkpt lat="39.765659000" lon="-0.313911000">
  <ele>205.100000</ele>
  <time>2012-03-25T07:13:34Z</time>
  <sat>9</sat>
</trkpt>
<trkpt lat="39.765697000" lon="-0.313835000">
  <ele>206.000000</ele>
  <time>2012-03-25T07:13:37Z</time>
  <sat>9</sat>
</trkpt>
<trkpt lat="39.765744000" lon="-0.313759000">
  <ele>207.100000</ele>
  <time>2012-03-25T07:13:40Z</time>
  <sat>9</sat>
</trkpt>
<trkpt lat="39.765796000" lon="-0.313690000">
  <ele>207.600000</ele>
  <time>2012-03-25T07:13:43Z</time>
  <sat>9</sat>
</trkpt>
<trkpt lat="39.765846000" lon="-0.313630000">
  <ele>209.000000</ele>
  <time>2012-03-25T07:13:46Z</time>
  <sat>9</sat>
</trkpt>
<trkpt lat="39.765901000" lon="-0.313558000">
  <ele>208.300000</ele>
  <time>2012-03-25T07:13:49Z</time>
  <sat>7</sat>
</trkpt>
<trkpt lat="39.765925000" lon="-0.313491000">
  <ele>209.500000</ele>
  <time>2012-03-25T07:13:52Z</time>
  <sat>9</sat>
</trkpt>
<trkpt lat="39.765977000" lon="-0.313415000">
  <ele>209.800000</ele>
  <time>2012-03-25T07:13:55Z</time>
  <sat>9</sat>
</trkpt>
<trkpt lat="39.766027000" lon="-0.313334000">
  <ele>210.100000</ele>
  <time>2012-03-25T07:13:58Z</time>
  <sat>9</sat>
</trkpt>
<trkpt lat="39.766049000" lon="-0.313284000">
  <ele>211.100000</ele>
  <time>2012-03-25T07:14:00Z</time>
  <sat>9</sat>
</trkpt>
<trkpt lat="39.766088000" lon="-0.313217000">
  <ele>212.000000</ele>
  <time>2012-03-25T07:14:03Z</time>
  <sat>9</sat>
</trkpt>
<trkpt lat="39.766133000" lon="-0.313147000">
  <ele>212.600000</ele>
  <time>2012-03-25T07:14:06Z</time>
  <sat>9</sat>
</trkpt>
<trkpt lat="39.766168000" lon="-0.313083000">
  <ele>214.100000</ele>
  <time>2012-03-25T07:14:09Z</time>
  <sat>9</sat>
</trkpt>
<trkpt lat="39.766214000" lon="-0.313029000">
  <ele>215.100000</ele>
  <time>2012-03-25T07:14:12Z</time>
  <sat>9</sat>
</trkpt>
<trkpt lat="39.766255000" lon="-0.312967000">
  <ele>215.800000</ele>
  <time>2012-03-25T07:14:15Z</time>
  <sat>9</sat>
</trkpt>
<trkpt lat="39.766297000" lon="-0.312912000">
  <ele>216.800000</ele>
  <time>2012-03-25T07:14:18Z</time>
  <sat>9</sat>
</trkpt>
<trkpt lat="39.766330000" lon="-0.312846000">
  <ele>217.500000</ele>
  <time>2012-03-25T07:14:21Z</time>
  <sat>9</sat>
</trkpt>
<trkpt lat="39.766362000" lon="-0.312778000">
  <ele>218.300000</ele>
  <time>2012-03-25T07:14:24Z</time>
  <sat>9</sat>
</trkpt>
<trkpt lat="39.766398000" lon="-0.312709000">
  <ele>219.600000</ele>
  <time>2012-03-25T07:14:27Z</time>
  <sat>9</sat>
</trkpt>
<trkpt lat="39.766410000" lon="-0.312686000">
  <ele>219.800000</ele>
  <time>2012-03-25T07:14:28Z</time>
  <sat>9</sat>
</trkpt>
<trkpt lat="39.766468000" lon="-0.312564000">
  <ele>221.100000</ele>
  <time>2012-03-25T07:14:33Z</time>
  <sat>9</sat>
</trkpt>
<trkpt lat="39.766495000" lon="-0.312492000">
  <ele>222.100000</ele>
  <time>2012-03-25T07:14:36Z</time>
  <sat>9</sat>
</trkpt>
<trkpt lat="39.766524000" lon="-0.312420000">
  <ele>222.800000</ele>
  <time>2012-03-25T07:14:39Z</time>
  <sat>9</sat>
</trkpt>
<trkpt lat="39.766568000" lon="-0.312356000">
  <ele>223.300000</ele>
  <time>2012-03-25T07:14:42Z</time>
  <sat>9</sat>
</trkpt>
<trkpt lat="39.766610000" lon="-0.312285000">
  <ele>224.000000</ele>
  <time>2012-03-25T07:14:45Z</time>
  <sat>9</sat>
</trkpt>
<trkpt lat="39.766642000" lon="-0.312225000">
  <ele>225.500000</ele>
  <time>2012-03-25T07:14:48Z</time>
  <sat>9</sat>
</trkpt>
<trkpt lat="39.766676000" lon="-0.312159000">
  <ele>227.300000</ele>
  <time>2012-03-25T07:14:51Z</time>
  <sat>9</sat>
</trkpt>
<trkpt lat="39.766708000" lon="-0.312101000">
  <ele>227.100000</ele>
  <time>2012-03-25T07:14:54Z</time>
  <sat>9</sat>
</trkpt>
<trkpt lat="39.766737000" lon="-0.312045000">
  <ele>228.300000</ele>
  <time>2012-03-25T07:14:57Z</time>
  <sat>9</sat>
</trkpt>
<trkpt lat="39.766751000" lon="-0.312008000">
  <ele>228.100000</ele>
  <time>2012-03-25T07:14:59Z</time>
  <sat>9</sat>
</trkpt>
<trkpt lat="39.766773000" lon="-0.311975000">
  <ele>228.500000</ele>
  <time>2012-03-25T07:15:01Z</time>
  <sat>9</sat>
</trkpt>
<trkpt lat="39.766807000" lon="-0.311940000">
  <ele>228.600000</ele>
  <time>2012-03-25T07:15:04Z</time>
  <sat>9</sat>
</trkpt>
<trkpt lat="39.766854000" lon="-0.311889000">
  <ele>228.300000</ele>
  <time>2012-03-25T07:15:07Z</time>
  <sat>9</sat>
</trkpt>
<trkpt lat="39.766912000" lon="-0.311824000">
  <ele>228.600000</ele>
  <time>2012-03-25T07:15:10Z</time>
  <sat>9</sat>
</trkpt>
<trkpt lat="39.766957000" lon="-0.311771000">
  <ele>230.100000</ele>
  <time>2012-03-25T07:15:13Z</time>
  <sat>8</sat>
</trkpt>
<trkpt lat="39.767009000" lon="-0.311722000">
  <ele>231.600000</ele>
  <time>2012-03-25T07:15:16Z</time>
  <sat>7</sat>
</trkpt>
<trkpt lat="39.767049000" lon="-0.311687000">
  <ele>233.300000</ele>
  <time>2012-03-25T07:15:19Z</time>
  <sat>7</sat>
</trkpt>
<trkpt lat="39.767095000" lon="-0.311654000">
  <ele>233.800000</ele>
  <time>2012-03-25T07:15:22Z</time>
  <sat>7</sat>
</trkpt>
<trkpt lat="39.767151000" lon="-0.311663000">
  <ele>234.300000</ele>
  <time>2012-03-25T07:15:25Z</time>
  <sat>8</sat>
</trkpt>
<trkpt lat="39.767198000" lon="-0.311676000">
  <ele>234.500000</ele>
  <time>2012-03-25T07:15:28Z</time>
  <sat>9</sat>
</trkpt>
<trkpt lat="39.767236000" lon="-0.311691000">
  <ele>234.600000</ele>
  <time>2012-03-25T07:15:31Z</time>
  <sat>9</sat>
</trkpt>
<trkpt lat="39.767252000" lon="-0.311701000">
  <ele>234.600000</ele>
  <time>2012-03-25T07:15:32Z</time>
  <sat>9</sat>
</trkpt>
<trkpt lat="39.767386000" lon="-0.311697000">
  <ele>234.100000</ele>
  <time>2012-03-25T07:15:37Z</time>
  <sat>9</sat>
</trkpt>
<trkpt lat="39.767465000" lon="-0.311678000">
  <ele>235.000000</ele>
  <time>2012-03-25T07:15:40Z</time>
  <sat>9</sat>
</trkpt>
<trkpt lat="39.767550000" lon="-0.311655000">
  <ele>235.600000</ele>
  <time>2012-03-25T07:15:43Z</time>
  <sat>6</sat>
</trkpt>
<trkpt lat="39.767626000" lon="-0.311624000">
  <ele>235.600000</ele>
  <time>2012-03-25T07:15:46Z</time>
  <sat>9</sat>
</trkpt>
<trkpt lat="39.767719000" lon="-0.311594000">
  <ele>235.000000</ele>
  <time>2012-03-25T07:15:49Z</time>
  <sat>9</sat>
</trkpt>
<trkpt lat="39.767822000" lon="-0.311569000">
  <ele>235.100000</ele>
  <time>2012-03-25T07:15:52Z</time>
  <sat>9</sat>
</trkpt>
<trkpt lat="39.767909000" lon="-0.311518000">
  <ele>234.800000</ele>
  <time>2012-03-25T07:15:55Z</time>
  <sat>9</sat>
</trkpt>
<trkpt lat="39.767999000" lon="-0.311478000">
  <ele>234.800000</ele>
  <time>2012-03-25T07:15:58Z</time>
  <sat>9</sat>
</trkpt>
<trkpt lat="39.768052000" lon="-0.311459000">
  <ele>234.600000</ele>
  <time>2012-03-25T07:16:00Z</time>
  <sat>9</sat>
</trkpt>
<trkpt lat="39.768144000" lon="-0.311417000">
  <ele>233.800000</ele>
  <time>2012-03-25T07:16:03Z</time>
  <sat>9</sat>
</trkpt>
<trkpt lat="39.768247000" lon="-0.311331000">
  <ele>232.500000</ele>
  <time>2012-03-25T07:16:06Z</time>
  <sat>9</sat>
</trkpt>
<trkpt lat="39.768315000" lon="-0.311197000">
  <ele>232.800000</ele>
  <time>2012-03-25T07:16:09Z</time>
  <sat>9</sat>
</trkpt>
<trkpt lat="39.768364000" lon="-0.311068000">
  <ele>233.100000</ele>
  <time>2012-03-25T07:16:12Z</time>
  <sat>9</sat>
</trkpt>
<trkpt lat="39.768427000" lon="-0.310958000">
  <ele>233.600000</ele>
  <time>2012-03-25T07:16:15Z</time>
  <sat>9</sat>
</trkpt>
<trkpt lat="39.768515000" lon="-0.310844000">
  <ele>233.600000</ele>
  <time>2012-03-25T07:16:18Z</time>
  <sat>9</sat>
</trkpt>
<trkpt lat="39.768602000" lon="-0.310756000">
  <ele>234.300000</ele>
  <time>2012-03-25T07:16:21Z</time>
  <sat>9</sat>
</trkpt>
<trkpt lat="39.768679000" lon="-0.310682000">
  <ele>234.600000</ele>
  <time>2012-03-25T07:16:24Z</time>
  <sat>9</sat>
</trkpt>
<trkpt lat="39.768751000" lon="-0.310554000">
  <ele>234.300000</ele>
  <time>2012-03-25T07:16:27Z</time>
  <sat>9</sat>
</trkpt>
<trkpt lat="39.768795000" lon="-0.310411000">
  <ele>234.100000</ele>
  <time>2012-03-25T07:16:30Z</time>
  <sat>9</sat>
</trkpt>
<trkpt lat="39.768838000" lon="-0.310268000">
  <ele>234.000000</ele>
  <time>2012-03-25T07:16:33Z</time>
  <sat>9</sat>
</trkpt>
<trkpt lat="39.768858000" lon="-0.310221000">
  <ele>234.100000</ele>
  <time>2012-03-25T07:16:34Z</time>
  <sat>9</sat>
</trkpt>
<trkpt lat="39.768941000" lon="-0.310040000">
  <ele>234.800000</ele>
  <time>2012-03-25T07:16:39Z</time>
  <sat>9</sat>
</trkpt>
<trkpt lat="39.768987000" lon="-0.309944000">
  <ele>234.100000</ele>
  <time>2012-03-25T07:16:42Z</time>
  <sat>9</sat>
</trkpt>
<trkpt lat="39.769069000" lon="-0.309848000">
  <ele>234.100000</ele>
  <time>2012-03-25T07:16:45Z</time>
  <sat>9</sat>
</trkpt>
<trkpt lat="39.769134000" lon="-0.309756000">
  <ele>234.800000</ele>
  <time>2012-03-25T07:16:48Z</time>
  <sat>9</sat>
</trkpt>
<trkpt lat="39.769203000" lon="-0.309659000">
  <ele>235.800000</ele>
  <time>2012-03-25T07:16:51Z</time>
  <sat>9</sat>
</trkpt>
<trkpt lat="39.769237000" lon="-0.309528000">
  <ele>235.800000</ele>
  <time>2012-03-25T07:16:54Z</time>
  <sat>9</sat>
</trkpt>
<trkpt lat="39.769254000" lon="-0.309381000">
  <ele>235.800000</ele>
  <time>2012-03-25T07:16:57Z</time>
  <sat>9</sat>
</trkpt>
<trkpt lat="39.769280000" lon="-0.309272000">
  <ele>235.800000</ele>
  <time>2012-03-25T07:16:59Z</time>
  <sat>8</sat>
</trkpt>
<trkpt lat="39.769334000" lon="-0.309196000">
  <ele>236.600000</ele>
  <time>2012-03-25T07:17:01Z</time>
  <sat>9</sat>
</trkpt>
<trkpt lat="39.769396000" lon="-0.309078000">
  <ele>236.600000</ele>
  <time>2012-03-25T07:17:04Z</time>
  <sat>9</sat>
</trkpt>
<trkpt lat="39.769474000" lon="-0.308999000">
  <ele>237.600000</ele>
  <time>2012-03-25T07:17:07Z</time>
  <sat>9</sat>
</trkpt>
<trkpt lat="39.769551000" lon="-0.308919000">
  <ele>238.600000</ele>
  <time>2012-03-25T07:17:10Z</time>
  <sat>9</sat>
</trkpt>
<trkpt lat="39.769610000" lon="-0.308839000">
  <ele>239.100000</ele>
  <time>2012-03-25T07:17:13Z</time>
  <sat>9</sat>
</trkpt>
<trkpt lat="39.769657000" lon="-0.308737000">
  <ele>238.800000</ele>
  <time>2012-03-25T07:17:16Z</time>
  <sat>9</sat>
</trkpt>
<trkpt lat="39.769708000" lon="-0.308636000">
  <ele>239.600000</ele>
  <time>2012-03-25T07:17:19Z</time>
  <sat>9</sat>
</trkpt>
<trkpt lat="39.769761000" lon="-0.308529000">
  <ele>240.300000</ele>
  <time>2012-03-25T07:17:22Z</time>
  <sat>9</sat>
</trkpt>
<trkpt lat="39.769809000" lon="-0.308439000">
  <ele>241.100000</ele>
  <time>2012-03-25T07:17:25Z</time>
  <sat>9</sat>
</trkpt>
<trkpt lat="39.769859000" lon="-0.308350000">
  <ele>242.600000</ele>
  <time>2012-03-25T07:17:28Z</time>
  <sat>9</sat>
</trkpt>
<trkpt lat="39.769900000" lon="-0.308257000">
  <ele>243.300000</ele>
  <time>2012-03-25T07:17:31Z</time>
  <sat>9</sat>
</trkpt>
<trkpt lat="39.769956000" lon="-0.308175000">
  <ele>243.300000</ele>
  <time>2012-03-25T07:17:34Z</time>
  <sat>9</sat>
</trkpt>
<trkpt lat="39.770028000" lon="-0.308118000">
  <ele>243.600000</ele>
  <time>2012-03-25T07:17:37Z</time>
  <sat>9</sat>
</trkpt>
<trkpt lat="39.770054000" lon="-0.308107000">
  <ele>243.300000</ele>
  <time>2012-03-25T07:17:38Z</time>
  <sat>9</sat>
</trkpt>
<trkpt lat="39.770227000" lon="-0.308027000">
  <ele>246.100000</ele>
  <time>2012-03-25T07:17:43Z</time>
  <sat>5</sat>
</trkpt>
<trkpt lat="39.770334000" lon="-0.308001000">
  <ele>247.300000</ele>
  <time>2012-03-25T07:17:46Z</time>
  <sat>7</sat>
</trkpt>
<trkpt lat="39.770444000" lon="-0.307979000">
  <ele>246.800000</ele>
  <time>2012-03-25T07:17:49Z</time>
  <sat>7</sat>
</trkpt>
<trkpt lat="39.770538000" lon="-0.307949000">
  <ele>247.100000</ele>
  <time>2012-03-25T07:17:52Z</time>
  <sat>7</sat>
</trkpt>
<trkpt lat="39.770591000" lon="-0.307884000">
  <ele>245.300000</ele>
  <time>2012-03-25T07:17:55Z</time>
  <sat>7</sat>
</trkpt>
<trkpt lat="39.770664000" lon="-0.307844000">
  <ele>245.500000</ele>
  <time>2012-03-25T07:17:58Z</time>
  <sat>6</sat>
</trkpt>
<trkpt lat="39.770721000" lon="-0.307820000">
  <ele>245.100000</ele>
  <time>2012-03-25T07:18:00Z</time>
  <sat>9</sat>
</trkpt>
<trkpt lat="39.770795000" lon="-0.307789000">
  <ele>245.300000</ele>
  <time>2012-03-25T07:18:03Z</time>
  <sat>9</sat>
</trkpt>
<trkpt lat="39.770874000" lon="-0.307771000">
  <ele>244.600000</ele>
  <time>2012-03-25T07:18:06Z</time>
  <sat>9</sat>
</trkpt>
<trkpt lat="39.770957000" lon="-0.307761000">
  <ele>246.600000</ele>
  <time>2012-03-25T07:18:09Z</time>
  <sat>9</sat>
</trkpt>
<trkpt lat="39.771029000" lon="-0.307787000">
  <ele>248.600000</ele>
  <time>2012-03-25T07:18:12Z</time>
  <sat>9</sat>
</trkpt>
<trkpt lat="39.771101000" lon="-0.307824000">
  <ele>249.800000</ele>
  <time>2012-03-25T07:18:15Z</time>
  <sat>9</sat>
</trkpt>
<trkpt lat="39.771199000" lon="-0.307786000">
  <ele>248.600000</ele>
  <time>2012-03-25T07:18:18Z</time>
  <sat>8</sat>
</trkpt>
<trkpt lat="39.771297000" lon="-0.307738000">
  <ele>251.500000</ele>
  <time>2012-03-25T07:18:21Z</time>
  <sat>9</sat>
</trkpt>
<trkpt lat="39.771373000" lon="-0.307694000">
  <ele>252.300000</ele>
  <time>2012-03-25T07:18:24Z</time>
  <sat>9</sat>
</trkpt>
<trkpt lat="39.771458000" lon="-0.307664000">
  <ele>251.600000</ele>
  <time>2012-03-25T07:18:27Z</time>
  <sat>9</sat>
</trkpt>
<trkpt lat="39.771550000" lon="-0.307637000">
  <ele>251.600000</ele>
  <time>2012-03-25T07:18:30Z</time>
  <sat>9</sat>
</trkpt>
<trkpt lat="39.771650000" lon="-0.307605000">
  <ele>251.600000</ele>
  <time>2012-03-25T07:18:33Z</time>
  <sat>6</sat>
</trkpt>
<trkpt lat="39.771732000" lon="-0.307567000">
  <ele>252.300000</ele>
  <time>2012-03-25T07:18:36Z</time>
  <sat>9</sat>
</trkpt>
<trkpt lat="39.771807000" lon="-0.307519000">
  <ele>253.600000</ele>
  <time>2012-03-25T07:18:39Z</time>
  <sat>9</sat>
</trkpt>
<trkpt lat="39.771836000" lon="-0.307490000">
  <ele>254.800000</ele>
  <time>2012-03-25T07:18:40Z</time>
  <sat>9</sat>
</trkpt>
<trkpt lat="39.771979000" lon="-0.307435000">
  <ele>254.600000</ele>
  <time>2012-03-25T07:18:45Z</time>
  <sat>9</sat>
</trkpt>
<trkpt lat="39.772069000" lon="-0.307419000">
  <ele>253.800000</ele>
  <time>2012-03-25T07:18:48Z</time>
  <sat>7</sat>
</trkpt>
<trkpt lat="39.772149000" lon="-0.307391000">
  <ele>253.300000</ele>
  <time>2012-03-25T07:18:51Z</time>
  <sat>8</sat>
</trkpt>
<trkpt lat="39.772237000" lon="-0.307359000">
  <ele>254.300000</ele>
  <time>2012-03-25T07:18:54Z</time>
  <sat>9</sat>
</trkpt>
<trkpt lat="39.772337000" lon="-0.307318000">
  <ele>254.300000</ele>
  <time>2012-03-25T07:18:57Z</time>
  <sat>9</sat>
</trkpt>
<trkpt lat="39.772393000" lon="-0.307283000">
  <ele>254.800000</ele>
  <time>2012-03-25T07:18:59Z</time>
  <sat>9</sat>
</trkpt>
<trkpt lat="39.772434000" lon="-0.307243000">
  <ele>256.000000</ele>
  <time>2012-03-25T07:19:01Z</time>
  <sat>9</sat>
</trkpt>
<trkpt lat="39.772507000" lon="-0.307170000">
  <ele>257.700000</ele>
  <time>2012-03-25T07:19:04Z</time>
  <sat>9</sat>
</trkpt>
<trkpt lat="39.772584000" lon="-0.307114000">
  <ele>258.200000</ele>
  <time>2012-03-25T07:19:07Z</time>
  <sat>9</sat>
</trkpt>
<trkpt lat="39.772668000" lon="-0.307163000">
  <ele>258.000000</ele>
  <time>2012-03-25T07:19:10Z</time>
  <sat>9</sat>
</trkpt>
<trkpt lat="39.772711000" lon="-0.307295000">
  <ele>258.800000</ele>
  <time>2012-03-25T07:19:13Z</time>
  <sat>9</sat>
</trkpt>
<trkpt lat="39.772754000" lon="-0.307422000">
  <ele>259.300000</ele>
  <time>2012-03-25T07:19:16Z</time>
  <sat>9</sat>
</trkpt>
<trkpt lat="39.772795000" lon="-0.307522000">
  <ele>259.700000</ele>
  <time>2012-03-25T07:19:19Z</time>
  <sat>7</sat>
</trkpt>
<trkpt lat="39.772857000" lon="-0.307592000">
  <ele>259.800000</ele>
  <time>2012-03-25T07:19:22Z</time>
  <sat>7</sat>
</trkpt>
<trkpt lat="39.772936000" lon="-0.307627000">
  <ele>259.500000</ele>
  <time>2012-03-25T07:19:25Z</time>
  <sat>7</sat>
</trkpt>
<trkpt lat="39.773031000" lon="-0.307605000">
  <ele>260.300000</ele>
  <time>2012-03-25T07:19:28Z</time>
  <sat>8</sat>
</trkpt>
<trkpt lat="39.773125000" lon="-0.307596000">
  <ele>260.500000</ele>
  <time>2012-03-25T07:19:31Z</time>
  <sat>8</sat>
</trkpt>
<trkpt lat="39.773216000" lon="-0.307638000">
  <ele>260.700000</ele>
  <time>2012-03-25T07:19:34Z</time>
  <sat>10</sat>
</trkpt>
<trkpt lat="39.773283000" lon="-0.307687000">
  <ele>260.500000</ele>
  <time>2012-03-25T07:19:37Z</time>
  <sat>10</sat>
</trkpt>
<trkpt lat="39.773337000" lon="-0.307723000">
  <ele>261.200000</ele>
  <time>2012-03-25T07:19:40Z</time>
  <sat>10</sat>
</trkpt>
<trkpt lat="39.773393000" lon="-0.307749000">
  <ele>262.600000</ele>
  <time>2012-03-25T07:19:43Z</time>
  <sat>10</sat>
</trkpt>
<trkpt lat="39.773411000" lon="-0.307759000">
  <ele>263.000000</ele>
  <time>2012-03-25T07:19:44Z</time>
  <sat>10</sat>
</trkpt>
<trkpt lat="39.773556000" lon="-0.307775000">
  <ele>265.200000</ele>
  <time>2012-03-25T07:19:49Z</time>
  <sat>10</sat>
</trkpt>
<trkpt lat="39.773646000" lon="-0.307767000">
  <ele>266.100000</ele>
  <time>2012-03-25T07:19:52Z</time>
  <sat>6</sat>
</trkpt>
<trkpt lat="39.773750000" lon="-0.307740000">
  <ele>266.300000</ele>
  <time>2012-03-25T07:19:55Z</time>
  <sat>7</sat>
</trkpt>
<trkpt lat="39.773847000" lon="-0.307694000">
  <ele>267.200000</ele>
  <time>2012-03-25T07:19:58Z</time>
  <sat>10</sat>
</trkpt>
<trkpt lat="39.773912000" lon="-0.307681000">
  <ele>268.100000</ele>
  <time>2012-03-25T07:20:00Z</time>
  <sat>10</sat>
</trkpt>
<trkpt lat="39.773998000" lon="-0.307684000">
  <ele>267.600000</ele>
  <time>2012-03-25T07:20:03Z</time>
  <sat>7</sat>
</trkpt>
<trkpt lat="39.774076000" lon="-0.307697000">
  <ele>267.700000</ele>
  <time>2012-03-25T07:20:06Z</time>
  <sat>9</sat>
</trkpt>
<trkpt lat="39.774133000" lon="-0.307760000">
  <ele>267.100000</ele>
  <time>2012-03-25T07:20:09Z</time>
  <sat>9</sat>
</trkpt>
<trkpt lat="39.774188000" lon="-0.307830000">
  <ele>267.700000</ele>
  <time>2012-03-25T07:20:12Z</time>
  <sat>9</sat>
</trkpt>
<trkpt lat="39.774240000" lon="-0.307855000">
  <ele>268.200000</ele>
  <time>2012-03-25T07:20:15Z</time>
  <sat>10</sat>
</trkpt>
<trkpt lat="39.774297000" lon="-0.307861000">
  <ele>269.100000</ele>
  <time>2012-03-25T07:20:18Z</time>
  <sat>10</sat>
</trkpt>
<trkpt lat="39.774327000" lon="-0.307814000">
  <ele>268.500000</ele>
  <time>2012-03-25T07:20:21Z</time>
  <sat>7</sat>
</trkpt>
<trkpt lat="39.774395000" lon="-0.307758000">
  <ele>269.200000</ele>
  <time>2012-03-25T07:20:24Z</time>
  <sat>10</sat>
</trkpt>
<trkpt lat="39.774473000" lon="-0.307693000">
  <ele>270.200000</ele>
  <time>2012-03-25T07:20:27Z</time>
  <sat>10</sat>
</trkpt>
<trkpt lat="39.774536000" lon="-0.307639000">
  <ele>270.200000</ele>
  <time>2012-03-25T07:20:30Z</time>
  <sat>10</sat>
</trkpt>
<trkpt lat="39.774583000" lon="-0.307609000">
  <ele>270.800000</ele>
  <time>2012-03-25T07:20:33Z</time>
  <sat>10</sat>
</trkpt>
<trkpt lat="39.774654000" lon="-0.307601000">
  <ele>271.200000</ele>
  <time>2012-03-25T07:20:36Z</time>
  <sat>10</sat>
</trkpt>
<trkpt lat="39.774726000" lon="-0.307612000">
  <ele>271.100000</ele>
  <time>2012-03-25T07:20:39Z</time>
  <sat>10</sat>
</trkpt>
<trkpt lat="39.774815000" lon="-0.307661000">
  <ele>271.500000</ele>
  <time>2012-03-25T07:20:42Z</time>
  <sat>10</sat>
</trkpt>
<trkpt lat="39.774876000" lon="-0.307792000">
  <ele>270.500000</ele>
  <time>2012-03-25T07:20:45Z</time>
  <sat>10</sat>
</trkpt>
<trkpt lat="39.774900000" lon="-0.307845000">
  <ele>269.600000</ele>
  <time>2012-03-25T07:20:46Z</time>
  <sat>10</sat>
</trkpt>
<trkpt lat="39.775069000" lon="-0.308046000">
  <ele>268.000000</ele>
  <time>2012-03-25T07:20:51Z</time>
  <sat>9</sat>
</trkpt>
<trkpt lat="39.775125000" lon="-0.308160000">
  <ele>266.800000</ele>
  <time>2012-03-25T07:20:54Z</time>
  <sat>9</sat>
</trkpt>
<trkpt lat="39.775187000" lon="-0.308223000">
  <ele>262.700000</ele>
  <time>2012-03-25T07:20:57Z</time>
  <sat>9</sat>
</trkpt>
<trkpt lat="39.775242000" lon="-0.308198000">
  <ele>261.300000</ele>
  <time>2012-03-25T07:20:59Z</time>
  <sat>9</sat>
</trkpt>
<trkpt lat="39.775316000" lon="-0.308112000">
  <ele>260.000000</ele>
  <time>2012-03-25T07:21:01Z</time>
  <sat>9</sat>
</trkpt>
<trkpt lat="39.775441000" lon="-0.307972000">
  <ele>259.600000</ele>
  <time>2012-03-25T07:21:04Z</time>
  <sat>9</sat>
</trkpt>
<trkpt lat="39.775596000" lon="-0.307831000">
  <ele>257.700000</ele>
  <time>2012-03-25T07:21:07Z</time>
  <sat>9</sat>
</trkpt>
<trkpt lat="39.775778000" lon="-0.307705000">
  <ele>257.000000</ele>
  <time>2012-03-25T07:21:10Z</time>
  <sat>9</sat>
</trkpt>
<trkpt lat="39.775915000" lon="-0.307683000">
  <ele>256.200000</ele>
  <time>2012-03-25T07:21:13Z</time>
  <sat>9</sat>
</trkpt>
<trkpt lat="39.776018000" lon="-0.307813000">
  <ele>255.800000</ele>
  <time>2012-03-25T07:21:16Z</time>
  <sat>9</sat>
</trkpt>
<trkpt lat="39.776083000" lon="-0.308001000">
  <ele>254.600000</ele>
  <time>2012-03-25T07:21:19Z</time>
  <sat>9</sat>
</trkpt>
<trkpt lat="39.776099000" lon="-0.308230000">
  <ele>251.800000</ele>
  <time>2012-03-25T07:21:22Z</time>
  <sat>9</sat>
</trkpt>
<trkpt lat="39.776098000" lon="-0.308370000">
  <ele>251.500000</ele>
  <time>2012-03-25T07:21:25Z</time>
  <sat>9</sat>
</trkpt>
<trkpt lat="39.776092000" lon="-0.308445000">
  <ele>251.300000</ele>
  <time>2012-03-25T07:21:28Z</time>
  <sat>9</sat>
</trkpt>
<trkpt lat="39.776095000" lon="-0.308512000">
  <ele>250.300000</ele>
  <time>2012-03-25T07:21:31Z</time>
  <sat>9</sat>
</trkpt>
<trkpt lat="39.776093000" lon="-0.308586000">
  <ele>251.300000</ele>
  <time>2012-03-25T07:21:34Z</time>
  <sat>9</sat>
</trkpt>
<trkpt lat="39.776102000" lon="-0.308643000">
  <ele>250.600000</ele>
  <time>2012-03-25T07:21:37Z</time>
  <sat>9</sat>
</trkpt>
<trkpt lat="39.776124000" lon="-0.308683000">
  <ele>250.100000</ele>
  <time>2012-03-25T07:21:40Z</time>
  <sat>9</sat>
</trkpt>
<trkpt lat="39.776152000" lon="-0.308692000">
  <ele>249.500000</ele>
  <time>2012-03-25T07:21:43Z</time>
  <sat>9</sat>
</trkpt>
<trkpt lat="39.776153000" lon="-0.308700000">
  <ele>249.100000</ele>
  <time>2012-03-25T07:21:46Z</time>
  <sat>9</sat>
</trkpt>
<trkpt lat="39.776157000" lon="-0.308706000">
  <ele>248.300000</ele>
  <time>2012-03-25T07:21:49Z</time>
  <sat>9</sat>
</trkpt>
<trkpt lat="39.776159000" lon="-0.308701000">
  <ele>247.600000</ele>
  <time>2012-03-25T07:21:50Z</time>
  <sat>9</sat>
</trkpt>
<trkpt lat="39.776245000" lon="-0.308736000">
  <ele>242.100000</ele>
  <time>2012-03-25T07:21:55Z</time>
  <sat>9</sat>
</trkpt>
<trkpt lat="39.776347000" lon="-0.308759000">
  <ele>239.800000</ele>
  <time>2012-03-25T07:21:58Z</time>
  <sat>9</sat>
</trkpt>
<trkpt lat="39.776453000" lon="-0.308772000">
  <ele>241.100000</ele>
  <time>2012-03-25T07:22:00Z</time>
  <sat>6</sat>
</trkpt>
<trkpt lat="39.776596000" lon="-0.308750000">
  <ele>240.000000</ele>
  <time>2012-03-25T07:22:03Z</time>
  <sat>9</sat>
</trkpt>
<trkpt lat="39.776798000" lon="-0.308722000">
  <ele>237.100000</ele>
  <time>2012-03-25T07:22:06Z</time>
  <sat>9</sat>
</trkpt>
<trkpt lat="39.777014000" lon="-0.308761000">
  <ele>236.800000</ele>
  <time>2012-03-25T07:22:09Z</time>
  <sat>9</sat>
</trkpt>
<trkpt lat="39.777254000" lon="-0.308781000">
  <ele>235.300000</ele>
  <time>2012-03-25T07:22:12Z</time>
  <sat>7</sat>
</trkpt>
<trkpt lat="39.777459000" lon="-0.308814000">
  <ele>233.300000</ele>
  <time>2012-03-25T07:22:15Z</time>
  <sat>9</sat>
</trkpt>
<trkpt lat="39.777581000" lon="-0.308841000">
  <ele>231.600000</ele>
  <time>2012-03-25T07:22:18Z</time>
  <sat>9</sat>
</trkpt>
<trkpt lat="39.777647000" lon="-0.308863000">
  <ele>231.100000</ele>
  <time>2012-03-25T07:22:21Z</time>
  <sat>9</sat>
</trkpt>
<trkpt lat="39.777666000" lon="-0.308874000">
  <ele>231.600000</ele>
  <time>2012-03-25T07:22:24Z</time>
  <sat>9</sat>
</trkpt>
<trkpt lat="39.777659000" lon="-0.308869000">
  <ele>231.600000</ele>
  <time>2012-03-25T07:22:27Z</time>
  <sat>9</sat>
</trkpt>
<trkpt lat="39.777656000" lon="-0.308865000">
  <ele>231.600000</ele>
  <time>2012-03-25T07:22:30Z</time>
  <sat>6</sat>
</trkpt>
<trkpt lat="39.777672000" lon="-0.308914000">
  <ele>230.800000</ele>
  <time>2012-03-25T07:22:33Z</time>
  <sat>9</sat>
</trkpt>
<trkpt lat="39.777669000" lon="-0.309010000">
  <ele>229.600000</ele>
  <time>2012-03-25T07:22:36Z</time>
  <sat>9</sat>
</trkpt>
<trkpt lat="39.777679000" lon="-0.309154000">
  <ele>228.800000</ele>
  <time>2012-03-25T07:22:39Z</time>
  <sat>9</sat>
</trkpt>
<trkpt lat="39.777689000" lon="-0.309312000">
  <ele>229.100000</ele>
  <time>2012-03-25T07:22:42Z</time>
  <sat>9</sat>
</trkpt>
<trkpt lat="39.777702000" lon="-0.309477000">
  <ele>228.800000</ele>
  <time>2012-03-25T07:22:45Z</time>
  <sat>9</sat>
</trkpt>
<trkpt lat="39.777715000" lon="-0.309624000">
  <ele>228.800000</ele>
  <time>2012-03-25T07:22:48Z</time>
  <sat>10</sat>
</trkpt>
<trkpt lat="39.777737000" lon="-0.309762000">
  <ele>227.800000</ele>
  <time>2012-03-25T07:22:51Z</time>
  <sat>10</sat>
</trkpt>
<trkpt lat="39.777748000" lon="-0.309810000">
  <ele>227.300000</ele>
  <time>2012-03-25T07:22:52Z</time>
  <sat>10</sat>
</trkpt>
<trkpt lat="39.777771000" lon="-0.309942000">
  <ele>226.100000</ele>
  <time>2012-03-25T07:22:55Z</time>
  <sat>10</sat>
</trkpt>
<trkpt lat="39.777801000" lon="-0.310130000">
  <ele>226.100000</ele>
  <time>2012-03-25T07:23:00Z</time>
  <sat>10</sat>
</trkpt>
<trkpt lat="39.777894000" lon="-0.310245000">
  <ele>223.100000</ele>
  <time>2012-03-25T07:23:03Z</time>
  <sat>9</sat>
</trkpt>
<trkpt lat="39.778015000" lon="-0.310334000">
  <ele>222.800000</ele>
  <time>2012-03-25T07:23:06Z</time>
  <sat>10</sat>
</trkpt>
<trkpt lat="39.778103000" lon="-0.310453000">
  <ele>224.500000</ele>
  <time>2012-03-25T07:23:09Z</time>
  <sat>10</sat>
</trkpt>
<trkpt lat="39.778145000" lon="-0.310569000">
  <ele>224.500000</ele>
  <time>2012-03-25T07:23:12Z</time>
  <sat>10</sat>
</trkpt>
<trkpt lat="39.778194000" lon="-0.310683000">
  <ele>223.000000</ele>
  <time>2012-03-25T07:23:15Z</time>
  <sat>10</sat>
</trkpt>
<trkpt lat="39.778288000" lon="-0.310854000">
  <ele>221.300000</ele>
  <time>2012-03-25T07:23:18Z</time>
  <sat>10</sat>
</trkpt>
<trkpt lat="39.778399000" lon="-0.311015000">
  <ele>221.100000</ele>
  <time>2012-03-25T07:23:21Z</time>
  <sat>8</sat>
</trkpt>
<trkpt lat="39.778480000" lon="-0.311183000">
  <ele>221.500000</ele>
  <time>2012-03-25T07:23:24Z</time>
  <sat>8</sat>
</trkpt>
<trkpt lat="39.778592000" lon="-0.311323000">
  <ele>220.600000</ele>
  <time>2012-03-25T07:23:27Z</time>
  <sat>9</sat>
</trkpt>
<trkpt lat="39.778740000" lon="-0.311436000">
  <ele>219.600000</ele>
  <time>2012-03-25T07:23:30Z</time>
  <sat>9</sat>
</trkpt>
<trkpt lat="39.778888000" lon="-0.311596000">
  <ele>218.800000</ele>
  <time>2012-03-25T07:23:33Z</time>
  <sat>9</sat>
</trkpt>
<trkpt lat="39.779030000" lon="-0.311771000">
  <ele>217.000000</ele>
  <time>2012-03-25T07:23:36Z</time>
  <sat>10</sat>
</trkpt>
<trkpt lat="39.779158000" lon="-0.311904000">
  <ele>217.100000</ele>
  <time>2012-03-25T07:23:39Z</time>
  <sat>10</sat>
</trkpt>
<trkpt lat="39.779238000" lon="-0.312076000">
  <ele>217.000000</ele>
  <time>2012-03-25T07:23:42Z</time>
  <sat>10</sat>
</trkpt>
<trkpt lat="39.779317000" lon="-0.312238000">
  <ele>216.500000</ele>
  <time>2012-03-25T07:23:45Z</time>
  <sat>10</sat>
</trkpt>
<trkpt lat="39.779392000" lon="-0.312383000">
  <ele>217.000000</ele>
  <time>2012-03-25T07:23:48Z</time>
  <sat>10</sat>
</trkpt>
<trkpt lat="39.779487000" lon="-0.312493000">
  <ele>216.800000</ele>
  <time>2012-03-25T07:23:51Z</time>
  <sat>10</sat>
</trkpt>
<trkpt lat="39.779583000" lon="-0.312603000">
  <ele>216.800000</ele>
  <time>2012-03-25T07:23:54Z</time>
  <sat>10</sat>
</trkpt>
<trkpt lat="39.779615000" lon="-0.312631000">
  <ele>217.000000</ele>
  <time>2012-03-25T07:23:55Z</time>
  <sat>10</sat>
</trkpt>
<trkpt lat="39.779757000" lon="-0.312787000">
  <ele>216.800000</ele>
  <time>2012-03-25T07:23:59Z</time>
  <sat>10</sat>
</trkpt>
<trkpt lat="39.779817000" lon="-0.312894000">
  <ele>216.300000</ele>
  <time>2012-03-25T07:24:01Z</time>
  <sat>10</sat>
</trkpt>
<trkpt lat="39.779924000" lon="-0.312987000">
  <ele>215.600000</ele>
  <time>2012-03-25T07:24:04Z</time>
  <sat>10</sat>
</trkpt>
<trkpt lat="39.780013000" lon="-0.313095000">
  <ele>215.800000</ele>
  <time>2012-03-25T07:24:07Z</time>
  <sat>10</sat>
</trkpt>
<trkpt lat="39.780083000" lon="-0.313227000">
  <ele>216.300000</ele>
  <time>2012-03-25T07:24:10Z</time>
  <sat>10</sat>
</trkpt>
<trkpt lat="39.780161000" lon="-0.313352000">
  <ele>216.300000</ele>
  <time>2012-03-25T07:24:13Z</time>
  <sat>10</sat>
</trkpt>
<trkpt lat="39.780285000" lon="-0.313429000">
  <ele>214.100000</ele>
  <time>2012-03-25T07:24:16Z</time>
  <sat>10</sat>
</trkpt>
<trkpt lat="39.780417000" lon="-0.313465000">
  <ele>211.800000</ele>
  <time>2012-03-25T07:24:19Z</time>
  <sat>9</sat>
</trkpt>
<trkpt lat="39.780539000" lon="-0.313466000">
  <ele>210.100000</ele>
  <time>2012-03-25T07:24:22Z</time>
  <sat>8</sat>
</trkpt>
<trkpt lat="39.780657000" lon="-0.313460000">
  <ele>208.300000</ele>
  <time>2012-03-25T07:24:25Z</time>
  <sat>8</sat>
</trkpt>
<trkpt lat="39.780752000" lon="-0.313478000">
  <ele>207.800000</ele>
  <time>2012-03-25T07:24:28Z</time>
  <sat>10</sat>
</trkpt>
<trkpt lat="39.780818000" lon="-0.313499000">
  <ele>207.500000</ele>
  <time>2012-03-25T07:24:31Z</time>
  <sat>10</sat>
</trkpt>
<trkpt lat="39.780819000" lon="-0.313497000">
  <ele>208.100000</ele>
  <time>2012-03-25T07:24:34Z</time>
  <sat>10</sat>
</trkpt>
<trkpt lat="39.780817000" lon="-0.313492000">
  <ele>207.600000</ele>
  <time>2012-03-25T07:24:37Z</time>
  <sat>10</sat>
</trkpt>
<trkpt lat="39.780816000" lon="-0.313490000">
  <ele>207.300000</ele>
  <time>2012-03-25T07:24:40Z</time>
  <sat>9</sat>
</trkpt>
<trkpt lat="39.780818000" lon="-0.313490000">
  <ele>207.300000</ele>
  <time>2012-03-25T07:24:43Z</time>
  <sat>9</sat>
</trkpt>
<trkpt lat="39.780815000" lon="-0.313489000">
  <ele>207.100000</ele>
  <time>2012-03-25T07:24:46Z</time>
  <sat>9</sat>
</trkpt>
<trkpt lat="39.780851000" lon="-0.313472000">
  <ele>208.300000</ele>
  <time>2012-03-25T07:24:49Z</time>
  <sat>9</sat>
</trkpt>
<trkpt lat="39.780870000" lon="-0.313375000">
  <ele>206.800000</ele>
  <time>2012-03-25T07:24:52Z</time>
  <sat>10</sat>
</trkpt>
<trkpt lat="39.780916000" lon="-0.313232000">
  <ele>206.100000</ele>
  <time>2012-03-25T07:24:55Z</time>
  <sat>10</sat>
</trkpt>
<trkpt lat="39.780971000" lon="-0.313073000">
  <ele>205.000000</ele>
  <time>2012-03-25T07:24:58Z</time>
  <sat>9</sat>
</trkpt>
<trkpt lat="39.780986000" lon="-0.313016000">
  <ele>204.600000</ele>
  <time>2012-03-25T07:24:59Z</time>
  <sat>9</sat>
</trkpt>
<trkpt lat="39.781036000" lon="-0.312799000">
  <ele>204.000000</ele>
  <time>2012-03-25T07:25:03Z</time>
  <sat>8</sat>
</trkpt>
<trkpt lat="39.781078000" lon="-0.312633000">
  <ele>204.100000</ele>
  <time>2012-03-25T07:25:06Z</time>
  <sat>9</sat>
</trkpt>
<trkpt lat="39.781130000" lon="-0.312468000">
  <ele>204.000000</ele>
  <time>2012-03-25T07:25:09Z</time>
  <sat>9</sat>
</trkpt>
<trkpt lat="39.781195000" lon="-0.312302000">
  <ele>203.800000</ele>
  <time>2012-03-25T07:25:12Z</time>
  <sat>9</sat>
</trkpt>
<trkpt lat="39.781270000" lon="-0.312140000">
  <ele>204.100000</ele>
  <time>2012-03-25T07:25:15Z</time>
  <sat>10</sat>
</trkpt>
<trkpt lat="39.781345000" lon="-0.311993000">
  <ele>204.300000</ele>
  <time>2012-03-25T07:25:18Z</time>
  <sat>10</sat>
</trkpt>
<trkpt lat="39.781417000" lon="-0.311852000">
  <ele>204.600000</ele>
  <time>2012-03-25T07:25:21Z</time>
  <sat>10</sat>
</trkpt>
<trkpt lat="39.781487000" lon="-0.311714000">
  <ele>204.600000</ele>
  <time>2012-03-25T07:25:24Z</time>
  <sat>10</sat>
</trkpt>
<trkpt lat="39.781561000" lon="-0.311569000">
  <ele>204.800000</ele>
  <time>2012-03-25T07:25:27Z</time>
  <sat>10</sat>
</trkpt>
<trkpt lat="39.781633000" lon="-0.311425000">
  <ele>204.800000</ele>
  <time>2012-03-25T07:25:30Z</time>
  <sat>10</sat>
</trkpt>
<trkpt lat="39.781708000" lon="-0.311271000">
  <ele>204.500000</ele>
  <time>2012-03-25T07:25:33Z</time>
  <sat>9</sat>
</trkpt>
<trkpt lat="39.781779000" lon="-0.311112000">
  <ele>203.800000</ele>
  <time>2012-03-25T07:25:36Z</time>
  <sat>10</sat>
</trkpt>
<trkpt lat="39.781849000" lon="-0.310932000">
  <ele>203.300000</ele>
  <time>2012-03-25T07:25:39Z</time>
  <sat>10</sat>
</trkpt>
<trkpt lat="39.781918000" lon="-0.310745000">
  <ele>202.800000</ele>
  <time>2012-03-25T07:25:42Z</time>
  <sat>7</sat>
</trkpt>
<trkpt lat="39.781990000" lon="-0.310555000">
  <ele>202.800000</ele>
  <time>2012-03-25T07:25:45Z</time>
  <sat>7</sat>
</trkpt>
<trkpt lat="39.782062000" lon="-0.310363000">
  <ele>202.800000</ele>
  <time>2012-03-25T07:25:48Z</time>
  <sat>9</sat>
</trkpt>
<trkpt lat="39.782132000" lon="-0.310158000">
  <ele>202.500000</ele>
  <time>2012-03-25T07:25:51Z</time>
  <sat>8</sat>
</trkpt>
<trkpt lat="39.782203000" lon="-0.309954000">
  <ele>202.000000</ele>
  <time>2012-03-25T07:25:54Z</time>
  <sat>8</sat>
</trkpt>
<trkpt lat="39.782268000" lon="-0.309735000">
  <ele>201.300000</ele>
  <time>2012-03-25T07:25:57Z</time>
  <sat>8</sat>
</trkpt>
<trkpt lat="39.782319000" lon="-0.309593000">
  <ele>201.300000</ele>
  <time>2012-03-25T07:25:59Z</time>
  <sat>8</sat>
</trkpt>
<trkpt lat="39.782372000" lon="-0.309450000">
  <ele>201.300000</ele>
  <time>2012-03-25T07:26:01Z</time>
  <sat>8</sat>
</trkpt>
<trkpt lat="39.782394000" lon="-0.309377000">
  <ele>201.100000</ele>
  <time>2012-03-25T07:26:02Z</time>
  <sat>8</sat>
</trkpt>
<trkpt lat="39.782518000" lon="-0.308998000">
  <ele>200.800000</ele>
  <time>2012-03-25T07:26:07Z</time>
  <sat>8</sat>
</trkpt>
<trkpt lat="39.782585000" lon="-0.308782000">
  <ele>199.800000</ele>
  <time>2012-03-25T07:26:10Z</time>
  <sat>8</sat>
</trkpt>
<trkpt lat="39.782654000" lon="-0.308567000">
  <ele>197.800000</ele>
  <time>2012-03-25T07:26:13Z</time>
  <sat>9</sat>
</trkpt>
<trkpt lat="39.782733000" lon="-0.308345000">
  <ele>196.500000</ele>
  <time>2012-03-25T07:26:16Z</time>
  <sat>9</sat>
</trkpt>
<trkpt lat="39.782801000" lon="-0.308101000">
  <ele>195.500000</ele>
  <time>2012-03-25T07:26:19Z</time>
  <sat>9</sat>
</trkpt>
<trkpt lat="39.782878000" lon="-0.307845000">
  <ele>195.000000</ele>
  <time>2012-03-25T07:26:22Z</time>
  <sat>8</sat>
</trkpt>
<trkpt lat="39.782953000" lon="-0.307657000">
  <ele>194.100000</ele>
  <time>2012-03-25T07:26:25Z</time>
  <sat>8</sat>
</trkpt>
<trkpt lat="39.782984000" lon="-0.307584000">
  <ele>193.600000</ele>
  <time>2012-03-25T07:26:28Z</time>
  <sat>8</sat>
</trkpt>
<trkpt lat="39.783013000" lon="-0.307528000">
  <ele>193.300000</ele>
  <time>2012-03-25T07:26:31Z</time>
  <sat>8</sat>
</trkpt>
<trkpt lat="39.783043000" lon="-0.307422000">
  <ele>193.500000</ele>
  <time>2012-03-25T07:26:34Z</time>
  <sat>7</sat>
</trkpt>
<trkpt lat="39.783100000" lon="-0.307284000">
  <ele>193.600000</ele>
  <time>2012-03-25T07:26:37Z</time>
  <sat>10</sat>
</trkpt>
<trkpt lat="39.783152000" lon="-0.307142000">
  <ele>194.100000</ele>
  <time>2012-03-25T07:26:40Z</time>
  <sat>10</sat>
</trkpt>
<trkpt lat="39.783191000" lon="-0.306974000">
  <ele>194.500000</ele>
  <time>2012-03-25T07:26:43Z</time>
  <sat>10</sat>
</trkpt>
<trkpt lat="39.783255000" lon="-0.306822000">
  <ele>194.300000</ele>
  <time>2012-03-25T07:26:46Z</time>
  <sat>6</sat>
</trkpt>
<trkpt lat="39.783301000" lon="-0.306652000">
  <ele>195.600000</ele>
  <time>2012-03-25T07:26:49Z</time>
  <sat>6</sat>
</trkpt>
<trkpt lat="39.783350000" lon="-0.306489000">
  <ele>195.300000</ele>
  <time>2012-03-25T07:26:52Z</time>
  <sat>6</sat>
</trkpt>
<trkpt lat="39.783391000" lon="-0.306314000">
  <ele>195.300000</ele>
  <time>2012-03-25T07:26:55Z</time>
  <sat>8</sat>
</trkpt>
<trkpt lat="39.783436000" lon="-0.306138000">
  <ele>194.600000</ele>
  <time>2012-03-25T07:26:58Z</time>
  <sat>8</sat>
</trkpt>
<trkpt lat="39.783466000" lon="-0.306024000">
  <ele>194.800000</ele>
  <time>2012-03-25T07:27:00Z</time>
  <sat>8</sat>
</trkpt>
<trkpt lat="39.783507000" lon="-0.305849000">
  <ele>194.500000</ele>
  <time>2012-03-25T07:27:03Z</time>
  <sat>6</sat>
</trkpt>
<trkpt lat="39.783516000" lon="-0.305790000">
  <ele>194.300000</ele>
  <time>2012-03-25T07:27:04Z</time>
  <sat>7</sat>
</trkpt>
<trkpt lat="39.783564000" lon="-0.305481000">
  <ele>193.600000</ele>
  <time>2012-03-25T07:27:09Z</time>
  <sat>7</sat>
</trkpt>
<trkpt lat="39.783587000" lon="-0.305293000">
  <ele>193.300000</ele>
  <time>2012-03-25T07:27:12Z</time>
  <sat>7</sat>
</trkpt>
<trkpt lat="39.783604000" lon="-0.305107000">
  <ele>192.800000</ele>
  <time>2012-03-25T07:27:15Z</time>
  <sat>6</sat>
</trkpt>
<trkpt lat="39.783614000" lon="-0.304913000">
  <ele>192.800000</ele>
  <time>2012-03-25T07:27:18Z</time>
  <sat>7</sat>
</trkpt>
<trkpt lat="39.783620000" lon="-0.304725000">
  <ele>193.100000</ele>
  <time>2012-03-25T07:27:21Z</time>
  <sat>7</sat>
</trkpt>
<trkpt lat="39.783626000" lon="-0.304523000">
  <ele>193.300000</ele>
  <time>2012-03-25T07:27:24Z</time>
  <sat>7</sat>
</trkpt>
<trkpt lat="39.783631000" lon="-0.304308000">
  <ele>193.000000</ele>
  <time>2012-03-25T07:27:27Z</time>
  <sat>7</sat>
</trkpt>
<trkpt lat="39.783628000" lon="-0.304088000">
  <ele>193.000000</ele>
  <time>2012-03-25T07:27:30Z</time>
  <sat>7</sat>
</trkpt>
<trkpt lat="39.783622000" lon="-0.303859000">
  <ele>192.800000</ele>
  <time>2012-03-25T07:27:33Z</time>
  <sat>7</sat>
</trkpt>
<trkpt lat="39.783613000" lon="-0.303636000">
  <ele>192.600000</ele>
  <time>2012-03-25T07:27:36Z</time>
  <sat>7</sat>
</trkpt>
<trkpt lat="39.783613000" lon="-0.303429000">
  <ele>192.500000</ele>
  <time>2012-03-25T07:27:39Z</time>
  <sat>7</sat>
</trkpt>
<trkpt lat="39.783597000" lon="-0.303225000">
  <ele>192.100000</ele>
  <time>2012-03-25T07:27:42Z</time>
  <sat>7</sat>
</trkpt>
<trkpt lat="39.783589000" lon="-0.303027000">
  <ele>191.600000</ele>
  <time>2012-03-25T07:27:45Z</time>
  <sat>7</sat>
</trkpt>
<trkpt lat="39.783580000" lon="-0.302813000">
  <ele>191.100000</ele>
  <time>2012-03-25T07:27:48Z</time>
  <sat>7</sat>
</trkpt>
<trkpt lat="39.783572000" lon="-0.302594000">
  <ele>190.800000</ele>
  <time>2012-03-25T07:27:51Z</time>
  <sat>7</sat>
</trkpt>
<trkpt lat="39.783563000" lon="-0.302365000">
  <ele>190.800000</ele>
  <time>2012-03-25T07:27:54Z</time>
  <sat>8</sat>
</trkpt>
<trkpt lat="39.783553000" lon="-0.302133000">
  <ele>190.800000</ele>
  <time>2012-03-25T07:27:57Z</time>
  <sat>8</sat>
</trkpt>
<trkpt lat="39.783549000" lon="-0.301983000">
  <ele>190.600000</ele>
  <time>2012-03-25T07:27:59Z</time>
  <sat>8</sat>
</trkpt>
<trkpt lat="39.783536000" lon="-0.301837000">
  <ele>190.100000</ele>
  <time>2012-03-25T07:28:01Z</time>
  <sat>7</sat>
</trkpt>
<trkpt lat="39.783522000" lon="-0.301631000">
  <ele>190.300000</ele>
  <time>2012-03-25T07:28:04Z</time>
  <sat>7</sat>
</trkpt>
<trkpt lat="39.783516000" lon="-0.301558000">
  <ele>190.100000</ele>
  <time>2012-03-25T07:28:05Z</time>
  <sat>7</sat>
</trkpt>
<trkpt lat="39.783476000" lon="-0.301192000">
  <ele>190.600000</ele>
  <time>2012-03-25T07:28:10Z</time>
  <sat>7</sat>
</trkpt>
<trkpt lat="39.783445000" lon="-0.300974000">
  <ele>190.500000</ele>
  <time>2012-03-25T07:28:13Z</time>
  <sat>8</sat>
</trkpt>
<trkpt lat="39.783414000" lon="-0.300755000">
  <ele>190.300000</ele>
  <time>2012-03-25T07:28:16Z</time>
  <sat>7</sat>
</trkpt>
<trkpt lat="39.783392000" lon="-0.300544000">
  <ele>190.500000</ele>
  <time>2012-03-25T07:28:19Z</time>
  <sat>6</sat>
</trkpt>
<trkpt lat="39.783382000" lon="-0.300329000">
  <ele>190.800000</ele>
  <time>2012-03-25T07:28:22Z</time>
  <sat>6</sat>
</trkpt>
<trkpt lat="39.783385000" lon="-0.300120000">
  <ele>191.100000</ele>
  <time>2012-03-25T07:28:25Z</time>
  <sat>6</sat>
</trkpt>
<trkpt lat="39.783397000" lon="-0.299918000">
  <ele>191.600000</ele>
  <time>2012-03-25T07:28:28Z</time>
  <sat>8</sat>
</trkpt>
<trkpt lat="39.783426000" lon="-0.299711000">
  <ele>191.500000</ele>
  <time>2012-03-25T07:28:31Z</time>
  <sat>8</sat>
</trkpt>
<trkpt lat="39.783462000" lon="-0.299494000">
  <ele>191.100000</ele>
  <time>2012-03-25T07:28:34Z</time>
  <sat>6</sat>
</trkpt>
<trkpt lat="39.783507000" lon="-0.299268000">
  <ele>191.100000</ele>
  <time>2012-03-25T07:28:37Z</time>
  <sat>7</sat>
</trkpt>
<trkpt lat="39.783549000" lon="-0.299034000">
  <ele>191.800000</ele>
  <time>2012-03-25T07:28:40Z</time>
  <sat>10</sat>
</trkpt>
<trkpt lat="39.783594000" lon="-0.298787000">
  <ele>192.100000</ele>
  <time>2012-03-25T07:28:43Z</time>
  <sat>10</sat>
</trkpt>
<trkpt lat="39.783647000" lon="-0.298542000">
  <ele>192.100000</ele>
  <time>2012-03-25T07:28:46Z</time>
  <sat>6</sat>
</trkpt>
<trkpt lat="39.783702000" lon="-0.298308000">
  <ele>191.800000</ele>
  <time>2012-03-25T07:28:49Z</time>
  <sat>6</sat>
</trkpt>
<trkpt lat="39.783756000" lon="-0.298068000">
  <ele>191.100000</ele>
  <time>2012-03-25T07:28:52Z</time>
  <sat>6</sat>
</trkpt>
<trkpt lat="39.783794000" lon="-0.297817000">
  <ele>190.600000</ele>
  <time>2012-03-25T07:28:55Z</time>
  <sat>8</sat>
</trkpt>
<trkpt lat="39.783978000" lon="-0.297665000">
  <ele>191.000000</ele>
  <time>2012-03-25T07:28:58Z</time>
  <sat>10</sat>
</trkpt>
<trkpt lat="39.784151000" lon="-0.297678000">
  <ele>191.300000</ele>
  <time>2012-03-25T07:29:00Z</time>
  <sat>10</sat>
</trkpt>
<trkpt lat="39.784339000" lon="-0.297517000">
  <ele>188.600000</ele>
  <time>2012-03-25T07:29:03Z</time>
  <sat>10</sat>
</trkpt>
<trkpt lat="39.784371000" lon="-0.297313000">
  <ele>187.100000</ele>
  <time>2012-03-25T07:29:06Z</time>
  <sat>9</sat>
</trkpt>
<trkpt lat="39.784371000" lon="-0.297252000">
  <ele>186.500000</ele>
  <time>2012-03-25T07:29:07Z</time>
  <sat>9</sat>
</trkpt>
<trkpt lat="39.784351000" lon="-0.296944000">
  <ele>186.300000</ele>
  <time>2012-03-25T07:29:12Z</time>
  <sat>10</sat>
</trkpt>
<trkpt lat="39.784338000" lon="-0.296780000">
  <ele>187.100000</ele>
  <time>2012-03-25T07:29:15Z</time>
  <sat>10</sat>
</trkpt>
<trkpt lat="39.784318000" lon="-0.296620000">
  <ele>188.300000</ele>
  <time>2012-03-25T07:29:18Z</time>
  <sat>10</sat>
</trkpt>
<trkpt lat="39.784309000" lon="-0.296457000">
  <ele>189.300000</ele>
  <time>2012-03-25T07:29:21Z</time>
  <sat>10</sat>
</trkpt>
<trkpt lat="39.784311000" lon="-0.296317000">
  <ele>190.300000</ele>
  <time>2012-03-25T07:29:24Z</time>
  <sat>10</sat>
</trkpt>
<trkpt lat="39.784323000" lon="-0.296147000">
  <ele>190.800000</ele>
  <time>2012-03-25T07:29:27Z</time>
  <sat>9</sat>
</trkpt>
<trkpt lat="39.784326000" lon="-0.295968000">
  <ele>191.300000</ele>
  <time>2012-03-25T07:29:30Z</time>
  <sat>9</sat>
</trkpt>
<trkpt lat="39.784339000" lon="-0.295795000">
  <ele>191.800000</ele>
  <time>2012-03-25T07:29:33Z</time>
  <sat>9</sat>
</trkpt>
<trkpt lat="39.784347000" lon="-0.295633000">
  <ele>191.300000</ele>
  <time>2012-03-25T07:29:36Z</time>
  <sat>10</sat>
</trkpt>
<trkpt lat="39.784352000" lon="-0.295448000">
  <ele>190.800000</ele>
  <time>2012-03-25T07:29:39Z</time>
  <sat>10</sat>
</trkpt>
<trkpt lat="39.784358000" lon="-0.295249000">
  <ele>190.600000</ele>
  <time>2012-03-25T07:29:42Z</time>
  <sat>7</sat>
</trkpt>
<trkpt lat="39.784355000" lon="-0.295033000">
  <ele>190.600000</ele>
  <time>2012-03-25T07:29:45Z</time>
  <sat>6</sat>
</trkpt>
<trkpt lat="39.784342000" lon="-0.294811000">
  <ele>190.300000</ele>
  <time>2012-03-25T07:29:48Z</time>
  <sat>7</sat>
</trkpt>
<trkpt lat="39.784314000" lon="-0.294571000">
  <ele>189.500000</ele>
  <time>2012-03-25T07:29:51Z</time>
  <sat>8</sat>
</trkpt>
<trkpt lat="39.784289000" lon="-0.294310000">
  <ele>188.800000</ele>
  <time>2012-03-25T07:29:54Z</time>
  <sat>8</sat>
</trkpt>
<trkpt lat="39.784257000" lon="-0.294041000">
  <ele>188.100000</ele>
  <time>2012-03-25T07:29:57Z</time>
  <sat>7</sat>
</trkpt>
<trkpt lat="39.784229000" lon="-0.293863000">
  <ele>187.800000</ele>
  <time>2012-03-25T07:29:59Z</time>
  <sat>7</sat>
</trkpt>
<trkpt lat="39.784197000" lon="-0.293697000">
  <ele>187.600000</ele>
  <time>2012-03-25T07:30:01Z</time>
  <sat>9</sat>
</trkpt>
<trkpt lat="39.784130000" lon="-0.293464000">
  <ele>187.300000</ele>
  <time>2012-03-25T07:30:04Z</time>
  <sat>9</sat>
</trkpt>
<trkpt lat="39.784056000" lon="-0.293261000">
  <ele>188.100000</ele>
  <time>2012-03-25T07:30:07Z</time>
  <sat>8</sat>
</trkpt>
<trkpt lat="39.784026000" lon="-0.293200000">
  <ele>188.000000</ele>
  <time>2012-03-25T07:30:08Z</time>
  <sat>5</sat>
</trkpt>
<trkpt lat="39.783870000" lon="-0.292916000">
  <ele>188.600000</ele>
  <time>2012-03-25T07:30:13Z</time>
  <sat>7</sat>
</trkpt>
<trkpt lat="39.783772000" lon="-0.292751000">
  <ele>188.600000</ele>
  <time>2012-03-25T07:30:16Z</time>
  <sat>7</sat>
</trkpt>
<trkpt lat="39.783670000" lon="-0.292586000">
  <ele>189.000000</ele>
  <time>2012-03-25T07:30:19Z</time>
  <sat>7</sat>
</trkpt>
<trkpt lat="39.783569000" lon="-0.292423000">
  <ele>189.100000</ele>
  <time>2012-03-25T07:30:22Z</time>
  <sat>7</sat>
</trkpt>
<trkpt lat="39.783458000" lon="-0.292270000">
  <ele>189.100000</ele>
  <time>2012-03-25T07:30:25Z</time>
  <sat>7</sat>
</trkpt>
<trkpt lat="39.783342000" lon="-0.292115000">
  <ele>189.500000</ele>
  <time>2012-03-25T07:30:28Z</time>
  <sat>9</sat>
</trkpt>
<trkpt lat="39.783227000" lon="-0.291949000">
  <ele>189.800000</ele>
  <time>2012-03-25T07:30:31Z</time>
  <sat>8</sat>
</trkpt>
<trkpt lat="39.783109000" lon="-0.291790000">
  <ele>189.800000</ele>
  <time>2012-03-25T07:30:34Z</time>
  <sat>8</sat>
</trkpt>
<trkpt lat="39.782993000" lon="-0.291630000">
  <ele>189.600000</ele>
  <time>2012-03-25T07:30:37Z</time>
  <sat>7</sat>
</trkpt>
<trkpt lat="39.782882000" lon="-0.291463000">
  <ele>189.600000</ele>
  <time>2012-03-25T07:30:40Z</time>
  <sat>5</sat>
</trkpt>
<trkpt lat="39.782784000" lon="-0.291300000">
  <ele>189.600000</ele>
  <time>2012-03-25T07:30:43Z</time>
  <sat>5</sat>
</trkpt>
<trkpt lat="39.782650000" lon="-0.291157000">
  <ele>189.800000</ele>
  <time>2012-03-25T07:30:46Z</time>
  <sat>7</sat>
</trkpt>
<trkpt lat="39.782540000" lon="-0.291013000">
  <ele>190.300000</ele>
  <time>2012-03-25T07:30:49Z</time>
  <sat>8</sat>
</trkpt>
<trkpt lat="39.782421000" lon="-0.290888000">
  <ele>191.100000</ele>
  <time>2012-03-25T07:30:52Z</time>
  <sat>9</sat>
</trkpt>
<trkpt lat="39.782296000" lon="-0.290786000">
  <ele>191.600000</ele>
  <time>2012-03-25T07:30:55Z</time>
  <sat>8</sat>
</trkpt>
<trkpt lat="39.782169000" lon="-0.290683000">
  <ele>192.300000</ele>
  <time>2012-03-25T07:30:58Z</time>
  <sat>7</sat>
</trkpt>
<trkpt lat="39.782081000" lon="-0.290624000">
  <ele>193.000000</ele>
  <time>2012-03-25T07:31:00Z</time>
  <sat>8</sat>
</trkpt>
<trkpt lat="39.781947000" lon="-0.290528000">
  <ele>194.100000</ele>
  <time>2012-03-25T07:31:03Z</time>
  <sat>7</sat>
</trkpt>
<trkpt lat="39.781815000" lon="-0.290440000">
  <ele>195.100000</ele>
  <time>2012-03-25T07:31:06Z</time>
  <sat>8</sat>
</trkpt>
<trkpt lat="39.781685000" lon="-0.290357000">
  <ele>195.500000</ele>
  <time>2012-03-25T07:31:09Z</time>
  <sat>9</sat>
</trkpt>
<trkpt lat="39.781643000" lon="-0.290328000">
  <ele>195.600000</ele>
  <time>2012-03-25T07:31:10Z</time>
  <sat>9</sat>
</trkpt>
<trkpt lat="39.781470000" lon="-0.290133000">
  <ele>196.100000</ele>
  <time>2012-03-25T07:31:15Z</time>
  <sat>8</sat>
</trkpt>
<trkpt lat="39.781377000" lon="-0.289990000">
  <ele>197.000000</ele>
  <time>2012-03-25T07:31:18Z</time>
  <sat>8</sat>
</trkpt>
<trkpt lat="39.781300000" lon="-0.289843000">
  <ele>197.800000</ele>
  <time>2012-03-25T07:31:21Z</time>
  <sat>7</sat>
</trkpt>
<trkpt lat="39.781229000" lon="-0.289698000">
  <ele>198.600000</ele>
  <time>2012-03-25T07:31:24Z</time>
  <sat>6</sat>
</trkpt>
<trkpt lat="39.781163000" lon="-0.289556000">
  <ele>199.100000</ele>
  <time>2012-03-25T07:31:27Z</time>
  <sat>6</sat>
</trkpt>
<trkpt lat="39.781105000" lon="-0.289423000">
  <ele>199.500000</ele>
  <time>2012-03-25T07:31:30Z</time>
  <sat>7</sat>
</trkpt>
<trkpt lat="39.781057000" lon="-0.289293000">
  <ele>199.300000</ele>
  <time>2012-03-25T07:31:33Z</time>
  <sat>9</sat>
</trkpt>
<trkpt lat="39.781005000" lon="-0.289138000">
  <ele>198.800000</ele>
  <time>2012-03-25T07:31:36Z</time>
  <sat>9</sat>
</trkpt>
<trkpt lat="39.780960000" lon="-0.288956000">
  <ele>196.800000</ele>
  <time>2012-03-25T07:31:39Z</time>
  <sat>10</sat>
</trkpt>
<trkpt lat="39.780923000" lon="-0.288741000">
  <ele>194.100000</ele>
  <time>2012-03-25T07:31:42Z</time>
  <sat>10</sat>
</trkpt>
<trkpt lat="39.780886000" lon="-0.288494000">
  <ele>190.600000</ele>
  <time>2012-03-25T07:31:45Z</time>
  <sat>10</sat>
</trkpt>
<trkpt lat="39.780847000" lon="-0.288214000">
  <ele>188.300000</ele>
  <time>2012-03-25T07:31:48Z</time>
  <sat>10</sat>
</trkpt>
<trkpt lat="39.780836000" lon="-0.287900000">
  <ele>185.600000</ele>
  <time>2012-03-25T07:31:51Z</time>
  <sat>10</sat>
</trkpt>
<trkpt lat="39.780847000" lon="-0.287551000">
  <ele>183.100000</ele>
  <time>2012-03-25T07:31:54Z</time>
  <sat>10</sat>
</trkpt>
<trkpt lat="39.780917000" lon="-0.287190000">
  <ele>181.800000</ele>
  <time>2012-03-25T07:31:57Z</time>
  <sat>11</sat>
</trkpt>
<trkpt lat="39.781022000" lon="-0.286990000">
  <ele>180.800000</ele>
  <time>2012-03-25T07:31:59Z</time>
  <sat>11</sat>
</trkpt>
<trkpt lat="39.781164000" lon="-0.286836000">
  <ele>181.000000</ele>
  <time>2012-03-25T07:32:01Z</time>
  <sat>10</sat>
</trkpt>
<trkpt lat="39.781268000" lon="-0.286619000">
  <ele>179.800000</ele>
  <time>2012-03-25T07:32:04Z</time>
  <sat>10</sat>
</trkpt>
<trkpt lat="39.781091000" lon="-0.286460000">
  <ele>178.800000</ele>
  <time>2012-03-25T07:32:07Z</time>
  <sat>9</sat>
</trkpt>
<trkpt lat="39.780918000" lon="-0.286327000">
  <ele>179.100000</ele>
  <time>2012-03-25T07:32:10Z</time>
  <sat>10</sat>
</trkpt>
<trkpt lat="39.780737000" lon="-0.286224000">
  <ele>179.000000</ele>
  <time>2012-03-25T07:32:13Z</time>
  <sat>10</sat>
</trkpt>
<trkpt lat="39.780673000" lon="-0.286210000">
  <ele>179.100000</ele>
  <time>2012-03-25T07:32:14Z</time>
  <sat>10</sat>
</trkpt>
<trkpt lat="39.780426000" lon="-0.286244000">
  <ele>178.100000</ele>
  <time>2012-03-25T07:32:19Z</time>
  <sat>10</sat>
</trkpt>
<trkpt lat="39.780309000" lon="-0.286291000">
  <ele>178.500000</ele>
  <time>2012-03-25T07:32:22Z</time>
  <sat>8</sat>
</trkpt>
<trkpt lat="39.780189000" lon="-0.286351000">
  <ele>178.600000</ele>
  <time>2012-03-25T07:32:25Z</time>
  <sat>9</sat>
</trkpt>
<trkpt lat="39.780173000" lon="-0.286501000">
  <ele>178.800000</ele>
  <time>2012-03-25T07:32:28Z</time>
  <sat>10</sat>
</trkpt>
<trkpt lat="39.780214000" lon="-0.286665000">
  <ele>180.100000</ele>
  <time>2012-03-25T07:32:31Z</time>
  <sat>9</sat>
</trkpt>
<trkpt lat="39.780255000" lon="-0.286834000">
  <ele>180.600000</ele>
  <time>2012-03-25T07:32:34Z</time>
  <sat>9</sat>
</trkpt>
<trkpt lat="39.780279000" lon="-0.287007000">
  <ele>181.000000</ele>
  <time>2012-03-25T07:32:37Z</time>
  <sat>8</sat>
</trkpt>
<trkpt lat="39.780289000" lon="-0.287185000">
  <ele>182.000000</ele>
  <time>2012-03-25T07:32:40Z</time>
  <sat>8</sat>
</trkpt>
<trkpt lat="39.780308000" lon="-0.287350000">
  <ele>181.500000</ele>
  <time>2012-03-25T07:32:43Z</time>
  <sat>7</sat>
</trkpt>
<trkpt lat="39.780313000" lon="-0.287533000">
  <ele>182.500000</ele>
  <time>2012-03-25T07:32:46Z</time>
  <sat>7</sat>
</trkpt>
<trkpt lat="39.780332000" lon="-0.287703000">
  <ele>182.800000</ele>
  <time>2012-03-25T07:32:49Z</time>
  <sat>8</sat>
</trkpt>
<trkpt lat="39.780350000" lon="-0.287862000">
  <ele>184.800000</ele>
  <time>2012-03-25T07:32:52Z</time>
  <sat>8</sat>
</trkpt>
<trkpt lat="39.780371000" lon="-0.288012000">
  <ele>185.800000</ele>
  <time>2012-03-25T07:32:55Z</time>
  <sat>8</sat>
</trkpt>
<trkpt lat="39.780394000" lon="-0.288171000">
  <ele>186.500000</ele>
  <time>2012-03-25T07:32:58Z</time>
  <sat>8</sat>
</trkpt>
<trkpt lat="39.780412000" lon="-0.288274000">
  <ele>186.100000</ele>
  <time>2012-03-25T07:33:00Z</time>
  <sat>9</sat>
</trkpt>
<trkpt lat="39.780435000" lon="-0.288437000">
  <ele>186.600000</ele>
  <time>2012-03-25T07:33:03Z</time>
  <sat>9</sat>
</trkpt>
<trkpt lat="39.780459000" lon="-0.288602000">
  <ele>186.300000</ele>
  <time>2012-03-25T07:33:06Z</time>
  <sat>9</sat>
</trkpt>
<trkpt lat="39.780487000" lon="-0.288761000">
  <ele>186.500000</ele>
  <time>2012-03-25T07:33:09Z</time>
  <sat>9</sat>
</trkpt>
<trkpt lat="39.780520000" lon="-0.288927000">
  <ele>187.100000</ele>
  <time>2012-03-25T07:33:12Z</time>
  <sat>9</sat>
</trkpt>
<trkpt lat="39.780557000" lon="-0.289085000">
  <ele>187.800000</ele>
  <time>2012-03-25T07:33:15Z</time>
  <sat>9</sat>
</trkpt>
<trkpt lat="39.780570000" lon="-0.289136000">
  <ele>187.800000</ele>
  <time>2012-03-25T07:33:16Z</time>
  <sat>8</sat>
</trkpt>
<trkpt lat="39.780641000" lon="-0.289394000">
  <ele>188.100000</ele>
  <time>2012-03-25T07:33:21Z</time>
  <sat>9</sat>
</trkpt>
<trkpt lat="39.780706000" lon="-0.289553000">
  <ele>188.300000</ele>
  <time>2012-03-25T07:33:24Z</time>
  <sat>9</sat>
</trkpt>
<trkpt lat="39.780787000" lon="-0.289661000">
  <ele>188.800000</ele>
  <time>2012-03-25T07:33:27Z</time>
  <sat>7</sat>
</trkpt>
<trkpt lat="39.780832000" lon="-0.289827000">
  <ele>191.000000</ele>
  <time>2012-03-25T07:33:30Z</time>
  <sat>8</sat>
</trkpt>
<trkpt lat="39.780828000" lon="-0.289996000">
  <ele>192.300000</ele>
  <time>2012-03-25T07:33:33Z</time>
  <sat>9</sat>
</trkpt>
<trkpt lat="39.780763000" lon="-0.290152000">
  <ele>193.500000</ele>
  <time>2012-03-25T07:33:36Z</time>
  <sat>9</sat>
</trkpt>
<trkpt lat="39.780720000" lon="-0.290296000">
  <ele>195.100000</ele>
  <time>2012-03-25T07:33:39Z</time>
  <sat>9</sat>
</trkpt>
<trkpt lat="39.780663000" lon="-0.290424000">
  <ele>195.800000</ele>
  <time>2012-03-25T07:33:42Z</time>
  <sat>8</sat>
</trkpt>
<trkpt lat="39.780600000" lon="-0.290554000">
  <ele>196.100000</ele>
  <time>2012-03-25T07:33:45Z</time>
  <sat>8</sat>
</trkpt>
<trkpt lat="39.780516000" lon="-0.290669000">
  <ele>195.800000</ele>
  <time>2012-03-25T07:33:48Z</time>
  <sat>6</sat>
</trkpt>
<trkpt lat="39.780409000" lon="-0.290772000">
  <ele>195.600000</ele>
  <time>2012-03-25T07:33:51Z</time>
  <sat>5</sat>
</trkpt>
<trkpt lat="39.780283000" lon="-0.290809000">
  <ele>196.800000</ele>
  <time>2012-03-25T07:33:54Z</time>
  <sat>6</sat>
</trkpt>
<trkpt lat="39.780174000" lon="-0.290888000">
  <ele>197.600000</ele>
  <time>2012-03-25T07:33:57Z</time>
  <sat>7</sat>
</trkpt>
<trkpt lat="39.780101000" lon="-0.290933000">
  <ele>198.600000</ele>
  <time>2012-03-25T07:33:59Z</time>
  <sat>7</sat>
</trkpt>
<trkpt lat="39.780035000" lon="-0.290988000">
  <ele>198.300000</ele>
  <time>2012-03-25T07:34:01Z</time>
  <sat>6</sat>
</trkpt>
<trkpt lat="39.779930000" lon="-0.291036000">
  <ele>198.800000</ele>
  <time>2012-03-25T07:34:04Z</time>
  <sat>7</sat>
</trkpt>
<trkpt lat="39.779814000" lon="-0.291074000">
  <ele>199.100000</ele>
  <time>2012-03-25T07:34:07Z</time>
  <sat>8</sat>
</trkpt>
<trkpt lat="39.779684000" lon="-0.291107000">
  <ele>198.500000</ele>
  <time>2012-03-25T07:34:10Z</time>
  <sat>8</sat>
</trkpt>
<trkpt lat="39.779553000" lon="-0.291124000">
  <ele>196.800000</ele>
  <time>2012-03-25T07:34:13Z</time>
  <sat>9</sat>
</trkpt>
<trkpt lat="39.779425000" lon="-0.291143000">
  <ele>195.100000</ele>
  <time>2012-03-25T07:34:16Z</time>
  <sat>9</sat>
</trkpt>
<trkpt lat="39.779295000" lon="-0.291174000">
  <ele>195.300000</ele>
  <time>2012-03-25T07:34:19Z</time>
  <sat>10</sat>
</trkpt>
<trkpt lat="39.779254000" lon="-0.291185000">
  <ele>195.100000</ele>
  <time>2012-03-25T07:34:20Z</time>
  <sat>10</sat>
</trkpt>
<trkpt lat="39.779035000" lon="-0.291232000">
  <ele>194.600000</ele>
  <time>2012-03-25T07:34:25Z</time>
  <sat>10</sat>
</trkpt>
<trkpt lat="39.778898000" lon="-0.291260000">
  <ele>194.600000</ele>
  <time>2012-03-25T07:34:28Z</time>
  <sat>10</sat>
</trkpt>
<trkpt lat="39.778763000" lon="-0.291301000">
  <ele>194.800000</ele>
  <time>2012-03-25T07:34:31Z</time>
  <sat>11</sat>
</trkpt>
<trkpt lat="39.778637000" lon="-0.291352000">
  <ele>194.800000</ele>
  <time>2012-03-25T07:34:34Z</time>
  <sat>11</sat>
</trkpt>
<trkpt lat="39.778508000" lon="-0.291403000">
  <ele>195.100000</ele>
  <time>2012-03-25T07:34:37Z</time>
  <sat>11</sat>
</trkpt>
<trkpt lat="39.778370000" lon="-0.291460000">
  <ele>196.100000</ele>
  <time>2012-03-25T07:34:40Z</time>
  <sat>10</sat>
</trkpt>
<trkpt lat="39.778236000" lon="-0.291514000">
  <ele>196.600000</ele>
  <time>2012-03-25T07:34:43Z</time>
  <sat>11</sat>
</trkpt>
<trkpt lat="39.778110000" lon="-0.291567000">
  <ele>197.600000</ele>
  <time>2012-03-25T07:34:46Z</time>
  <sat>11</sat>
</trkpt>
<trkpt lat="39.777989000" lon="-0.291619000">
  <ele>198.300000</ele>
  <time>2012-03-25T07:34:49Z</time>
  <sat>11</sat>
</trkpt>
<trkpt lat="39.777862000" lon="-0.291659000">
  <ele>198.500000</ele>
  <time>2012-03-25T07:34:52Z</time>
  <sat>11</sat>
</trkpt>
<trkpt lat="39.777742000" lon="-0.291714000">
  <ele>198.300000</ele>
  <time>2012-03-25T07:34:55Z</time>
  <sat>11</sat>
</trkpt>
<trkpt lat="39.777618000" lon="-0.291773000">
  <ele>198.000000</ele>
  <time>2012-03-25T07:34:58Z</time>
  <sat>9</sat>
</trkpt>
<trkpt lat="39.777531000" lon="-0.291816000">
  <ele>197.300000</ele>
  <time>2012-03-25T07:35:00Z</time>
  <sat>9</sat>
</trkpt>
<trkpt lat="39.777388000" lon="-0.291892000">
  <ele>196.800000</ele>
  <time>2012-03-25T07:35:03Z</time>
  <sat>9</sat>
</trkpt>
<trkpt lat="39.777229000" lon="-0.291979000">
  <ele>196.300000</ele>
  <time>2012-03-25T07:35:06Z</time>
  <sat>8</sat>
</trkpt>
<trkpt lat="39.777051000" lon="-0.292084000">
  <ele>194.300000</ele>
  <time>2012-03-25T07:35:09Z</time>
  <sat>9</sat>
</trkpt>
<trkpt lat="39.776875000" lon="-0.292234000">
  <ele>193.100000</ele>
  <time>2012-03-25T07:35:12Z</time>
  <sat>9</sat>
</trkpt>
<trkpt lat="39.776700000" lon="-0.292414000">
  <ele>192.000000</ele>
  <time>2012-03-25T07:35:15Z</time>
  <sat>9</sat>
</trkpt>
<trkpt lat="39.776559000" lon="-0.292640000">
  <ele>190.600000</ele>
  <time>2012-03-25T07:35:18Z</time>
  <sat>9</sat>
</trkpt>
<trkpt lat="39.776408000" lon="-0.292846000">
  <ele>189.800000</ele>
  <time>2012-03-25T07:35:21Z</time>
  <sat>8</sat>
</trkpt>
<trkpt lat="39.776348000" lon="-0.292902000">
  <ele>189.300000</ele>
  <time>2012-03-25T07:35:22Z</time>
  <sat>8</sat>
</trkpt>
<trkpt lat="39.776036000" lon="-0.293152000">
  <ele>187.800000</ele>
  <time>2012-03-25T07:35:27Z</time>
  <sat>8</sat>
</trkpt>
<trkpt lat="39.775852000" lon="-0.293286000">
  <ele>187.800000</ele>
  <time>2012-03-25T07:35:30Z</time>
  <sat>9</sat>
</trkpt>
<trkpt lat="39.775690000" lon="-0.293436000">
  <ele>187.600000</ele>
  <time>2012-03-25T07:35:33Z</time>
  <sat>9</sat>
</trkpt>
<trkpt lat="39.775555000" lon="-0.293591000">
  <ele>187.100000</ele>
  <time>2012-03-25T07:35:36Z</time>
  <sat>8</sat>
</trkpt>
<trkpt lat="39.775432000" lon="-0.293767000">
  <ele>186.800000</ele>
  <time>2012-03-25T07:35:39Z</time>
  <sat>8</sat>
</trkpt>
<trkpt lat="39.775308000" lon="-0.293960000">
  <ele>186.100000</ele>
  <time>2012-03-25T07:35:42Z</time>
  <sat>7</sat>
</trkpt>
<trkpt lat="39.775186000" lon="-0.294167000">
  <ele>185.300000</ele>
  <time>2012-03-25T07:35:45Z</time>
  <sat>8</sat>
</trkpt>
<trkpt lat="39.775069000" lon="-0.294375000">
  <ele>185.300000</ele>
  <time>2012-03-25T07:35:48Z</time>
  <sat>9</sat>
</trkpt>
<trkpt lat="39.774963000" lon="-0.294556000">
  <ele>185.100000</ele>
  <time>2012-03-25T07:35:51Z</time>
  <sat>9</sat>
</trkpt>
<trkpt lat="39.774857000" lon="-0.294734000">
  <ele>185.100000</ele>
  <time>2012-03-25T07:35:54Z</time>
  <sat>9</sat>
</trkpt>
<trkpt lat="39.774756000" lon="-0.294919000">
  <ele>185.100000</ele>
  <time>2012-03-25T07:35:57Z</time>
  <sat>9</sat>
</trkpt>
<trkpt lat="39.774688000" lon="-0.295046000">
  <ele>184.800000</ele>
  <time>2012-03-25T07:35:59Z</time>
  <sat>8</sat>
</trkpt>
<trkpt lat="39.774627000" lon="-0.295186000">
  <ele>183.800000</ele>
  <time>2012-03-25T07:36:01Z</time>
  <sat>7</sat>
</trkpt>
<trkpt lat="39.774519000" lon="-0.295385000">
  <ele>182.800000</ele>
  <time>2012-03-25T07:36:04Z</time>
  <sat>7</sat>
</trkpt>
<trkpt lat="39.774403000" lon="-0.295594000">
  <ele>181.600000</ele>
  <time>2012-03-25T07:36:07Z</time>
  <sat>7</sat>
</trkpt>
<trkpt lat="39.774291000" lon="-0.295819000">
  <ele>180.300000</ele>
  <time>2012-03-25T07:36:10Z</time>
  <sat>8</sat>
</trkpt>
<trkpt lat="39.774170000" lon="-0.296055000">
  <ele>179.100000</ele>
  <time>2012-03-25T07:36:13Z</time>
  <sat>8</sat>
</trkpt>
<trkpt lat="39.774043000" lon="-0.296313000">
  <ele>177.600000</ele>
  <time>2012-03-25T07:36:16Z</time>
  <sat>9</sat>
</trkpt>
<trkpt lat="39.773921000" lon="-0.296601000">
  <ele>175.800000</ele>
  <time>2012-03-25T07:36:19Z</time>
  <sat>6</sat>
</trkpt>
<trkpt lat="39.773776000" lon="-0.296884000">
  <ele>173.800000</ele>
  <time>2012-03-25T07:36:22Z</time>
  <sat>7</sat>
</trkpt>
<trkpt lat="39.773594000" lon="-0.297139000">
  <ele>172.000000</ele>
  <time>2012-03-25T07:36:25Z</time>
  <sat>9</sat>
</trkpt>
<trkpt lat="39.773521000" lon="-0.297208000">
  <ele>171.600000</ele>
  <time>2012-03-25T07:36:26Z</time>
  <sat>9</sat>
</trkpt>
<trkpt lat="39.773166000" lon="-0.297482000">
  <ele>170.800000</ele>
  <time>2012-03-25T07:36:31Z</time>
  <sat>8</sat>
</trkpt>
<trkpt lat="39.772959000" lon="-0.297615000">
  <ele>170.800000</ele>
  <time>2012-03-25T07:36:34Z</time>
  <sat>8</sat>
</trkpt>
<trkpt lat="39.772789000" lon="-0.297763000">
  <ele>169.300000</ele>
  <time>2012-03-25T07:36:37Z</time>
  <sat>8</sat>
</trkpt>
<trkpt lat="39.772598000" lon="-0.297921000">
  <ele>169.600000</ele>
  <time>2012-03-25T07:36:40Z</time>
  <sat>10</sat>
</trkpt>
<trkpt lat="39.772438000" lon="-0.298105000">
  <ele>169.100000</ele>
  <time>2012-03-25T07:36:43Z</time>
  <sat>10</sat>
</trkpt>
<trkpt lat="39.772268000" lon="-0.298249000">
  <ele>169.000000</ele>
  <time>2012-03-25T07:36:46Z</time>
  <sat>10</sat>
</trkpt>
<trkpt lat="39.772084000" lon="-0.298432000">
  <ele>169.100000</ele>
  <time>2012-03-25T07:36:49Z</time>
  <sat>10</sat>
</trkpt>
<trkpt lat="39.771892000" lon="-0.298624000">
  <ele>167.600000</ele>
  <time>2012-03-25T07:36:52Z</time>
  <sat>10</sat>
</trkpt>
<trkpt lat="39.771703000" lon="-0.298833000">
  <ele>167.100000</ele>
  <time>2012-03-25T07:36:55Z</time>
  <sat>10</sat>
</trkpt>
<trkpt lat="39.771540000" lon="-0.299028000">
  <ele>165.300000</ele>
  <time>2012-03-25T07:36:58Z</time>
  <sat>9</sat>
</trkpt>
<trkpt lat="39.771430000" lon="-0.299090000">
  <ele>165.100000</ele>
  <time>2012-03-25T07:37:00Z</time>
  <sat>8</sat>
</trkpt>
<trkpt lat="39.771278000" lon="-0.299170000">
  <ele>164.600000</ele>
  <time>2012-03-25T07:37:03Z</time>
  <sat>8</sat>
</trkpt>
<trkpt lat="39.771128000" lon="-0.299256000">
  <ele>164.800000</ele>
  <time>2012-03-25T07:37:06Z</time>
  <sat>8</sat>
</trkpt>
<trkpt lat="39.770972000" lon="-0.299331000">
  <ele>164.600000</ele>
  <time>2012-03-25T07:37:09Z</time>
  <sat>9</sat>
</trkpt>
<trkpt lat="39.770812000" lon="-0.299409000">
  <ele>163.500000</ele>
  <time>2012-03-25T07:37:12Z</time>
  <sat>9</sat>
</trkpt>
<trkpt lat="39.770643000" lon="-0.299497000">
  <ele>162.800000</ele>
  <time>2012-03-25T07:37:15Z</time>
  <sat>9</sat>
</trkpt>
<trkpt lat="39.770461000" lon="-0.299583000">
  <ele>162.500000</ele>
  <time>2012-03-25T07:37:18Z</time>
  <sat>9</sat>
</trkpt>
<trkpt lat="39.770293000" lon="-0.299644000">
  <ele>162.500000</ele>
  <time>2012-03-25T07:37:21Z</time>
  <sat>9</sat>
</trkpt>
<trkpt lat="39.770169000" lon="-0.299754000">
  <ele>162.300000</ele>
  <time>2012-03-25T07:37:24Z</time>
  <sat>8</sat>
</trkpt>
<trkpt lat="39.770048000" lon="-0.299894000">
  <ele>162.500000</ele>
  <time>2012-03-25T07:37:27Z</time>
  <sat>8</sat>
</trkpt>
<trkpt lat="39.770007000" lon="-0.299935000">
  <ele>162.500000</ele>
  <time>2012-03-25T07:37:28Z</time>
  <sat>8</sat>
</trkpt>
<trkpt lat="39.769759000" lon="-0.299955000">
  <ele>161.300000</ele>
  <time>2012-03-25T07:37:33Z</time>
  <sat>8</sat>
</trkpt>
<trkpt lat="39.769608000" lon="-0.299894000">
  <ele>160.800000</ele>
  <time>2012-03-25T07:37:36Z</time>
  <sat>8</sat>
</trkpt>
<trkpt lat="39.769406000" lon="-0.299906000">
  <ele>158.600000</ele>
  <time>2012-03-25T07:37:39Z</time>
  <sat>8</sat>
</trkpt>
<trkpt lat="39.769158000" lon="-0.299943000">
  <ele>157.000000</ele>
  <time>2012-03-25T07:37:42Z</time>
  <sat>9</sat>
</trkpt>
<trkpt lat="39.768881000" lon="-0.299896000">
  <ele>153.300000</ele>
  <time>2012-03-25T07:37:45Z</time>
  <sat>8</sat>
</trkpt>
<trkpt lat="39.768626000" lon="-0.299876000">
  <ele>151.800000</ele>
  <time>2012-03-25T07:37:48Z</time>
  <sat>8</sat>
</trkpt>
<trkpt lat="39.768429000" lon="-0.299942000">
  <ele>151.500000</ele>
  <time>2012-03-25T07:37:51Z</time>
  <sat>8</sat>
</trkpt>
<trkpt lat="39.768301000" lon="-0.300104000">
  <ele>151.500000</ele>
  <time>2012-03-25T07:37:54Z</time>
  <sat>7</sat>
</trkpt>
<trkpt lat="39.768333000" lon="-0.300340000">
  <ele>151.300000</ele>
  <time>2012-03-25T07:37:57Z</time>
  <sat>7</sat>
</trkpt>
<trkpt lat="39.768351000" lon="-0.300494000">
  <ele>151.000000</ele>
  <time>2012-03-25T07:37:59Z</time>
  <sat>7</sat>
</trkpt>
<trkpt lat="39.768329000" lon="-0.300649000">
  <ele>151.500000</ele>
  <time>2012-03-25T07:38:01Z</time>
  <sat>8</sat>
</trkpt>
<trkpt lat="39.768259000" lon="-0.300820000">
  <ele>150.500000</ele>
  <time>2012-03-25T07:38:04Z</time>
  <sat>8</sat>
</trkpt>
<trkpt lat="39.768153000" lon="-0.300911000">
  <ele>150.800000</ele>
  <time>2012-03-25T07:38:07Z</time>
  <sat>8</sat>
</trkpt>
<trkpt lat="39.768012000" lon="-0.300862000">
  <ele>151.100000</ele>
  <time>2012-03-25T07:38:10Z</time>
  <sat>8</sat>
</trkpt>
<trkpt lat="39.767883000" lon="-0.300731000">
  <ele>150.500000</ele>
  <time>2012-03-25T07:38:13Z</time>
  <sat>8</sat>
</trkpt>
<trkpt lat="39.767771000" lon="-0.300582000">
  <ele>150.800000</ele>
  <time>2012-03-25T07:38:16Z</time>
  <sat>8</sat>
</trkpt>
<trkpt lat="39.767679000" lon="-0.300438000">
  <ele>151.600000</ele>
  <time>2012-03-25T07:38:19Z</time>
  <sat>8</sat>
</trkpt>
<trkpt lat="39.767587000" lon="-0.300291000">
  <ele>152.300000</ele>
  <time>2012-03-25T07:38:22Z</time>
  <sat>8</sat>
</trkpt>
<trkpt lat="39.767504000" lon="-0.300177000">
  <ele>153.500000</ele>
  <time>2012-03-25T07:38:25Z</time>
  <sat>8</sat>
</trkpt>
<trkpt lat="39.767418000" lon="-0.300067000">
  <ele>153.800000</ele>
  <time>2012-03-25T07:38:28Z</time>
  <sat>8</sat>
</trkpt>
<trkpt lat="39.767388000" lon="-0.300028000">
  <ele>153.600000</ele>
  <time>2012-03-25T07:38:29Z</time>
  <sat>8</sat>
</trkpt>
<trkpt lat="39.767172000" lon="-0.299897000">
  <ele>153.500000</ele>
  <time>2012-03-25T07:38:34Z</time>
  <sat>8</sat>
</trkpt>
<trkpt lat="39.767026000" lon="-0.299933000">
  <ele>153.100000</ele>
  <time>2012-03-25T07:38:37Z</time>
  <sat>8</sat>
</trkpt>
<trkpt lat="39.766880000" lon="-0.299957000">
  <ele>152.600000</ele>
  <time>2012-03-25T07:38:40Z</time>
  <sat>8</sat>
</trkpt>
<trkpt lat="39.766709000" lon="-0.299897000">
  <ele>150.800000</ele>
  <time>2012-03-25T07:38:43Z</time>
  <sat>8</sat>
</trkpt>
<trkpt lat="39.766514000" lon="-0.299815000">
  <ele>149.500000</ele>
  <time>2012-03-25T07:38:46Z</time>
  <sat>8</sat>
</trkpt>
<trkpt lat="39.766285000" lon="-0.299716000">
  <ele>148.300000</ele>
  <time>2012-03-25T07:38:49Z</time>
  <sat>8</sat>
</trkpt>
<trkpt lat="39.766034000" lon="-0.299627000">
  <ele>145.800000</ele>
  <time>2012-03-25T07:38:52Z</time>
  <sat>8</sat>
</trkpt>
<trkpt lat="39.765746000" lon="-0.299553000">
  <ele>141.300000</ele>
  <time>2012-03-25T07:38:55Z</time>
  <sat>8</sat>
</trkpt>
<trkpt lat="39.765419000" lon="-0.299445000">
  <ele>138.600000</ele>
  <time>2012-03-25T07:38:58Z</time>
  <sat>8</sat>
</trkpt>
<trkpt lat="39.765212000" lon="-0.299367000">
  <ele>137.800000</ele>
  <time>2012-03-25T07:39:00Z</time>
  <sat>8</sat>
</trkpt>
<trkpt lat="39.764926000" lon="-0.299261000">
  <ele>138.100000</ele>
  <time>2012-03-25T07:39:03Z</time>
  <sat>8</sat>
</trkpt>
<trkpt lat="39.764673000" lon="-0.299245000">
  <ele>138.500000</ele>
  <time>2012-03-25T07:39:06Z</time>
  <sat>8</sat>
</trkpt>
<trkpt lat="39.764454000" lon="-0.299197000">
  <ele>139.100000</ele>
  <time>2012-03-25T07:39:09Z</time>
  <sat>9</sat>
</trkpt>
<trkpt lat="39.764257000" lon="-0.299123000">
  <ele>138.500000</ele>
  <time>2012-03-25T07:39:12Z</time>
  <sat>9</sat>
</trkpt>
<trkpt lat="39.764043000" lon="-0.299087000">
  <ele>136.800000</ele>
  <time>2012-03-25T07:39:15Z</time>
  <sat>8</sat>
</trkpt>
<trkpt lat="39.763831000" lon="-0.299012000">
  <ele>135.800000</ele>
  <time>2012-03-25T07:39:18Z</time>
  <sat>8</sat>
</trkpt>
<trkpt lat="39.763660000" lon="-0.298839000">
  <ele>135.600000</ele>
  <time>2012-03-25T07:39:21Z</time>
  <sat>8</sat>
</trkpt>
<trkpt lat="39.763492000" lon="-0.298645000">
  <ele>134.800000</ele>
  <time>2012-03-25T07:39:24Z</time>
  <sat>8</sat>
</trkpt>
<trkpt lat="39.763339000" lon="-0.298457000">
  <ele>135.300000</ele>
  <time>2012-03-25T07:39:27Z</time>
  <sat>9</sat>
</trkpt>
<trkpt lat="39.763149000" lon="-0.298351000">
  <ele>134.600000</ele>
  <time>2012-03-25T07:39:30Z</time>
  <sat>9</sat>
</trkpt>
<trkpt lat="39.763078000" lon="-0.298338000">
  <ele>133.800000</ele>
  <time>2012-03-25T07:39:31Z</time>
  <sat>9</sat>
</trkpt>
<trkpt lat="39.762722000" lon="-0.298223000">
  <ele>132.600000</ele>
  <time>2012-03-25T07:39:36Z</time>
  <sat>8</sat>
</trkpt>
<trkpt lat="39.762511000" lon="-0.298137000">
  <ele>130.300000</ele>
  <time>2012-03-25T07:39:39Z</time>
  <sat>7</sat>
</trkpt>
<trkpt lat="39.762269000" lon="-0.297993000">
  <ele>127.900000</ele>
  <time>2012-03-25T07:39:42Z</time>
  <sat>7</sat>
</trkpt>
<trkpt lat="39.762054000" lon="-0.297788000">
  <ele>127.500000</ele>
  <time>2012-03-25T07:39:45Z</time>
  <sat>6</sat>
</trkpt>
<trkpt lat="39.761842000" lon="-0.297627000">
  <ele>126.600000</ele>
  <time>2012-03-25T07:39:48Z</time>
  <sat>7</sat>
</trkpt>
<trkpt lat="39.761659000" lon="-0.297511000">
  <ele>125.500000</ele>
  <time>2012-03-25T07:39:51Z</time>
  <sat>8</sat>
</trkpt>
<trkpt lat="39.761577000" lon="-0.297271000">
  <ele>122.900000</ele>
  <time>2012-03-25T07:39:54Z</time>
  <sat>9</sat>
</trkpt>
<trkpt lat="39.761572000" lon="-0.296971000">
  <ele>120.500000</ele>
  <time>2012-03-25T07:39:57Z</time>
  <sat>9</sat>
</trkpt>
<trkpt lat="39.761627000" lon="-0.296780000">
  <ele>119.900000</ele>
  <time>2012-03-25T07:39:59Z</time>
  <sat>9</sat>
</trkpt>
<trkpt lat="39.761650000" lon="-0.296579000">
  <ele>118.500000</ele>
  <time>2012-03-25T07:40:01Z</time>
  <sat>9</sat>
</trkpt>
<trkpt lat="39.761634000" lon="-0.296330000">
  <ele>119.000000</ele>
  <time>2012-03-25T07:40:04Z</time>
  <sat>9</sat>
</trkpt>
<trkpt lat="39.761598000" lon="-0.296104000">
  <ele>117.400000</ele>
  <time>2012-03-25T07:40:07Z</time>
  <sat>8</sat>
</trkpt>
<trkpt lat="39.761535000" lon="-0.295914000">
  <ele>118.500000</ele>
  <time>2012-03-25T07:40:10Z</time>
  <sat>8</sat>
</trkpt>
<trkpt lat="39.761457000" lon="-0.295777000">
  <ele>118.800000</ele>
  <time>2012-03-25T07:40:13Z</time>
  <sat>9</sat>
</trkpt>
<trkpt lat="39.761396000" lon="-0.295676000">
  <ele>119.500000</ele>
  <time>2012-03-25T07:40:16Z</time>
  <sat>9</sat>
</trkpt>
<trkpt lat="39.761349000" lon="-0.295633000">
  <ele>119.300000</ele>
  <time>2012-03-25T07:40:19Z</time>
  <sat>9</sat>
</trkpt>
<trkpt lat="39.761336000" lon="-0.295701000">
  <ele>118.800000</ele>
  <time>2012-03-25T07:40:22Z</time>
  <sat>9</sat>
</trkpt>
<trkpt lat="39.761357000" lon="-0.295778000">
  <ele>118.100000</ele>
  <time>2012-03-25T07:40:25Z</time>
  <sat>9</sat>
</trkpt>
<trkpt lat="39.761392000" lon="-0.295860000">
  <ele>119.000000</ele>
  <time>2012-03-25T07:40:28Z</time>
  <sat>8</sat>
</trkpt>
<trkpt lat="39.761434000" lon="-0.295957000">
  <ele>118.500000</ele>
  <time>2012-03-25T07:40:31Z</time>
  <sat>8</sat>
</trkpt>
<trkpt lat="39.761447000" lon="-0.295993000">
  <ele>117.900000</ele>
  <time>2012-03-25T07:40:32Z</time>
  <sat>8</sat>
</trkpt>
<trkpt lat="39.761509000" lon="-0.296211000">
  <ele>118.500000</ele>
  <time>2012-03-25T07:40:37Z</time>
  <sat>9</sat>
</trkpt>
<trkpt lat="39.761533000" lon="-0.296341000">
  <ele>116.900000</ele>
  <time>2012-03-25T07:40:40Z</time>
  <sat>9</sat>
</trkpt>
<trkpt lat="39.761539000" lon="-0.296472000">
  <ele>116.900000</ele>
  <time>2012-03-25T07:40:43Z</time>
  <sat>9</sat>
</trkpt>
<trkpt lat="39.761536000" lon="-0.296599000">
  <ele>117.400000</ele>
  <time>2012-03-25T07:40:46Z</time>
  <sat>8</sat>
</trkpt>
<trkpt lat="39.761514000" lon="-0.296713000">
  <ele>117.900000</ele>
  <time>2012-03-25T07:40:49Z</time>
  <sat>8</sat>
</trkpt>
<trkpt lat="39.761489000" lon="-0.296814000">
  <ele>117.900000</ele>
  <time>2012-03-25T07:40:52Z</time>
  <sat>8</sat>
</trkpt>
<trkpt lat="39.761460000" lon="-0.296919000">
  <ele>118.500000</ele>
  <time>2012-03-25T07:40:55Z</time>
  <sat>8</sat>
</trkpt>
<trkpt lat="39.761427000" lon="-0.297025000">
  <ele>120.100000</ele>
  <time>2012-03-25T07:40:58Z</time>
  <sat>8</sat>
</trkpt>
<trkpt lat="39.761411000" lon="-0.297096000">
  <ele>120.800000</ele>
  <time>2012-03-25T07:41:00Z</time>
  <sat>8</sat>
</trkpt>
<trkpt lat="39.761392000" lon="-0.297210000">
  <ele>122.500000</ele>
  <time>2012-03-25T07:41:03Z</time>
  <sat>7</sat>
</trkpt>
<trkpt lat="39.761374000" lon="-0.297328000">
  <ele>123.500000</ele>
  <time>2012-03-25T07:41:06Z</time>
  <sat>7</sat>
</trkpt>
<trkpt lat="39.761358000" lon="-0.297439000">
  <ele>125.100000</ele>
  <time>2012-03-25T07:41:09Z</time>
  <sat>6</sat>
</trkpt>
<trkpt lat="39.761356000" lon="-0.297546000">
  <ele>126.000000</ele>
  <time>2012-03-25T07:41:12Z</time>
  <sat>6</sat>
</trkpt>
<trkpt lat="39.761374000" lon="-0.297648000">
  <ele>125.900000</ele>
  <time>2012-03-25T07:41:15Z</time>
  <sat>7</sat>
</trkpt>
<trkpt lat="39.761391000" lon="-0.297759000">
  <ele>126.000000</ele>
  <time>2012-03-25T07:41:18Z</time>
  <sat>7</sat>
</trkpt>
<trkpt lat="39.761397000" lon="-0.297869000">
  <ele>126.100000</ele>
  <time>2012-03-25T07:41:21Z</time>
  <sat>6</sat>
</trkpt>
<trkpt lat="39.761410000" lon="-0.297962000">
  <ele>126.500000</ele>
  <time>2012-03-25T07:41:24Z</time>
  <sat>6</sat>
</trkpt>
<trkpt lat="39.761417000" lon="-0.298063000">
  <ele>125.000000</ele>
  <time>2012-03-25T07:41:27Z</time>
  <sat>8</sat>
</trkpt>
<trkpt lat="39.761436000" lon="-0.298178000">
  <ele>124.800000</ele>
  <time>2012-03-25T07:41:30Z</time>
  <sat>8</sat>
</trkpt>
<trkpt lat="39.761451000" lon="-0.298307000">
  <ele>124.000000</ele>
  <time>2012-03-25T07:41:33Z</time>
  <sat>9</sat>
</trkpt>
<trkpt lat="39.761452000" lon="-0.298353000">
  <ele>124.000000</ele>
  <time>2012-03-25T07:41:34Z</time>
  <sat>9</sat>
</trkpt>
<trkpt lat="39.761446000" lon="-0.298562000">
  <ele>125.500000</ele>
  <time>2012-03-25T07:41:39Z</time>
  <sat>8</sat>
</trkpt>
<trkpt lat="39.761436000" lon="-0.298677000">
  <ele>125.900000</ele>
  <time>2012-03-25T07:41:42Z</time>
  <sat>8</sat>
</trkpt>
<trkpt lat="39.761404000" lon="-0.298782000">
  <ele>126.300000</ele>
  <time>2012-03-25T07:41:45Z</time>
  <sat>8</sat>
</trkpt>
<trkpt lat="39.761381000" lon="-0.298895000">
  <ele>126.800000</ele>
  <time>2012-03-25T07:41:48Z</time>
  <sat>8</sat>
</trkpt>
<trkpt lat="39.761347000" lon="-0.298993000">
  <ele>127.500000</ele>
  <time>2012-03-25T07:41:51Z</time>
  <sat>8</sat>
</trkpt>
<trkpt lat="39.761313000" lon="-0.299093000">
  <ele>128.800000</ele>
  <time>2012-03-25T07:41:54Z</time>
  <sat>8</sat>
</trkpt>
<trkpt lat="39.761279000" lon="-0.299203000">
  <ele>129.600000</ele>
  <time>2012-03-25T07:41:57Z</time>
  <sat>8</sat>
</trkpt>
<trkpt lat="39.761256000" lon="-0.299270000">
  <ele>129.500000</ele>
  <time>2012-03-25T07:41:59Z</time>
  <sat>7</sat>
</trkpt>
<trkpt lat="39.761227000" lon="-0.299338000">
  <ele>129.300000</ele>
  <time>2012-03-25T07:42:01Z</time>
  <sat>7</sat>
</trkpt>
<trkpt lat="39.761195000" lon="-0.299446000">
  <ele>130.600000</ele>
  <time>2012-03-25T07:42:04Z</time>
  <sat>7</sat>
</trkpt>
<trkpt lat="39.761163000" lon="-0.299573000">
  <ele>130.600000</ele>
  <time>2012-03-25T07:42:07Z</time>
  <sat>8</sat>
</trkpt>
<trkpt lat="39.761136000" lon="-0.299678000">
  <ele>130.300000</ele>
  <time>2012-03-25T07:42:10Z</time>
  <sat>9</sat>
</trkpt>
<trkpt lat="39.761113000" lon="-0.299798000">
  <ele>130.800000</ele>
  <time>2012-03-25T07:42:13Z</time>
  <sat>9</sat>
</trkpt>
<trkpt lat="39.761104000" lon="-0.299910000">
  <ele>131.100000</ele>
  <time>2012-03-25T07:42:16Z</time>
  <sat>9</sat>
</trkpt>
<trkpt lat="39.761084000" lon="-0.300023000">
  <ele>131.300000</ele>
  <time>2012-03-25T07:42:19Z</time>
  <sat>9</sat>
</trkpt>
<trkpt lat="39.761061000" lon="-0.300140000">
  <ele>131.300000</ele>
  <time>2012-03-25T07:42:22Z</time>
  <sat>9</sat>
</trkpt>
<trkpt lat="39.761044000" lon="-0.300266000">
  <ele>131.500000</ele>
  <time>2012-03-25T07:42:25Z</time>
  <sat>7</sat>
</trkpt>
<trkpt lat="39.761015000" lon="-0.300399000">
  <ele>132.600000</ele>
  <time>2012-03-25T07:42:28Z</time>
  <sat>6</sat>
</trkpt>
<trkpt lat="39.760989000" lon="-0.300530000">
  <ele>133.800000</ele>
  <time>2012-03-25T07:42:31Z</time>
  <sat>6</sat>
</trkpt>
<trkpt lat="39.760968000" lon="-0.300669000">
  <ele>134.100000</ele>
  <time>2012-03-25T07:42:34Z</time>
  <sat>6</sat>
</trkpt>
<trkpt lat="39.760959000" lon="-0.300711000">
  <ele>134.100000</ele>
  <time>2012-03-25T07:42:35Z</time>
  <sat>6</sat>
</trkpt>
<trkpt lat="39.760904000" lon="-0.300921000">
  <ele>133.300000</ele>
  <time>2012-03-25T07:42:40Z</time>
  <sat>8</sat>
</trkpt>
<trkpt lat="39.760859000" lon="-0.301041000">
  <ele>134.300000</ele>
  <time>2012-03-25T07:42:43Z</time>
  <sat>8</sat>
</trkpt>
<trkpt lat="39.760796000" lon="-0.301157000">
  <ele>135.100000</ele>
  <time>2012-03-25T07:42:46Z</time>
  <sat>8</sat>
</trkpt>
<trkpt lat="39.760751000" lon="-0.301274000">
  <ele>135.300000</ele>
  <time>2012-03-25T07:42:49Z</time>
  <sat>8</sat>
</trkpt>
<trkpt lat="39.760717000" lon="-0.301390000">
  <ele>135.500000</ele>
  <time>2012-03-25T07:42:52Z</time>
  <sat>8</sat>
</trkpt>
<trkpt lat="39.760669000" lon="-0.301502000">
  <ele>135.500000</ele>
  <time>2012-03-25T07:42:55Z</time>
  <sat>8</sat>
</trkpt>
<trkpt lat="39.760633000" lon="-0.301597000">
  <ele>135.600000</ele>
  <time>2012-03-25T07:42:58Z</time>
  <sat>8</sat>
</trkpt>
<trkpt lat="39.760614000" lon="-0.301675000">
  <ele>135.600000</ele>
  <time>2012-03-25T07:43:00Z</time>
  <sat>8</sat>
</trkpt>
<trkpt lat="39.760566000" lon="-0.301805000">
  <ele>136.000000</ele>
  <time>2012-03-25T07:43:03Z</time>
  <sat>8</sat>
</trkpt>
<trkpt lat="39.760513000" lon="-0.301915000">
  <ele>136.800000</ele>
  <time>2012-03-25T07:43:06Z</time>
  <sat>8</sat>
</trkpt>
<trkpt lat="39.760448000" lon="-0.302039000">
  <ele>136.600000</ele>
  <time>2012-03-25T07:43:09Z</time>
  <sat>8</sat>
</trkpt>
<trkpt lat="39.760387000" lon="-0.302164000">
  <ele>136.800000</ele>
  <time>2012-03-25T07:43:12Z</time>
  <sat>8</sat>
</trkpt>
<trkpt lat="39.760329000" lon="-0.302277000">
  <ele>136.000000</ele>
  <time>2012-03-25T07:43:15Z</time>
  <sat>8</sat>
</trkpt>
<trkpt lat="39.760262000" lon="-0.302379000">
  <ele>134.600000</ele>
  <time>2012-03-25T07:43:18Z</time>
  <sat>8</sat>
</trkpt>
<trkpt lat="39.760173000" lon="-0.302483000">
  <ele>132.800000</ele>
  <time>2012-03-25T07:43:21Z</time>
  <sat>8</sat>
</trkpt>
<trkpt lat="39.760029000" lon="-0.302615000">
  <ele>131.300000</ele>
  <time>2012-03-25T07:43:24Z</time>
  <sat>7</sat>
</trkpt>
<trkpt lat="39.759892000" lon="-0.302795000">
  <ele>131.500000</ele>
  <time>2012-03-25T07:43:27Z</time>
  <sat>7</sat>
</trkpt>
<trkpt lat="39.759770000" lon="-0.303011000">
  <ele>131.300000</ele>
  <time>2012-03-25T07:43:30Z</time>
  <sat>7</sat>
</trkpt>
<trkpt lat="39.759695000" lon="-0.303230000">
  <ele>131.600000</ele>
  <time>2012-03-25T07:43:33Z</time>
  <sat>8</sat>
</trkpt>
<trkpt lat="39.759596000" lon="-0.303332000">
  <ele>133.300000</ele>
  <time>2012-03-25T07:43:36Z</time>
  <sat>8</sat>
</trkpt>
<trkpt lat="39.759570000" lon="-0.303355000">
  <ele>132.500000</ele>
  <time>2012-03-25T07:43:37Z</time>
  <sat>7</sat>
</trkpt>
<trkpt lat="39.759454000" lon="-0.303520000">
  <ele>132.800000</ele>
  <time>2012-03-25T07:43:42Z</time>
  <sat>8</sat>
</trkpt>
<trkpt lat="39.759359000" lon="-0.303578000">
  <ele>133.300000</ele>
  <time>2012-03-25T07:43:45Z</time>
  <sat>8</sat>
</trkpt>
<trkpt lat="39.759249000" lon="-0.303596000">
  <ele>132.300000</ele>
  <time>2012-03-25T07:43:48Z</time>
  <sat>8</sat>
</trkpt>
<trkpt lat="39.759189000" lon="-0.303673000">
  <ele>132.600000</ele>
  <time>2012-03-25T07:43:51Z</time>
  <sat>6</sat>
</trkpt>
<trkpt lat="39.759158000" lon="-0.303771000">
  <ele>132.600000</ele>
  <time>2012-03-25T07:43:54Z</time>
  <sat>6</sat>
</trkpt>
<trkpt lat="39.759109000" lon="-0.303876000">
  <ele>132.300000</ele>
  <time>2012-03-25T07:43:57Z</time>
  <sat>8</sat>
</trkpt>
<trkpt lat="39.759066000" lon="-0.303933000">
  <ele>132.000000</ele>
  <time>2012-03-25T07:43:59Z</time>
  <sat>8</sat>
</trkpt>
<trkpt lat="39.759019000" lon="-0.303984000">
  <ele>132.300000</ele>
  <time>2012-03-25T07:44:01Z</time>
  <sat>9</sat>
</trkpt>
<trkpt lat="39.758930000" lon="-0.304001000">
  <ele>133.600000</ele>
  <time>2012-03-25T07:44:04Z</time>
  <sat>8</sat>
</trkpt>
<trkpt lat="39.758849000" lon="-0.303975000">
  <ele>133.300000</ele>
  <time>2012-03-25T07:44:07Z</time>
  <sat>8</sat>
</trkpt>
<trkpt lat="39.758784000" lon="-0.303893000">
  <ele>134.300000</ele>
  <time>2012-03-25T07:44:10Z</time>
  <sat>9</sat>
</trkpt>
<trkpt lat="39.758709000" lon="-0.303832000">
  <ele>134.800000</ele>
  <time>2012-03-25T07:44:13Z</time>
  <sat>9</sat>
</trkpt>
<trkpt lat="39.758632000" lon="-0.303787000">
  <ele>136.300000</ele>
  <time>2012-03-25T07:44:16Z</time>
  <sat>8</sat>
</trkpt>
<trkpt lat="39.758547000" lon="-0.303762000">
  <ele>135.600000</ele>
  <time>2012-03-25T07:44:19Z</time>
  <sat>8</sat>
</trkpt>
<trkpt lat="39.758442000" lon="-0.303747000">
  <ele>135.000000</ele>
  <time>2012-03-25T07:44:22Z</time>
  <sat>8</sat>
</trkpt>
<trkpt lat="39.758302000" lon="-0.303712000">
  <ele>134.600000</ele>
  <time>2012-03-25T07:44:25Z</time>
  <sat>8</sat>
</trkpt>
<trkpt lat="39.758166000" lon="-0.303640000">
  <ele>134.800000</ele>
  <time>2012-03-25T07:44:28Z</time>
  <sat>8</sat>
</trkpt>
<trkpt lat="39.758070000" lon="-0.303532000">
  <ele>135.500000</ele>
  <time>2012-03-25T07:44:31Z</time>
  <sat>8</sat>
</trkpt>
<trkpt lat="39.757991000" lon="-0.303440000">
  <ele>136.800000</ele>
  <time>2012-03-25T07:44:34Z</time>
  <sat>8</sat>
</trkpt>
<trkpt lat="39.757927000" lon="-0.303350000">
  <ele>137.100000</ele>
  <time>2012-03-25T07:44:37Z</time>
  <sat>8</sat>
</trkpt>
<trkpt lat="39.757905000" lon="-0.303325000">
  <ele>137.300000</ele>
  <time>2012-03-25T07:44:38Z</time>
  <sat>7</sat>
</trkpt>
<trkpt lat="39.757829000" lon="-0.303163000">
  <ele>138.300000</ele>
  <time>2012-03-25T07:44:43Z</time>
  <sat>7</sat>
</trkpt>
<trkpt lat="39.757791000" lon="-0.303069000">
  <ele>139.800000</ele>
  <time>2012-03-25T07:44:46Z</time>
  <sat>8</sat>
</trkpt>
<trkpt lat="39.757729000" lon="-0.302963000">
  <ele>142.600000</ele>
  <time>2012-03-25T07:44:49Z</time>
  <sat>9</sat>
</trkpt>
<trkpt lat="39.757666000" lon="-0.302869000">
  <ele>143.100000</ele>
  <time>2012-03-25T07:44:52Z</time>
  <sat>9</sat>
</trkpt>
<trkpt lat="39.757593000" lon="-0.302786000">
  <ele>142.800000</ele>
  <time>2012-03-25T07:44:55Z</time>
  <sat>9</sat>
</trkpt>
<trkpt lat="39.757511000" lon="-0.302696000">
  <ele>142.300000</ele>
  <time>2012-03-25T07:44:58Z</time>
  <sat>8</sat>
</trkpt>
<trkpt lat="39.757446000" lon="-0.302649000">
  <ele>142.300000</ele>
  <time>2012-03-25T07:45:00Z</time>
  <sat>8</sat>
</trkpt>
<trkpt lat="39.757355000" lon="-0.302605000">
  <ele>143.500000</ele>
  <time>2012-03-25T07:45:03Z</time>
  <sat>9</sat>
</trkpt>
<trkpt lat="39.757257000" lon="-0.302577000">
  <ele>144.100000</ele>
  <time>2012-03-25T07:45:06Z</time>
  <sat>8</sat>
</trkpt>
<trkpt lat="39.757176000" lon="-0.302564000">
  <ele>144.500000</ele>
  <time>2012-03-25T07:45:09Z</time>
  <sat>8</sat>
</trkpt>
<trkpt lat="39.757089000" lon="-0.302655000">
  <ele>144.300000</ele>
  <time>2012-03-25T07:45:12Z</time>
  <sat>7</sat>
</trkpt>
<trkpt lat="39.757045000" lon="-0.302758000">
  <ele>147.100000</ele>
  <time>2012-03-25T07:45:15Z</time>
  <sat>7</sat>
</trkpt>
<trkpt lat="39.756952000" lon="-0.302793000">
  <ele>148.500000</ele>
  <time>2012-03-25T07:45:18Z</time>
  <sat>7</sat>
</trkpt>
<trkpt lat="39.756890000" lon="-0.302854000">
  <ele>149.000000</ele>
  <time>2012-03-25T07:45:21Z</time>
  <sat>7</sat>
</trkpt>
<trkpt lat="39.756902000" lon="-0.302965000">
  <ele>151.600000</ele>
  <time>2012-03-25T07:45:24Z</time>
  <sat>8</sat>
</trkpt>
<trkpt lat="39.756896000" lon="-0.303093000">
  <ele>151.600000</ele>
  <time>2012-03-25T07:45:27Z</time>
  <sat>8</sat>
</trkpt>
<trkpt lat="39.756882000" lon="-0.303226000">
  <ele>151.100000</ele>
  <time>2012-03-25T07:45:30Z</time>
  <sat>8</sat>
</trkpt>
<trkpt lat="39.756849000" lon="-0.303369000">
  <ele>151.500000</ele>
  <time>2012-03-25T07:45:33Z</time>
  <sat>8</sat>
</trkpt>
<trkpt lat="39.756803000" lon="-0.303503000">
  <ele>151.000000</ele>
  <time>2012-03-25T07:45:36Z</time>
  <sat>7</sat>
</trkpt>
<trkpt lat="39.756752000" lon="-0.303625000">
  <ele>150.300000</ele>
  <time>2012-03-25T07:45:39Z</time>
  <sat>7</sat>
</trkpt>
<trkpt lat="39.756729000" lon="-0.303665000">
  <ele>150.300000</ele>
  <time>2012-03-25T07:45:40Z</time>
  <sat>7</sat>
</trkpt>
<trkpt lat="39.756634000" lon="-0.303842000">
  <ele>149.600000</ele>
  <time>2012-03-25T07:45:45Z</time>
  <sat>10</sat>
</trkpt>
<trkpt lat="39.756606000" lon="-0.303930000">
  <ele>149.600000</ele>
  <time>2012-03-25T07:45:48Z</time>
  <sat>10</sat>
</trkpt>
<trkpt lat="39.756606000" lon="-0.303994000">
  <ele>149.100000</ele>
  <time>2012-03-25T07:45:51Z</time>
  <sat>7</sat>
</trkpt>
<trkpt lat="39.756613000" lon="-0.304056000">
  <ele>147.800000</ele>
  <time>2012-03-25T07:45:54Z</time>
  <sat>8</sat>
</trkpt>
<trkpt lat="39.756610000" lon="-0.304131000">
  <ele>148.100000</ele>
  <time>2012-03-25T07:45:57Z</time>
  <sat>8</sat>
</trkpt>
<trkpt lat="39.756574000" lon="-0.304187000">
  <ele>148.300000</ele>
  <time>2012-03-25T07:46:00Z</time>
  <sat>8</sat>
</trkpt>
<trkpt lat="39.756554000" lon="-0.304287000">
  <ele>147.600000</ele>
  <time>2012-03-25T07:46:03Z</time>
  <sat>8</sat>
</trkpt>
<trkpt lat="39.756521000" lon="-0.304373000">
  <ele>146.800000</ele>
  <time>2012-03-25T07:46:06Z</time>
  <sat>8</sat>
</trkpt>
<trkpt lat="39.756487000" lon="-0.304460000">
  <ele>145.800000</ele>
  <time>2012-03-25T07:46:09Z</time>
  <sat>6</sat>
</trkpt>
<trkpt lat="39.756454000" lon="-0.304563000">
  <ele>146.300000</ele>
  <time>2012-03-25T07:46:12Z</time>
  <sat>6</sat>
</trkpt>
<trkpt lat="39.756424000" lon="-0.304656000">
  <ele>145.500000</ele>
  <time>2012-03-25T07:46:15Z</time>
  <sat>7</sat>
</trkpt>
<trkpt lat="39.756402000" lon="-0.304757000">
  <ele>147.300000</ele>
  <time>2012-03-25T07:46:18Z</time>
  <sat>9</sat>
</trkpt>
<trkpt lat="39.756382000" lon="-0.304859000">
  <ele>147.800000</ele>
  <time>2012-03-25T07:46:21Z</time>
  <sat>9</sat>
</trkpt>
<trkpt lat="39.756363000" lon="-0.304960000">
  <ele>148.300000</ele>
  <time>2012-03-25T07:46:24Z</time>
  <sat>9</sat>
</trkpt>
<trkpt lat="39.756351000" lon="-0.305060000">
  <ele>149.300000</ele>
  <time>2012-03-25T07:46:27Z</time>
  <sat>9</sat>
</trkpt>
<trkpt lat="39.756341000" lon="-0.305161000">
  <ele>150.100000</ele>
  <time>2012-03-25T07:46:30Z</time>
  <sat>8</sat>
</trkpt>
<trkpt lat="39.756323000" lon="-0.305258000">
  <ele>150.500000</ele>
  <time>2012-03-25T07:46:33Z</time>
  <sat>9</sat>
</trkpt>
<trkpt lat="39.756307000" lon="-0.305357000">
  <ele>151.300000</ele>
  <time>2012-03-25T07:46:36Z</time>
  <sat>9</sat>
</trkpt>
<trkpt lat="39.756292000" lon="-0.305456000">
  <ele>152.000000</ele>
  <time>2012-03-25T07:46:39Z</time>
  <sat>7</sat>
</trkpt>
<trkpt lat="39.756248000" lon="-0.305560000">
  <ele>152.300000</ele>
  <time>2012-03-25T07:46:42Z</time>
  <sat>7</sat>
</trkpt>
<trkpt lat="39.756229000" lon="-0.305598000">
  <ele>152.300000</ele>
  <time>2012-03-25T07:46:43Z</time>
  <sat>8</sat>
</trkpt>
<trkpt lat="39.756169000" lon="-0.305816000">
  <ele>151.600000</ele>
  <time>2012-03-25T07:46:48Z</time>
  <sat>9</sat>
</trkpt>
<trkpt lat="39.756165000" lon="-0.305977000">
  <ele>151.600000</ele>
  <time>2012-03-25T07:46:51Z</time>
  <sat>9</sat>
</trkpt>
<trkpt lat="39.756142000" lon="-0.306136000">
  <ele>151.300000</ele>
  <time>2012-03-25T07:46:54Z</time>
  <sat>6</sat>
</trkpt>
<trkpt lat="39.756127000" lon="-0.306274000">
  <ele>150.500000</ele>
  <time>2012-03-25T07:46:57Z</time>
  <sat>7</sat>
</trkpt>
<trkpt lat="39.756111000" lon="-0.306386000">
  <ele>150.100000</ele>
  <time>2012-03-25T07:46:59Z</time>
  <sat>8</sat>
</trkpt>
<trkpt lat="39.756083000" lon="-0.306497000">
  <ele>149.600000</ele>
  <time>2012-03-25T07:47:01Z</time>
  <sat>8</sat>
</trkpt>
<trkpt lat="39.756069000" lon="-0.306658000">
  <ele>148.800000</ele>
  <time>2012-03-25T07:47:04Z</time>
  <sat>10</sat>
</trkpt>
<trkpt lat="39.756057000" lon="-0.306836000">
  <ele>148.100000</ele>
  <time>2012-03-25T07:47:07Z</time>
  <sat>10</sat>
</trkpt>
<trkpt lat="39.756006000" lon="-0.306904000">
  <ele>146.600000</ele>
  <time>2012-03-25T07:47:10Z</time>
  <sat>8</sat>
</trkpt>
<trkpt lat="39.755943000" lon="-0.306918000">
  <ele>147.600000</ele>
  <time>2012-03-25T07:47:13Z</time>
  <sat>8</sat>
</trkpt>
<trkpt lat="39.755918000" lon="-0.306975000">
  <ele>147.300000</ele>
  <time>2012-03-25T07:47:16Z</time>
  <sat>8</sat>
</trkpt>
<trkpt lat="39.755927000" lon="-0.307066000">
  <ele>147.100000</ele>
  <time>2012-03-25T07:47:19Z</time>
  <sat>8</sat>
</trkpt>
<trkpt lat="39.755970000" lon="-0.307173000">
  <ele>145.600000</ele>
  <time>2012-03-25T07:47:22Z</time>
  <sat>7</sat>
</trkpt>
<trkpt lat="39.756018000" lon="-0.307293000">
  <ele>144.300000</ele>
  <time>2012-03-25T07:47:25Z</time>
  <sat>9</sat>
</trkpt>
<trkpt lat="39.756048000" lon="-0.307406000">
  <ele>144.000000</ele>
  <time>2012-03-25T07:47:28Z</time>
  <sat>9</sat>
</trkpt>
<trkpt lat="39.756088000" lon="-0.307514000">
  <ele>143.600000</ele>
  <time>2012-03-25T07:47:31Z</time>
  <sat>8</sat>
</trkpt>
<trkpt lat="39.756104000" lon="-0.307591000">
  <ele>143.100000</ele>
  <time>2012-03-25T07:47:34Z</time>
  <sat>7</sat>
</trkpt>
<trkpt lat="39.756136000" lon="-0.307695000">
  <ele>143.000000</ele>
  <time>2012-03-25T07:47:37Z</time>
  <sat>6</sat>
</trkpt>
<trkpt lat="39.756162000" lon="-0.307808000">
  <ele>143.100000</ele>
  <time>2012-03-25T07:47:40Z</time>
  <sat>9</sat>
</trkpt>
<trkpt lat="39.756179000" lon="-0.307917000">
  <ele>143.800000</ele>
  <time>2012-03-25T07:47:43Z</time>
  <sat>9</sat>
</trkpt>
<trkpt lat="39.756184000" lon="-0.308024000">
  <ele>145.300000</ele>
  <time>2012-03-25T07:47:46Z</time>
  <sat>9</sat>
</trkpt>
<trkpt lat="39.756187000" lon="-0.308063000">
  <ele>146.000000</ele>
  <time>2012-03-25T07:47:47Z</time>
  <sat>8</sat>
</trkpt>
<trkpt lat="39.756231000" lon="-0.308248000">
  <ele>145.800000</ele>
  <time>2012-03-25T07:47:52Z</time>
  <sat>9</sat>
</trkpt>
<trkpt lat="39.756283000" lon="-0.308346000">
  <ele>145.600000</ele>
  <time>2012-03-25T07:47:55Z</time>
  <sat>9</sat>
</trkpt>
<trkpt lat="39.756324000" lon="-0.308446000">
  <ele>145.300000</ele>
  <time>2012-03-25T07:47:58Z</time>
  <sat>9</sat>
</trkpt>
<trkpt lat="39.756343000" lon="-0.308515000">
  <ele>145.000000</ele>
  <time>2012-03-25T07:48:00Z</time>
  <sat>9</sat>
</trkpt>
<trkpt lat="39.756389000" lon="-0.308612000">
  <ele>145.000000</ele>
  <time>2012-03-25T07:48:03Z</time>
  <sat>9</sat>
</trkpt>
<trkpt lat="39.756455000" lon="-0.308718000">
  <ele>145.300000</ele>
  <time>2012-03-25T07:48:06Z</time>
  <sat>5</sat>
</trkpt>
<trkpt lat="39.756510000" lon="-0.308830000">
  <ele>145.500000</ele>
  <time>2012-03-25T07:48:09Z</time>
  <sat>6</sat>
</trkpt>
<trkpt lat="39.756571000" lon="-0.308925000">
  <ele>146.600000</ele>
  <time>2012-03-25T07:48:12Z</time>
  <sat>9</sat>
</trkpt>
<trkpt lat="39.756608000" lon="-0.309035000">
  <ele>149.800000</ele>
  <time>2012-03-25T07:48:15Z</time>
  <sat>9</sat>
</trkpt>
<trkpt lat="39.756644000" lon="-0.309119000">
  <ele>150.300000</ele>
  <time>2012-03-25T07:48:18Z</time>
  <sat>9</sat>
</trkpt>
<trkpt lat="39.756673000" lon="-0.309229000">
  <ele>151.600000</ele>
  <time>2012-03-25T07:48:21Z</time>
  <sat>9</sat>
</trkpt>
<trkpt lat="39.756697000" lon="-0.309332000">
  <ele>152.800000</ele>
  <time>2012-03-25T07:48:24Z</time>
  <sat>9</sat>
</trkpt>
<trkpt lat="39.756722000" lon="-0.309428000">
  <ele>155.000000</ele>
  <time>2012-03-25T07:48:27Z</time>
  <sat>9</sat>
</trkpt>
<trkpt lat="39.756745000" lon="-0.309537000">
  <ele>156.800000</ele>
  <time>2012-03-25T07:48:30Z</time>
  <sat>9</sat>
</trkpt>
<trkpt lat="39.756813000" lon="-0.309665000">
  <ele>156.100000</ele>
  <time>2012-03-25T07:48:33Z</time>
  <sat>6</sat>
</trkpt>
<trkpt lat="39.756888000" lon="-0.309793000">
  <ele>155.500000</ele>
  <time>2012-03-25T07:48:36Z</time>
  <sat>9</sat>
</trkpt>
<trkpt lat="39.756909000" lon="-0.309943000">
  <ele>155.300000</ele>
  <time>2012-03-25T07:48:39Z</time>
  <sat>9</sat>
</trkpt>
<trkpt lat="39.756910000" lon="-0.310094000">
  <ele>155.300000</ele>
  <time>2012-03-25T07:48:42Z</time>
  <sat>9</sat>
</trkpt>
<trkpt lat="39.756907000" lon="-0.310256000">
  <ele>155.000000</ele>
  <time>2012-03-25T07:48:45Z</time>
  <sat>6</sat>
</trkpt>
<trkpt lat="39.756887000" lon="-0.310403000">
  <ele>155.100000</ele>
  <time>2012-03-25T07:48:48Z</time>
  <sat>6</sat>
</trkpt>
<trkpt lat="39.756880000" lon="-0.310444000">
  <ele>155.800000</ele>
  <time>2012-03-25T07:48:49Z</time>
  <sat>6</sat>
</trkpt>
<trkpt lat="39.756854000" lon="-0.310649000">
  <ele>155.800000</ele>
  <time>2012-03-25T07:48:54Z</time>
  <sat>8</sat>
</trkpt>
<trkpt lat="39.756843000" lon="-0.310794000">
  <ele>156.000000</ele>
  <time>2012-03-25T07:48:57Z</time>
  <sat>8</sat>
</trkpt>
<trkpt lat="39.756833000" lon="-0.310890000">
  <ele>156.000000</ele>
  <time>2012-03-25T07:48:59Z</time>
  <sat>8</sat>
</trkpt>
<trkpt lat="39.756819000" lon="-0.310982000">
  <ele>156.100000</ele>
  <time>2012-03-25T07:49:01Z</time>
  <sat>8</sat>
</trkpt>
<trkpt lat="39.756799000" lon="-0.311112000">
  <ele>155.600000</ele>
  <time>2012-03-25T07:49:04Z</time>
  <sat>8</sat>
</trkpt>
<trkpt lat="39.756775000" lon="-0.311245000">
  <ele>155.500000</ele>
  <time>2012-03-25T07:49:07Z</time>
  <sat>8</sat>
</trkpt>
<trkpt lat="39.756738000" lon="-0.311371000">
  <ele>155.000000</ele>
  <time>2012-03-25T07:49:10Z</time>
  <sat>8</sat>
</trkpt>
<trkpt lat="39.756701000" lon="-0.311485000">
  <ele>155.300000</ele>
  <time>2012-03-25T07:49:13Z</time>
  <sat>8</sat>
</trkpt>
<trkpt lat="39.756706000" lon="-0.311611000">
  <ele>153.600000</ele>
  <time>2012-03-25T07:49:16Z</time>
  <sat>8</sat>
</trkpt>
<trkpt lat="39.756744000" lon="-0.311726000">
  <ele>154.800000</ele>
  <time>2012-03-25T07:49:19Z</time>
  <sat>8</sat>
</trkpt>
<trkpt lat="39.756796000" lon="-0.311823000">
  <ele>155.600000</ele>
  <time>2012-03-25T07:49:22Z</time>
  <sat>8</sat>
</trkpt>
<trkpt lat="39.756831000" lon="-0.311891000">
  <ele>155.600000</ele>
  <time>2012-03-25T07:49:25Z</time>
  <sat>9</sat>
</trkpt>
<trkpt lat="39.756838000" lon="-0.312013000">
  <ele>155.300000</ele>
  <time>2012-03-25T07:49:28Z</time>
  <sat>9</sat>
</trkpt>
<trkpt lat="39.756828000" lon="-0.312152000">
  <ele>157.100000</ele>
  <time>2012-03-25T07:49:31Z</time>
  <sat>8</sat>
</trkpt>
<trkpt lat="39.756803000" lon="-0.312264000">
  <ele>157.800000</ele>
  <time>2012-03-25T07:49:34Z</time>
  <sat>7</sat>
</trkpt>
<trkpt lat="39.756780000" lon="-0.312363000">
  <ele>158.600000</ele>
  <time>2012-03-25T07:49:37Z</time>
  <sat>7</sat>
</trkpt>
<trkpt lat="39.756773000" lon="-0.312482000">
  <ele>159.600000</ele>
  <time>2012-03-25T07:49:40Z</time>
  <sat>6</sat>
</trkpt>
<trkpt lat="39.756785000" lon="-0.312582000">
  <ele>159.300000</ele>
  <time>2012-03-25T07:49:43Z</time>
  <sat>7</sat>
</trkpt>
<trkpt lat="39.756778000" lon="-0.312635000">
  <ele>159.800000</ele>
  <time>2012-03-25T07:49:46Z</time>
  <sat>6</sat>
</trkpt>
<trkpt lat="39.756775000" lon="-0.312733000">
  <ele>158.800000</ele>
  <time>2012-03-25T07:49:49Z</time>
  <sat>6</sat>
</trkpt>
<trkpt lat="39.756780000" lon="-0.312861000">
  <ele>159.300000</ele>
  <time>2012-03-25T07:49:52Z</time>
  <sat>7</sat>
</trkpt>
<trkpt lat="39.756779000" lon="-0.312907000">
  <ele>159.300000</ele>
  <time>2012-03-25T07:49:53Z</time>
  <sat>7</sat>
</trkpt>
<trkpt lat="39.756776000" lon="-0.313095000">
  <ele>161.100000</ele>
  <time>2012-03-25T07:49:58Z</time>
  <sat>7</sat>
</trkpt>
<trkpt lat="39.756767000" lon="-0.313165000">
  <ele>161.600000</ele>
  <time>2012-03-25T07:50:00Z</time>
  <sat>6</sat>
</trkpt>
<trkpt lat="39.756760000" lon="-0.313254000">
  <ele>162.000000</ele>
  <time>2012-03-25T07:50:03Z</time>
  <sat>5</sat>
</trkpt>
<trkpt lat="39.756746000" lon="-0.313273000">
  <ele>162.100000</ele>
  <time>2012-03-25T07:50:06Z</time>
  <sat>6</sat>
</trkpt>
<trkpt lat="39.756758000" lon="-0.313248000">
  <ele>162.000000</ele>
  <time>2012-03-25T07:50:09Z</time>
  <sat>10</sat>
</trkpt>
<trkpt lat="39.756762000" lon="-0.313245000">
  <ele>161.800000</ele>
  <time>2012-03-25T07:50:12Z</time>
  <sat>10</sat>
</trkpt>
<trkpt lat="39.756752000" lon="-0.313234000">
  <ele>161.600000</ele>
  <time>2012-03-25T07:50:15Z</time>
  <sat>7</sat>
</trkpt>
<trkpt lat="39.756756000" lon="-0.313228000">
  <ele>161.600000</ele>
  <time>2012-03-25T07:50:18Z</time>
  <sat>6</sat>
</trkpt>
<trkpt lat="39.756761000" lon="-0.313224000">
  <ele>161.300000</ele>
  <time>2012-03-25T07:50:21Z</time>
  <sat>6</sat>
</trkpt>
<trkpt lat="39.756775000" lon="-0.313233000">
  <ele>161.100000</ele>
  <time>2012-03-25T07:50:24Z</time>
  <sat>5</sat>
</trkpt>
<trkpt lat="39.756778000" lon="-0.313233000">
  <ele>160.500000</ele>
  <time>2012-03-25T07:50:27Z</time>
  <sat>6</sat>
</trkpt>
<trkpt lat="39.756775000" lon="-0.313229000">
  <ele>159.100000</ele>
  <time>2012-03-25T07:50:30Z</time>
  <sat>6</sat>
</trkpt>
<trkpt lat="39.756772000" lon="-0.313241000">
  <ele>158.600000</ele>
  <time>2012-03-25T07:50:33Z</time>
  <sat>6</sat>
</trkpt>
<trkpt lat="39.756771000" lon="-0.313242000">
  <ele>158.500000</ele>
  <time>2012-03-25T07:50:36Z</time>
  <sat>6</sat>
</trkpt>
<trkpt lat="39.756771000" lon="-0.313243000">
  <ele>158.800000</ele>
  <time>2012-03-25T07:50:39Z</time>
  <sat>7</sat>
</trkpt>
<trkpt lat="39.756761000" lon="-0.313243000">
  <ele>159.800000</ele>
  <time>2012-03-25T07:50:42Z</time>
  <sat>7</sat>
</trkpt>
<trkpt lat="39.756769000" lon="-0.313244000">
  <ele>160.600000</ele>
  <time>2012-03-25T07:50:45Z</time>
  <sat>5</sat>
</trkpt>
<trkpt lat="39.756769000" lon="-0.313244000">
  <ele>160.300000</ele>
  <time>2012-03-25T07:50:48Z</time>
  <sat>8</sat>
</trkpt>
<trkpt lat="39.756770000" lon="-0.313245000">
  <ele>160.000000</ele>
  <time>2012-03-25T07:50:51Z</time>
  <sat>7</sat>
</trkpt>
<trkpt lat="39.756770000" lon="-0.313245000">
  <ele>160.000000</ele>
  <time>2012-03-25T07:50:54Z</time>
  <sat>5</sat>
</trkpt>
<trkpt lat="39.756770000" lon="-0.313245000">
  <ele>160.000000</ele>
  <time>2012-03-25T07:50:55Z</time>
  <sat>5</sat>
</trkpt>
<trkpt lat="39.756770000" lon="-0.313245000">
  <ele>160.000000</ele>
  <time>2012-03-25T07:50:59Z</time>
  <sat>6</sat>
</trkpt>
<trkpt lat="39.756770000" lon="-0.313245000">
  <ele>160.000000</ele>
  <time>2012-03-25T07:51:01Z</time>
  <sat>6</sat>
</trkpt>
<trkpt lat="39.756770000" lon="-0.313245000">
  <ele>160.000000</ele>
  <time>2012-03-25T07:51:04Z</time>
  <sat>7</sat>
</trkpt>
<trkpt lat="39.756770000" lon="-0.313245000">
  <ele>160.000000</ele>
  <time>2012-03-25T07:51:07Z</time>
  <sat>8</sat>
</trkpt>
<trkpt lat="39.756770000" lon="-0.313245000">
  <ele>160.000000</ele>
  <time>2012-03-25T07:51:10Z</time>
  <sat>8</sat>
</trkpt>
<trkpt lat="39.756762000" lon="-0.313266000">
  <ele>159.600000</ele>
  <time>2012-03-25T07:51:13Z</time>
  <sat>7</sat>
</trkpt>
<trkpt lat="39.756784000" lon="-0.313321000">
  <ele>160.800000</ele>
  <time>2012-03-25T07:51:16Z</time>
  <sat>10</sat>
</trkpt>
<trkpt lat="39.756864000" lon="-0.313460000">
  <ele>161.600000</ele>
  <time>2012-03-25T07:51:19Z</time>
  <sat>10</sat>
</trkpt>
<trkpt lat="39.756935000" lon="-0.313547000">
  <ele>160.800000</ele>
  <time>2012-03-25T07:51:22Z</time>
  <sat>8</sat>
</trkpt>
<trkpt lat="39.756984000" lon="-0.313646000">
  <ele>160.000000</ele>
  <time>2012-03-25T07:51:25Z</time>
  <sat>10</sat>
</trkpt>
<trkpt lat="39.757003000" lon="-0.313768000">
  <ele>159.800000</ele>
  <time>2012-03-25T07:51:28Z</time>
  <sat>10</sat>
</trkpt>
<trkpt lat="39.757021000" lon="-0.313908000">
  <ele>158.500000</ele>
  <time>2012-03-25T07:51:31Z</time>
  <sat>7</sat>
</trkpt>
<trkpt lat="39.757027000" lon="-0.314032000">
  <ele>158.000000</ele>
  <time>2012-03-25T07:51:34Z</time>
  <sat>7</sat>
</trkpt>
<trkpt lat="39.757030000" lon="-0.314157000">
  <ele>158.300000</ele>
  <time>2012-03-25T07:51:37Z</time>
  <sat>7</sat>
</trkpt>
<trkpt lat="39.757047000" lon="-0.314280000">
  <ele>157.600000</ele>
  <time>2012-03-25T07:51:40Z</time>
  <sat>10</sat>
</trkpt>
<trkpt lat="39.757064000" lon="-0.314418000">
  <ele>158.300000</ele>
  <time>2012-03-25T07:51:43Z</time>
  <sat>10</sat>
</trkpt>
<trkpt lat="39.757091000" lon="-0.314566000">
  <ele>157.800000</ele>
  <time>2012-03-25T07:51:46Z</time>
  <sat>10</sat>
</trkpt>
<trkpt lat="39.757128000" lon="-0.314709000">
  <ele>157.800000</ele>
  <time>2012-03-25T07:51:49Z</time>
  <sat>10</sat>
</trkpt>
<trkpt lat="39.757173000" lon="-0.314848000">
  <ele>158.800000</ele>
  <time>2012-03-25T07:51:52Z</time>
  <sat>10</sat>
</trkpt>
<trkpt lat="39.757209000" lon="-0.314979000">
  <ele>159.100000</ele>
  <time>2012-03-25T07:51:55Z</time>
  <sat>7</sat>
</trkpt>
<trkpt lat="39.757241000" lon="-0.315098000">
  <ele>159.000000</ele>
  <time>2012-03-25T07:51:58Z</time>
  <sat>5</sat>
</trkpt>
<trkpt lat="39.757243000" lon="-0.315140000">
  <ele>159.100000</ele>
  <time>2012-03-25T07:51:59Z</time>
  <sat>6</sat>
</trkpt>
<trkpt lat="39.757265000" lon="-0.315314000">
  <ele>159.100000</ele>
  <time>2012-03-25T07:52:03Z</time>
  <sat>5</sat>
</trkpt>
<trkpt lat="39.757297000" lon="-0.315434000">
  <ele>159.300000</ele>
  <time>2012-03-25T07:52:06Z</time>
  <sat>7</sat>
</trkpt>
<trkpt lat="39.757309000" lon="-0.315555000">
  <ele>160.600000</ele>
  <time>2012-03-25T07:52:09Z</time>
  <sat>10</sat>
</trkpt>
<trkpt lat="39.757305000" lon="-0.315679000">
  <ele>161.000000</ele>
  <time>2012-03-25T07:52:12Z</time>
  <sat>10</sat>
</trkpt>
<trkpt lat="39.757311000" lon="-0.315786000">
  <ele>161.800000</ele>
  <time>2012-03-25T07:52:15Z</time>
  <sat>10</sat>
</trkpt>
<trkpt lat="39.757315000" lon="-0.315941000">
  <ele>162.800000</ele>
  <time>2012-03-25T07:52:18Z</time>
  <sat>10</sat>
</trkpt>
<trkpt lat="39.757326000" lon="-0.316081000">
  <ele>162.600000</ele>
  <time>2012-03-25T07:52:21Z</time>
  <sat>8</sat>
</trkpt>
<trkpt lat="39.757331000" lon="-0.316237000">
  <ele>162.300000</ele>
  <time>2012-03-25T07:52:24Z</time>
  <sat>8</sat>
</trkpt>
<trkpt lat="39.757347000" lon="-0.316401000">
  <ele>163.000000</ele>
  <time>2012-03-25T07:52:27Z</time>
  <sat>8</sat>
</trkpt>
<trkpt lat="39.757353000" lon="-0.316566000">
  <ele>164.000000</ele>
  <time>2012-03-25T07:52:30Z</time>
  <sat>8</sat>
</trkpt>
<trkpt lat="39.757361000" lon="-0.316728000">
  <ele>164.600000</ele>
  <time>2012-03-25T07:52:33Z</time>
  <sat>10</sat>
</trkpt>
<trkpt lat="39.757384000" lon="-0.316870000">
  <ele>164.500000</ele>
  <time>2012-03-25T07:52:36Z</time>
  <sat>10</sat>
</trkpt>
<trkpt lat="39.757426000" lon="-0.316990000">
  <ele>164.600000</ele>
  <time>2012-03-25T07:52:39Z</time>
  <sat>8</sat>
</trkpt>
<trkpt lat="39.757462000" lon="-0.317104000">
  <ele>165.100000</ele>
  <time>2012-03-25T07:52:42Z</time>
  <sat>8</sat>
</trkpt>
<trkpt lat="39.757497000" lon="-0.317227000">
  <ele>166.300000</ele>
  <time>2012-03-25T07:52:45Z</time>
  <sat>7</sat>
</trkpt>
<trkpt lat="39.757537000" lon="-0.317361000">
  <ele>166.600000</ele>
  <time>2012-03-25T07:52:48Z</time>
  <sat>6</sat>
</trkpt>
<trkpt lat="39.757579000" lon="-0.317502000">
  <ele>167.500000</ele>
  <time>2012-03-25T07:52:51Z</time>
  <sat>7</sat>
</trkpt>
<trkpt lat="39.757616000" lon="-0.317630000">
  <ele>168.600000</ele>
  <time>2012-03-25T07:52:54Z</time>
  <sat>10</sat>
</trkpt>
<trkpt lat="39.757643000" lon="-0.317760000">
  <ele>169.300000</ele>
  <time>2012-03-25T07:52:57Z</time>
  <sat>10</sat>
</trkpt>
<trkpt lat="39.757665000" lon="-0.317862000">
  <ele>168.600000</ele>
  <time>2012-03-25T07:52:59Z</time>
  <sat>10</sat>
</trkpt>
<trkpt lat="39.757673000" lon="-0.317926000">
  <ele>168.500000</ele>
  <time>2012-03-25T07:53:00Z</time>
  <sat>10</sat>
</trkpt>
<trkpt lat="39.757675000" lon="-0.318212000">
  <ele>170.600000</ele>
  <time>2012-03-25T07:53:04Z</time>
  <sat>10</sat>
</trkpt>
<trkpt lat="39.757681000" lon="-0.318397000">
  <ele>171.100000</ele>
  <time>2012-03-25T07:53:07Z</time>
  <sat>8</sat>
</trkpt>
<trkpt lat="39.757686000" lon="-0.318578000">
  <ele>172.100000</ele>
  <time>2012-03-25T07:53:10Z</time>
  <sat>8</sat>
</trkpt>
<trkpt lat="39.757701000" lon="-0.318754000">
  <ele>172.300000</ele>
  <time>2012-03-25T07:53:13Z</time>
  <sat>8</sat>
</trkpt>
<trkpt lat="39.757716000" lon="-0.318930000">
  <ele>172.500000</ele>
  <time>2012-03-25T07:53:16Z</time>
  <sat>8</sat>
</trkpt>
<trkpt lat="39.757724000" lon="-0.319099000">
  <ele>173.300000</ele>
  <time>2012-03-25T07:53:19Z</time>
  <sat>8</sat>
</trkpt>
<trkpt lat="39.757725000" lon="-0.319260000">
  <ele>173.600000</ele>
  <time>2012-03-25T07:53:22Z</time>
  <sat>9</sat>
</trkpt>
<trkpt lat="39.757729000" lon="-0.319414000">
  <ele>174.100000</ele>
  <time>2012-03-25T07:53:25Z</time>
  <sat>9</sat>
</trkpt>
<trkpt lat="39.757731000" lon="-0.319557000">
  <ele>173.500000</ele>
  <time>2012-03-25T07:53:28Z</time>
  <sat>9</sat>
</trkpt>
<trkpt lat="39.757685000" lon="-0.319651000">
  <ele>172.000000</ele>
  <time>2012-03-25T07:53:31Z</time>
  <sat>9</sat>
</trkpt>
<trkpt lat="39.757565000" lon="-0.319688000">
  <ele>171.100000</ele>
  <time>2012-03-25T07:53:34Z</time>
  <sat>9</sat>
</trkpt>
<trkpt lat="39.757443000" lon="-0.319681000">
  <ele>172.100000</ele>
  <time>2012-03-25T07:53:37Z</time>
  <sat>10</sat>
</trkpt>
<trkpt lat="39.757329000" lon="-0.319679000">
  <ele>171.000000</ele>
  <time>2012-03-25T07:53:40Z</time>
  <sat>10</sat>
</trkpt>
<trkpt lat="39.757216000" lon="-0.319681000">
  <ele>171.100000</ele>
  <time>2012-03-25T07:53:43Z</time>
  <sat>10</sat>
</trkpt>
<trkpt lat="39.757110000" lon="-0.319691000">
  <ele>170.600000</ele>
  <time>2012-03-25T07:53:46Z</time>
  <sat>10</sat>
</trkpt>
<trkpt lat="39.756996000" lon="-0.319689000">
  <ele>170.100000</ele>
  <time>2012-03-25T07:53:49Z</time>
  <sat>9</sat>
</trkpt>
<trkpt lat="39.756873000" lon="-0.319687000">
  <ele>170.300000</ele>
  <time>2012-03-25T07:53:52Z</time>
  <sat>8</sat>
</trkpt>
<trkpt lat="39.756755000" lon="-0.319677000">
  <ele>170.800000</ele>
  <time>2012-03-25T07:53:55Z</time>
  <sat>8</sat>
</trkpt>
<trkpt lat="39.756639000" lon="-0.319662000">
  <ele>171.600000</ele>
  <time>2012-03-25T07:53:58Z</time>
  <sat>8</sat>
</trkpt>
<trkpt lat="39.756568000" lon="-0.319636000">
  <ele>171.800000</ele>
  <time>2012-03-25T07:54:00Z</time>
  <sat>8</sat>
</trkpt>
<trkpt lat="39.756456000" lon="-0.319596000">
  <ele>171.600000</ele>
  <time>2012-03-25T07:54:03Z</time>
  <sat>9</sat>
</trkpt>
<trkpt lat="39.756421000" lon="-0.319584000">
  <ele>171.800000</ele>
  <time>2012-03-25T07:54:04Z</time>
  <sat>9</sat>
</trkpt>
<trkpt lat="39.756237000" lon="-0.319519000">
  <ele>172.800000</ele>
  <time>2012-03-25T07:54:09Z</time>
  <sat>7</sat>
</trkpt>
<trkpt lat="39.756126000" lon="-0.319479000">
  <ele>172.800000</ele>
  <time>2012-03-25T07:54:12Z</time>
  <sat>8</sat>
</trkpt>
<trkpt lat="39.756012000" lon="-0.319448000">
  <ele>173.300000</ele>
  <time>2012-03-25T07:54:15Z</time>
  <sat>8</sat>
</trkpt>
<trkpt lat="39.755898000" lon="-0.319414000">
  <ele>173.500000</ele>
  <time>2012-03-25T07:54:18Z</time>
  <sat>8</sat>
</trkpt>
<trkpt lat="39.755783000" lon="-0.319374000">
  <ele>174.500000</ele>
  <time>2012-03-25T07:54:21Z</time>
  <sat>8</sat>
</trkpt>
<trkpt lat="39.755690000" lon="-0.319275000">
  <ele>174.800000</ele>
  <time>2012-03-25T07:54:24Z</time>
  <sat>10</sat>
</trkpt>
<trkpt lat="39.755641000" lon="-0.319129000">
  <ele>173.600000</ele>
  <time>2012-03-25T07:54:27Z</time>
  <sat>10</sat>
</trkpt>
<trkpt lat="39.755601000" lon="-0.318972000">
  <ele>173.100000</ele>
  <time>2012-03-25T07:54:30Z</time>
  <sat>8</sat>
</trkpt>
<trkpt lat="39.755564000" lon="-0.318810000">
  <ele>172.100000</ele>
  <time>2012-03-25T07:54:33Z</time>
  <sat>7</sat>
</trkpt>
<trkpt lat="39.755519000" lon="-0.318653000">
  <ele>171.600000</ele>
  <time>2012-03-25T07:54:36Z</time>
  <sat>6</sat>
</trkpt>
<trkpt lat="39.755483000" lon="-0.318494000">
  <ele>171.300000</ele>
  <time>2012-03-25T07:54:39Z</time>
  <sat>7</sat>
</trkpt>
<trkpt lat="39.755445000" lon="-0.318341000">
  <ele>171.100000</ele>
  <time>2012-03-25T07:54:42Z</time>
  <sat>6</sat>
</trkpt>
<trkpt lat="39.755410000" lon="-0.318193000">
  <ele>171.300000</ele>
  <time>2012-03-25T07:54:45Z</time>
  <sat>6</sat>
</trkpt>
<trkpt lat="39.755365000" lon="-0.318048000">
  <ele>170.300000</ele>
  <time>2012-03-25T07:54:48Z</time>
  <sat>5</sat>
</trkpt>
<trkpt lat="39.755273000" lon="-0.317982000">
  <ele>170.600000</ele>
  <time>2012-03-25T07:54:51Z</time>
  <sat>10</sat>
</trkpt>
<trkpt lat="39.755172000" lon="-0.317961000">
  <ele>170.300000</ele>
  <time>2012-03-25T07:54:54Z</time>
  <sat>10</sat>
</trkpt>
<trkpt lat="39.755093000" lon="-0.317996000">
  <ele>170.800000</ele>
  <time>2012-03-25T07:54:57Z</time>
  <sat>8</sat>
</trkpt>
<trkpt lat="39.755032000" lon="-0.318014000">
  <ele>171.300000</ele>
  <time>2012-03-25T07:54:59Z</time>
  <sat>10</sat>
</trkpt>
<trkpt lat="39.754973000" lon="-0.318035000">
  <ele>171.300000</ele>
  <time>2012-03-25T07:55:01Z</time>
  <sat>10</sat>
</trkpt>
<trkpt lat="39.754880000" lon="-0.318062000">
  <ele>171.600000</ele>
  <time>2012-03-25T07:55:04Z</time>
  <sat>10</sat>
</trkpt>
<trkpt lat="39.754849000" lon="-0.318071000">
  <ele>171.800000</ele>
  <time>2012-03-25T07:55:05Z</time>
  <sat>10</sat>
</trkpt>
<trkpt lat="39.754703000" lon="-0.318088000">
  <ele>172.100000</ele>
  <time>2012-03-25T07:55:10Z</time>
  <sat>8</sat>
</trkpt>
<trkpt lat="39.754605000" lon="-0.318067000">
  <ele>173.500000</ele>
  <time>2012-03-25T07:55:13Z</time>
  <sat>8</sat>
</trkpt>
<trkpt lat="39.754502000" lon="-0.318058000">
  <ele>174.800000</ele>
  <time>2012-03-25T07:55:16Z</time>
  <sat>7</sat>
</trkpt>
<trkpt lat="39.754403000" lon="-0.318042000">
  <ele>175.800000</ele>
  <time>2012-03-25T07:55:19Z</time>
  <sat>6</sat>
</trkpt>
<trkpt lat="39.754307000" lon="-0.318040000">
  <ele>176.500000</ele>
  <time>2012-03-25T07:55:22Z</time>
  <sat>7</sat>
</trkpt>
<trkpt lat="39.754216000" lon="-0.318036000">
  <ele>176.800000</ele>
  <time>2012-03-25T07:55:25Z</time>
  <sat>8</sat>
</trkpt>
<trkpt lat="39.754130000" lon="-0.318029000">
  <ele>178.300000</ele>
  <time>2012-03-25T07:55:28Z</time>
  <sat>8</sat>
</trkpt>
<trkpt lat="39.754039000" lon="-0.318008000">
  <ele>178.800000</ele>
  <time>2012-03-25T07:55:31Z</time>
  <sat>8</sat>
</trkpt>
<trkpt lat="39.753941000" lon="-0.317986000">
  <ele>179.100000</ele>
  <time>2012-03-25T07:55:34Z</time>
  <sat>8</sat>
</trkpt>
<trkpt lat="39.753855000" lon="-0.317939000">
  <ele>179.600000</ele>
  <time>2012-03-25T07:55:37Z</time>
  <sat>7</sat>
</trkpt>
<trkpt lat="39.753775000" lon="-0.317877000">
  <ele>181.500000</ele>
  <time>2012-03-25T07:55:40Z</time>
  <sat>8</sat>
</trkpt>
<trkpt lat="39.753693000" lon="-0.317809000">
  <ele>183.300000</ele>
  <time>2012-03-25T07:55:43Z</time>
  <sat>7</sat>
</trkpt>
<trkpt lat="39.753606000" lon="-0.317744000">
  <ele>185.100000</ele>
  <time>2012-03-25T07:55:46Z</time>
  <sat>7</sat>
</trkpt>
<trkpt lat="39.753523000" lon="-0.317681000">
  <ele>186.500000</ele>
  <time>2012-03-25T07:55:49Z</time>
  <sat>7</sat>
</trkpt>
<trkpt lat="39.753442000" lon="-0.317598000">
  <ele>187.800000</ele>
  <time>2012-03-25T07:55:52Z</time>
  <sat>8</sat>
</trkpt>
<trkpt lat="39.753356000" lon="-0.317518000">
  <ele>188.800000</ele>
  <time>2012-03-25T07:55:55Z</time>
  <sat>8</sat>
</trkpt>
<trkpt lat="39.753273000" lon="-0.317438000">
  <ele>190.300000</ele>
  <time>2012-03-25T07:55:58Z</time>
  <sat>7</sat>
</trkpt>
<trkpt lat="39.753217000" lon="-0.317384000">
  <ele>190.800000</ele>
  <time>2012-03-25T07:56:00Z</time>
  <sat>7</sat>
</trkpt>
<trkpt lat="39.753141000" lon="-0.317288000">
  <ele>191.000000</ele>
  <time>2012-03-25T07:56:03Z</time>
  <sat>7</sat>
</trkpt>
<trkpt lat="39.753065000" lon="-0.317198000">
  <ele>191.100000</ele>
  <time>2012-03-25T07:56:06Z</time>
  <sat>7</sat>
</trkpt>
<trkpt lat="39.753039000" lon="-0.317167000">
  <ele>191.000000</ele>
  <time>2012-03-25T07:56:07Z</time>
  <sat>7</sat>
</trkpt>
<trkpt lat="39.752901000" lon="-0.317023000">
  <ele>188.300000</ele>
  <time>2012-03-25T07:56:12Z</time>
  <sat>6</sat>
</trkpt>
<trkpt lat="39.752825000" lon="-0.316934000">
  <ele>188.300000</ele>
  <time>2012-03-25T07:56:15Z</time>
  <sat>6</sat>
</trkpt>
<trkpt lat="39.752721000" lon="-0.316844000">
  <ele>188.300000</ele>
  <time>2012-03-25T07:56:18Z</time>
  <sat>6</sat>
</trkpt>
<trkpt lat="39.752640000" lon="-0.316772000">
  <ele>191.300000</ele>
  <time>2012-03-25T07:56:21Z</time>
  <sat>10</sat>
</trkpt>
<trkpt lat="39.752535000" lon="-0.316707000">
  <ele>190.500000</ele>
  <time>2012-03-25T07:56:24Z</time>
  <sat>10</sat>
</trkpt>
<trkpt lat="39.752428000" lon="-0.316692000">
  <ele>189.800000</ele>
  <time>2012-03-25T07:56:27Z</time>
  <sat>10</sat>
</trkpt>
<trkpt lat="39.752306000" lon="-0.316695000">
  <ele>190.300000</ele>
  <time>2012-03-25T07:56:30Z</time>
  <sat>8</sat>
</trkpt>
<trkpt lat="39.752186000" lon="-0.316703000">
  <ele>189.800000</ele>
  <time>2012-03-25T07:56:33Z</time>
  <sat>6</sat>
</trkpt>
<trkpt lat="39.752066000" lon="-0.316715000">
  <ele>189.300000</ele>
  <time>2012-03-25T07:56:36Z</time>
  <sat>7</sat>
</trkpt>
<trkpt lat="39.751949000" lon="-0.316735000">
  <ele>189.300000</ele>
  <time>2012-03-25T07:56:39Z</time>
  <sat>8</sat>
</trkpt>
<trkpt lat="39.751839000" lon="-0.316757000">
  <ele>190.100000</ele>
  <time>2012-03-25T07:56:42Z</time>
  <sat>8</sat>
</trkpt>
<trkpt lat="39.751726000" lon="-0.316776000">
  <ele>190.600000</ele>
  <time>2012-03-25T07:56:45Z</time>
  <sat>8</sat>
</trkpt>
<trkpt lat="39.751623000" lon="-0.316784000">
  <ele>191.300000</ele>
  <time>2012-03-25T07:56:48Z</time>
  <sat>7</sat>
</trkpt>
<trkpt lat="39.751526000" lon="-0.316796000">
  <ele>191.500000</ele>
  <time>2012-03-25T07:56:51Z</time>
  <sat>7</sat>
</trkpt>
<trkpt lat="39.751429000" lon="-0.316794000">
  <ele>192.000000</ele>
  <time>2012-03-25T07:56:54Z</time>
  <sat>8</sat>
</trkpt>
<trkpt lat="39.751332000" lon="-0.316758000">
  <ele>191.800000</ele>
  <time>2012-03-25T07:56:57Z</time>
  <sat>8</sat>
</trkpt>
<trkpt lat="39.751268000" lon="-0.316713000">
  <ele>191.800000</ele>
  <time>2012-03-25T07:56:59Z</time>
  <sat>8</sat>
</trkpt>
<trkpt lat="39.751201000" lon="-0.316662000">
  <ele>191.600000</ele>
  <time>2012-03-25T07:57:01Z</time>
  <sat>7</sat>
</trkpt>
<trkpt lat="39.751102000" lon="-0.316580000">
  <ele>191.100000</ele>
  <time>2012-03-25T07:57:04Z</time>
  <sat>6</sat>
</trkpt>
<trkpt lat="39.751007000" lon="-0.316516000">
  <ele>191.600000</ele>
  <time>2012-03-25T07:57:07Z</time>
  <sat>7</sat>
</trkpt>
<trkpt lat="39.750865000" lon="-0.316483000">
  <ele>192.800000</ele>
  <time>2012-03-25T07:57:10Z</time>
  <sat>7</sat>
</trkpt>
<trkpt lat="39.750814000" lon="-0.316465000">
  <ele>192.500000</ele>
  <time>2012-03-25T07:57:11Z</time>
  <sat>7</sat>
</trkpt>
<trkpt lat="39.750524000" lon="-0.316371000">
  <ele>190.600000</ele>
  <time>2012-03-25T07:57:16Z</time>
  <sat>9</sat>
</trkpt>
<trkpt lat="39.750317000" lon="-0.316317000">
  <ele>189.100000</ele>
  <time>2012-03-25T07:57:19Z</time>
  <sat>10</sat>
</trkpt>
<trkpt lat="39.750097000" lon="-0.316229000">
  <ele>186.300000</ele>
  <time>2012-03-25T07:57:22Z</time>
  <sat>9</sat>
</trkpt>
<trkpt lat="39.749868000" lon="-0.316133000">
  <ele>184.500000</ele>
  <time>2012-03-25T07:57:25Z</time>
  <sat>6</sat>
</trkpt>
<trkpt lat="39.749646000" lon="-0.316030000">
  <ele>183.800000</ele>
  <time>2012-03-25T07:57:28Z</time>
  <sat>7</sat>
</trkpt>
<trkpt lat="39.749444000" lon="-0.315939000">
  <ele>183.600000</ele>
  <time>2012-03-25T07:57:31Z</time>
  <sat>7</sat>
</trkpt>
<trkpt lat="39.749258000" lon="-0.315856000">
  <ele>183.800000</ele>
  <time>2012-03-25T07:57:34Z</time>
  <sat>8</sat>
</trkpt>
<trkpt lat="39.749093000" lon="-0.315778000">
  <ele>184.300000</ele>
  <time>2012-03-25T07:57:37Z</time>
  <sat>8</sat>
</trkpt>
<trkpt lat="39.748929000" lon="-0.315701000">
  <ele>184.500000</ele>
  <time>2012-03-25T07:57:40Z</time>
  <sat>8</sat>
</trkpt>
<trkpt lat="39.748775000" lon="-0.315633000">
  <ele>184.600000</ele>
  <time>2012-03-25T07:57:43Z</time>
  <sat>7</sat>
</trkpt>
<trkpt lat="39.748633000" lon="-0.315571000">
  <ele>185.100000</ele>
  <time>2012-03-25T07:57:46Z</time>
  <sat>7</sat>
</trkpt>
<trkpt lat="39.748514000" lon="-0.315508000">
  <ele>185.100000</ele>
  <time>2012-03-25T07:57:49Z</time>
  <sat>6</sat>
</trkpt>
<trkpt lat="39.748426000" lon="-0.315429000">
  <ele>185.100000</ele>
  <time>2012-03-25T07:57:52Z</time>
  <sat>8</sat>
</trkpt>
<trkpt lat="39.748412000" lon="-0.315322000">
  <ele>185.300000</ele>
  <time>2012-03-25T07:57:55Z</time>
  <sat>8</sat>
</trkpt>
<trkpt lat="39.748476000" lon="-0.315201000">
  <ele>186.100000</ele>
  <time>2012-03-25T07:57:58Z</time>
  <sat>7</sat>
</trkpt>
<trkpt lat="39.748510000" lon="-0.315114000">
  <ele>186.000000</ele>
  <time>2012-03-25T07:58:00Z</time>
  <sat>6</sat>
</trkpt>
<trkpt lat="39.748569000" lon="-0.314978000">
  <ele>186.300000</ele>
  <time>2012-03-25T07:58:03Z</time>
  <sat>6</sat>
</trkpt>
<trkpt lat="39.748635000" lon="-0.314848000">
  <ele>186.800000</ele>
  <time>2012-03-25T07:58:06Z</time>
  <sat>6</sat>
</trkpt>
<trkpt lat="39.748694000" lon="-0.314705000">
  <ele>186.600000</ele>
  <time>2012-03-25T07:58:09Z</time>
  <sat>7</sat>
</trkpt>
<trkpt lat="39.748763000" lon="-0.314536000">
  <ele>186.100000</ele>
  <time>2012-03-25T07:58:12Z</time>
  <sat>8</sat>
</trkpt>
<trkpt lat="39.748790000" lon="-0.314489000">
  <ele>186.300000</ele>
  <time>2012-03-25T07:58:13Z</time>
  <sat>8</sat>
</trkpt>
<trkpt lat="39.748888000" lon="-0.314246000">
  <ele>187.600000</ele>
  <time>2012-03-25T07:58:18Z</time>
  <sat>7</sat>
</trkpt>
<trkpt lat="39.748947000" lon="-0.314116000">
  <ele>188.300000</ele>
  <time>2012-03-25T07:58:21Z</time>
  <sat>7</sat>
</trkpt>
<trkpt lat="39.748988000" lon="-0.313990000">
  <ele>189.000000</ele>
  <time>2012-03-25T07:58:24Z</time>
  <sat>7</sat>
</trkpt>
<trkpt lat="39.749009000" lon="-0.313858000">
  <ele>189.100000</ele>
  <time>2012-03-25T07:58:27Z</time>
  <sat>6</sat>
</trkpt>
<trkpt lat="39.749041000" lon="-0.313724000">
  <ele>190.100000</ele>
  <time>2012-03-25T07:58:30Z</time>
  <sat>6</sat>
</trkpt>
<trkpt lat="39.749066000" lon="-0.313599000">
  <ele>190.300000</ele>
  <time>2012-03-25T07:58:33Z</time>
  <sat>10</sat>
</trkpt>
<trkpt lat="39.749119000" lon="-0.313491000">
  <ele>190.500000</ele>
  <time>2012-03-25T07:58:36Z</time>
  <sat>10</sat>
</trkpt>
<trkpt lat="39.749174000" lon="-0.313382000">
  <ele>190.800000</ele>
  <time>2012-03-25T07:58:39Z</time>
  <sat>7</sat>
</trkpt>
<trkpt lat="39.749238000" lon="-0.313262000">
  <ele>190.800000</ele>
  <time>2012-03-25T07:58:42Z</time>
  <sat>7</sat>
</trkpt>
<trkpt lat="39.749304000" lon="-0.313177000">
  <ele>191.300000</ele>
  <time>2012-03-25T07:58:45Z</time>
  <sat>10</sat>
</trkpt>
<trkpt lat="39.749389000" lon="-0.313082000">
  <ele>192.600000</ele>
  <time>2012-03-25T07:58:48Z</time>
  <sat>10</sat>
</trkpt>
<trkpt lat="39.749483000" lon="-0.313007000">
  <ele>192.600000</ele>
  <time>2012-03-25T07:58:51Z</time>
  <sat>10</sat>
</trkpt>
<trkpt lat="39.749567000" lon="-0.312927000">
  <ele>192.300000</ele>
  <time>2012-03-25T07:58:54Z</time>
  <sat>9</sat>
</trkpt>
<trkpt lat="39.749660000" lon="-0.312835000">
  <ele>192.600000</ele>
  <time>2012-03-25T07:58:57Z</time>
  <sat>10</sat>
</trkpt>
<trkpt lat="39.749728000" lon="-0.312778000">
  <ele>193.100000</ele>
  <time>2012-03-25T07:58:59Z</time>
  <sat>10</sat>
</trkpt>
<trkpt lat="39.749793000" lon="-0.312716000">
  <ele>193.800000</ele>
  <time>2012-03-25T07:59:01Z</time>
  <sat>10</sat>
</trkpt>
<trkpt lat="39.749887000" lon="-0.312617000">
  <ele>193.300000</ele>
  <time>2012-03-25T07:59:04Z</time>
  <sat>10</sat>
</trkpt>
<trkpt lat="39.749984000" lon="-0.312514000">
  <ele>193.300000</ele>
  <time>2012-03-25T07:59:07Z</time>
  <sat>10</sat>
</trkpt>
<trkpt lat="39.750085000" lon="-0.312411000">
  <ele>193.300000</ele>
  <time>2012-03-25T07:59:10Z</time>
  <sat>10</sat>
</trkpt>
<trkpt lat="39.750183000" lon="-0.312323000">
  <ele>193.100000</ele>
  <time>2012-03-25T07:59:13Z</time>
  <sat>10</sat>
</trkpt>
<trkpt lat="39.750208000" lon="-0.312291000">
  <ele>193.100000</ele>
  <time>2012-03-25T07:59:14Z</time>
  <sat>10</sat>
</trkpt>
<trkpt lat="39.750366000" lon="-0.312141000">
  <ele>193.300000</ele>
  <time>2012-03-25T07:59:19Z</time>
  <sat>10</sat>
</trkpt>
<trkpt lat="39.750466000" lon="-0.312048000">
  <ele>193.100000</ele>
  <time>2012-03-25T07:59:22Z</time>
  <sat>10</sat>
</trkpt>
<trkpt lat="39.750555000" lon="-0.311948000">
  <ele>194.300000</ele>
  <time>2012-03-25T07:59:25Z</time>
  <sat>10</sat>
</trkpt>
<trkpt lat="39.750546000" lon="-0.311877000">
  <ele>195.600000</ele>
  <time>2012-03-25T07:59:28Z</time>
  <sat>10</sat>
</trkpt>
<trkpt lat="39.750496000" lon="-0.311795000">
  <ele>196.300000</ele>
  <time>2012-03-25T07:59:31Z</time>
  <sat>10</sat>
</trkpt>
<trkpt lat="39.750411000" lon="-0.311717000">
  <ele>196.600000</ele>
  <time>2012-03-25T07:59:34Z</time>
  <sat>10</sat>
</trkpt>
<trkpt lat="39.750283000" lon="-0.311708000">
  <ele>198.600000</ele>
  <time>2012-03-25T07:59:37Z</time>
  <sat>6</sat>
</trkpt>
<trkpt lat="39.750179000" lon="-0.311627000">
  <ele>201.000000</ele>
  <time>2012-03-25T07:59:40Z</time>
  <sat>7</sat>
</trkpt>
<trkpt lat="39.750071000" lon="-0.311544000">
  <ele>201.300000</ele>
  <time>2012-03-25T07:59:43Z</time>
  <sat>9</sat>
</trkpt>
<trkpt lat="39.749931000" lon="-0.311461000">
  <ele>199.300000</ele>
  <time>2012-03-25T07:59:46Z</time>
  <sat>9</sat>
</trkpt>
<trkpt lat="39.749769000" lon="-0.311266000">
  <ele>198.300000</ele>
  <time>2012-03-25T07:59:49Z</time>
  <sat>7</sat>
</trkpt>
<trkpt lat="39.749651000" lon="-0.311147000">
  <ele>196.600000</ele>
  <time>2012-03-25T07:59:52Z</time>
  <sat>8</sat>
</trkpt>
<trkpt lat="39.749547000" lon="-0.311118000">
  <ele>195.500000</ele>
  <time>2012-03-25T07:59:55Z</time>
  <sat>10</sat>
</trkpt>
<trkpt lat="39.749423000" lon="-0.311137000">
  <ele>194.500000</ele>
  <time>2012-03-25T07:59:58Z</time>
  <sat>10</sat>
</trkpt>
<trkpt lat="39.749319000" lon="-0.311124000">
  <ele>193.300000</ele>
  <time>2012-03-25T08:00:00Z</time>
  <sat>10</sat>
</trkpt>
<trkpt lat="39.749163000" lon="-0.311120000">
  <ele>192.600000</ele>
  <time>2012-03-25T08:00:03Z</time>
  <sat>8</sat>
</trkpt>
<trkpt lat="39.748992000" lon="-0.311137000">
  <ele>192.300000</ele>
  <time>2012-03-25T08:00:06Z</time>
  <sat>8</sat>
</trkpt>
<trkpt lat="39.748882000" lon="-0.311065000">
  <ele>191.100000</ele>
  <time>2012-03-25T08:00:09Z</time>
  <sat>9</sat>
</trkpt>
<trkpt lat="39.748839000" lon="-0.310902000">
  <ele>191.800000</ele>
  <time>2012-03-25T08:00:12Z</time>
  <sat>9</sat>
</trkpt>
<trkpt lat="39.748754000" lon="-0.310700000">
  <ele>191.100000</ele>
  <time>2012-03-25T08:00:15Z</time>
  <sat>9</sat>
</trkpt>
<trkpt lat="39.748730000" lon="-0.310644000">
  <ele>190.600000</ele>
  <time>2012-03-25T08:00:16Z</time>
  <sat>9</sat>
</trkpt>
<trkpt lat="39.748609000" lon="-0.310431000">
  <ele>188.100000</ele>
  <time>2012-03-25T08:00:21Z</time>
  <sat>9</sat>
</trkpt>
<trkpt lat="39.748528000" lon="-0.310392000">
  <ele>187.300000</ele>
  <time>2012-03-25T08:00:24Z</time>
  <sat>9</sat>
</trkpt>
<trkpt lat="39.748416000" lon="-0.310384000">
  <ele>187.000000</ele>
  <time>2012-03-25T08:00:27Z</time>
  <sat>6</sat>
</trkpt>
<trkpt lat="39.748314000" lon="-0.310324000">
  <ele>186.600000</ele>
  <time>2012-03-25T08:00:30Z</time>
  <sat>9</sat>
</trkpt>
<trkpt lat="39.748215000" lon="-0.310265000">
  <ele>186.800000</ele>
  <time>2012-03-25T08:00:33Z</time>
  <sat>10</sat>
</trkpt>
<trkpt lat="39.748133000" lon="-0.310275000">
  <ele>187.100000</ele>
  <time>2012-03-25T08:00:36Z</time>
  <sat>10</sat>
</trkpt>
<trkpt lat="39.748070000" lon="-0.310298000">
  <ele>187.800000</ele>
  <time>2012-03-25T08:00:39Z</time>
  <sat>7</sat>
</trkpt>
<trkpt lat="39.748002000" lon="-0.310362000">
  <ele>187.800000</ele>
  <time>2012-03-25T08:00:42Z</time>
  <sat>7</sat>
</trkpt>
<trkpt lat="39.747930000" lon="-0.310436000">
  <ele>188.100000</ele>
  <time>2012-03-25T08:00:45Z</time>
  <sat>8</sat>
</trkpt>
<trkpt lat="39.747855000" lon="-0.310511000">
  <ele>188.800000</ele>
  <time>2012-03-25T08:00:48Z</time>
  <sat>9</sat>
</trkpt>
<trkpt lat="39.747759000" lon="-0.310560000">
  <ele>188.800000</ele>
  <time>2012-03-25T08:00:51Z</time>
  <sat>9</sat>
</trkpt>
<trkpt lat="39.747644000" lon="-0.310557000">
  <ele>189.600000</ele>
  <time>2012-03-25T08:00:54Z</time>
  <sat>7</sat>
</trkpt>
<trkpt lat="39.747533000" lon="-0.310535000">
  <ele>188.000000</ele>
  <time>2012-03-25T08:00:57Z</time>
  <sat>9</sat>
</trkpt>
<trkpt lat="39.747476000" lon="-0.310521000">
  <ele>187.300000</ele>
  <time>2012-03-25T08:00:59Z</time>
  <sat>9</sat>
</trkpt>
<trkpt lat="39.747421000" lon="-0.310503000">
  <ele>187.100000</ele>
  <time>2012-03-25T08:01:01Z</time>
  <sat>9</sat>
</trkpt>
<trkpt lat="39.747353000" lon="-0.310466000">
  <ele>187.100000</ele>
  <time>2012-03-25T08:01:04Z</time>
  <sat>6</sat>
</trkpt>
<trkpt lat="39.747274000" lon="-0.310403000">
  <ele>189.600000</ele>
  <time>2012-03-25T08:01:07Z</time>
  <sat>7</sat>
</trkpt>
<trkpt lat="39.747190000" lon="-0.310326000">
  <ele>191.000000</ele>
  <time>2012-03-25T08:01:10Z</time>
  <sat>7</sat>
</trkpt>
<trkpt lat="39.747118000" lon="-0.310219000">
  <ele>191.800000</ele>
  <time>2012-03-25T08:01:13Z</time>
  <sat>6</sat>
</trkpt>
<trkpt lat="39.747061000" lon="-0.310120000">
  <ele>193.100000</ele>
  <time>2012-03-25T08:01:16Z</time>
  <sat>8</sat>
</trkpt>
<trkpt lat="39.747046000" lon="-0.310093000">
  <ele>193.100000</ele>
  <time>2012-03-25T08:01:17Z</time>
  <sat>8</sat>
</trkpt>
<trkpt lat="39.747024000" lon="-0.309990000">
  <ele>193.600000</ele>
  <time>2012-03-25T08:01:22Z</time>
  <sat>10</sat>
</trkpt>
<trkpt lat="39.747019000" lon="-0.309950000">
  <ele>194.100000</ele>
  <time>2012-03-25T08:01:25Z</time>
  <sat>10</sat>
</trkpt>
<trkpt lat="39.747004000" lon="-0.309847000">
  <ele>193.800000</ele>
  <time>2012-03-25T08:01:28Z</time>
  <sat>10</sat>
</trkpt>
<trkpt lat="39.746980000" lon="-0.309755000">
  <ele>192.300000</ele>
  <time>2012-03-25T08:01:31Z</time>
  <sat>10</sat>
</trkpt>
<trkpt lat="39.746935000" lon="-0.309653000">
  <ele>192.600000</ele>
  <time>2012-03-25T08:01:34Z</time>
  <sat>10</sat>
</trkpt>
<trkpt lat="39.746878000" lon="-0.309547000">
  <ele>192.100000</ele>
  <time>2012-03-25T08:01:37Z</time>
  <sat>10</sat>
</trkpt>
<trkpt lat="39.746840000" lon="-0.309409000">
  <ele>192.000000</ele>
  <time>2012-03-25T08:01:40Z</time>
  <sat>10</sat>
</trkpt>
<trkpt lat="39.746807000" lon="-0.309255000">
  <ele>191.600000</ele>
  <time>2012-03-25T08:01:43Z</time>
  <sat>10</sat>
</trkpt>
<trkpt lat="39.746757000" lon="-0.309119000">
  <ele>192.800000</ele>
  <time>2012-03-25T08:01:46Z</time>
  <sat>10</sat>
</trkpt>
<trkpt lat="39.746730000" lon="-0.308968000">
  <ele>193.600000</ele>
  <time>2012-03-25T08:01:49Z</time>
  <sat>10</sat>
</trkpt>
<trkpt lat="39.746706000" lon="-0.308829000">
  <ele>194.100000</ele>
  <time>2012-03-25T08:01:52Z</time>
  <sat>10</sat>
</trkpt>
<trkpt lat="39.746694000" lon="-0.308718000">
  <ele>193.800000</ele>
  <time>2012-03-25T08:01:55Z</time>
  <sat>10</sat>
</trkpt>
<trkpt lat="39.746670000" lon="-0.308578000">
  <ele>194.100000</ele>
  <time>2012-03-25T08:01:58Z</time>
  <sat>10</sat>
</trkpt>
<trkpt lat="39.746648000" lon="-0.308456000">
  <ele>194.300000</ele>
  <time>2012-03-25T08:02:00Z</time>
  <sat>10</sat>
</trkpt>
<trkpt lat="39.746589000" lon="-0.308264000">
  <ele>194.600000</ele>
  <time>2012-03-25T08:02:03Z</time>
  <sat>10</sat>
</trkpt>
<trkpt lat="39.746542000" lon="-0.308127000">
  <ele>192.100000</ele>
  <time>2012-03-25T08:02:06Z</time>
  <sat>9</sat>
</trkpt>
<trkpt lat="39.746520000" lon="-0.308018000">
  <ele>190.100000</ele>
  <time>2012-03-25T08:02:09Z</time>
  <sat>9</sat>
</trkpt>
<trkpt lat="39.746514000" lon="-0.307931000">
  <ele>189.800000</ele>
  <time>2012-03-25T08:02:12Z</time>
  <sat>9</sat>
</trkpt>
<trkpt lat="39.746511000" lon="-0.307926000">
  <ele>189.100000</ele>
  <time>2012-03-25T08:02:15Z</time>
  <sat>9</sat>
</trkpt>
<trkpt lat="39.746512000" lon="-0.307946000">
  <ele>189.600000</ele>
  <time>2012-03-25T08:02:18Z</time>
  <sat>9</sat>
</trkpt>
<trkpt lat="39.746511000" lon="-0.307946000">
  <ele>189.600000</ele>
  <time>2012-03-25T08:02:19Z</time>
  <sat>9</sat>
</trkpt>
<trkpt lat="39.746510000" lon="-0.307948000">
  <ele>190.100000</ele>
  <time>2012-03-25T08:02:24Z</time>
  <sat>8</sat>
</trkpt>
<trkpt lat="39.746510000" lon="-0.307948000">
  <ele>190.100000</ele>
  <time>2012-03-25T08:02:27Z</time>
  <sat>8</sat>
</trkpt>
<trkpt lat="39.746510000" lon="-0.307948000">
  <ele>190.100000</ele>
  <time>2012-03-25T08:02:30Z</time>
  <sat>8</sat>
</trkpt>
<trkpt lat="39.746510000" lon="-0.307948000">
  <ele>190.100000</ele>
  <time>2012-03-25T08:02:33Z</time>
  <sat>8</sat>
</trkpt>
<trkpt lat="39.746510000" lon="-0.307948000">
  <ele>190.100000</ele>
  <time>2012-03-25T08:02:36Z</time>
  <sat>10</sat>
</trkpt>
<trkpt lat="39.746510000" lon="-0.307948000">
  <ele>190.100000</ele>
  <time>2012-03-25T08:02:39Z</time>
  <sat>9</sat>
</trkpt>
<trkpt lat="39.746510000" lon="-0.307948000">
  <ele>190.100000</ele>
  <time>2012-03-25T08:02:42Z</time>
  <sat>8</sat>
</trkpt>
<trkpt lat="39.746510000" lon="-0.307948000">
  <ele>190.100000</ele>
  <time>2012-03-25T08:02:45Z</time>
  <sat>8</sat>
</trkpt>
<trkpt lat="39.746510000" lon="-0.307948000">
  <ele>190.100000</ele>
  <time>2012-03-25T08:02:48Z</time>
  <sat>8</sat>
</trkpt>
<trkpt lat="39.746510000" lon="-0.307948000">
  <ele>190.100000</ele>
  <time>2012-03-25T08:02:51Z</time>
  <sat>7</sat>
</trkpt>
<trkpt lat="39.746510000" lon="-0.307948000">
  <ele>190.100000</ele>
  <time>2012-03-25T08:02:54Z</time>
  <sat>7</sat>
</trkpt>
<trkpt lat="39.746510000" lon="-0.307948000">
  <ele>190.100000</ele>
  <time>2012-03-25T08:02:57Z</time>
  <sat>7</sat>
</trkpt>
<trkpt lat="39.746510000" lon="-0.307948000">
  <ele>190.100000</ele>
  <time>2012-03-25T08:02:59Z</time>
  <sat>7</sat>
</trkpt>
<trkpt lat="39.746510000" lon="-0.307948000">
  <ele>190.100000</ele>
  <time>2012-03-25T08:03:01Z</time>
  <sat>7</sat>
</trkpt>
<trkpt lat="39.746510000" lon="-0.307948000">
  <ele>190.100000</ele>
  <time>2012-03-25T08:03:04Z</time>
  <sat>8</sat>
</trkpt>
<trkpt lat="39.746509000" lon="-0.307948000">
  <ele>190.100000</ele>
  <time>2012-03-25T08:03:07Z</time>
  <sat>8</sat>
</trkpt>
<trkpt lat="39.746509000" lon="-0.307948000">
  <ele>190.100000</ele>
  <time>2012-03-25T08:03:10Z</time>
  <sat>7</sat>
</trkpt>
<trkpt lat="39.746502000" lon="-0.307930000">
  <ele>188.100000</ele>
  <time>2012-03-25T08:03:13Z</time>
  <sat>7</sat>
</trkpt>
<trkpt lat="39.746503000" lon="-0.307841000">
  <ele>186.600000</ele>
  <time>2012-03-25T08:03:16Z</time>
  <sat>9</sat>
</trkpt>
<trkpt lat="39.746493000" lon="-0.307742000">
  <ele>183.300000</ele>
  <time>2012-03-25T08:03:19Z</time>
  <sat>9</sat>
</trkpt>
<trkpt lat="39.746497000" lon="-0.307641000">
  <ele>181.500000</ele>
  <time>2012-03-25T08:03:22Z</time>
  <sat>9</sat>
</trkpt>
<trkpt lat="39.746489000" lon="-0.307607000">
  <ele>182.100000</ele>
  <time>2012-03-25T08:03:23Z</time>
  <sat>9</sat>
</trkpt>
<trkpt lat="39.746477000" lon="-0.307434000">
  <ele>180.100000</ele>
  <time>2012-03-25T08:03:28Z</time>
  <sat>9</sat>
</trkpt>
<trkpt lat="39.746479000" lon="-0.307317000">
  <ele>179.500000</ele>
  <time>2012-03-25T08:03:31Z</time>
  <sat>9</sat>
</trkpt>
<trkpt lat="39.746492000" lon="-0.307209000">
  <ele>179.000000</ele>
  <time>2012-03-25T08:03:34Z</time>
  <sat>9</sat>
</trkpt>
<trkpt lat="39.746465000" lon="-0.307095000">
  <ele>177.300000</ele>
  <time>2012-03-25T08:03:37Z</time>
  <sat>9</sat>
</trkpt>
<trkpt lat="39.746459000" lon="-0.306989000">
  <ele>175.800000</ele>
  <time>2012-03-25T08:03:40Z</time>
  <sat>8</sat>
</trkpt>
<trkpt lat="39.746453000" lon="-0.306895000">
  <ele>175.600000</ele>
  <time>2012-03-25T08:03:43Z</time>
  <sat>9</sat>
</trkpt>
<trkpt lat="39.746475000" lon="-0.306796000">
  <ele>175.100000</ele>
  <time>2012-03-25T08:03:46Z</time>
  <sat>9</sat>
</trkpt>
<trkpt lat="39.746468000" lon="-0.306690000">
  <ele>175.000000</ele>
  <time>2012-03-25T08:03:49Z</time>
  <sat>9</sat>
</trkpt>
<trkpt lat="39.746438000" lon="-0.306593000">
  <ele>174.600000</ele>
  <time>2012-03-25T08:03:52Z</time>
  <sat>9</sat>
</trkpt>
<trkpt lat="39.746406000" lon="-0.306517000">
  <ele>173.100000</ele>
  <time>2012-03-25T08:03:55Z</time>
  <sat>6</sat>
</trkpt>
<trkpt lat="39.746354000" lon="-0.306427000">
  <ele>170.600000</ele>
  <time>2012-03-25T08:03:58Z</time>
  <sat>6</sat>
</trkpt>
<trkpt lat="39.746314000" lon="-0.306360000">
  <ele>169.300000</ele>
  <time>2012-03-25T08:04:00Z</time>
  <sat>6</sat>
</trkpt>
<trkpt lat="39.746252000" lon="-0.306284000">
  <ele>167.800000</ele>
  <time>2012-03-25T08:04:03Z</time>
  <sat>8</sat>
</trkpt>
<trkpt lat="39.746206000" lon="-0.306221000">
  <ele>166.800000</ele>
  <time>2012-03-25T08:04:06Z</time>
  <sat>8</sat>
</trkpt>
<trkpt lat="39.746178000" lon="-0.306139000">
  <ele>166.100000</ele>
  <time>2012-03-25T08:04:09Z</time>
  <sat>7</sat>
</trkpt>
<trkpt lat="39.746130000" lon="-0.306068000">
  <ele>165.600000</ele>
  <time>2012-03-25T08:04:12Z</time>
  <sat>8</sat>
</trkpt>
<trkpt lat="39.746058000" lon="-0.306126000">
  <ele>165.000000</ele>
  <time>2012-03-25T08:04:15Z</time>
  <sat>8</sat>
</trkpt>
<trkpt lat="39.745992000" lon="-0.306255000">
  <ele>165.100000</ele>
  <time>2012-03-25T08:04:18Z</time>
  <sat>8</sat>
</trkpt>
<trkpt lat="39.745916000" lon="-0.306338000">
  <ele>165.600000</ele>
  <time>2012-03-25T08:04:21Z</time>
  <sat>8</sat>
</trkpt>
<trkpt lat="39.745824000" lon="-0.306406000">
  <ele>164.300000</ele>
  <time>2012-03-25T08:04:24Z</time>
  <sat>8</sat>
</trkpt>
<trkpt lat="39.745792000" lon="-0.306425000">
  <ele>164.300000</ele>
  <time>2012-03-25T08:04:25Z</time>
  <sat>8</sat>
</trkpt>
<trkpt lat="39.745677000" lon="-0.306370000">
  <ele>162.600000</ele>
  <time>2012-03-25T08:04:30Z</time>
  <sat>7</sat>
</trkpt>
<trkpt lat="39.745609000" lon="-0.306322000">
  <ele>161.100000</ele>
  <time>2012-03-25T08:04:33Z</time>
  <sat>8</sat>
</trkpt>
<trkpt lat="39.745548000" lon="-0.306277000">
  <ele>158.800000</ele>
  <time>2012-03-25T08:04:36Z</time>
  <sat>9</sat>
</trkpt>
<trkpt lat="39.745512000" lon="-0.306238000">
  <ele>159.100000</ele>
  <time>2012-03-25T08:04:38Z</time>
  <sat>9</sat>
</trkpt>
<trkpt lat="39.745466000" lon="-0.306180000">
  <ele>159.300000</ele>
  <time>2012-03-25T08:04:41Z</time>
  <sat>9</sat>
</trkpt>
<trkpt lat="39.745451000" lon="-0.306161000">
  <ele>159.300000</ele>
  <time>2012-03-25T08:04:42Z</time>
  <sat>9</sat>
</trkpt>
<trkpt lat="39.745287000" lon="-0.305922000">
  <ele>141.000000</ele>
  <time>2012-03-25T01:44:01Z</time>
</trkpt>
<trkpt lat="39.745219000" lon="-0.305830000">
  <ele>139.500000</ele>
  <time>2012-01-22T14:00:53Z</time>
</trkpt>
<trkpt lat="39.745183000" lon="-0.305703000">
  <ele>138.400000</ele>
</trkpt>
<trkpt lat="39.745305000" lon="-0.305570000">
  <ele>139.500000</ele>
</trkpt>
<trkpt lat="39.745186000" lon="-0.305558000">
  <ele>137.800000</ele>
  <time>1995-10-20T00:08:05Z</time>
</trkpt>
<trkpt lat="39.745082000" lon="-0.305365000">
  <ele>135.500000</ele>
  </trkpt>
<trkpt lat="39.744919000" lon="-0.305423000">
  <ele>134.000000</ele>
</trkpt>
<trkpt lat="39.744789000" lon="-0.305513000">
  <ele>132.600000</ele>
</trkpt>
<trkpt lat="39.744619000" lon="-0.305571000">
  <ele>130.500000</ele>
</trkpt>
<trkpt lat="39.744521000" lon="-0.305626000">
  <ele>131.600000</ele>
</trkpt>
<trkpt lat="39.744437000" lon="-0.305724000">
  <ele>133.700000</ele>
</trkpt>
<trkpt lat="39.744374000" lon="-0.305829000">
  <ele>135.200000</ele>
</trkpt>
<trkpt lat="39.744245000" lon="-0.306067000">
  <ele>119.800000</ele>
  <time>2012-03-25T08:06:37Z</time>
  <sat>7</sat>
</trkpt>
<trkpt lat="39.744236000" lon="-0.306069000">
  <ele>121.300000</ele>
  <time>2012-03-25T08:06:40Z</time>
  <sat>8</sat>
</trkpt>
<trkpt lat="39.744241000" lon="-0.306051000">
  <ele>124.000000</ele>
  <time>2012-03-25T08:06:43Z</time>
  <sat>8</sat>
</trkpt>
<trkpt lat="39.744238000" lon="-0.306042000">
  <ele>125.500000</ele>
  <time>2012-03-25T08:06:46Z</time>
  <sat>8</sat>
</trkpt>
<trkpt lat="39.744242000" lon="-0.306047000">
  <ele>125.100000</ele>
  <time>2012-03-25T08:06:49Z</time>
  <sat>8</sat>
</trkpt>
<trkpt lat="39.744246000" lon="-0.306057000">
  <ele>124.000000</ele>
  <time>2012-03-25T08:06:52Z</time>
  <sat>8</sat>
</trkpt>
<trkpt lat="39.744248000" lon="-0.306060000">
  <ele>122.100000</ele>
  <time>2012-03-25T08:06:55Z</time>
  <sat>8</sat>
</trkpt>
<trkpt lat="39.744256000" lon="-0.306057000">
  <ele>121.300000</ele>
  <time>2012-03-25T08:06:58Z</time>
  <sat>7</sat>
</trkpt>
<trkpt lat="39.744258000" lon="-0.306056000">
  <ele>121.300000</ele>
  <time>2012-03-25T08:07:00Z</time>
  <sat>7</sat>
</trkpt>
<trkpt lat="39.744258000" lon="-0.306056000">
  <ele>121.400000</ele>
  <time>2012-03-25T08:07:03Z</time>
  <sat>8</sat>
</trkpt>
<trkpt lat="39.744258000" lon="-0.306055000">
  <ele>121.400000</ele>
  <time>2012-03-25T08:07:06Z</time>
  <sat>8</sat>
</trkpt>
<trkpt lat="39.744258000" lon="-0.306055000">
  <ele>121.400000</ele>
  <time>2012-03-25T08:07:09Z</time>
  <sat>8</sat>
</trkpt>
<trkpt lat="39.744293000" lon="-0.306020000">
  <ele>124.900000</ele>
  <time>2012-03-25T08:07:12Z</time>
  <sat>8</sat>
</trkpt>
<trkpt lat="39.744294000" lon="-0.306026000">
  <ele>124.500000</ele>
  <time>2012-03-25T08:07:15Z</time>
  <sat>8</sat>
</trkpt>
<trkpt lat="39.744291000" lon="-0.306035000">
  <ele>123.500000</ele>
  <time>2012-03-25T08:07:18Z</time>
  <sat>8</sat>
</trkpt>
<trkpt lat="39.744287000" lon="-0.306041000">
  <ele>122.800000</ele>
  <time>2012-03-25T08:07:21Z</time>
  <sat>7</sat>
</trkpt>
<trkpt lat="39.744285000" lon="-0.306045000">
  <ele>122.500000</ele>
  <time>2012-03-25T08:07:24Z</time>
  <sat>8</sat>
</trkpt>
<trkpt lat="39.744285000" lon="-0.306046000">
  <ele>122.500000</ele>
  <time>2012-03-25T08:07:27Z</time>
  <sat>8</sat>
</trkpt>
<trkpt lat="39.744285000" lon="-0.306046000">
  <ele>122.500000</ele>
  <time>2012-03-25T08:07:30Z</time>
  <sat>8</sat>
</trkpt>
<trkpt lat="39.744285000" lon="-0.306046000">
  <ele>122.500000</ele>
  <time>2012-03-25T08:07:33Z</time>
  <sat>8</sat>
</trkpt>
<trkpt lat="39.744285000" lon="-0.306046000">
  <ele>122.500000</ele>
  <time>2012-03-25T08:07:36Z</time>
  <sat>8</sat>
</trkpt>
<trkpt lat="39.744285000" lon="-0.306046000">
  <ele>122.500000</ele>
  <time>2012-03-25T08:07:39Z</time>
  <sat>8</sat>
</trkpt>
<trkpt lat="39.744285000" lon="-0.306046000">
  <ele>122.500000</ele>
  <time>2012-03-25T08:07:40Z</time>
  <sat>8</sat>
</trkpt>
<trkpt lat="39.744271000" lon="-0.306037000">
  <ele>122.800000</ele>
  <time>2012-03-25T08:07:45Z</time>
  <sat>8</sat>
</trkpt>
<trkpt lat="39.744259000" lon="-0.306015000">
  <ele>123.300000</ele>
  <time>2012-03-25T08:07:48Z</time>
  <sat>8</sat>
</trkpt>
<trkpt lat="39.744259000" lon="-0.306016000">
  <ele>123.500000</ele>
  <time>2012-03-25T08:07:51Z</time>
  <sat>8</sat>
</trkpt>
<trkpt lat="39.744256000" lon="-0.306018000">
  <ele>124.100000</ele>
  <time>2012-03-25T08:07:54Z</time>
  <sat>8</sat>
</trkpt>
<trkpt lat="39.744252000" lon="-0.306016000">
  <ele>124.900000</ele>
  <time>2012-03-25T08:07:57Z</time>
  <sat>7</sat>
</trkpt>
<trkpt lat="39.744252000" lon="-0.306016000">
  <ele>124.900000</ele>
  <time>2012-03-25T08:07:59Z</time>
  <sat>7</sat>
</trkpt>
<trkpt lat="39.744252000" lon="-0.306016000">
  <ele>124.900000</ele>
  <time>2012-03-25T08:08:01Z</time>
  <sat>7</sat>
</trkpt>
<trkpt lat="39.744252000" lon="-0.306016000">
  <ele>124.900000</ele>
  <time>2012-03-25T08:08:04Z</time>
  <sat>8</sat>
</trkpt>
<trkpt lat="39.744252000" lon="-0.306016000">
  <ele>124.900000</ele>
  <time>2012-03-25T08:08:07Z</time>
  <sat>8</sat>
</trkpt>
<trkpt lat="39.744224000" lon="-0.305973000">
  <ele>124.600000</ele>
  <time>2012-03-25T08:08:10Z</time>
  <sat>7</sat>
</trkpt>
<trkpt lat="39.744217000" lon="-0.305823000">
  <ele>124.500000</ele>
  <time>2012-03-25T08:08:13Z</time>
  <sat>7</sat>
</trkpt>
<trkpt lat="39.744223000" lon="-0.305653000">
  <ele>124.000000</ele>
  <time>2012-03-25T08:08:16Z</time>
  <sat>8</sat>
</trkpt>
<trkpt lat="39.744231000" lon="-0.305465000">
  <ele>124.000000</ele>
  <time>2012-03-25T08:08:19Z</time>
  <sat>8</sat>
</trkpt>
<trkpt lat="39.744228000" lon="-0.305248000">
  <ele>125.000000</ele>
  <time>2012-03-25T08:08:22Z</time>
  <sat>8</sat>
</trkpt>
<trkpt lat="39.744205000" lon="-0.305021000">
  <ele>125.300000</ele>
  <time>2012-03-25T08:08:25Z</time>
  <sat>7</sat>
</trkpt>
<trkpt lat="39.744201000" lon="-0.304774000">
  <ele>124.100000</ele>
  <time>2012-03-25T08:08:28Z</time>
  <sat>7</sat>
</trkpt>
<trkpt lat="39.744186000" lon="-0.304527000">
  <ele>123.400000</ele>
  <time>2012-03-25T08:08:31Z</time>
  <sat>8</sat>
</trkpt>
<trkpt lat="39.744166000" lon="-0.304283000">
  <ele>121.000000</ele>
  <time>2012-03-25T08:08:34Z</time>
  <sat>8</sat>
</trkpt>
<trkpt lat="39.744144000" lon="-0.304037000">
  <ele>120.000000</ele>
  <time>2012-03-25T08:08:37Z</time>
  <sat>8</sat>
</trkpt>
<trkpt lat="39.744121000" lon="-0.303782000">
  <ele>117.800000</ele>
  <time>2012-03-25T08:08:40Z</time>
  <sat>8</sat>
</trkpt>
<trkpt lat="39.744106000" lon="-0.303526000">
  <ele>115.500000</ele>
  <time>2012-03-25T08:08:43Z</time>
  <sat>8</sat>
</trkpt>
<trkpt lat="39.744102000" lon="-0.303438000">
  <ele>115.400000</ele>
  <time>2012-03-25T08:08:44Z</time>
  <sat>8</sat>
</trkpt>
<trkpt lat="39.744116000" lon="-0.303014000">
  <ele>112.900000</ele>
  <time>2012-03-25T08:08:49Z</time>
  <sat>8</sat>
</trkpt>
<trkpt lat="39.744141000" lon="-0.302779000">
  <ele>112.800000</ele>
  <time>2012-03-25T08:08:52Z</time>
  <sat>8</sat>
</trkpt>
<trkpt lat="39.744182000" lon="-0.302555000">
  <ele>112.400000</ele>
  <time>2012-03-25T08:08:55Z</time>
  <sat>8</sat>
</trkpt>
<trkpt lat="39.744232000" lon="-0.302330000">
  <ele>111.900000</ele>
  <time>2012-03-25T08:08:58Z</time>
  <sat>8</sat>
</trkpt>
<trkpt lat="39.744276000" lon="-0.302190000">
  <ele>111.100000</ele>
  <time>2012-03-25T08:09:00Z</time>
  <sat>8</sat>
</trkpt>
<trkpt lat="39.744318000" lon="-0.301961000">
  <ele>110.300000</ele>
  <time>2012-03-25T08:09:03Z</time>
  <sat>8</sat>
</trkpt>
<trkpt lat="39.744370000" lon="-0.301739000">
  <ele>109.900000</ele>
  <time>2012-03-25T08:09:06Z</time>
  <sat>8</sat>
</trkpt>
<trkpt lat="39.744417000" lon="-0.301528000">
  <ele>109.400000</ele>
  <time>2012-03-25T08:09:09Z</time>
  <sat>8</sat>
</trkpt>
<trkpt lat="39.744480000" lon="-0.301346000">
  <ele>109.400000</ele>
  <time>2012-03-25T08:09:12Z</time>
  <sat>8</sat>
</trkpt>
<trkpt lat="39.744554000" lon="-0.301175000">
  <ele>109.000000</ele>
  <time>2012-03-25T08:09:15Z</time>
  <sat>8</sat>
</trkpt>
<trkpt lat="39.744629000" lon="-0.301024000">
  <ele>108.600000</ele>
  <time>2012-03-25T08:09:18Z</time>
  <sat>8</sat>
</trkpt>
<trkpt lat="39.744670000" lon="-0.300912000">
  <ele>108.800000</ele>
  <time>2012-03-25T08:09:21Z</time>
  <sat>8</sat>
</trkpt>
<trkpt lat="39.744634000" lon="-0.300814000">
  <ele>108.900000</ele>
  <time>2012-03-25T08:09:24Z</time>
  <sat>8</sat>
</trkpt>
<trkpt lat="39.744571000" lon="-0.300752000">
  <ele>109.500000</ele>
  <time>2012-03-25T08:09:27Z</time>
  <sat>8</sat>
</trkpt>
<trkpt lat="39.744488000" lon="-0.300709000">
  <ele>111.400000</ele>
  <time>2012-03-25T08:09:30Z</time>
  <sat>8</sat>
</trkpt>
<trkpt lat="39.744422000" lon="-0.300709000">
  <ele>112.400000</ele>
  <time>2012-03-25T08:09:33Z</time>
  <sat>8</sat>
</trkpt>
<trkpt lat="39.744372000" lon="-0.300788000">
  <ele>113.100000</ele>
  <time>2012-03-25T08:09:36Z</time>
  <sat>8</sat>
</trkpt>
<trkpt lat="39.744319000" lon="-0.300859000">
  <ele>113.600000</ele>
  <time>2012-03-25T08:09:39Z</time>
  <sat>8</sat>
</trkpt>
<trkpt lat="39.744274000" lon="-0.300928000">
  <ele>113.500000</ele>
  <time>2012-03-25T08:09:42Z</time>
  <sat>8</sat>
</trkpt>
<trkpt lat="39.744215000" lon="-0.300985000">
  <ele>113.800000</ele>
  <time>2012-03-25T08:09:45Z</time>
  <sat>8</sat>
</trkpt>
<trkpt lat="39.744194000" lon="-0.301005000">
  <ele>113.600000</ele>
  <time>2012-03-25T08:09:46Z</time>
  <sat>8</sat>
</trkpt>
<trkpt lat="39.744080000" lon="-0.301096000">
  <ele>114.500000</ele>
  <time>2012-03-25T08:09:51Z</time>
  <sat>8</sat>
</trkpt>
<trkpt lat="39.744009000" lon="-0.301142000">
  <ele>115.100000</ele>
  <time>2012-03-25T08:09:54Z</time>
  <sat>8</sat>
</trkpt>
<trkpt lat="39.743931000" lon="-0.301185000">
  <ele>116.000000</ele>
  <time>2012-03-25T08:09:57Z</time>
  <sat>8</sat>
</trkpt>
<trkpt lat="39.743880000" lon="-0.301213000">
  <ele>116.800000</ele>
  <time>2012-03-25T08:09:59Z</time>
  <sat>8</sat>
</trkpt>
<trkpt lat="39.743829000" lon="-0.301246000">
  <ele>116.000000</ele>
  <time>2012-03-25T08:10:01Z</time>
  <sat>8</sat>
</trkpt>
<trkpt lat="39.743748000" lon="-0.301294000">
  <ele>116.800000</ele>
  <time>2012-03-25T08:10:04Z</time>
  <sat>8</sat>
</trkpt>
<trkpt lat="39.743661000" lon="-0.301338000">
  <ele>117.000000</ele>
  <time>2012-03-25T08:10:07Z</time>
  <sat>8</sat>
</trkpt>
<trkpt lat="39.743570000" lon="-0.301368000">
  <ele>118.000000</ele>
  <time>2012-03-25T08:10:10Z</time>
  <sat>8</sat>
</trkpt>
<trkpt lat="39.743472000" lon="-0.301412000">
  <ele>118.400000</ele>
  <time>2012-03-25T08:10:13Z</time>
  <sat>8</sat>
</trkpt>
<trkpt lat="39.743385000" lon="-0.301464000">
  <ele>118.800000</ele>
  <time>2012-03-25T08:10:16Z</time>
  <sat>8</sat>
</trkpt>
<trkpt lat="39.743302000" lon="-0.301504000">
  <ele>119.000000</ele>
  <time>2012-03-25T08:10:19Z</time>
  <sat>8</sat>
</trkpt>
<trkpt lat="39.743215000" lon="-0.301529000">
  <ele>120.000000</ele>
  <time>2012-03-25T08:10:22Z</time>
  <sat>8</sat>
</trkpt>
<trkpt lat="39.743138000" lon="-0.301579000">
  <ele>119.500000</ele>
  <time>2012-03-25T08:10:25Z</time>
  <sat>8</sat>
</trkpt>
<trkpt lat="39.743063000" lon="-0.301627000">
  <ele>120.500000</ele>
  <time>2012-03-25T08:10:28Z</time>
  <sat>8</sat>
</trkpt>
<trkpt lat="39.742990000" lon="-0.301683000">
  <ele>121.000000</ele>
  <time>2012-03-25T08:10:31Z</time>
  <sat>8</sat>
</trkpt>
<trkpt lat="39.742926000" lon="-0.301699000">
  <ele>121.500000</ele>
  <time>2012-03-25T08:10:34Z</time>
  <sat>8</sat>
</trkpt>
<trkpt lat="39.742856000" lon="-0.301694000">
  <ele>122.500000</ele>
  <time>2012-03-25T08:10:37Z</time>
  <sat>8</sat>
</trkpt>
<trkpt lat="39.742796000" lon="-0.301689000">
  <ele>123.300000</ele>
  <time>2012-03-25T08:10:40Z</time>
  <sat>8</sat>
</trkpt>
<trkpt lat="39.742725000" lon="-0.301662000">
  <ele>124.600000</ele>
  <time>2012-03-25T08:10:43Z</time>
  <sat>8</sat>
</trkpt>
<trkpt lat="39.742655000" lon="-0.301638000">
  <ele>124.600000</ele>
  <time>2012-03-25T08:10:46Z</time>
  <sat>8</sat>
</trkpt>
<trkpt lat="39.742633000" lon="-0.301621000">
  <ele>125.000000</ele>
  <time>2012-03-25T08:10:47Z</time>
  <sat>8</sat>
</trkpt>
<trkpt lat="39.742547000" lon="-0.301533000">
  <ele>126.100000</ele>
  <time>2012-03-25T08:10:52Z</time>
  <sat>8</sat>
</trkpt>
<trkpt lat="39.742516000" lon="-0.301458000">
  <ele>127.100000</ele>
  <time>2012-03-25T08:10:55Z</time>
  <sat>8</sat>
</trkpt>
<trkpt lat="39.742484000" lon="-0.301384000">
  <ele>129.100000</ele>
  <time>2012-03-25T08:10:58Z</time>
  <sat>8</sat>
</trkpt>
<trkpt lat="39.742473000" lon="-0.301320000">
  <ele>130.100000</ele>
  <time>2012-03-25T08:11:00Z</time>
  <sat>8</sat>
</trkpt>
<trkpt lat="39.742444000" lon="-0.301231000">
  <ele>131.100000</ele>
  <time>2012-03-25T08:11:03Z</time>
  <sat>8</sat>
</trkpt>
<trkpt lat="39.742392000" lon="-0.301166000">
  <ele>131.100000</ele>
  <time>2012-03-25T08:11:06Z</time>
  <sat>7</sat>
</trkpt>
<trkpt lat="39.742360000" lon="-0.301083000">
  <ele>131.100000</ele>
  <time>2012-03-25T08:11:09Z</time>
  <sat>7</sat>
</trkpt>
<trkpt lat="39.742338000" lon="-0.300985000">
  <ele>131.100000</ele>
  <time>2012-03-25T08:11:12Z</time>
  <sat>6</sat>
</trkpt>
<trkpt lat="39.742306000" lon="-0.300876000">
  <ele>132.300000</ele>
  <time>2012-03-25T08:11:15Z</time>
  <sat>6</sat>
</trkpt>
<trkpt lat="39.742297000" lon="-0.300792000">
  <ele>132.000000</ele>
  <time>2012-03-25T08:11:18Z</time>
  <sat>6</sat>
</trkpt>
<trkpt lat="39.742300000" lon="-0.300701000">
  <ele>133.600000</ele>
  <time>2012-03-25T08:11:21Z</time>
  <sat>6</sat>
</trkpt>
<trkpt lat="39.742341000" lon="-0.300604000">
  <ele>133.500000</ele>
  <time>2012-03-25T08:11:24Z</time>
  <sat>8</sat>
</trkpt>
<trkpt lat="39.742378000" lon="-0.300510000">
  <ele>133.300000</ele>
  <time>2012-03-25T08:11:27Z</time>
  <sat>8</sat>
</trkpt>
<trkpt lat="39.742373000" lon="-0.300417000">
  <ele>134.100000</ele>
  <time>2012-03-25T08:11:30Z</time>
  <sat>8</sat>
</trkpt>
<trkpt lat="39.742344000" lon="-0.300356000">
  <ele>136.000000</ele>
  <time>2012-03-25T08:11:33Z</time>
  <sat>9</sat>
</trkpt>
<trkpt lat="39.742331000" lon="-0.300254000">
  <ele>139.600000</ele>
  <time>2012-03-25T08:11:36Z</time>
  <sat>9</sat>
</trkpt>
<trkpt lat="39.742289000" lon="-0.300168000">
  <ele>140.000000</ele>
  <time>2012-03-25T08:11:39Z</time>
  <sat>9</sat>
</trkpt>
<trkpt lat="39.742200000" lon="-0.300121000">
  <ele>140.800000</ele>
  <time>2012-03-25T08:11:42Z</time>
  <sat>9</sat>
</trkpt>
<trkpt lat="39.742101000" lon="-0.300137000">
  <ele>140.300000</ele>
  <time>2012-03-25T08:11:45Z</time>
  <sat>9</sat>
</trkpt>
<trkpt lat="39.742068000" lon="-0.300221000">
  <ele>140.300000</ele>
  <time>2012-03-25T08:11:48Z</time>
  <sat>8</sat>
</trkpt>
<trkpt lat="39.742054000" lon="-0.300245000">
  <ele>139.800000</ele>
  <time>2012-03-25T08:11:49Z</time>
  <sat>8</sat>
</trkpt>
<trkpt lat="39.741984000" lon="-0.300345000">
  <ele>141.000000</ele>
  <time>2012-03-25T08:11:54Z</time>
  <sat>8</sat>
</trkpt>
<trkpt lat="39.741948000" lon="-0.300417000">
  <ele>141.600000</ele>
  <time>2012-03-25T08:11:57Z</time>
  <sat>8</sat>
</trkpt>
<trkpt lat="39.741911000" lon="-0.300458000">
  <ele>142.100000</ele>
  <time>2012-03-25T08:11:59Z</time>
  <sat>8</sat>
</trkpt>
<trkpt lat="39.741874000" lon="-0.300470000">
  <ele>143.000000</ele>
  <time>2012-03-25T08:12:01Z</time>
  <sat>8</sat>
</trkpt>
<trkpt lat="39.741816000" lon="-0.300509000">
  <ele>142.800000</ele>
  <time>2012-03-25T08:12:04Z</time>
  <sat>8</sat>
</trkpt>
<trkpt lat="39.741753000" lon="-0.300544000">
  <ele>142.600000</ele>
  <time>2012-03-25T08:12:07Z</time>
  <sat>8</sat>
</trkpt>
<trkpt lat="39.741693000" lon="-0.300592000">
  <ele>143.000000</ele>
  <time>2012-03-25T08:12:10Z</time>
  <sat>7</sat>
</trkpt>
<trkpt lat="39.741628000" lon="-0.300621000">
  <ele>144.300000</ele>
  <time>2012-03-25T08:12:13Z</time>
  <sat>8</sat>
</trkpt>
<trkpt lat="39.741580000" lon="-0.300674000">
  <ele>145.100000</ele>
  <time>2012-03-25T08:12:16Z</time>
  <sat>8</sat>
</trkpt>
<trkpt lat="39.741547000" lon="-0.300752000">
  <ele>146.300000</ele>
  <time>2012-03-25T08:12:19Z</time>
  <sat>9</sat>
</trkpt>
<trkpt lat="39.741522000" lon="-0.300828000">
  <ele>147.300000</ele>
  <time>2012-03-25T08:12:22Z</time>
  <sat>9</sat>
</trkpt>
<trkpt lat="39.741494000" lon="-0.300902000">
  <ele>147.000000</ele>
  <time>2012-03-25T08:12:25Z</time>
  <sat>9</sat>
</trkpt>
<trkpt lat="39.741474000" lon="-0.300973000">
  <ele>146.800000</ele>
  <time>2012-03-25T08:12:28Z</time>
  <sat>8</sat>
</trkpt>
<trkpt lat="39.741448000" lon="-0.301070000">
  <ele>147.000000</ele>
  <time>2012-03-25T08:12:32Z</time>
  <sat>8</sat>
</trkpt>
<trkpt lat="39.741441000" lon="-0.301094000">
  <ele>147.000000</ele>
  <time>2012-03-25T08:12:33Z</time>
  <sat>8</sat>
</trkpt>
<trkpt lat="39.741431000" lon="-0.301368000">
  <ele>158.400000</ele>
</trkpt>
<trkpt lat="39.741289000" lon="-0.301520000">
  <ele>161.800000</ele>
</trkpt>
<trkpt lat="39.741213000" lon="-0.301754000">
  <ele>164.100000</ele>
</trkpt>
<trkpt lat="39.741204000" lon="-0.302028000">
  <ele>165.000000</ele>
</trkpt>
<trkpt lat="39.741322000" lon="-0.302233000">
  <ele>163.100000</ele>
  <time>1997-12-31T22:14:41Z</time>
</trkpt>
<trkpt lat="39.741345000" lon="-0.302548000">
  <ele>164.100000</ele>
</trkpt>
<trkpt lat="39.741240000" lon="-0.302909000">
  <ele>167.100000</ele>
</trkpt>
<trkpt lat="39.741131000" lon="-0.303081000">
  <ele>169.500000</ele>
</trkpt>
<trkpt lat="39.741093000" lon="-0.303545000">
  <ele>171.000000</ele>
  <time>2031-01-06T13:56:15Z</time>
</trkpt>
<trkpt lat="39.741341000" lon="-0.303746000">
  <ele>170.400000</ele>
</trkpt>
<trkpt lat="39.741797000" lon="-0.303854000">
  <ele>168.200000</ele>
</trkpt>
<trkpt lat="39.741921000" lon="-0.304290000">
  <ele>169.700000</ele>
</trkpt>
<trkpt lat="39.741960000" lon="-0.304583000">
  <ele>171.100000</ele>
</trkpt>
<trkpt lat="39.741952000" lon="-0.304920000">
  <ele>169.100000</ele>
  </trkpt>
<trkpt lat="39.741892000" lon="-0.305132000">
  <ele>167.800000</ele>
</trkpt>
<trkpt lat="39.741731000" lon="-0.305201000">
  <ele>167.400000</ele>
</trkpt>
<trkpt lat="39.741519000" lon="-0.305147000">
  <ele>167.800000</ele>
</trkpt>
<trkpt lat="39.741176000" lon="-0.305034000">
  <ele>168.700000</ele>
</trkpt>
<trkpt lat="39.740863000" lon="-0.304836000">
  <ele>169.300000</ele>
</trkpt>
<trkpt lat="39.740744000" lon="-0.304588000">
  <ele>169.600000</ele>
</trkpt>
<trkpt lat="39.740657000" lon="-0.304319000">
  <ele>170.200000</ele>
</trkpt>
<trkpt lat="39.740554000" lon="-0.304092000">
  <ele>171.000000</ele>
  <time>2036-06-10T22:05:03Z</time>
</trkpt>
<trkpt lat="39.740437000" lon="-0.303928000">
  <ele>171.900000</ele>
</trkpt>
<trkpt lat="39.740238000" lon="-0.303768000">
  <ele>173.600000</ele>
</trkpt>
<trkpt lat="39.740074000" lon="-0.303690000">
  <ele>174.700000</ele>
</trkpt>
<trkpt lat="39.739904000" lon="-0.303361000">
  <ele>177.400000</ele>
  <time>1994-05-23T07:07:47Z</time>
</trkpt>
<trkpt lat="39.739865000" lon="-0.303089000">
  <ele>179.200000</ele>
</trkpt>
<trkpt lat="39.739779000" lon="-0.302861000">
  <ele>180.600000</ele>
</trkpt>
<trkpt lat="39.739774000" lon="-0.302630000">
  <ele>182.100000</ele>
</trkpt>
<trkpt lat="39.739800000" lon="-0.302377000">
  <ele>183.600000</ele>
  </trkpt>
<trkpt lat="39.739795000" lon="-0.302167000">
  <ele>185.000000</ele>
</trkpt>
<trkpt lat="39.739756000" lon="-0.301853000">
  <ele>187.100000</ele>
</trkpt>
<trkpt lat="39.739686000" lon="-0.301646000">
  <ele>189.000000</ele>
</trkpt>
<trkpt lat="39.739600000" lon="-0.301439000">
  <ele>191.300000</ele>
</trkpt>
<trkpt lat="39.739451000" lon="-0.301298000">
  <ele>194.500000</ele>
</trkpt>
<trkpt lat="39.739250000" lon="-0.301033000">
  <ele>198.400000</ele>
</trkpt>
<trkpt lat="39.739050000" lon="-0.300788000">
  <ele>201.500000</ele>
</trkpt>
<trkpt lat="39.738836000" lon="-0.300692000">
  <ele>204.000000</ele>
</trkpt>
<trkpt lat="39.738654000" lon="-0.300510000">
  <ele>206.200000</ele>
</trkpt>
<trkpt lat="39.738473000" lon="-0.300391000">
  <ele>208.700000</ele>
</trkpt>
<trkpt lat="39.738322000" lon="-0.300186000">
  <ele>211.100000</ele>
</trkpt>
<trkpt lat="39.738173000" lon="-0.300066000">
  <ele>213.300000</ele>
</trkpt>
<trkpt lat="39.737828000" lon="-0.299869000">
  <ele>218.000000</ele>
  </trkpt>
<trkpt lat="39.737742000" lon="-0.299684000">
  <ele>219.000000</ele>
</trkpt>
<trkpt lat="39.737545000" lon="-0.299586000">
  <ele>220.700000</ele>
  </trkpt>
<trkpt lat="39.737303000" lon="-0.299638000">
  <ele>222.300000</ele>
</trkpt>
<trkpt lat="39.737029000" lon="-0.299691000">
  <ele>224.400000</ele>
  <time>1986-04-15T18:54:36Z</time>
</trkpt>
<trkpt lat="39.736853000" lon="-0.299824000">
  <ele>226.100000</ele>
</trkpt>
<trkpt lat="39.736532000" lon="-0.299962000">
  <ele>229.200000</ele>
  <time>1972-05-24T07:39:45Z</time>
</trkpt>
<trkpt lat="39.736194000" lon="-0.300059000">
  <ele>232.100000</ele>
</trkpt>
<trkpt lat="39.735817000" lon="-0.299885000">
  <ele>236.200000</ele>
  </trkpt>
<trkpt lat="39.735553000" lon="-0.299727000">
  <ele>238.700000</ele>
</trkpt>
<trkpt lat="39.735375000" lon="-0.299734000">
  <ele>239.100000</ele>
  <time>1976-03-21T11:06:30Z</time>
</trkpt>
<trkpt lat="39.735187000" lon="-0.300036000">
  <ele>236.600000</ele>
</trkpt>
<trkpt lat="39.735044000" lon="-0.300146000">
  <ele>235.200000</ele>
  <time>2016-03-24T22:24:14Z</time>
</trkpt>
<trkpt lat="39.734903000" lon="-0.300362000">
  <ele>234.200000</ele>
</trkpt>
<trkpt lat="39.734777000" lon="-0.300514000">
  <ele>233.400000</ele>
  <time>1989-10-21T23:14:46Z</time>
</trkpt>
<trkpt lat="39.734512000" lon="-0.300965000">
  <ele>231.500000</ele>
</trkpt>
<trkpt lat="39.734333000" lon="-0.300952000">
  <ele>228.700000</ele>
  <time>2017-07-19T09:58:22Z</time>
</trkpt>
<trkpt lat="39.734056000" lon="-0.300920000">
  <ele>224.300000</ele>
</trkpt>
<trkpt lat="39.733877000" lon="-0.300885000">
  <ele>221.300000</ele>
  </trkpt>
<trkpt lat="39.733650000" lon="-0.300873000">
  <ele>217.000000</ele>
</trkpt>
<trkpt lat="39.733404000" lon="-0.300757000">
  <ele>211.400000</ele>
  <time>1998-04-07T12:11:48Z</time>
</trkpt>
<trkpt lat="39.733175000" lon="-0.300681000">
  <ele>206.600000</ele>
</trkpt>
<trkpt lat="39.732882000" lon="-0.300630000">
  <ele>201.400000</ele>
  <time>2029-01-24T10:19:01Z</time>
</trkpt>
<trkpt lat="39.732686000" lon="-0.300596000">
  <ele>200.700000</ele>
  <time>2011-08-31T01:54:51Z</time>
</trkpt>
<trkpt lat="39.732064000" lon="-0.300368000">
  <ele>199.400000</ele>
  <time>2012-04-01T19:52:48Z</time>
</trkpt>
<trkpt lat="39.731726000" lon="-0.300486000">
  <ele>201.000000</ele>
  <time>2014-11-09T04:25:55Z</time>
</trkpt>
<trkpt lat="39.731533000" lon="-0.300536000">
  <ele>202.100000</ele>
  </trkpt>
<trkpt lat="39.731443000" lon="-0.300140000">
  <ele>205.000000</ele>
</trkpt>
<trkpt lat="39.731255000" lon="-0.299748000">
  <ele>209.600000</ele>
</trkpt>
<trkpt lat="39.731101000" lon="-0.299418000">
  <ele>213.000000</ele>
</trkpt>
<trkpt lat="39.730982000" lon="-0.299149000">
  <ele>216.500000</ele>
</trkpt>
<trkpt lat="39.730925000" lon="-0.298816000">
  <ele>220.700000</ele>
</trkpt>
<trkpt lat="39.731014000" lon="-0.298455000">
  <ele>224.600000</ele>
</trkpt>
<trkpt lat="39.731072000" lon="-0.298159000">
  <ele>228.000000</ele>
</trkpt>
<trkpt lat="39.730902000" lon="-0.297808000">
  <ele>235.500000</ele>
</trkpt>
<trkpt lat="39.731224000" lon="-0.297732000">
  <ele>233.100000</ele>
  <time>2012-03-25T00:55:04Z</time>
</trkpt>
<trkpt lat="39.731279000" lon="-0.297310000">
  <ele>240.500000</ele>
  <time>2012-02-18T11:26:57Z</time>
</trkpt>
<trkpt lat="39.731255000" lon="-0.296954000">
  <ele>247.400000</ele>
  <time>2000-01-07T10:45:43Z</time>
</trkpt>
<trkpt lat="39.731297000" lon="-0.296658000">
  <ele>249.200000</ele>
</trkpt>
<trkpt lat="39.731322000" lon="-0.296363000">
  <ele>251.300000</ele>
</trkpt>
<trkpt lat="39.731382000" lon="-0.296129000">
  <ele>249.000000</ele>
</trkpt>
<trkpt lat="39.731423000" lon="-0.295834000">
  <ele>245.600000</ele>
</trkpt>
<trkpt lat="39.731349000" lon="-0.295416000">
  <ele>246.300000</ele>
</trkpt>
<trkpt lat="39.731243000" lon="-0.295063000">
  <ele>244.800000</ele>
</trkpt>
<trkpt lat="39.731157000" lon="-0.294857000">
  <ele>240.700000</ele>
</trkpt>
<trkpt lat="39.731007000" lon="-0.294653000">
  <ele>236.000000</ele>
</trkpt>
<trkpt lat="39.730811000" lon="-0.294618000">
  <ele>233.200000</ele>
</trkpt>
<trkpt lat="39.730569000" lon="-0.294691000">
  <ele>231.100000</ele>
</trkpt>
<trkpt lat="39.730344000" lon="-0.294762000">
  <ele>228.700000</ele>
</trkpt>
<trkpt lat="39.730167000" lon="-0.294832000">
  <ele>226.400000</ele>
</trkpt>
<trkpt lat="39.729929000" lon="-0.295080000">
  <ele>210.600000</ele>
  <time>2012-03-25T08:33:25Z</time>
  <sat>7</sat>
</trkpt>
<trkpt lat="39.729745000" lon="-0.295128000">
  <ele>208.600000</ele>
  <time>2012-03-25T08:33:28Z</time>
  <sat>8</sat>
</trkpt>
<trkpt lat="39.729579000" lon="-0.295189000">
  <ele>206.300000</ele>
  <time>2012-03-25T08:33:31Z</time>
  <sat>8</sat>
</trkpt>
<trkpt lat="39.729433000" lon="-0.295238000">
  <ele>207.500000</ele>
  <time>2012-03-25T08:33:34Z</time>
  <sat>8</sat>
</trkpt>
<trkpt lat="39.729320000" lon="-0.295261000">
  <ele>207.600000</ele>
  <time>2012-03-25T08:33:37Z</time>
  <sat>8</sat>
</trkpt>
<trkpt lat="39.729208000" lon="-0.295284000">
  <ele>209.100000</ele>
  <time>2012-03-25T08:33:40Z</time>
  <sat>8</sat>
</trkpt>
<trkpt lat="39.729100000" lon="-0.295356000">
  <ele>207.600000</ele>
  <time>2012-03-25T08:33:43Z</time>
  <sat>8</sat>
</trkpt>
<trkpt lat="39.728972000" lon="-0.295401000">
  <ele>206.300000</ele>
  <time>2012-03-25T08:33:46Z</time>
  <sat>7</sat>
</trkpt>
<trkpt lat="39.728843000" lon="-0.295463000">
  <ele>206.500000</ele>
  <time>2012-03-25T08:33:49Z</time>
  <sat>8</sat>
</trkpt>
<trkpt lat="39.728755000" lon="-0.295474000">
  <ele>205.800000</ele>
  <time>2012-03-25T08:33:52Z</time>
  <sat>8</sat>
</trkpt>
<trkpt lat="39.728639000" lon="-0.295510000">
  <ele>205.100000</ele>
  <time>2012-03-25T08:33:55Z</time>
  <sat>8</sat>
</trkpt>
<trkpt lat="39.728534000" lon="-0.295581000">
  <ele>204.300000</ele>
  <time>2012-03-25T08:33:58Z</time>
  <sat>8</sat>
</trkpt>
<trkpt lat="39.728471000" lon="-0.295651000">
  <ele>203.800000</ele>
  <time>2012-03-25T08:34:00Z</time>
  <sat>8</sat>
</trkpt>
<trkpt lat="39.728390000" lon="-0.295767000">
  <ele>203.300000</ele>
  <time>2012-03-25T08:34:03Z</time>
  <sat>8</sat>
</trkpt>
<trkpt lat="39.728336000" lon="-0.295882000">
  <ele>203.600000</ele>
  <time>2012-03-25T08:34:06Z</time>
  <sat>8</sat>
</trkpt>
<trkpt lat="39.728286000" lon="-0.295991000">
  <ele>202.800000</ele>
  <time>2012-03-25T08:34:09Z</time>
  <sat>8</sat>
</trkpt>
<trkpt lat="39.728210000" lon="-0.296056000">
  <ele>203.500000</ele>
  <time>2012-03-25T08:34:12Z</time>
  <sat>8</sat>
</trkpt>
<trkpt lat="39.728104000" lon="-0.296109000">
  <ele>201.800000</ele>
  <time>2012-03-25T08:34:15Z</time>
  <sat>8</sat>
</trkpt>
<trkpt lat="39.727975000" lon="-0.296147000">
  <ele>201.300000</ele>
  <time>2012-03-25T08:34:18Z</time>
  <sat>8</sat>
</trkpt>
<trkpt lat="39.727842000" lon="-0.296194000">
  <ele>200.000000</ele>
  <time>2012-03-25T08:34:21Z</time>
  <sat>8</sat>
</trkpt>
<trkpt lat="39.727712000" lon="-0.296272000">
  <ele>199.100000</ele>
  <time>2012-03-25T08:34:24Z</time>
  <sat>8</sat>
</trkpt>
<trkpt lat="39.727602000" lon="-0.296296000">
  <ele>197.800000</ele>
  <time>2012-03-25T08:34:27Z</time>
  <sat>8</sat>
</trkpt>
<trkpt lat="39.727563000" lon="-0.296287000">
  <ele>197.600000</ele>
  <time>2012-03-25T08:34:28Z</time>
  <sat>8</sat>
</trkpt>
<trkpt lat="39.727316000" lon="-0.296233000">
  <ele>195.600000</ele>
  <time>2012-03-25T08:34:33Z</time>
  <sat>8</sat>
</trkpt>
<trkpt lat="39.727168000" lon="-0.296199000">
  <ele>194.500000</ele>
  <time>2012-03-25T08:34:36Z</time>
  <sat>8</sat>
</trkpt>
<trkpt lat="39.727076000" lon="-0.296205000">
  <ele>194.800000</ele>
  <time>2012-03-25T08:34:39Z</time>
  <sat>8</sat>
</trkpt>
<trkpt lat="39.727023000" lon="-0.296209000">
  <ele>194.300000</ele>
  <time>2012-03-25T08:34:42Z</time>
  <sat>8</sat>
</trkpt>
<trkpt lat="39.726952000" lon="-0.296245000">
  <ele>193.000000</ele>
  <time>2012-03-25T08:34:45Z</time>
  <sat>8</sat>
</trkpt>
<trkpt lat="39.726883000" lon="-0.296307000">
  <ele>192.600000</ele>
  <time>2012-03-25T08:34:48Z</time>
  <sat>7</sat>
</trkpt>
<trkpt lat="39.726801000" lon="-0.296377000">
  <ele>190.800000</ele>
  <time>2012-03-25T08:34:51Z</time>
  <sat>7</sat>
</trkpt>
<trkpt lat="39.726715000" lon="-0.296468000">
  <ele>188.600000</ele>
  <time>2012-03-25T08:34:54Z</time>
  <sat>8</sat>
</trkpt>
<trkpt lat="39.726586000" lon="-0.296541000">
  <ele>187.300000</ele>
  <time>2012-03-25T08:34:57Z</time>
  <sat>8</sat>
</trkpt>
<trkpt lat="39.726508000" lon="-0.296574000">
  <ele>186.100000</ele>
  <time>2012-03-25T08:34:59Z</time>
  <sat>9</sat>
</trkpt>
<trkpt lat="39.726433000" lon="-0.296588000">
  <ele>185.100000</ele>
  <time>2012-03-25T08:35:01Z</time>
  <sat>9</sat>
</trkpt>
<trkpt lat="39.726317000" lon="-0.296575000">
  <ele>184.300000</ele>
  <time>2012-03-25T08:35:04Z</time>
  <sat>9</sat>
</trkpt>
<trkpt lat="39.726243000" lon="-0.296615000">
  <ele>184.800000</ele>
  <time>2012-03-25T08:35:07Z</time>
  <sat>9</sat>
</trkpt>
<trkpt lat="39.726178000" lon="-0.296660000">
  <ele>184.100000</ele>
  <time>2012-03-25T08:35:10Z</time>
  <sat>9</sat>
</trkpt>
<trkpt lat="39.726138000" lon="-0.296688000">
  <ele>184.100000</ele>
  <time>2012-03-25T08:35:13Z</time>
  <sat>9</sat>
</trkpt>
<trkpt lat="39.726114000" lon="-0.296692000">
  <ele>184.100000</ele>
  <time>2012-03-25T08:35:16Z</time>
  <sat>9</sat>
</trkpt>
<trkpt lat="39.726089000" lon="-0.296690000">
  <ele>184.300000</ele>
  <time>2012-03-25T08:35:19Z</time>
  <sat>6</sat>
</trkpt>
<trkpt lat="39.726094000" lon="-0.296675000">
  <ele>183.300000</ele>
  <time>2012-03-25T08:35:22Z</time>
  <sat>10</sat>
</trkpt>
<trkpt lat="39.726105000" lon="-0.296634000">
  <ele>184.300000</ele>
  <time>2012-03-25T08:35:25Z</time>
  <sat>10</sat>
</trkpt>
<trkpt lat="39.726093000" lon="-0.296606000">
  <ele>183.800000</ele>
  <time>2012-03-25T08:35:28Z</time>
  <sat>10</sat>
</trkpt>
<trkpt lat="39.726088000" lon="-0.296590000">
  <ele>184.500000</ele>
  <time>2012-03-25T08:35:29Z</time>
  <sat>10</sat>
</trkpt>
<trkpt lat="39.726100000" lon="-0.296485000">
  <ele>183.800000</ele>
  <time>2012-03-25T08:35:34Z</time>
  <sat>10</sat>
</trkpt>
<trkpt lat="39.726103000" lon="-0.296414000">
  <ele>183.800000</ele>
  <time>2012-03-25T08:35:37Z</time>
  <sat>10</sat>
</trkpt>
<trkpt lat="39.726083000" lon="-0.296339000">
  <ele>185.600000</ele>
  <time>2012-03-25T08:35:40Z</time>
  <sat>9</sat>
</trkpt>
<trkpt lat="39.726067000" lon="-0.296270000">
  <ele>188.100000</ele>
  <time>2012-03-25T08:35:43Z</time>
  <sat>9</sat>
</trkpt>
<trkpt lat="39.726045000" lon="-0.296204000">
  <ele>188.800000</ele>
  <time>2012-03-25T08:35:46Z</time>
  <sat>8</sat>
</trkpt>
<trkpt lat="39.726022000" lon="-0.296139000">
  <ele>191.100000</ele>
  <time>2012-03-25T08:35:49Z</time>
  <sat>9</sat>
</trkpt>
<trkpt lat="39.726009000" lon="-0.296070000">
  <ele>192.000000</ele>
  <time>2012-03-25T08:35:52Z</time>
  <sat>9</sat>
</trkpt>
<trkpt lat="39.725986000" lon="-0.296001000">
  <ele>193.000000</ele>
  <time>2012-03-25T08:35:55Z</time>
  <sat>9</sat>
</trkpt>
<trkpt lat="39.725966000" lon="-0.295935000">
  <ele>193.800000</ele>
  <time>2012-03-25T08:35:58Z</time>
  <sat>9</sat>
</trkpt>
<trkpt lat="39.725952000" lon="-0.295890000">
  <ele>194.000000</ele>
  <time>2012-03-25T08:36:00Z</time>
  <sat>9</sat>
</trkpt>
<trkpt lat="39.725934000" lon="-0.295832000">
  <ele>194.800000</ele>
  <time>2012-03-25T08:36:03Z</time>
  <sat>9</sat>
</trkpt>
<trkpt lat="39.725913000" lon="-0.295762000">
  <ele>195.000000</ele>
  <time>2012-03-25T08:36:06Z</time>
  <sat>9</sat>
</trkpt>
<trkpt lat="39.725898000" lon="-0.295693000">
  <ele>195.800000</ele>
  <time>2012-03-25T08:36:09Z</time>
  <sat>9</sat>
</trkpt>
<trkpt lat="39.725879000" lon="-0.295631000">
  <ele>196.600000</ele>
  <time>2012-03-25T08:36:12Z</time>
  <sat>9</sat>
</trkpt>
<trkpt lat="39.725856000" lon="-0.295570000">
  <ele>197.300000</ele>
  <time>2012-03-25T08:36:15Z</time>
  <sat>9</sat>
</trkpt>
<trkpt lat="39.725838000" lon="-0.295514000">
  <ele>198.600000</ele>
  <time>2012-03-25T08:36:18Z</time>
  <sat>9</sat>
</trkpt>
<trkpt lat="39.725814000" lon="-0.295464000">
  <ele>199.800000</ele>
  <time>2012-03-25T08:36:21Z</time>
  <sat>9</sat>
</trkpt>
<trkpt lat="39.725797000" lon="-0.295414000">
  <ele>199.800000</ele>
  <time>2012-03-25T08:36:24Z</time>
  <sat>9</sat>
</trkpt>
<trkpt lat="39.725790000" lon="-0.295347000">
  <ele>200.300000</ele>
  <time>2012-03-25T08:36:27Z</time>
  <sat>9</sat>
</trkpt>
<trkpt lat="39.725769000" lon="-0.295290000">
  <ele>200.800000</ele>
  <time>2012-03-25T08:36:30Z</time>
  <sat>9</sat>
</trkpt>
<trkpt lat="39.725763000" lon="-0.295266000">
  <ele>201.000000</ele>
  <time>2012-03-25T08:36:31Z</time>
  <sat>9</sat>
</trkpt>
<trkpt lat="39.725732000" lon="-0.295162000">
  <ele>201.300000</ele>
  <time>2012-03-25T08:36:36Z</time>
  <sat>9</sat>
</trkpt>
<trkpt lat="39.725710000" lon="-0.295105000">
  <ele>202.300000</ele>
  <time>2012-03-25T08:36:39Z</time>
  <sat>9</sat>
</trkpt>
<trkpt lat="39.725692000" lon="-0.295045000">
  <ele>203.100000</ele>
  <time>2012-03-25T08:36:42Z</time>
  <sat>9</sat>
</trkpt>
<trkpt lat="39.725668000" lon="-0.294990000">
  <ele>203.800000</ele>
  <time>2012-03-25T08:36:45Z</time>
  <sat>9</sat>
</trkpt>
<trkpt lat="39.725651000" lon="-0.294933000">
  <ele>205.100000</ele>
  <time>2012-03-25T08:36:48Z</time>
  <sat>9</sat>
</trkpt>
<trkpt lat="39.725634000" lon="-0.294869000">
  <ele>205.600000</ele>
  <time>2012-03-25T08:36:51Z</time>
  <sat>9</sat>
</trkpt>
<trkpt lat="39.725618000" lon="-0.294816000">
  <ele>205.800000</ele>
  <time>2012-03-25T08:36:54Z</time>
  <sat>9</sat>
</trkpt>
<trkpt lat="39.725601000" lon="-0.294762000">
  <ele>207.000000</ele>
  <time>2012-03-25T08:36:57Z</time>
  <sat>9</sat>
</trkpt>
<trkpt lat="39.725587000" lon="-0.294717000">
  <ele>207.000000</ele>
  <time>2012-03-25T08:36:59Z</time>
  <sat>9</sat>
</trkpt>
<trkpt lat="39.725581000" lon="-0.294678000">
  <ele>207.100000</ele>
  <time>2012-03-25T08:37:01Z</time>
  <sat>9</sat>
</trkpt>
<trkpt lat="39.725559000" lon="-0.294635000">
  <ele>208.100000</ele>
  <time>2012-03-25T08:37:04Z</time>
  <sat>9</sat>
</trkpt>
<trkpt lat="39.725540000" lon="-0.294594000">
  <ele>208.800000</ele>
  <time>2012-03-25T08:37:07Z</time>
  <sat>9</sat>
</trkpt>
<trkpt lat="39.725509000" lon="-0.294558000">
  <ele>209.800000</ele>
  <time>2012-03-25T08:37:10Z</time>
  <sat>7</sat>
</trkpt>
<trkpt lat="39.725472000" lon="-0.294521000">
  <ele>210.600000</ele>
  <time>2012-03-25T08:37:13Z</time>
  <sat>9</sat>
</trkpt>
<trkpt lat="39.725435000" lon="-0.294475000">
  <ele>212.600000</ele>
  <time>2012-03-25T08:37:16Z</time>
  <sat>9</sat>
</trkpt>
<trkpt lat="39.725411000" lon="-0.294432000">
  <ele>213.300000</ele>
  <time>2012-03-25T08:37:19Z</time>
  <sat>8</sat>
</trkpt>
<trkpt lat="39.725388000" lon="-0.294382000">
  <ele>214.300000</ele>
  <time>2012-03-25T08:37:22Z</time>
  <sat>9</sat>
</trkpt>
<trkpt lat="39.725380000" lon="-0.294323000">
  <ele>214.800000</ele>
  <time>2012-03-25T08:37:25Z</time>
  <sat>9</sat>
</trkpt>
<trkpt lat="39.725371000" lon="-0.294280000">
  <ele>216.300000</ele>
  <time>2012-03-25T08:37:28Z</time>
  <sat>9</sat>
</trkpt>
<trkpt lat="39.725348000" lon="-0.294221000">
  <ele>218.100000</ele>
  <time>2012-03-25T08:37:31Z</time>
  <sat>6</sat>
</trkpt>
<trkpt lat="39.725346000" lon="-0.294202000">
  <ele>218.100000</ele>
  <time>2012-03-25T08:37:32Z</time>
  <sat>6</sat>
</trkpt>
<trkpt lat="39.725336000" lon="-0.294109000">
  <ele>219.300000</ele>
  <time>2012-03-25T08:37:37Z</time>
  <sat>9</sat>
</trkpt>
<trkpt lat="39.725331000" lon="-0.294049000">
  <ele>220.500000</ele>
  <time>2012-03-25T08:37:40Z</time>
  <sat>9</sat>
</trkpt>
<trkpt lat="39.725324000" lon="-0.294005000">
  <ele>222.100000</ele>
  <time>2012-03-25T08:37:43Z</time>
  <sat>9</sat>
</trkpt>
<trkpt lat="39.725316000" lon="-0.293940000">
  <ele>222.800000</ele>
  <time>2012-03-25T08:37:46Z</time>
  <sat>9</sat>
</trkpt>
<trkpt lat="39.725312000" lon="-0.293891000">
  <ele>224.100000</ele>
  <time>2012-03-25T08:37:49Z</time>
  <sat>9</sat>
</trkpt>
<trkpt lat="39.725303000" lon="-0.293835000">
  <ele>224.600000</ele>
  <time>2012-03-25T08:37:52Z</time>
  <sat>9</sat>
</trkpt>
<trkpt lat="39.725302000" lon="-0.293775000">
  <ele>224.800000</ele>
  <time>2012-03-25T08:37:55Z</time>
  <sat>7</sat>
</trkpt>
<trkpt lat="39.725301000" lon="-0.293726000">
  <ele>225.000000</ele>
  <time>2012-03-25T08:37:58Z</time>
  <sat>7</sat>
</trkpt>
<trkpt lat="39.725303000" lon="-0.293692000">
  <ele>226.100000</ele>
  <time>2012-03-25T08:38:00Z</time>
  <sat>9</sat>
</trkpt>
<trkpt lat="39.725297000" lon="-0.293632000">
  <ele>227.800000</ele>
  <time>2012-03-25T08:38:03Z</time>
  <sat>9</sat>
</trkpt>
<trkpt lat="39.725287000" lon="-0.293574000">
  <ele>228.600000</ele>
  <time>2012-03-25T08:38:06Z</time>
  <sat>9</sat>
</trkpt>
<trkpt lat="39.725283000" lon="-0.293519000">
  <ele>229.800000</ele>
  <time>2012-03-25T08:38:09Z</time>
  <sat>9</sat>
</trkpt>
<trkpt lat="39.725275000" lon="-0.293466000">
  <ele>231.100000</ele>
  <time>2012-03-25T08:38:12Z</time>
  <sat>9</sat>
</trkpt>
<trkpt lat="39.725276000" lon="-0.293421000">
  <ele>231.800000</ele>
  <time>2012-03-25T08:38:15Z</time>
  <sat>9</sat>
</trkpt>
<trkpt lat="39.725271000" lon="-0.293364000">
  <ele>234.300000</ele>
  <time>2012-03-25T08:38:18Z</time>
  <sat>9</sat>
</trkpt>
<trkpt lat="39.725273000" lon="-0.293318000">
  <ele>236.300000</ele>
  <time>2012-03-25T08:38:21Z</time>
  <sat>9</sat>
</trkpt>
<trkpt lat="39.725275000" lon="-0.293268000">
  <ele>236.500000</ele>
  <time>2012-03-25T08:38:24Z</time>
  <sat>9</sat>
</trkpt>
<trkpt lat="39.725265000" lon="-0.293220000">
  <ele>238.100000</ele>
  <time>2012-03-25T08:38:27Z</time>
  <sat>9</sat>
</trkpt>
<trkpt lat="39.725262000" lon="-0.293165000">
  <ele>238.300000</ele>
  <time>2012-03-25T08:38:30Z</time>
  <sat>9</sat>
</trkpt>
<trkpt lat="39.725252000" lon="-0.293109000">
  <ele>238.800000</ele>
  <time>2012-03-25T08:38:33Z</time>
  <sat>9</sat>
</trkpt>
<trkpt lat="39.725249000" lon="-0.293089000">
  <ele>238.800000</ele>
  <time>2012-03-25T08:38:34Z</time>
  <sat>9</sat>
</trkpt>
<trkpt lat="39.725227000" lon="-0.292997000">
  <ele>239.100000</ele>
  <time>2012-03-25T08:38:39Z</time>
  <sat>9</sat>
</trkpt>
<trkpt lat="39.725225000" lon="-0.292956000">
  <ele>240.100000</ele>
  <time>2012-03-25T08:38:42Z</time>
  <sat>9</sat>
</trkpt>
<trkpt lat="39.725223000" lon="-0.292902000">
  <ele>240.800000</ele>
  <time>2012-03-25T08:38:45Z</time>
  <sat>9</sat>
</trkpt>
<trkpt lat="39.725218000" lon="-0.292845000">
  <ele>242.100000</ele>
  <time>2012-03-25T08:38:48Z</time>
  <sat>9</sat>
</trkpt>
<trkpt lat="39.725205000" lon="-0.292798000">
  <ele>242.300000</ele>
  <time>2012-03-25T08:38:51Z</time>
  <sat>9</sat>
</trkpt>
<trkpt lat="39.725199000" lon="-0.292751000">
  <ele>243.600000</ele>
  <time>2012-03-25T08:38:54Z</time>
  <sat>9</sat>
</trkpt>
<trkpt lat="39.725178000" lon="-0.292703000">
  <ele>244.100000</ele>
  <time>2012-03-25T08:38:57Z</time>
  <sat>9</sat>
</trkpt>
<trkpt lat="39.725171000" lon="-0.292672000">
  <ele>244.800000</ele>
  <time>2012-03-25T08:38:59Z</time>
  <sat>9</sat>
</trkpt>
<trkpt lat="39.725166000" lon="-0.292638000">
  <ele>245.600000</ele>
  <time>2012-03-25T08:39:01Z</time>
  <sat>9</sat>
</trkpt>
<trkpt lat="39.725157000" lon="-0.292584000">
  <ele>247.000000</ele>
  <time>2012-03-25T08:39:04Z</time>
  <sat>9</sat>
</trkpt>
<trkpt lat="39.725151000" lon="-0.292534000">
  <ele>247.000000</ele>
  <time>2012-03-25T08:39:07Z</time>
  <sat>9</sat>
</trkpt>
<trkpt lat="39.725146000" lon="-0.292481000">
  <ele>247.800000</ele>
  <time>2012-03-25T08:39:10Z</time>
  <sat>9</sat>
</trkpt>
<trkpt lat="39.725144000" lon="-0.292427000">
  <ele>248.300000</ele>
  <time>2012-03-25T08:39:13Z</time>
  <sat>9</sat>
</trkpt>
<trkpt lat="39.725155000" lon="-0.292373000">
  <ele>247.600000</ele>
  <time>2012-03-25T08:39:16Z</time>
  <sat>9</sat>
</trkpt>
<trkpt lat="39.725156000" lon="-0.292320000">
  <ele>247.000000</ele>
  <time>2012-03-25T08:39:19Z</time>
  <sat>9</sat>
</trkpt>
<trkpt lat="39.725151000" lon="-0.292268000">
  <ele>245.500000</ele>
  <time>2012-03-25T08:39:22Z</time>
  <sat>9</sat>
</trkpt>
<trkpt lat="39.725132000" lon="-0.292223000">
  <ele>246.000000</ele>
  <time>2012-03-25T08:39:25Z</time>
  <sat>7</sat>
</trkpt>
<trkpt lat="39.725123000" lon="-0.292204000">
  <ele>245.800000</ele>
  <time>2012-03-25T08:39:26Z</time>
  <sat>7</sat>
</trkpt>
<trkpt lat="39.725093000" lon="-0.292134000">
  <ele>246.000000</ele>
  <time>2012-03-25T08:39:30Z</time>
  <sat>7</sat>
</trkpt>
<trkpt lat="39.724952000" lon="-0.291717000">
  <ele>251.100000</ele>
  <time>2012-03-25T03:32:59Z</time>
</trkpt>
<trkpt lat="39.724897000" lon="-0.291425000">
  <ele>253.900000</ele>
  <time>2012-02-11T11:15:22Z</time>
</trkpt>
<trkpt lat="39.724475000" lon="-0.291442000">
  <ele>252.400000</ele>
  <time>1985-06-10T19:34:41Z</time>
</trkpt>
<trkpt lat="39.724227000" lon="-0.291221000">
  <ele>253.100000</ele>
</trkpt>
<trkpt lat="39.724055000" lon="-0.290807000">
  <ele>247.400000</ele>
</trkpt>
<trkpt lat="39.723844000" lon="-0.290588000">
  <ele>242.600000</ele>
  <time>2012-03-25T08:41:23Z</time>
  <sat>8</sat>
</trkpt>
<trkpt lat="39.723716000" lon="-0.290507000">
  <ele>242.800000</ele>
  <time>2012-03-25T08:41:26Z</time>
  <sat>8</sat>
</trkpt>
<trkpt lat="39.723541000" lon="-0.290493000">
  <ele>239.600000</ele>
  <time>2012-03-25T08:41:29Z</time>
  <sat>8</sat>
</trkpt>
<trkpt lat="39.723390000" lon="-0.290558000">
  <ele>235.500000</ele>
  <time>2012-03-25T08:41:32Z</time>
  <sat>8</sat>
</trkpt>
<trkpt lat="39.723280000" lon="-0.290599000">
  <ele>233.600000</ele>
  <time>2012-03-25T08:41:35Z</time>
  <sat>8</sat>
</trkpt>
<trkpt lat="39.723216000" lon="-0.290602000">
  <ele>232.800000</ele>
  <time>2012-03-25T08:41:38Z</time>
  <sat>7</sat>
</trkpt>
<trkpt lat="39.723141000" lon="-0.290597000">
  <ele>232.600000</ele>
  <time>2012-03-25T08:41:41Z</time>
  <sat>7</sat>
</trkpt>
<trkpt lat="39.723023000" lon="-0.290592000">
  <ele>232.000000</ele>
  <time>2012-03-25T08:41:44Z</time>
  <sat>7</sat>
</trkpt>
<trkpt lat="39.722891000" lon="-0.290524000">
  <ele>230.300000</ele>
  <time>2012-03-25T08:41:47Z</time>
  <sat>7</sat>
</trkpt>
<trkpt lat="39.722764000" lon="-0.290452000">
  <ele>229.100000</ele>
  <time>2012-03-25T08:41:50Z</time>
  <sat>7</sat>
</trkpt>
<trkpt lat="39.722627000" lon="-0.290434000">
  <ele>227.800000</ele>
  <time>2012-03-25T08:41:53Z</time>
  <sat>8</sat>
</trkpt>
<trkpt lat="39.722484000" lon="-0.290372000">
  <ele>226.300000</ele>
  <time>2012-03-25T08:41:56Z</time>
  <sat>8</sat>
</trkpt>
<trkpt lat="39.722330000" lon="-0.290305000">
  <ele>225.500000</ele>
  <time>2012-03-25T08:41:59Z</time>
  <sat>8</sat>
</trkpt>
<trkpt lat="39.722250000" lon="-0.290279000">
  <ele>224.600000</ele>
  <time>2012-03-25T08:42:01Z</time>
  <sat>9</sat>
</trkpt>
<trkpt lat="39.722148000" lon="-0.290297000">
  <ele>224.100000</ele>
  <time>2012-03-25T08:42:04Z</time>
  <sat>9</sat>
</trkpt>
<trkpt lat="39.722026000" lon="-0.290420000">
  <ele>223.300000</ele>
  <time>2012-03-25T08:42:07Z</time>
  <sat>9</sat>
</trkpt>
<trkpt lat="39.721865000" lon="-0.290487000">
  <ele>222.300000</ele>
  <time>2012-03-25T08:42:10Z</time>
  <sat>9</sat>
</trkpt>
<trkpt lat="39.721711000" lon="-0.290532000">
  <ele>222.100000</ele>
  <time>2012-03-25T08:42:13Z</time>
  <sat>10</sat>
</trkpt>
<trkpt lat="39.721565000" lon="-0.290614000">
  <ele>221.300000</ele>
  <time>2012-03-25T08:42:16Z</time>
  <sat>10</sat>
</trkpt>
<trkpt lat="39.721366000" lon="-0.290716000">
  <ele>220.100000</ele>
  <time>2012-03-25T08:42:19Z</time>
  <sat>10</sat>
</trkpt>
<trkpt lat="39.721154000" lon="-0.290703000">
  <ele>218.500000</ele>
  <time>2012-03-25T08:42:22Z</time>
  <sat>9</sat>
</trkpt>
<trkpt lat="39.721015000" lon="-0.290635000">
  <ele>216.800000</ele>
  <time>2012-03-25T08:42:25Z</time>
  <sat>9</sat>
</trkpt>
<trkpt lat="39.720980000" lon="-0.290600000">
  <ele>216.800000</ele>
  <time>2012-03-25T08:42:26Z</time>
  <sat>7</sat>
</trkpt>
<trkpt lat="39.720754000" lon="-0.290433000">
  <ele>216.600000</ele>
  <time>2012-03-25T08:42:31Z</time>
  <sat>9</sat>
</trkpt>
<trkpt lat="39.720561000" lon="-0.290405000">
  <ele>216.600000</ele>
  <time>2012-03-25T08:42:34Z</time>
  <sat>9</sat>
</trkpt>
<trkpt lat="39.720356000" lon="-0.290353000">
  <ele>216.300000</ele>
  <time>2012-03-25T08:42:37Z</time>
  <sat>9</sat>
</trkpt>
<trkpt lat="39.720222000" lon="-0.290371000">
  <ele>214.600000</ele>
  <time>2012-03-25T08:42:40Z</time>
  <sat>10</sat>
</trkpt>
<trkpt lat="39.720177000" lon="-0.290475000">
  <ele>212.500000</ele>
  <time>2012-03-25T08:42:43Z</time>
  <sat>10</sat>
</trkpt>
<trkpt lat="39.720159000" lon="-0.290567000">
  <ele>211.100000</ele>
  <time>2012-03-25T08:42:46Z</time>
  <sat>10</sat>
</trkpt>
<trkpt lat="39.720115000" lon="-0.290663000">
  <ele>210.800000</ele>
  <time>2012-03-25T08:42:49Z</time>
  <sat>9</sat>
</trkpt>
<trkpt lat="39.720075000" lon="-0.290746000">
  <ele>210.800000</ele>
  <time>2012-03-25T08:42:52Z</time>
  <sat>9</sat>
</trkpt>
<trkpt lat="39.720039000" lon="-0.290860000">
  <ele>209.800000</ele>
  <time>2012-03-25T08:42:55Z</time>
  <sat>9</sat>
</trkpt>
<trkpt lat="39.719991000" lon="-0.290996000">
  <ele>208.300000</ele>
  <time>2012-03-25T08:42:58Z</time>
  <sat>9</sat>
</trkpt>
<trkpt lat="39.719964000" lon="-0.291081000">
  <ele>209.100000</ele>
  <time>2012-03-25T08:43:00Z</time>
  <sat>9</sat>
</trkpt>
<trkpt lat="39.719907000" lon="-0.291198000">
  <ele>209.100000</ele>
  <time>2012-03-25T08:43:03Z</time>
  <sat>8</sat>
</trkpt>
<trkpt lat="39.719832000" lon="-0.291305000">
  <ele>210.500000</ele>
  <time>2012-03-25T08:43:06Z</time>
  <sat>8</sat>
</trkpt>
<trkpt lat="39.719754000" lon="-0.291433000">
  <ele>209.500000</ele>
  <time>2012-03-25T08:43:09Z</time>
  <sat>9</sat>
</trkpt>
<trkpt lat="39.719669000" lon="-0.291568000">
  <ele>209.300000</ele>
  <time>2012-03-25T08:43:12Z</time>
  <sat>9</sat>
</trkpt>
<trkpt lat="39.719604000" lon="-0.291676000">
  <ele>210.300000</ele>
  <time>2012-03-25T08:43:15Z</time>
  <sat>9</sat>
</trkpt>
<trkpt lat="39.719556000" lon="-0.291790000">
  <ele>208.600000</ele>
  <time>2012-03-25T08:43:18Z</time>
  <sat>7</sat>
</trkpt>
<trkpt lat="39.719447000" lon="-0.291892000">
  <ele>209.000000</ele>
  <time>2012-03-25T08:43:21Z</time>
  <sat>10</sat>
</trkpt>
<trkpt lat="39.719266000" lon="-0.291916000">
  <ele>207.500000</ele>
  <time>2012-03-25T08:43:24Z</time>
  <sat>10</sat>
</trkpt>
<trkpt lat="39.719090000" lon="-0.291864000">
  <ele>206.300000</ele>
  <time>2012-03-25T08:43:27Z</time>
  <sat>10</sat>
</trkpt>
<trkpt lat="39.719032000" lon="-0.291855000">
  <ele>205.800000</ele>
  <time>2012-03-25T08:43:28Z</time>
  <sat>10</sat>
</trkpt>
<trkpt lat="39.718806000" lon="-0.292068000">
  <ele>202.800000</ele>
  <time>2012-03-25T08:43:33Z</time>
  <sat>7</sat>
</trkpt>
<trkpt lat="39.718692000" lon="-0.292256000">
  <ele>201.800000</ele>
  <time>2012-03-25T08:43:36Z</time>
  <sat>7</sat>
</trkpt>
<trkpt lat="39.718596000" lon="-0.292267000">
  <ele>201.300000</ele>
  <time>2012-03-25T08:43:39Z</time>
  <sat>8</sat>
</trkpt>
<trkpt lat="39.718504000" lon="-0.292245000">
  <ele>201.600000</ele>
  <time>2012-03-25T08:43:42Z</time>
  <sat>9</sat>
</trkpt>
<trkpt lat="39.718416000" lon="-0.292191000">
  <ele>202.100000</ele>
  <time>2012-03-25T08:43:45Z</time>
  <sat>10</sat>
</trkpt>
<trkpt lat="39.718319000" lon="-0.292159000">
  <ele>203.000000</ele>
  <time>2012-03-25T08:43:48Z</time>
  <sat>10</sat>
</trkpt>
<trkpt lat="39.718209000" lon="-0.292116000">
  <ele>204.500000</ele>
  <time>2012-03-25T08:43:51Z</time>
  <sat>10</sat>
</trkpt>
<trkpt lat="39.718094000" lon="-0.292094000">
  <ele>204.300000</ele>
  <time>2012-03-25T08:43:54Z</time>
  <sat>10</sat>
</trkpt>
<trkpt lat="39.717971000" lon="-0.292117000">
  <ele>204.500000</ele>
  <time>2012-03-25T08:43:57Z</time>
  <sat>9</sat>
</trkpt>
<trkpt lat="39.717896000" lon="-0.292124000">
  <ele>204.100000</ele>
  <time>2012-03-25T08:43:59Z</time>
  <sat>9</sat>
</trkpt>
<trkpt lat="39.717834000" lon="-0.292160000">
  <ele>204.800000</ele>
  <time>2012-03-25T08:44:01Z</time>
  <sat>9</sat>
</trkpt>
<trkpt lat="39.717751000" lon="-0.292234000">
  <ele>205.000000</ele>
  <time>2012-03-25T08:44:04Z</time>
  <sat>9</sat>
</trkpt>
<trkpt lat="39.717668000" lon="-0.292350000">
  <ele>204.100000</ele>
  <time>2012-03-25T08:44:07Z</time>
  <sat>9</sat>
</trkpt>
<trkpt lat="39.717610000" lon="-0.292511000">
  <ele>202.100000</ele>
  <time>2012-03-25T08:44:10Z</time>
  <sat>9</sat>
</trkpt>
<trkpt lat="39.717542000" lon="-0.292672000">
  <ele>201.600000</ele>
  <time>2012-03-25T08:44:13Z</time>
  <sat>7</sat>
</trkpt>
<trkpt lat="39.717446000" lon="-0.292851000">
  <ele>199.600000</ele>
  <time>2012-03-25T08:44:16Z</time>
  <sat>7</sat>
</trkpt>
<trkpt lat="39.717321000" lon="-0.293080000">
  <ele>196.800000</ele>
  <time>2012-03-25T08:44:19Z</time>
  <sat>8</sat>
</trkpt>
<trkpt lat="39.717214000" lon="-0.293362000">
  <ele>194.800000</ele>
  <time>2012-03-25T08:44:22Z</time>
  <sat>8</sat>
</trkpt>
<trkpt lat="39.717126000" lon="-0.293653000">
  <ele>192.800000</ele>
  <time>2012-03-25T08:44:25Z</time>
  <sat>8</sat>
</trkpt>
<trkpt lat="39.717008000" lon="-0.293888000">
  <ele>191.800000</ele>
  <time>2012-03-25T08:44:28Z</time>
  <sat>8</sat>
</trkpt>
<trkpt lat="39.716963000" lon="-0.293957000">
  <ele>191.500000</ele>
  <time>2012-03-25T08:44:29Z</time>
  <sat>8</sat>
</trkpt>
<trkpt lat="39.716736000" lon="-0.294365000">
  <ele>186.800000</ele>
  <time>2012-03-25T08:44:34Z</time>
  <sat>8</sat>
</trkpt>
<trkpt lat="39.716623000" lon="-0.294612000">
  <ele>184.600000</ele>
  <time>2012-03-25T08:44:37Z</time>
  <sat>8</sat>
</trkpt>
<trkpt lat="39.716514000" lon="-0.294833000">
  <ele>181.500000</ele>
  <time>2012-03-25T08:44:40Z</time>
  <sat>8</sat>
</trkpt>
<trkpt lat="39.716414000" lon="-0.295000000">
  <ele>179.600000</ele>
  <time>2012-03-25T08:44:43Z</time>
  <sat>8</sat>
</trkpt>
<trkpt lat="39.716329000" lon="-0.295161000">
  <ele>178.600000</ele>
  <time>2012-03-25T08:44:46Z</time>
  <sat>8</sat>
</trkpt>
<trkpt lat="39.716218000" lon="-0.295286000">
  <ele>177.600000</ele>
  <time>2012-03-25T08:44:49Z</time>
  <sat>8</sat>
</trkpt>
<trkpt lat="39.716054000" lon="-0.295284000">
  <ele>177.600000</ele>
  <time>2012-03-25T08:44:52Z</time>
  <sat>8</sat>
</trkpt>
<trkpt lat="39.715864000" lon="-0.295211000">
  <ele>177.100000</ele>
  <time>2012-03-25T08:44:55Z</time>
  <sat>8</sat>
</trkpt>
<trkpt lat="39.715716000" lon="-0.295145000">
  <ele>176.300000</ele>
  <time>2012-03-25T08:44:58Z</time>
  <sat>8</sat>
</trkpt>
<trkpt lat="39.715619000" lon="-0.295083000">
  <ele>175.500000</ele>
  <time>2012-03-25T08:45:00Z</time>
  <sat>9</sat>
</trkpt>
<trkpt lat="39.715457000" lon="-0.295031000">
  <ele>174.600000</ele>
  <time>2012-03-25T08:45:03Z</time>
  <sat>9</sat>
</trkpt>
<trkpt lat="39.715281000" lon="-0.295098000">
  <ele>172.300000</ele>
  <time>2012-03-25T08:45:06Z</time>
  <sat>9</sat>
</trkpt>
<trkpt lat="39.715136000" lon="-0.295256000">
  <ele>172.800000</ele>
  <time>2012-03-25T08:45:09Z</time>
  <sat>9</sat>
</trkpt>
<trkpt lat="39.715029000" lon="-0.295280000">
  <ele>172.100000</ele>
  <time>2012-03-25T08:45:12Z</time>
  <sat>9</sat>
</trkpt>
<trkpt lat="39.714920000" lon="-0.295265000">
  <ele>171.300000</ele>
  <time>2012-03-25T08:45:15Z</time>
  <sat>9</sat>
</trkpt>
<trkpt lat="39.714800000" lon="-0.295239000">
  <ele>172.100000</ele>
  <time>2012-03-25T08:45:18Z</time>
  <sat>9</sat>
</trkpt>
<trkpt lat="39.714689000" lon="-0.295202000">
  <ele>172.800000</ele>
  <time>2012-03-25T08:45:21Z</time>
  <sat>9</sat>
</trkpt>
<trkpt lat="39.714554000" lon="-0.295125000">
  <ele>174.100000</ele>
  <time>2012-03-25T08:45:24Z</time>
  <sat>9</sat>
</trkpt>
<trkpt lat="39.714411000" lon="-0.295082000">
  <ele>174.800000</ele>
  <time>2012-03-25T08:45:27Z</time>
  <sat>9</sat>
</trkpt>
<trkpt lat="39.714254000" lon="-0.295047000">
  <ele>174.600000</ele>
  <time>2012-03-25T08:45:30Z</time>
  <sat>9</sat>
</trkpt>
<trkpt lat="39.714198000" lon="-0.295032000">
  <ele>173.600000</ele>
  <time>2012-03-25T08:45:31Z</time>
  <sat>8</sat>
</trkpt>
<trkpt lat="39.713898000" lon="-0.294944000">
  <ele>172.000000</ele>
  <time>2012-03-25T08:45:36Z</time>
  <sat>8</sat>
</trkpt>
<trkpt lat="39.713716000" lon="-0.294893000">
  <ele>171.800000</ele>
  <time>2012-03-25T08:45:39Z</time>
  <sat>8</sat>
</trkpt>
<trkpt lat="39.713540000" lon="-0.294838000">
  <ele>171.300000</ele>
  <time>2012-03-25T08:45:42Z</time>
  <sat>8</sat>
</trkpt>
<trkpt lat="39.713394000" lon="-0.294751000">
  <ele>172.100000</ele>
  <time>2012-03-25T08:45:45Z</time>
  <sat>8</sat>
</trkpt>
<trkpt lat="39.713281000" lon="-0.294657000">
  <ele>172.000000</ele>
  <time>2012-03-25T08:45:48Z</time>
  <sat>8</sat>
</trkpt>
<trkpt lat="39.713221000" lon="-0.294508000">
  <ele>172.100000</ele>
  <time>2012-03-25T08:45:51Z</time>
  <sat>8</sat>
</trkpt>
<trkpt lat="39.713209000" lon="-0.294321000">
  <ele>171.600000</ele>
  <time>2012-03-25T08:45:54Z</time>
  <sat>8</sat>
</trkpt>
<trkpt lat="39.713099000" lon="-0.294237000">
  <ele>171.600000</ele>
  <time>2012-03-25T08:45:57Z</time>
  <sat>8</sat>
</trkpt>
<trkpt lat="39.713045000" lon="-0.294279000">
  <ele>170.600000</ele>
  <time>2012-03-25T08:45:59Z</time>
  <sat>8</sat>
</trkpt>
<trkpt lat="39.712998000" lon="-0.294307000">
  <ele>170.600000</ele>
  <time>2012-03-25T08:46:01Z</time>
  <sat>6</sat>
</trkpt>
<trkpt lat="39.712929000" lon="-0.294381000">
  <ele>172.100000</ele>
  <time>2012-03-25T08:46:04Z</time>
  <sat>7</sat>
</trkpt>
<trkpt lat="39.712869000" lon="-0.294486000">
  <ele>172.000000</ele>
  <time>2012-03-25T08:46:07Z</time>
  <sat>7</sat>
</trkpt>
<trkpt lat="39.712799000" lon="-0.294574000">
  <ele>173.100000</ele>
  <time>2012-03-25T08:46:10Z</time>
  <sat>8</sat>
</trkpt>
<trkpt lat="39.712716000" lon="-0.294667000">
  <ele>172.100000</ele>
  <time>2012-03-25T08:46:13Z</time>
  <sat>8</sat>
</trkpt>
<trkpt lat="39.712590000" lon="-0.294761000">
  <ele>170.800000</ele>
  <time>2012-03-25T08:46:16Z</time>
  <sat>9</sat>
</trkpt>
<trkpt lat="39.712428000" lon="-0.294873000">
  <ele>168.600000</ele>
  <time>2012-03-25T08:46:19Z</time>
  <sat>8</sat>
</trkpt>
<trkpt lat="39.712283000" lon="-0.294971000">
  <ele>168.000000</ele>
  <time>2012-03-25T08:46:22Z</time>
  <sat>7</sat>
</trkpt>
<trkpt lat="39.712113000" lon="-0.295062000">
  <ele>167.300000</ele>
  <time>2012-03-25T08:46:25Z</time>
  <sat>9</sat>
</trkpt>
<trkpt lat="39.711911000" lon="-0.295125000">
  <ele>165.600000</ele>
  <time>2012-03-25T08:46:28Z</time>
  <sat>10</sat>
</trkpt>
<trkpt lat="39.711726000" lon="-0.295254000">
  <ele>165.600000</ele>
  <time>2012-03-25T08:46:31Z</time>
  <sat>10</sat>
</trkpt>
<trkpt lat="39.711673000" lon="-0.295303000">
  <ele>165.300000</ele>
  <time>2012-03-25T08:46:32Z</time>
  <sat>10</sat>
</trkpt>
<trkpt lat="39.711431000" lon="-0.295547000">
  <ele>166.100000</ele>
  <time>2012-03-25T08:46:37Z</time>
  <sat>10</sat>
</trkpt>
<trkpt lat="39.711308000" lon="-0.295704000">
  <ele>164.300000</ele>
  <time>2012-03-25T08:46:40Z</time>
  <sat>10</sat>
</trkpt>
<trkpt lat="39.711147000" lon="-0.295717000">
  <ele>162.800000</ele>
  <time>2012-03-25T08:46:43Z</time>
  <sat>9</sat>
</trkpt>
<trkpt lat="39.711024000" lon="-0.295750000">
  <ele>161.000000</ele>
  <time>2012-03-25T08:46:46Z</time>
  <sat>9</sat>
</trkpt>
<trkpt lat="39.711013000" lon="-0.295892000">
  <ele>162.100000</ele>
  <time>2012-03-25T08:46:49Z</time>
  <sat>8</sat>
</trkpt>
<trkpt lat="39.711039000" lon="-0.296045000">
  <ele>162.800000</ele>
  <time>2012-03-25T08:46:52Z</time>
  <sat>8</sat>
</trkpt>
<trkpt lat="39.711009000" lon="-0.296205000">
  <ele>163.100000</ele>
  <time>2012-03-25T08:46:55Z</time>
  <sat>9</sat>
</trkpt>
<trkpt lat="39.710940000" lon="-0.296330000">
  <ele>161.800000</ele>
  <time>2012-03-25T08:46:58Z</time>
  <sat>10</sat>
</trkpt>
<trkpt lat="39.710873000" lon="-0.296413000">
  <ele>160.600000</ele>
  <time>2012-03-25T08:47:00Z</time>
  <sat>10</sat>
</trkpt>
<trkpt lat="39.710772000" lon="-0.296541000">
  <ele>159.300000</ele>
  <time>2012-03-25T08:47:03Z</time>
  <sat>7</sat>
</trkpt>
<trkpt lat="39.710625000" lon="-0.296635000">
  <ele>158.300000</ele>
  <time>2012-03-25T08:47:06Z</time>
  <sat>9</sat>
</trkpt>
<trkpt lat="39.710445000" lon="-0.296675000">
  <ele>157.100000</ele>
  <time>2012-03-25T08:47:09Z</time>
  <sat>9</sat>
</trkpt>
<trkpt lat="39.710331000" lon="-0.296812000">
  <ele>157.800000</ele>
  <time>2012-03-25T08:47:12Z</time>
  <sat>8</sat>
</trkpt>
<trkpt lat="39.710273000" lon="-0.296959000">
  <ele>159.100000</ele>
  <time>2012-03-25T08:47:15Z</time>
  <sat>10</sat>
</trkpt>
<trkpt lat="39.710238000" lon="-0.297101000">
  <ele>159.300000</ele>
  <time>2012-03-25T08:47:18Z</time>
  <sat>10</sat>
</trkpt>
<trkpt lat="39.710223000" lon="-0.297246000">
  <ele>160.000000</ele>
  <time>2012-03-25T08:47:21Z</time>
  <sat>10</sat>
</trkpt>
<trkpt lat="39.710171000" lon="-0.297399000">
  <ele>158.600000</ele>
  <time>2012-03-25T08:47:24Z</time>
  <sat>7</sat>
</trkpt>
<trkpt lat="39.710046000" lon="-0.297542000">
  <ele>157.800000</ele>
  <time>2012-03-25T08:47:27Z</time>
  <sat>9</sat>
</trkpt>
<trkpt lat="39.709911000" lon="-0.297651000">
  <ele>156.600000</ele>
  <time>2012-03-25T08:47:30Z</time>
  <sat>8</sat>
</trkpt>
<trkpt lat="39.709749000" lon="-0.297794000">
  <ele>155.300000</ele>
  <time>2012-03-25T08:47:33Z</time>
  <sat>10</sat>
</trkpt>
<trkpt lat="39.709699000" lon="-0.297842000">
  <ele>154.300000</ele>
  <time>2012-03-25T08:47:34Z</time>
  <sat>10</sat>
</trkpt>
<trkpt lat="39.709469000" lon="-0.298162000">
  <ele>151.500000</ele>
  <time>2012-03-25T08:47:39Z</time>
  <sat>9</sat>
</trkpt>
<trkpt lat="39.709371000" lon="-0.298399000">
  <ele>151.100000</ele>
  <time>2012-03-25T08:47:42Z</time>
  <sat>8</sat>
</trkpt>
<trkpt lat="39.709245000" lon="-0.298530000">
  <ele>151.300000</ele>
  <time>2012-03-25T08:47:45Z</time>
  <sat>9</sat>
</trkpt>
<trkpt lat="39.709071000" lon="-0.298517000">
  <ele>149.800000</ele>
  <time>2012-03-25T08:47:48Z</time>
  <sat>10</sat>
</trkpt>
<trkpt lat="39.708862000" lon="-0.298446000">
  <ele>149.800000</ele>
  <time>2012-03-25T08:47:51Z</time>
  <sat>10</sat>
</trkpt>
<trkpt lat="39.708650000" lon="-0.298379000">
  <ele>149.000000</ele>
  <time>2012-03-25T08:47:54Z</time>
  <sat>10</sat>
</trkpt>
<trkpt lat="39.708449000" lon="-0.298254000">
  <ele>148.100000</ele>
  <time>2012-03-25T08:47:57Z</time>
  <sat>10</sat>
</trkpt>
<trkpt lat="39.708340000" lon="-0.298131000">
  <ele>147.600000</ele>
  <time>2012-03-25T08:47:59Z</time>
  <sat>10</sat>
</trkpt>
<trkpt lat="39.708236000" lon="-0.297998000">
  <ele>147.300000</ele>
  <time>2012-03-25T08:48:01Z</time>
  <sat>10</sat>
</trkpt>
<trkpt lat="39.708086000" lon="-0.297879000">
  <ele>146.800000</ele>
  <time>2012-03-25T08:48:04Z</time>
  <sat>10</sat>
</trkpt>
<trkpt lat="39.707972000" lon="-0.297886000">
  <ele>146.100000</ele>
  <time>2012-03-25T08:48:07Z</time>
  <sat>9</sat>
</trkpt>
<trkpt lat="39.707885000" lon="-0.298026000">
  <ele>145.800000</ele>
  <time>2012-03-25T08:48:10Z</time>
  <sat>9</sat>
</trkpt>
<trkpt lat="39.707769000" lon="-0.298161000">
  <ele>145.500000</ele>
  <time>2012-03-25T08:48:13Z</time>
  <sat>10</sat>
</trkpt>
<trkpt lat="39.707639000" lon="-0.298328000">
  <ele>144.600000</ele>
  <time>2012-03-25T08:48:16Z</time>
  <sat>10</sat>
</trkpt>
<trkpt lat="39.707501000" lon="-0.298479000">
  <ele>142.600000</ele>
  <time>2012-03-25T08:48:19Z</time>
  <sat>10</sat>
</trkpt>
<trkpt lat="39.707363000" lon="-0.298638000">
  <ele>141.800000</ele>
  <time>2012-03-25T08:48:22Z</time>
  <sat>10</sat>
</trkpt>
<trkpt lat="39.707194000" lon="-0.298825000">
  <ele>142.100000</ele>
  <time>2012-03-25T08:48:25Z</time>
  <sat>10</sat>
</trkpt>
<trkpt lat="39.707008000" lon="-0.299067000">
  <ele>140.300000</ele>
  <time>2012-03-25T08:48:28Z</time>
  <sat>10</sat>
</trkpt>
<trkpt lat="39.706862000" lon="-0.299343000">
  <ele>139.100000</ele>
  <time>2012-03-25T08:48:31Z</time>
  <sat>10</sat>
</trkpt>
<trkpt lat="39.706730000" lon="-0.299617000">
  <ele>138.600000</ele>
  <time>2012-03-25T08:48:34Z</time>
  <sat>10</sat>
</trkpt>
<trkpt lat="39.706680000" lon="-0.299693000">
  <ele>138.500000</ele>
  <time>2012-03-25T08:48:35Z</time>
  <sat>10</sat>
</trkpt>
<trkpt lat="39.706348000" lon="-0.299946000">
  <ele>136.100000</ele>
  <time>2012-03-25T08:48:40Z</time>
  <sat>10</sat>
</trkpt>
<trkpt lat="39.706087000" lon="-0.300003000">
  <ele>133.500000</ele>
  <time>2012-03-25T08:48:43Z</time>
  <sat>10</sat>
</trkpt>
<trkpt lat="39.705858000" lon="-0.300060000">
  <ele>132.600000</ele>
  <time>2012-03-25T08:48:46Z</time>
  <sat>10</sat>
</trkpt>
<trkpt lat="39.705710000" lon="-0.300170000">
  <ele>129.000000</ele>
  <time>2012-03-25T08:48:49Z</time>
  <sat>7</sat>
</trkpt>
<trkpt lat="39.705612000" lon="-0.300349000">
  <ele>128.100000</ele>
  <time>2012-03-25T08:48:52Z</time>
  <sat>7</sat>
</trkpt>
<trkpt lat="39.705545000" lon="-0.300521000">
  <ele>128.100000</ele>
  <time>2012-03-25T08:48:55Z</time>
  <sat>10</sat>
</trkpt>
<trkpt lat="39.705490000" lon="-0.300678000">
  <ele>127.400000</ele>
  <time>2012-03-25T08:48:58Z</time>
  <sat>10</sat>
</trkpt>
<trkpt lat="39.705450000" lon="-0.300773000">
  <ele>127.600000</ele>
  <time>2012-03-25T08:49:00Z</time>
  <sat>10</sat>
</trkpt>
<trkpt lat="39.705410000" lon="-0.300920000">
  <ele>127.800000</ele>
  <time>2012-03-25T08:49:03Z</time>
  <sat>7</sat>
</trkpt>
<trkpt lat="39.705408000" lon="-0.301112000">
  <ele>125.000000</ele>
  <time>2012-03-25T08:49:06Z</time>
  <sat>6</sat>
</trkpt>
<trkpt lat="39.705434000" lon="-0.301273000">
  <ele>125.500000</ele>
  <time>2012-03-25T08:49:09Z</time>
  <sat>8</sat>
</trkpt>
<trkpt lat="39.705466000" lon="-0.301417000">
  <ele>125.500000</ele>
  <time>2012-03-25T08:49:12Z</time>
  <sat>9</sat>
</trkpt>
<trkpt lat="39.705471000" lon="-0.301578000">
  <ele>126.000000</ele>
  <time>2012-03-25T08:49:15Z</time>
  <sat>9</sat>
</trkpt>
<trkpt lat="39.705470000" lon="-0.301737000">
  <ele>125.000000</ele>
  <time>2012-03-25T08:49:18Z</time>
  <sat>9</sat>
</trkpt>
<trkpt lat="39.705478000" lon="-0.301899000">
  <ele>124.600000</ele>
  <time>2012-03-25T08:49:21Z</time>
  <sat>8</sat>
</trkpt>
<trkpt lat="39.705477000" lon="-0.302065000">
  <ele>124.500000</ele>
  <time>2012-03-25T08:49:24Z</time>
  <sat>8</sat>
</trkpt>
<trkpt lat="39.705469000" lon="-0.302235000">
  <ele>124.800000</ele>
  <time>2012-03-25T08:49:27Z</time>
  <sat>8</sat>
</trkpt>
<trkpt lat="39.705448000" lon="-0.302403000">
  <ele>125.100000</ele>
  <time>2012-03-25T08:49:30Z</time>
  <sat>7</sat>
</trkpt>
<trkpt lat="39.705404000" lon="-0.302555000">
  <ele>126.600000</ele>
  <time>2012-03-25T08:49:33Z</time>
  <sat>7</sat>
</trkpt>
<trkpt lat="39.705357000" lon="-0.302709000">
  <ele>127.500000</ele>
  <time>2012-03-25T08:49:36Z</time>
  <sat>8</sat>
</trkpt>
<trkpt lat="39.705341000" lon="-0.302755000">
  <ele>127.800000</ele>
  <time>2012-03-25T08:49:37Z</time>
  <sat>8</sat>
</trkpt>
<trkpt lat="39.705244000" lon="-0.302992000">
  <ele>128.500000</ele>
  <time>2012-03-25T08:49:42Z</time>
  <sat>7</sat>
</trkpt>
<trkpt lat="39.705173000" lon="-0.303136000">
  <ele>128.600000</ele>
  <time>2012-03-25T08:49:45Z</time>
  <sat>7</sat>
</trkpt>
<trkpt lat="39.705101000" lon="-0.303266000">
  <ele>129.100000</ele>
  <time>2012-03-25T08:49:48Z</time>
  <sat>8</sat>
</trkpt>
<trkpt lat="39.705037000" lon="-0.303401000">
  <ele>130.100000</ele>
  <time>2012-03-25T08:49:51Z</time>
  <sat>9</sat>
</trkpt>
<trkpt lat="39.704952000" lon="-0.303530000">
  <ele>130.300000</ele>
  <time>2012-03-25T08:49:54Z</time>
  <sat>9</sat>
</trkpt>
<trkpt lat="39.704841000" lon="-0.303642000">
  <ele>130.800000</ele>
  <time>2012-03-25T08:49:57Z</time>
  <sat>9</sat>
</trkpt>
<trkpt lat="39.704764000" lon="-0.303708000">
  <ele>130.500000</ele>
  <time>2012-03-25T08:49:59Z</time>
  <sat>9</sat>
</trkpt>
<trkpt lat="39.704687000" lon="-0.303777000">
  <ele>130.000000</ele>
  <time>2012-03-25T08:50:01Z</time>
  <sat>9</sat>
</trkpt>
<trkpt lat="39.704580000" lon="-0.303883000">
  <ele>129.600000</ele>
  <time>2012-03-25T08:50:04Z</time>
  <sat>9</sat>
</trkpt>
<trkpt lat="39.704463000" lon="-0.303983000">
  <ele>129.800000</ele>
  <time>2012-03-25T08:50:07Z</time>
  <sat>9</sat>
</trkpt>
<trkpt lat="39.704337000" lon="-0.304092000">
  <ele>129.600000</ele>
  <time>2012-03-25T08:50:10Z</time>
  <sat>10</sat>
</trkpt>
<trkpt lat="39.704200000" lon="-0.304210000">
  <ele>129.000000</ele>
  <time>2012-03-25T08:50:13Z</time>
  <sat>10</sat>
</trkpt>
<trkpt lat="39.704061000" lon="-0.304356000">
  <ele>129.300000</ele>
  <time>2012-03-25T08:50:16Z</time>
  <sat>10</sat>
</trkpt>
<trkpt lat="39.703925000" lon="-0.304537000">
  <ele>128.100000</ele>
  <time>2012-03-25T08:50:19Z</time>
  <sat>7</sat>
</trkpt>
<trkpt lat="39.703789000" lon="-0.304741000">
  <ele>127.500000</ele>
  <time>2012-03-25T08:50:22Z</time>
  <sat>7</sat>
</trkpt>
<trkpt lat="39.703725000" lon="-0.304912000">
  <ele>125.900000</ele>
  <time>2012-03-25T08:50:25Z</time>
  <sat>7</sat>
</trkpt>
<trkpt lat="39.703654000" lon="-0.305097000">
  <ele>125.800000</ele>
  <time>2012-03-25T08:50:28Z</time>
  <sat>6</sat>
</trkpt>
<trkpt lat="39.703575000" lon="-0.305283000">
  <ele>125.000000</ele>
  <time>2012-03-25T08:50:31Z</time>
  <sat>6</sat>
</trkpt>
<trkpt lat="39.703499000" lon="-0.305477000">
  <ele>124.300000</ele>
  <time>2012-03-25T08:50:34Z</time>
  <sat>6</sat>
</trkpt>
<trkpt lat="39.703465000" lon="-0.305713000">
  <ele>122.300000</ele>
  <time>2012-03-25T08:50:37Z</time>
  <sat>6</sat>
</trkpt>
<trkpt lat="39.703456000" lon="-0.305793000">
  <ele>121.500000</ele>
  <time>2012-03-25T08:50:38Z</time>
  <sat>5</sat>
</trkpt>
<trkpt lat="39.703371000" lon="-0.306196000">
  <ele>119.900000</ele>
  <time>2012-03-25T08:50:43Z</time>
  <sat>6</sat>
</trkpt>
<trkpt lat="39.703245000" lon="-0.306395000">
  <ele>119.500000</ele>
  <time>2012-03-25T08:50:46Z</time>
  <sat>7</sat>
</trkpt>
<trkpt lat="39.703126000" lon="-0.306503000">
  <ele>118.400000</ele>
  <time>2012-03-25T08:50:49Z</time>
  <sat>6</sat>
</trkpt>
<trkpt lat="39.703155000" lon="-0.306611000">
  <ele>117.400000</ele>
  <time>2012-03-25T08:50:52Z</time>
  <sat>7</sat>
</trkpt>
<trkpt lat="39.703211000" lon="-0.306746000">
  <ele>118.000000</ele>
  <time>2012-03-25T08:50:55Z</time>
  <sat>9</sat>
</trkpt>
<trkpt lat="39.703285000" lon="-0.306886000">
  <ele>119.100000</ele>
  <time>2012-03-25T08:50:58Z</time>
  <sat>10</sat>
</trkpt>
<trkpt lat="39.703344000" lon="-0.306978000">
  <ele>120.100000</ele>
  <time>2012-03-25T08:51:00Z</time>
  <sat>10</sat>
</trkpt>
<trkpt lat="39.703430000" lon="-0.307124000">
  <ele>120.500000</ele>
  <time>2012-03-25T08:51:03Z</time>
  <sat>7</sat>
</trkpt>
<trkpt lat="39.703529000" lon="-0.307283000">
  <ele>120.800000</ele>
  <time>2012-03-25T08:51:06Z</time>
  <sat>7</sat>
</trkpt>
<trkpt lat="39.703617000" lon="-0.307423000">
  <ele>120.500000</ele>
  <time>2012-03-25T08:51:09Z</time>
  <sat>10</sat>
</trkpt>
<trkpt lat="39.703703000" lon="-0.307587000">
  <ele>120.100000</ele>
  <time>2012-03-25T08:51:12Z</time>
  <sat>10</sat>
</trkpt>
<trkpt lat="39.703786000" lon="-0.307726000">
  <ele>120.100000</ele>
  <time>2012-03-25T08:51:15Z</time>
  <sat>7</sat>
</trkpt>
<trkpt lat="39.703849000" lon="-0.307858000">
  <ele>121.800000</ele>
  <time>2012-03-25T08:51:18Z</time>
  <sat>6</sat>
</trkpt>
<trkpt lat="39.703948000" lon="-0.308004000">
  <ele>122.500000</ele>
  <time>2012-03-25T08:51:21Z</time>
  <sat>6</sat>
</trkpt>
<trkpt lat="39.704033000" lon="-0.308141000">
  <ele>123.400000</ele>
  <time>2012-03-25T08:51:24Z</time>
  <sat>6</sat>
</trkpt>
<trkpt lat="39.704139000" lon="-0.308253000">
  <ele>123.800000</ele>
  <time>2012-03-25T08:51:27Z</time>
  <sat>7</sat>
</trkpt>
<trkpt lat="39.704238000" lon="-0.308381000">
  <ele>125.000000</ele>
  <time>2012-03-25T08:51:30Z</time>
  <sat>6</sat>
</trkpt>
<trkpt lat="39.704317000" lon="-0.308502000">
  <ele>124.800000</ele>
  <time>2012-03-25T08:51:33Z</time>
  <sat>10</sat>
</trkpt>
<trkpt lat="39.704403000" lon="-0.308632000">
  <ele>124.600000</ele>
  <time>2012-03-25T08:51:36Z</time>
  <sat>10</sat>
</trkpt>
<trkpt lat="39.704475000" lon="-0.308784000">
  <ele>124.400000</ele>
  <time>2012-03-25T08:51:39Z</time>
  <sat>7</sat>
</trkpt>
<trkpt lat="39.704503000" lon="-0.308825000">
  <ele>124.800000</ele>
  <time>2012-03-25T08:51:40Z</time>
  <sat>7</sat>
</trkpt>
<trkpt lat="39.704633000" lon="-0.309045000">
  <ele>125.300000</ele>
  <time>2012-03-25T08:51:45Z</time>
  <sat>6</sat>
</trkpt>
<trkpt lat="39.704710000" lon="-0.309197000">
  <ele>127.400000</ele>
  <time>2012-03-25T08:51:48Z</time>
  <sat>5</sat>
</trkpt>
<trkpt lat="39.704787000" lon="-0.309315000">
  <ele>128.800000</ele>
  <time>2012-03-25T08:51:51Z</time>
  <sat>7</sat>
</trkpt>
<trkpt lat="39.704813000" lon="-0.309399000">
  <ele>129.000000</ele>
  <time>2012-03-25T08:51:54Z</time>
  <sat>10</sat>
</trkpt>
<trkpt lat="39.704763000" lon="-0.309467000">
  <ele>129.100000</ele>
  <time>2012-03-25T08:51:57Z</time>
  <sat>10</sat>
</trkpt>
<trkpt lat="39.704685000" lon="-0.309523000">
  <ele>129.300000</ele>
  <time>2012-03-25T08:51:59Z</time>
  <sat>10</sat>
</trkpt>
<trkpt lat="39.704627000" lon="-0.309594000">
  <ele>129.000000</ele>
  <time>2012-03-25T08:52:01Z</time>
  <sat>10</sat>
</trkpt>
<trkpt lat="39.704568000" lon="-0.309732000">
  <ele>128.500000</ele>
  <time>2012-03-25T08:52:04Z</time>
  <sat>9</sat>
</trkpt>
<trkpt lat="39.704573000" lon="-0.309939000">
  <ele>128.100000</ele>
  <time>2012-03-25T08:52:07Z</time>
  <sat>9</sat>
</trkpt>
<trkpt lat="39.704589000" lon="-0.310118000">
  <ele>127.100000</ele>
  <time>2012-03-25T08:52:10Z</time>
  <sat>9</sat>
</trkpt>
<trkpt lat="39.704627000" lon="-0.310287000">
  <ele>127.300000</ele>
  <time>2012-03-25T08:52:13Z</time>
  <sat>9</sat>
</trkpt>
<trkpt lat="39.704691000" lon="-0.310447000">
  <ele>126.800000</ele>
  <time>2012-03-25T08:52:16Z</time>
  <sat>8</sat>
</trkpt>
<trkpt lat="39.704753000" lon="-0.310609000">
  <ele>126.500000</ele>
  <time>2012-03-25T08:52:19Z</time>
  <sat>8</sat>
</trkpt>
<trkpt lat="39.704798000" lon="-0.310766000">
  <ele>126.300000</ele>
  <time>2012-03-25T08:52:22Z</time>
  <sat>8</sat>
</trkpt>
<trkpt lat="39.704822000" lon="-0.310944000">
  <ele>126.600000</ele>
  <time>2012-03-25T08:52:25Z</time>
  <sat>8</sat>
</trkpt>
<trkpt lat="39.704851000" lon="-0.311102000">
  <ele>126.300000</ele>
  <time>2012-03-25T08:52:28Z</time>
  <sat>8</sat>
</trkpt>
<trkpt lat="39.704869000" lon="-0.311279000">
  <ele>125.500000</ele>
  <time>2012-03-25T08:52:31Z</time>
  <sat>10</sat>
</trkpt>
<trkpt lat="39.704888000" lon="-0.311466000">
  <ele>124.100000</ele>
  <time>2012-03-25T08:52:34Z</time>
  <sat>10</sat>
</trkpt>
<trkpt lat="39.704908000" lon="-0.311675000">
  <ele>124.400000</ele>
  <time>2012-03-25T08:52:37Z</time>
  <sat>9</sat>
</trkpt>
<trkpt lat="39.704905000" lon="-0.311888000">
  <ele>123.900000</ele>
  <time>2012-03-25T08:52:40Z</time>
  <sat>8</sat>
</trkpt>
<trkpt lat="39.704902000" lon="-0.311961000">
  <ele>123.600000</ele>
  <time>2012-03-25T08:52:41Z</time>
  <sat>9</sat>
</trkpt>
<trkpt lat="39.704881000" lon="-0.312332000">
  <ele>123.300000</ele>
  <time>2012-03-25T08:52:46Z</time>
  <sat>10</sat>
</trkpt>
<trkpt lat="39.704867000" lon="-0.312578000">
  <ele>122.600000</ele>
  <time>2012-03-25T08:52:49Z</time>
  <sat>10</sat>
</trkpt>
<trkpt lat="39.704874000" lon="-0.312825000">
  <ele>122.000000</ele>
  <time>2012-03-25T08:52:52Z</time>
  <sat>9</sat>
</trkpt>
<trkpt lat="39.704899000" lon="-0.313063000">
  <ele>121.800000</ele>
  <time>2012-03-25T08:52:55Z</time>
  <sat>7</sat>
</trkpt>
<trkpt lat="39.704923000" lon="-0.313295000">
  <ele>121.500000</ele>
  <time>2012-03-25T08:52:58Z</time>
  <sat>8</sat>
</trkpt>
<trkpt lat="39.704931000" lon="-0.313452000">
  <ele>121.500000</ele>
  <time>2012-03-25T08:53:00Z</time>
  <sat>8</sat>
</trkpt>
<trkpt lat="39.704903000" lon="-0.313688000">
  <ele>121.500000</ele>
  <time>2012-03-25T08:53:03Z</time>
  <sat>8</sat>
</trkpt>
<trkpt lat="39.704875000" lon="-0.313931000">
  <ele>121.000000</ele>
  <time>2012-03-25T08:53:06Z</time>
  <sat>7</sat>
</trkpt>
<trkpt lat="39.704838000" lon="-0.314196000">
  <ele>120.000000</ele>
  <time>2012-03-25T08:53:09Z</time>
  <sat>7</sat>
</trkpt>
<trkpt lat="39.704792000" lon="-0.314453000">
  <ele>119.600000</ele>
  <time>2012-03-25T08:53:12Z</time>
  <sat>7</sat>
</trkpt>
<trkpt lat="39.704720000" lon="-0.314719000">
  <ele>120.300000</ele>
  <time>2012-03-25T08:53:15Z</time>
  <sat>7</sat>
</trkpt>
<trkpt lat="39.704672000" lon="-0.314994000">
  <ele>119.400000</ele>
  <time>2012-03-25T08:53:18Z</time>
  <sat>7</sat>
</trkpt>
<trkpt lat="39.704650000" lon="-0.315286000">
  <ele>118.300000</ele>
  <time>2012-03-25T08:53:21Z</time>
  <sat>7</sat>
</trkpt>
<trkpt lat="39.704649000" lon="-0.315571000">
  <ele>118.500000</ele>
  <time>2012-03-25T08:53:24Z</time>
  <sat>7</sat>
</trkpt>
<trkpt lat="39.704658000" lon="-0.315858000">
  <ele>117.800000</ele>
  <time>2012-03-25T08:53:27Z</time>
  <sat>7</sat>
</trkpt>
<trkpt lat="39.704673000" lon="-0.316135000">
  <ele>117.300000</ele>
  <time>2012-03-25T08:53:30Z</time>
  <sat>7</sat>
</trkpt>
<trkpt lat="39.704713000" lon="-0.316448000">
  <ele>115.500000</ele>
  <time>2012-03-25T08:53:33Z</time>
  <sat>10</sat>
</trkpt>
<trkpt lat="39.704698000" lon="-0.316747000">
  <ele>115.000000</ele>
  <time>2012-03-25T08:53:36Z</time>
  <sat>10</sat>
</trkpt>
<trkpt lat="39.704571000" lon="-0.316965000">
  <ele>115.300000</ele>
  <time>2012-03-25T08:53:39Z</time>
  <sat>10</sat>
</trkpt>
<trkpt lat="39.704353000" lon="-0.317050000">
  <ele>115.500000</ele>
  <time>2012-03-25T08:53:42Z</time>
  <sat>10</sat>
</trkpt>
<trkpt lat="39.704284000" lon="-0.317087000">
  <ele>115.900000</ele>
  <time>2012-03-25T08:53:43Z</time>
  <sat>10</sat>
</trkpt>
<trkpt lat="39.703976000" lon="-0.317284000">
  <ele>115.500000</ele>
  <time>2012-03-25T08:53:48Z</time>
  <sat>10</sat>
</trkpt>
<trkpt lat="39.703832000" lon="-0.317436000">
  <ele>114.800000</ele>
  <time>2012-03-25T08:53:51Z</time>
  <sat>10</sat>
</trkpt>
<trkpt lat="39.703691000" lon="-0.317621000">
  <ele>114.500000</ele>
  <time>2012-03-25T08:53:54Z</time>
  <sat>10</sat>
</trkpt>
<trkpt lat="39.703534000" lon="-0.317781000">
  <ele>114.300000</ele>
  <time>2012-03-25T08:53:57Z</time>
  <sat>10</sat>
</trkpt>
<trkpt lat="39.703437000" lon="-0.317879000">
  <ele>114.600000</ele>
  <time>2012-03-25T08:53:59Z</time>
  <sat>10</sat>
</trkpt>
<trkpt lat="39.703346000" lon="-0.317966000">
  <ele>114.900000</ele>
  <time>2012-03-25T08:54:01Z</time>
  <sat>10</sat>
</trkpt>
<trkpt lat="39.703203000" lon="-0.318093000">
  <ele>115.000000</ele>
  <time>2012-03-25T08:54:04Z</time>
  <sat>10</sat>
</trkpt>
<trkpt lat="39.703076000" lon="-0.318240000">
  <ele>114.500000</ele>
  <time>2012-03-25T08:54:07Z</time>
  <sat>10</sat>
</trkpt>
<trkpt lat="39.702956000" lon="-0.318419000">
  <ele>114.500000</ele>
  <time>2012-03-25T08:54:10Z</time>
  <sat>8</sat>
</trkpt>
<trkpt lat="39.702839000" lon="-0.318595000">
  <ele>113.500000</ele>
  <time>2012-03-25T08:54:13Z</time>
  <sat>9</sat>
</trkpt>
<trkpt lat="39.702716000" lon="-0.318773000">
  <ele>113.000000</ele>
  <time>2012-03-25T08:54:16Z</time>
  <sat>10</sat>
</trkpt>
<trkpt lat="39.702571000" lon="-0.318947000">
  <ele>113.000000</ele>
  <time>2012-03-25T08:54:19Z</time>
  <sat>10</sat>
</trkpt>
<trkpt lat="39.702489000" lon="-0.319139000">
  <ele>112.400000</ele>
  <time>2012-03-25T08:54:22Z</time>
  <sat>10</sat>
</trkpt>
<trkpt lat="39.702460000" lon="-0.319395000">
  <ele>112.000000</ele>
  <time>2012-03-25T08:54:25Z</time>
  <sat>10</sat>
</trkpt>
<trkpt lat="39.702388000" lon="-0.319631000">
  <ele>112.800000</ele>
  <time>2012-03-25T08:54:28Z</time>
  <sat>10</sat>
</trkpt>
<trkpt lat="39.702304000" lon="-0.319872000">
  <ele>112.600000</ele>
  <time>2012-03-25T08:54:31Z</time>
  <sat>10</sat>
</trkpt>
<trkpt lat="39.702224000" lon="-0.320078000">
  <ele>111.800000</ele>
  <time>2012-03-25T08:54:34Z</time>
  <sat>6</sat>
</trkpt>
<trkpt lat="39.702139000" lon="-0.320311000">
  <ele>111.600000</ele>
  <time>2012-03-25T08:54:37Z</time>
  <sat>7</sat>
</trkpt>
<trkpt lat="39.702037000" lon="-0.320515000">
  <ele>111.000000</ele>
  <time>2012-03-25T08:54:40Z</time>
  <sat>7</sat>
</trkpt>
<trkpt lat="39.701928000" lon="-0.320723000">
  <ele>110.400000</ele>
  <time>2012-03-25T08:54:43Z</time>
  <sat>8</sat>
</trkpt>
<trkpt lat="39.701881000" lon="-0.320797000">
  <ele>110.400000</ele>
  <time>2012-03-25T08:54:44Z</time>
  <sat>9</sat>
</trkpt>
<trkpt lat="39.701720000" lon="-0.321176000">
  <ele>110.000000</ele>
  <time>2012-03-25T08:54:49Z</time>
  <sat>8</sat>
</trkpt>
<trkpt lat="39.701628000" lon="-0.321400000">
  <ele>110.300000</ele>
  <time>2012-03-25T08:54:52Z</time>
  <sat>8</sat>
</trkpt>
<trkpt lat="39.701535000" lon="-0.321640000">
  <ele>109.500000</ele>
  <time>2012-03-25T08:54:55Z</time>
  <sat>9</sat>
</trkpt>
<trkpt lat="39.701450000" lon="-0.321861000">
  <ele>109.300000</ele>
  <time>2012-03-25T08:54:58Z</time>
  <sat>9</sat>
</trkpt>
<trkpt lat="39.701435000" lon="-0.321987000">
  <ele>110.100000</ele>
  <time>2012-03-25T08:55:00Z</time>
  <sat>9</sat>
</trkpt>
<trkpt lat="39.701439000" lon="-0.322181000">
  <ele>109.800000</ele>
  <time>2012-03-25T08:55:03Z</time>
  <sat>10</sat>
</trkpt>
<trkpt lat="39.701433000" lon="-0.322389000">
  <ele>109.100000</ele>
  <time>2012-03-25T08:55:06Z</time>
  <sat>9</sat>
</trkpt>
<trkpt lat="39.701431000" lon="-0.322626000">
  <ele>108.300000</ele>
  <time>2012-03-25T08:55:09Z</time>
  <sat>5</sat>
</trkpt>
<trkpt lat="39.701412000" lon="-0.322884000">
  <ele>109.000000</ele>
  <time>2012-03-25T08:55:12Z</time>
  <sat>6</sat>
</trkpt>
<trkpt lat="39.701395000" lon="-0.323142000">
  <ele>108.800000</ele>
  <time>2012-03-25T08:55:15Z</time>
  <sat>10</sat>
</trkpt>
<trkpt lat="39.701343000" lon="-0.323401000">
  <ele>108.600000</ele>
  <time>2012-03-25T08:55:18Z</time>
  <sat>10</sat>
</trkpt>
<trkpt lat="39.701335000" lon="-0.323671000">
  <ele>107.500000</ele>
  <time>2012-03-25T08:55:21Z</time>
  <sat>9</sat>
</trkpt>
<trkpt lat="39.701272000" lon="-0.323895000">
  <ele>107.100000</ele>
  <time>2012-03-25T08:55:24Z</time>
  <sat>9</sat>
</trkpt>
<trkpt lat="39.701185000" lon="-0.324102000">
  <ele>108.000000</ele>
  <time>2012-03-25T08:55:27Z</time>
  <sat>9</sat>
</trkpt>
<trkpt lat="39.701094000" lon="-0.324272000">
  <ele>108.100000</ele>
  <time>2012-03-25T08:55:30Z</time>
  <sat>9</sat>
</trkpt>
<trkpt lat="39.701019000" lon="-0.324422000">
  <ele>108.500000</ele>
  <time>2012-03-25T08:55:33Z</time>
  <sat>9</sat>
</trkpt>
<trkpt lat="39.700975000" lon="-0.324629000">
  <ele>108.300000</ele>
  <time>2012-03-25T08:55:36Z</time>
  <sat>10</sat>
</trkpt>
<trkpt lat="39.700914000" lon="-0.324834000">
  <ele>107.500000</ele>
  <time>2012-03-25T08:55:39Z</time>
  <sat>8</sat>
</trkpt>
<trkpt lat="39.700860000" lon="-0.325042000">
  <ele>108.000000</ele>
  <time>2012-03-25T08:55:42Z</time>
  <sat>7</sat>
</trkpt>
<trkpt lat="39.700816000" lon="-0.325227000">
  <ele>108.500000</ele>
  <time>2012-03-25T08:55:45Z</time>
  <sat>7</sat>
</trkpt>
<trkpt lat="39.700806000" lon="-0.325286000">
  <ele>108.300000</ele>
  <time>2012-03-25T08:55:46Z</time>
  <sat>7</sat>
</trkpt>
<trkpt lat="39.700774000" lon="-0.325620000">
  <ele>108.000000</ele>
  <time>2012-03-25T08:55:51Z</time>
  <sat>7</sat>
</trkpt>
<trkpt lat="39.700804000" lon="-0.325855000">
  <ele>106.800000</ele>
  <time>2012-03-25T08:55:54Z</time>
  <sat>7</sat>
</trkpt>
<trkpt lat="39.700844000" lon="-0.326095000">
  <ele>105.500000</ele>
  <time>2012-03-25T08:55:57Z</time>
  <sat>8</sat>
</trkpt>
<trkpt lat="39.700862000" lon="-0.326268000">
  <ele>105.600000</ele>
  <time>2012-03-25T08:55:59Z</time>
  <sat>8</sat>
</trkpt>
<trkpt lat="39.700868000" lon="-0.326437000">
  <ele>106.100000</ele>
  <time>2012-03-25T08:56:01Z</time>
  <sat>9</sat>
</trkpt>
<trkpt lat="39.700863000" lon="-0.326675000">
  <ele>105.100000</ele>
  <time>2012-03-25T08:56:04Z</time>
  <sat>10</sat>
</trkpt>
<trkpt lat="39.700841000" lon="-0.326906000">
  <ele>104.500000</ele>
  <time>2012-03-25T08:56:07Z</time>
  <sat>10</sat>
</trkpt>
<trkpt lat="39.700815000" lon="-0.327141000">
  <ele>104.300000</ele>
  <time>2012-03-25T08:56:10Z</time>
  <sat>8</sat>
</trkpt>
<trkpt lat="39.700812000" lon="-0.327368000">
  <ele>103.800000</ele>
  <time>2012-03-25T08:56:13Z</time>
  <sat>9</sat>
</trkpt>
<trkpt lat="39.700835000" lon="-0.327600000">
  <ele>103.100000</ele>
  <time>2012-03-25T08:56:16Z</time>
  <sat>10</sat>
</trkpt>
<trkpt lat="39.700875000" lon="-0.327843000">
  <ele>102.400000</ele>
  <time>2012-03-25T08:56:19Z</time>
  <sat>10</sat>
</trkpt>
<trkpt lat="39.700898000" lon="-0.328081000">
  <ele>101.300000</ele>
  <time>2012-03-25T08:56:22Z</time>
  <sat>10</sat>
</trkpt>
<trkpt lat="39.700864000" lon="-0.328326000">
  <ele>101.100000</ele>
  <time>2012-03-25T08:56:25Z</time>
  <sat>9</sat>
</trkpt>
<trkpt lat="39.700796000" lon="-0.328576000">
  <ele>101.300000</ele>
  <time>2012-03-25T08:56:28Z</time>
  <sat>9</sat>
</trkpt>
<trkpt lat="39.700715000" lon="-0.328842000">
  <ele>101.400000</ele>
  <time>2012-03-25T08:56:31Z</time>
  <sat>8</sat>
</trkpt>
<trkpt lat="39.700634000" lon="-0.329095000">
  <ele>101.000000</ele>
  <time>2012-03-25T08:56:34Z</time>
  <sat>9</sat>
</trkpt>
<trkpt lat="39.700536000" lon="-0.329333000">
  <ele>101.300000</ele>
  <time>2012-03-25T08:56:37Z</time>
  <sat>9</sat>
</trkpt>
<trkpt lat="39.700446000" lon="-0.329566000">
  <ele>100.000000</ele>
  <time>2012-03-25T08:56:40Z</time>
  <sat>8</sat>
</trkpt>
<trkpt lat="39.700397000" lon="-0.329827000">
  <ele>99.300000</ele>
  <time>2012-03-25T08:56:43Z</time>
  <sat>7</sat>
</trkpt>
<trkpt lat="39.700342000" lon="-0.330075000">
  <ele>98.400000</ele>
  <time>2012-03-25T08:56:46Z</time>
  <sat>8</sat>
</trkpt>
<trkpt lat="39.700311000" lon="-0.330151000">
  <ele>98.300000</ele>
  <time>2012-03-25T08:56:47Z</time>
  <sat>8</sat>
</trkpt>
<trkpt lat="39.700096000" lon="-0.330497000">
  <ele>98.000000</ele>
  <time>2012-03-25T08:56:52Z</time>
  <sat>10</sat>
</trkpt>
<trkpt lat="39.699945000" lon="-0.330656000">
  <ele>98.800000</ele>
  <time>2012-03-25T08:56:55Z</time>
  <sat>10</sat>
</trkpt>
<trkpt lat="39.699848000" lon="-0.330903000">
  <ele>96.500000</ele>
  <time>2012-03-25T08:56:58Z</time>
  <sat>10</sat>
</trkpt>
<trkpt lat="39.699843000" lon="-0.331090000">
  <ele>94.500000</ele>
  <time>2012-03-25T08:57:00Z</time>
  <sat>10</sat>
</trkpt>
<trkpt lat="39.699771000" lon="-0.331337000">
  <ele>93.900000</ele>
  <time>2012-03-25T08:57:03Z</time>
  <sat>9</sat>
</trkpt>
<trkpt lat="39.699542000" lon="-0.331470000">
  <ele>91.100000</ele>
  <time>2012-03-25T08:57:06Z</time>
  <sat>10</sat>
</trkpt>
<trkpt lat="39.699288000" lon="-0.331509000">
  <ele>90.900000</ele>
  <time>2012-03-25T08:57:09Z</time>
  <sat>10</sat>
</trkpt>
<trkpt lat="39.699089000" lon="-0.331478000">
  <ele>92.400000</ele>
  <time>2012-03-25T08:57:12Z</time>
  <sat>9</sat>
</trkpt>
<trkpt lat="39.698933000" lon="-0.331417000">
  <ele>92.500000</ele>
  <time>2012-03-25T08:57:15Z</time>
  <sat>9</sat>
</trkpt>
<trkpt lat="39.698814000" lon="-0.331415000">
  <ele>92.800000</ele>
  <time>2012-03-25T08:57:18Z</time>
  <sat>9</sat>
</trkpt>
<trkpt lat="39.698782000" lon="-0.331558000">
  <ele>91.500000</ele>
  <time>2012-03-25T08:57:21Z</time>
  <sat>10</sat>
</trkpt>
<trkpt lat="39.698815000" lon="-0.331770000">
  <ele>90.500000</ele>
  <time>2012-03-25T08:57:24Z</time>
  <sat>9</sat>
</trkpt>
<trkpt lat="39.698868000" lon="-0.331996000">
  <ele>90.000000</ele>
  <time>2012-03-25T08:57:27Z</time>
  <sat>9</sat>
</trkpt>
<trkpt lat="39.698922000" lon="-0.332223000">
  <ele>90.100000</ele>
  <time>2012-03-25T08:57:30Z</time>
  <sat>9</sat>
</trkpt>
<trkpt lat="39.698976000" lon="-0.332447000">
  <ele>90.000000</ele>
  <time>2012-03-25T08:57:33Z</time>
  <sat>9</sat>
</trkpt>
<trkpt lat="39.699036000" lon="-0.332675000">
  <ele>90.000000</ele>
  <time>2012-03-25T08:57:36Z</time>
  <sat>8</sat>
</trkpt>
<trkpt lat="39.699096000" lon="-0.332905000">
  <ele>90.300000</ele>
  <time>2012-03-25T08:57:39Z</time>
  <sat>8</sat>
</trkpt>
<trkpt lat="39.699168000" lon="-0.333137000">
  <ele>90.000000</ele>
  <time>2012-03-25T08:57:42Z</time>
  <sat>9</sat>
</trkpt>
<trkpt lat="39.699253000" lon="-0.333362000">
  <ele>90.000000</ele>
  <time>2012-03-25T08:57:45Z</time>
  <sat>9</sat>
</trkpt>
<trkpt lat="39.699351000" lon="-0.333574000">
  <ele>89.900000</ele>
  <time>2012-03-25T08:57:48Z</time>
  <sat>9</sat>
</trkpt>
<trkpt lat="39.699388000" lon="-0.333644000">
  <ele>90.100000</ele>
  <time>2012-03-25T08:57:49Z</time>
  <sat>9</sat>
</trkpt>
<trkpt lat="39.699639000" lon="-0.333910000">
  <ele>90.100000</ele>
  <time>2012-03-25T08:57:54Z</time>
  <sat>8</sat>
</trkpt>
<trkpt lat="39.699785000" lon="-0.334078000">
  <ele>90.300000</ele>
  <time>2012-03-25T08:57:57Z</time>
  <sat>6</sat>
</trkpt>
<trkpt lat="39.699875000" lon="-0.334194000">
  <ele>90.500000</ele>
  <time>2012-03-25T08:57:59Z</time>
  <sat>8</sat>
</trkpt>
<trkpt lat="39.699956000" lon="-0.334310000">
  <ele>90.400000</ele>
  <time>2012-03-25T08:58:01Z</time>
  <sat>8</sat>
</trkpt>
<trkpt lat="39.700091000" lon="-0.334470000">
  <ele>90.600000</ele>
  <time>2012-03-25T08:58:04Z</time>
  <sat>8</sat>
</trkpt>
<trkpt lat="39.700236000" lon="-0.334622000">
  <ele>91.000000</ele>
  <time>2012-03-25T08:58:07Z</time>
  <sat>5</sat>
</trkpt>
<trkpt lat="39.700367000" lon="-0.334788000">
  <ele>90.600000</ele>
  <time>2012-03-25T08:58:10Z</time>
  <sat>7</sat>
</trkpt>
<trkpt lat="39.700504000" lon="-0.334953000">
  <ele>90.600000</ele>
  <time>2012-03-25T08:58:13Z</time>
  <sat>8</sat>
</trkpt>
<trkpt lat="39.700633000" lon="-0.335129000">
  <ele>91.000000</ele>
  <time>2012-03-25T08:58:16Z</time>
  <sat>7</sat>
</trkpt>
<trkpt lat="39.700752000" lon="-0.335313000">
  <ele>91.400000</ele>
  <time>2012-03-25T08:58:19Z</time>
  <sat>7</sat>
</trkpt>
<trkpt lat="39.700861000" lon="-0.335505000">
  <ele>91.500000</ele>
  <time>2012-03-25T08:58:22Z</time>
  <sat>7</sat>
</trkpt>
<trkpt lat="39.700958000" lon="-0.335701000">
  <ele>91.800000</ele>
  <time>2012-03-25T08:58:25Z</time>
  <sat>8</sat>
</trkpt>
<trkpt lat="39.701043000" lon="-0.335902000">
  <ele>91.600000</ele>
  <time>2012-03-25T08:58:28Z</time>
  <sat>10</sat>
</trkpt>
<trkpt lat="39.701130000" lon="-0.336107000">
  <ele>91.500000</ele>
  <time>2012-03-25T08:58:31Z</time>
  <sat>10</sat>
</trkpt>
<trkpt lat="39.701206000" lon="-0.336311000">
  <ele>92.100000</ele>
  <time>2012-03-25T08:58:34Z</time>
  <sat>10</sat>
</trkpt>
<trkpt lat="39.701302000" lon="-0.336497000">
  <ele>92.600000</ele>
  <time>2012-03-25T08:58:37Z</time>
  <sat>10</sat>
</trkpt>
<trkpt lat="39.701397000" lon="-0.336678000">
  <ele>92.600000</ele>
  <time>2012-03-25T08:58:40Z</time>
  <sat>10</sat>
</trkpt>
<trkpt lat="39.701516000" lon="-0.336837000">
  <ele>93.900000</ele>
  <time>2012-03-25T08:58:43Z</time>
  <sat>10</sat>
</trkpt>
<trkpt lat="39.701659000" lon="-0.336947000">
  <ele>93.900000</ele>
  <time>2012-03-25T08:58:46Z</time>
  <sat>10</sat>
</trkpt>
<trkpt lat="39.701799000" lon="-0.337050000">
  <ele>93.900000</ele>
  <time>2012-03-25T08:58:49Z</time>
  <sat>9</sat>
</trkpt>
<trkpt lat="39.701843000" lon="-0.337087000">
  <ele>94.000000</ele>
  <time>2012-03-25T08:58:50Z</time>
  <sat>9</sat>
</trkpt>
<trkpt lat="39.702050000" lon="-0.337248000">
  <ele>94.500000</ele>
  <time>2012-03-25T08:58:55Z</time>
  <sat>7</sat>
</trkpt>
<trkpt lat="39.702140000" lon="-0.337337000">
  <ele>94.800000</ele>
  <time>2012-03-25T08:58:58Z</time>
  <sat>7</sat>
</trkpt>
<trkpt lat="39.702169000" lon="-0.337384000">
  <ele>94.900000</ele>
  <time>2012-03-25T08:59:00Z</time>
  <sat>9</sat>
</trkpt>
<trkpt lat="39.702134000" lon="-0.337496000">
  <ele>94.500000</ele>
  <time>2012-03-25T08:59:03Z</time>
  <sat>10</sat>
</trkpt>
<trkpt lat="39.702039000" lon="-0.337614000">
  <ele>94.400000</ele>
  <time>2012-03-25T08:59:06Z</time>
  <sat>10</sat>
</trkpt>
<trkpt lat="39.701972000" lon="-0.337746000">
  <ele>94.000000</ele>
  <time>2012-03-25T08:59:09Z</time>
  <sat>10</sat>
</trkpt>
<trkpt lat="39.702017000" lon="-0.337885000">
  <ele>93.900000</ele>
  <time>2012-03-25T08:59:12Z</time>
  <sat>9</sat>
</trkpt>
<trkpt lat="39.702093000" lon="-0.338048000">
  <ele>94.000000</ele>
  <time>2012-03-25T08:59:15Z</time>
  <sat>9</sat>
</trkpt>
<trkpt lat="39.702180000" lon="-0.338216000">
  <ele>94.000000</ele>
  <time>2012-03-25T08:59:18Z</time>
  <sat>8</sat>
</trkpt>
<trkpt lat="39.702258000" lon="-0.338394000">
  <ele>94.000000</ele>
  <time>2012-03-25T08:59:21Z</time>
  <sat>10</sat>
</trkpt>
<trkpt lat="39.702334000" lon="-0.338578000">
  <ele>94.100000</ele>
  <time>2012-03-25T08:59:24Z</time>
  <sat>10</sat>
</trkpt>
<trkpt lat="39.702415000" lon="-0.338763000">
  <ele>94.000000</ele>
  <time>2012-03-25T08:59:27Z</time>
  <sat>10</sat>
</trkpt>
<trkpt lat="39.702500000" lon="-0.338959000">
  <ele>93.900000</ele>
  <time>2012-03-25T08:59:30Z</time>
  <sat>9</sat>
</trkpt>
<trkpt lat="39.702575000" lon="-0.339158000">
  <ele>94.000000</ele>
  <time>2012-03-25T08:59:33Z</time>
  <sat>9</sat>
</trkpt>
<trkpt lat="39.702647000" lon="-0.339358000">
  <ele>94.100000</ele>
  <time>2012-03-25T08:59:36Z</time>
  <sat>9</sat>
</trkpt>
<trkpt lat="39.702717000" lon="-0.339555000">
  <ele>93.900000</ele>
  <time>2012-03-25T08:59:39Z</time>
  <sat>9</sat>
</trkpt>
<trkpt lat="39.702796000" lon="-0.339754000">
  <ele>93.400000</ele>
  <time>2012-03-25T08:59:42Z</time>
  <sat>9</sat>
</trkpt>
<trkpt lat="39.702880000" lon="-0.339951000">
  <ele>93.300000</ele>
  <time>2012-03-25T08:59:45Z</time>
  <sat>8</sat>
</trkpt>
<trkpt lat="39.702951000" lon="-0.340148000">
  <ele>93.500000</ele>
  <time>2012-03-25T08:59:48Z</time>
  <sat>10</sat>
</trkpt>
<trkpt lat="39.703013000" lon="-0.340336000">
  <ele>93.800000</ele>
  <time>2012-03-25T08:59:51Z</time>
  <sat>10</sat>
</trkpt>
<trkpt lat="39.703035000" lon="-0.340398000">
  <ele>94.000000</ele>
  <time>2012-03-25T08:59:52Z</time>
  <sat>10</sat>
</trkpt>
<trkpt lat="39.703157000" lon="-0.340712000">
  <ele>95.000000</ele>
  <time>2012-03-25T08:59:57Z</time>
  <sat>10</sat>
</trkpt>
<trkpt lat="39.703216000" lon="-0.340840000">
  <ele>94.800000</ele>
  <time>2012-03-25T08:59:59Z</time>
  <sat>10</sat>
</trkpt>
<trkpt lat="39.703266000" lon="-0.340964000">
  <ele>94.900000</ele>
  <time>2012-03-25T09:00:01Z</time>
  <sat>10</sat>
</trkpt>
<trkpt lat="39.703345000" lon="-0.341162000">
  <ele>94.900000</ele>
  <time>2012-03-25T09:00:04Z</time>
  <sat>10</sat>
</trkpt>
<trkpt lat="39.703435000" lon="-0.341366000">
  <ele>94.800000</ele>
  <time>2012-03-25T09:00:07Z</time>
  <sat>10</sat>
</trkpt>
<trkpt lat="39.703551000" lon="-0.341554000">
  <ele>94.800000</ele>
  <time>2012-03-25T09:00:10Z</time>
  <sat>10</sat>
</trkpt>
<trkpt lat="39.703681000" lon="-0.341727000">
  <ele>94.600000</ele>
  <time>2012-03-25T09:00:13Z</time>
  <sat>7</sat>
</trkpt>
<trkpt lat="39.703816000" lon="-0.341889000">
  <ele>95.000000</ele>
  <time>2012-03-25T09:00:16Z</time>
  <sat>5</sat>
</trkpt>
<trkpt lat="39.703950000" lon="-0.342042000">
  <ele>95.000000</ele>
  <time>2012-03-25T09:00:19Z</time>
  <sat>5</sat>
</trkpt>
<trkpt lat="39.704084000" lon="-0.342199000">
  <ele>95.400000</ele>
  <time>2012-03-25T09:00:22Z</time>
  <sat>5</sat>
</trkpt>
<trkpt lat="39.704199000" lon="-0.342337000">
  <ele>96.300000</ele>
  <time>2012-03-25T09:00:25Z</time>
  <sat>6</sat>
</trkpt>
<trkpt lat="39.704320000" lon="-0.342494000">
  <ele>96.100000</ele>
  <time>2012-03-25T09:00:28Z</time>
  <sat>6</sat>
</trkpt>
<trkpt lat="39.704430000" lon="-0.342649000">
  <ele>96.500000</ele>
  <time>2012-03-25T09:00:31Z</time>
  <sat>7</sat>
</trkpt>
<trkpt lat="39.704539000" lon="-0.342802000">
  <ele>96.900000</ele>
  <time>2012-03-25T09:00:34Z</time>
  <sat>7</sat>
</trkpt>
<trkpt lat="39.704700000" lon="-0.342891000">
  <ele>96.500000</ele>
  <time>2012-03-25T09:00:37Z</time>
  <sat>8</sat>
</trkpt>
<trkpt lat="39.704880000" lon="-0.342957000">
  <ele>96.300000</ele>
  <time>2012-03-25T09:00:40Z</time>
  <sat>8</sat>
</trkpt>
<trkpt lat="39.705060000" lon="-0.342988000">
  <ele>96.500000</ele>
  <time>2012-03-25T09:00:43Z</time>
  <sat>9</sat>
</trkpt>
<trkpt lat="39.705232000" lon="-0.343015000">
  <ele>96.100000</ele>
  <time>2012-03-25T09:00:46Z</time>
  <sat>8</sat>
</trkpt>
<trkpt lat="39.705395000" lon="-0.343065000">
  <ele>96.100000</ele>
  <time>2012-03-25T09:00:49Z</time>
  <sat>8</sat>
</trkpt>
<trkpt lat="39.705561000" lon="-0.343146000">
  <ele>96.000000</ele>
  <time>2012-03-25T09:00:52Z</time>
  <sat>7</sat>
</trkpt>
<trkpt lat="39.705619000" lon="-0.343175000">
  <ele>96.000000</ele>
  <time>2012-03-25T09:00:53Z</time>
  <sat>7</sat>
</trkpt>
<trkpt lat="39.705901000" lon="-0.343340000">
  <ele>96.000000</ele>
  <time>2012-03-25T09:00:58Z</time>
  <sat>7</sat>
</trkpt>
<trkpt lat="39.706000000" lon="-0.343413000">
  <ele>96.000000</ele>
  <time>2012-03-25T09:01:00Z</time>
  <sat>8</sat>
</trkpt>
<trkpt lat="39.706152000" lon="-0.343546000">
  <ele>95.300000</ele>
  <time>2012-03-25T09:01:03Z</time>
  <sat>8</sat>
</trkpt>
<trkpt lat="39.706301000" lon="-0.343698000">
  <ele>94.800000</ele>
  <time>2012-03-25T09:01:06Z</time>
  <sat>6</sat>
</trkpt>
<trkpt lat="39.706477000" lon="-0.343785000">
  <ele>95.500000</ele>
  <time>2012-03-25T09:01:09Z</time>
  <sat>8</sat>
</trkpt>
<trkpt lat="39.706655000" lon="-0.343878000">
  <ele>95.500000</ele>
  <time>2012-03-25T09:01:12Z</time>
  <sat>9</sat>
</trkpt>
<trkpt lat="39.706793000" lon="-0.344022000">
  <ele>95.600000</ele>
  <time>2012-03-25T09:01:15Z</time>
  <sat>8</sat>
</trkpt>
<trkpt lat="39.706928000" lon="-0.344182000">
  <ele>95.900000</ele>
  <time>2012-03-25T09:01:18Z</time>
  <sat>7</sat>
</trkpt>
<trkpt lat="39.707077000" lon="-0.344300000">
  <ele>96.500000</ele>
  <time>2012-03-25T09:01:21Z</time>
  <sat>6</sat>
</trkpt>
<trkpt lat="39.707242000" lon="-0.344322000">
  <ele>96.900000</ele>
  <time>2012-03-25T09:01:24Z</time>
  <sat>10</sat>
</trkpt>
<trkpt lat="39.707394000" lon="-0.344331000">
  <ele>97.300000</ele>
  <time>2012-03-25T09:01:27Z</time>
  <sat>10</sat>
</trkpt>
<trkpt lat="39.707524000" lon="-0.344359000">
  <ele>97.300000</ele>
  <time>2012-03-25T09:01:30Z</time>
  <sat>9</sat>
</trkpt>
<trkpt lat="39.707626000" lon="-0.344321000">
  <ele>97.000000</ele>
  <time>2012-03-25T09:01:33Z</time>
  <sat>10</sat>
</trkpt>
<trkpt lat="39.707718000" lon="-0.344223000">
  <ele>97.300000</ele>
  <time>2012-03-25T09:01:36Z</time>
  <sat>10</sat>
</trkpt>
<trkpt lat="39.707823000" lon="-0.344128000">
  <ele>98.400000</ele>
  <time>2012-03-25T09:01:39Z</time>
  <sat>10</sat>
</trkpt>
<trkpt lat="39.707951000" lon="-0.344080000">
  <ele>98.500000</ele>
  <time>2012-03-25T09:01:42Z</time>
  <sat>10</sat>
</trkpt>
<trkpt lat="39.708083000" lon="-0.344050000">
  <ele>99.000000</ele>
  <time>2012-03-25T09:01:45Z</time>
  <sat>10</sat>
</trkpt>
<trkpt lat="39.708205000" lon="-0.344032000">
  <ele>98.900000</ele>
  <time>2012-03-25T09:01:48Z</time>
  <sat>10</sat>
</trkpt>
<trkpt lat="39.708332000" lon="-0.344047000">
  <ele>98.900000</ele>
  <time>2012-03-25T09:01:51Z</time>
  <sat>10</sat>
</trkpt>
<trkpt lat="39.708454000" lon="-0.344119000">
  <ele>99.000000</ele>
  <time>2012-03-25T09:01:54Z</time>
  <sat>9</sat>
</trkpt>
<trkpt lat="39.708500000" lon="-0.344131000">
  <ele>99.000000</ele>
  <time>2012-03-25T09:01:55Z</time>
  <sat>9</sat>
</trkpt>
<trkpt lat="39.708675000" lon="-0.344181000">
  <ele>99.400000</ele>
  <time>2012-03-25T09:01:59Z</time>
  <sat>8</sat>
</trkpt>
<trkpt lat="39.708768000" lon="-0.344213000">
  <ele>99.500000</ele>
  <time>2012-03-25T09:02:01Z</time>
  <sat>9</sat>
</trkpt>
<trkpt lat="39.708907000" lon="-0.344269000">
  <ele>99.600000</ele>
  <time>2012-03-25T09:02:04Z</time>
  <sat>7</sat>
</trkpt>
<trkpt lat="39.709036000" lon="-0.344339000">
  <ele>99.600000</ele>
  <time>2012-03-25T09:02:07Z</time>
  <sat>8</sat>
</trkpt>
<trkpt lat="39.709159000" lon="-0.344417000">
  <ele>99.600000</ele>
  <time>2012-03-25T09:02:10Z</time>
  <sat>8</sat>
</trkpt>
<trkpt lat="39.709294000" lon="-0.344478000">
  <ele>99.600000</ele>
  <time>2012-03-25T09:02:13Z</time>
  <sat>8</sat>
</trkpt>
<trkpt lat="39.709430000" lon="-0.344519000">
  <ele>100.000000</ele>
  <time>2012-03-25T09:02:16Z</time>
  <sat>8</sat>
</trkpt>
<trkpt lat="39.709562000" lon="-0.344565000">
  <ele>99.500000</ele>
  <time>2012-03-25T09:02:19Z</time>
  <sat>9</sat>
</trkpt>
<trkpt lat="39.709687000" lon="-0.344617000">
  <ele>99.100000</ele>
  <time>2012-03-25T09:02:22Z</time>
  <sat>10</sat>
</trkpt>
<trkpt lat="39.709823000" lon="-0.344644000">
  <ele>99.500000</ele>
  <time>2012-03-25T09:02:25Z</time>
  <sat>9</sat>
</trkpt>
<trkpt lat="39.709955000" lon="-0.344671000">
  <ele>99.500000</ele>
  <time>2012-03-25T09:02:28Z</time>
  <sat>8</sat>
</trkpt>
<trkpt lat="39.710095000" lon="-0.344679000">
  <ele>99.500000</ele>
  <time>2012-03-25T09:02:31Z</time>
  <sat>8</sat>
</trkpt>
<trkpt lat="39.710235000" lon="-0.344676000">
  <ele>99.400000</ele>
  <time>2012-03-25T09:02:34Z</time>
  <sat>9</sat>
</trkpt>
<trkpt lat="39.710378000" lon="-0.344687000">
  <ele>99.100000</ele>
  <time>2012-03-25T09:02:37Z</time>
  <sat>9</sat>
</trkpt>
<trkpt lat="39.710516000" lon="-0.344713000">
  <ele>99.000000</ele>
  <time>2012-03-25T09:02:40Z</time>
  <sat>8</sat>
</trkpt>
<trkpt lat="39.710643000" lon="-0.344739000">
  <ele>99.500000</ele>
  <time>2012-03-25T09:02:43Z</time>
  <sat>9</sat>
</trkpt>
<trkpt lat="39.710759000" lon="-0.344790000">
  <ele>99.300000</ele>
  <time>2012-03-25T09:02:46Z</time>
  <sat>9</sat>
</trkpt>
<trkpt lat="39.710852000" lon="-0.344864000">
  <ele>99.300000</ele>
  <time>2012-03-25T09:02:49Z</time>
  <sat>9</sat>
</trkpt>
<trkpt lat="39.710944000" lon="-0.344911000">
  <ele>98.900000</ele>
  <time>2012-03-25T09:02:52Z</time>
  <sat>10</sat>
</trkpt>
<trkpt lat="39.711014000" lon="-0.344971000">
  <ele>99.800000</ele>
  <time>2012-03-25T09:02:55Z</time>
  <sat>10</sat>
</trkpt>
<trkpt lat="39.711014000" lon="-0.345009000">
  <ele>99.500000</ele>
  <time>2012-03-25T09:02:56Z</time>
  <sat>10</sat>
</trkpt>
<trkpt lat="39.710929000" lon="-0.345269000">
  <ele>96.900000</ele>
  <time>2012-03-25T09:03:00Z</time>
  <sat>10</sat>
</trkpt>
<trkpt lat="39.710986000" lon="-0.345540000">
  <ele>95.600000</ele>
  <time>2012-03-25T09:03:03Z</time>
  <sat>10</sat>
</trkpt>
<trkpt lat="39.711039000" lon="-0.345794000">
  <ele>95.000000</ele>
  <time>2012-03-25T09:03:06Z</time>
  <sat>10</sat>
</trkpt>
<trkpt lat="39.711107000" lon="-0.346028000">
  <ele>95.000000</ele>
  <time>2012-03-25T09:03:09Z</time>
  <sat>10</sat>
</trkpt>
<trkpt lat="39.711183000" lon="-0.346165000">
  <ele>94.900000</ele>
  <time>2012-03-25T09:03:12Z</time>
  <sat>10</sat>
</trkpt>
<trkpt lat="39.711301000" lon="-0.346130000">
  <ele>95.300000</ele>
  <time>2012-03-25T09:03:15Z</time>
  <sat>10</sat>
</trkpt>
<trkpt lat="39.711429000" lon="-0.346064000">
  <ele>95.600000</ele>
  <time>2012-03-25T09:03:18Z</time>
  <sat>8</sat>
</trkpt>
<trkpt lat="39.711559000" lon="-0.346003000">
  <ele>95.600000</ele>
  <time>2012-03-25T09:03:21Z</time>
  <sat>8</sat>
</trkpt>
<trkpt lat="39.711691000" lon="-0.345929000">
  <ele>95.800000</ele>
  <time>2012-03-25T09:03:24Z</time>
  <sat>8</sat>
</trkpt>
<trkpt lat="39.711815000" lon="-0.345858000">
  <ele>95.000000</ele>
  <time>2012-03-25T09:03:27Z</time>
  <sat>7</sat>
</trkpt>
<trkpt lat="39.711915000" lon="-0.345811000">
  <ele>95.900000</ele>
  <time>2012-03-25T09:03:30Z</time>
  <sat>8</sat>
</trkpt>
<trkpt lat="39.711981000" lon="-0.345841000">
  <ele>96.500000</ele>
  <time>2012-03-25T09:03:33Z</time>
  <sat>8</sat>
</trkpt>
<trkpt lat="39.712012000" lon="-0.345929000">
  <ele>96.600000</ele>
  <time>2012-03-25T09:03:36Z</time>
  <sat>8</sat>
</trkpt>
<trkpt lat="39.711995000" lon="-0.346022000">
  <ele>96.500000</ele>
  <time>2012-03-25T09:03:39Z</time>
  <sat>7</sat>
</trkpt>
<trkpt lat="39.711907000" lon="-0.346076000">
  <ele>98.100000</ele>
  <time>2012-03-25T09:03:42Z</time>
  <sat>9</sat>
</trkpt>
<trkpt lat="39.711826000" lon="-0.346160000">
  <ele>99.900000</ele>
  <time>2012-03-25T09:03:45Z</time>
  <sat>9</sat>
</trkpt>
<trkpt lat="39.711752000" lon="-0.346227000">
  <ele>101.500000</ele>
  <time>2012-03-25T09:03:48Z</time>
  <sat>10</sat>
</trkpt>
<trkpt lat="39.711690000" lon="-0.346297000">
  <ele>103.500000</ele>
  <time>2012-03-25T09:03:51Z</time>
  <sat>10</sat>
</trkpt>
<trkpt lat="39.711631000" lon="-0.346362000">
  <ele>104.300000</ele>
  <time>2012-03-25T09:03:54Z</time>
  <sat>10</sat>
</trkpt>
<trkpt lat="39.711561000" lon="-0.346430000">
  <ele>105.900000</ele>
  <time>2012-03-25T09:03:57Z</time>
  <sat>10</sat>
</trkpt>
<trkpt lat="39.711541000" lon="-0.346452000">
  <ele>106.100000</ele>
  <time>2012-03-25T09:03:58Z</time>
  <sat>10</sat>
</trkpt>
<trkpt lat="39.711526000" lon="-0.346554000">
  <ele>108.000000</ele>
  <time>2012-03-25T09:04:01Z</time>
  <sat>10</sat>
</trkpt>
<trkpt lat="39.711545000" lon="-0.346657000">
  <ele>108.800000</ele>
  <time>2012-03-25T09:04:04Z</time>
  <sat>10</sat>
</trkpt>
<trkpt lat="39.711584000" lon="-0.346749000">
  <ele>108.300000</ele>
  <time>2012-03-25T09:04:07Z</time>
  <sat>8</sat>
</trkpt>
<trkpt lat="39.711632000" lon="-0.346820000">
  <ele>107.800000</ele>
  <time>2012-03-25T09:04:10Z</time>
  <sat>6</sat>
</trkpt>
<trkpt lat="39.711678000" lon="-0.346899000">
  <ele>107.900000</ele>
  <time>2012-03-25T09:04:13Z</time>
  <sat>7</sat>
</trkpt>
<trkpt lat="39.711730000" lon="-0.346974000">
  <ele>108.500000</ele>
  <time>2012-03-25T09:04:16Z</time>
  <sat>8</sat>
</trkpt>
<trkpt lat="39.711790000" lon="-0.347015000">
  <ele>109.500000</ele>
  <time>2012-03-25T09:04:19Z</time>
  <sat>9</sat>
</trkpt>
<trkpt lat="39.711840000" lon="-0.347076000">
  <ele>111.000000</ele>
  <time>2012-03-25T09:04:22Z</time>
  <sat>9</sat>
</trkpt>
<trkpt lat="39.711876000" lon="-0.347130000">
  <ele>113.500000</ele>
  <time>2012-03-25T09:04:25Z</time>
  <sat>9</sat>
</trkpt>
<trkpt lat="39.711925000" lon="-0.347188000">
  <ele>116.600000</ele>
  <time>2012-03-25T09:04:28Z</time>
  <sat>9</sat>
</trkpt>
<trkpt lat="39.711982000" lon="-0.347269000">
  <ele>115.900000</ele>
  <time>2012-03-25T09:04:31Z</time>
  <sat>9</sat>
</trkpt>
<trkpt lat="39.712058000" lon="-0.347314000">
  <ele>116.300000</ele>
  <time>2012-03-25T09:04:34Z</time>
  <sat>9</sat>
</trkpt>
<trkpt lat="39.712152000" lon="-0.347273000">
  <ele>117.500000</ele>
  <time>2012-03-25T09:04:37Z</time>
  <sat>10</sat>
</trkpt>
<trkpt lat="39.712237000" lon="-0.347213000">
  <ele>119.900000</ele>
  <time>2012-03-25T09:04:40Z</time>
  <sat>10</sat>
</trkpt>
<trkpt lat="39.712362000" lon="-0.347131000">
  <ele>117.900000</ele>
  <time>2012-03-25T09:04:43Z</time>
  <sat>10</sat>
</trkpt>
<trkpt lat="39.712443000" lon="-0.347050000">
  <ele>118.500000</ele>
  <time>2012-03-25T09:04:46Z</time>
  <sat>10</sat>
</trkpt>
<trkpt lat="39.712507000" lon="-0.346962000">
  <ele>118.800000</ele>
  <time>2012-03-25T09:04:49Z</time>
  <sat>10</sat>
</trkpt>
<trkpt lat="39.712565000" lon="-0.346879000">
  <ele>120.300000</ele>
  <time>2012-03-25T09:04:52Z</time>
  <sat>10</sat>
</trkpt>
<trkpt lat="39.712636000" lon="-0.346880000">
  <ele>121.000000</ele>
  <time>2012-03-25T09:04:55Z</time>
  <sat>10</sat>
</trkpt>
<trkpt lat="39.712705000" lon="-0.346942000">
  <ele>119.500000</ele>
  <time>2012-03-25T09:04:58Z</time>
  <sat>10</sat>
</trkpt>
<trkpt lat="39.712731000" lon="-0.346975000">
  <ele>119.000000</ele>
  <time>2012-03-25T09:04:59Z</time>
  <sat>9</sat>
</trkpt>
<trkpt lat="39.712788000" lon="-0.347074000">
  <ele>119.500000</ele>
  <time>2012-03-25T09:05:03Z</time>
  <sat>10</sat>
</trkpt>
<trkpt lat="39.712902000" lon="-0.347096000">
  <ele>120.000000</ele>
  <time>2012-03-25T09:05:06Z</time>
  <sat>10</sat>
</trkpt>
<trkpt lat="39.712985000" lon="-0.347175000">
  <ele>120.100000</ele>
  <time>2012-03-25T09:05:09Z</time>
  <sat>10</sat>
</trkpt>
<trkpt lat="39.713081000" lon="-0.347284000">
  <ele>118.500000</ele>
  <time>2012-03-25T09:05:12Z</time>
  <sat>9</sat>
</trkpt>
<trkpt lat="39.713149000" lon="-0.347370000">
  <ele>118.000000</ele>
  <time>2012-03-25T09:05:15Z</time>
  <sat>9</sat>
</trkpt>
<trkpt lat="39.713208000" lon="-0.347461000">
  <ele>117.500000</ele>
  <time>2012-03-25T09:05:18Z</time>
  <sat>9</sat>
</trkpt>
<trkpt lat="39.713275000" lon="-0.347577000">
  <ele>117.500000</ele>
  <time>2012-03-25T09:05:21Z</time>
  <sat>9</sat>
</trkpt>
<trkpt lat="39.713324000" lon="-0.347670000">
  <ele>117.000000</ele>
  <time>2012-03-25T09:05:24Z</time>
  <sat>10</sat>
</trkpt>
<trkpt lat="39.713389000" lon="-0.347772000">
  <ele>116.100000</ele>
  <time>2012-03-25T09:05:27Z</time>
  <sat>10</sat>
</trkpt>
<trkpt lat="39.713488000" lon="-0.347909000">
  <ele>114.900000</ele>
  <time>2012-03-25T09:05:30Z</time>
  <sat>10</sat>
</trkpt>
<trkpt lat="39.713555000" lon="-0.348057000">
  <ele>116.500000</ele>
  <time>2012-03-25T09:05:33Z</time>
  <sat>10</sat>
</trkpt>
<trkpt lat="39.713614000" lon="-0.348202000">
  <ele>116.600000</ele>
  <time>2012-03-25T09:05:36Z</time>
  <sat>10</sat>
</trkpt>
<trkpt lat="39.713670000" lon="-0.348332000">
  <ele>116.900000</ele>
  <time>2012-03-25T09:05:39Z</time>
  <sat>10</sat>
</trkpt>
<trkpt lat="39.713744000" lon="-0.348471000">
  <ele>117.000000</ele>
  <time>2012-03-25T09:05:42Z</time>
  <sat>10</sat>
</trkpt>
<trkpt lat="39.713822000" lon="-0.348596000">
  <ele>117.000000</ele>
  <time>2012-03-25T09:05:45Z</time>
  <sat>6</sat>
</trkpt>
<trkpt lat="39.713910000" lon="-0.348714000">
  <ele>117.300000</ele>
  <time>2012-03-25T09:05:48Z</time>
  <sat>10</sat>
</trkpt>
<trkpt lat="39.714000000" lon="-0.348841000">
  <ele>117.300000</ele>
  <time>2012-03-25T09:05:51Z</time>
  <sat>10</sat>
</trkpt>
<trkpt lat="39.714086000" lon="-0.348952000">
  <ele>118.300000</ele>
  <time>2012-03-25T09:05:54Z</time>
  <sat>8</sat>
</trkpt>
<trkpt lat="39.714181000" lon="-0.349058000">
  <ele>118.400000</ele>
  <time>2012-03-25T09:05:57Z</time>
  <sat>6</sat>
</trkpt>
<trkpt lat="39.714215000" lon="-0.349128000">
  <ele>120.000000</ele>
  <time>2012-03-25T09:05:59Z</time>
  <sat>10</sat>
</trkpt>
<trkpt lat="39.714259000" lon="-0.349175000">
  <ele>119.900000</ele>
  <time>2012-03-25T09:06:01Z</time>
  <sat>10</sat>
</trkpt>
<trkpt lat="39.714287000" lon="-0.349205000">
  <ele>120.000000</ele>
  <time>2012-03-25T09:06:02Z</time>
  <sat>10</sat>
</trkpt>
<trkpt lat="39.714400000" lon="-0.349362000">
  <ele>117.500000</ele>
  <time>2012-03-25T09:06:07Z</time>
  <sat>8</sat>
</trkpt>
<trkpt lat="39.714455000" lon="-0.349437000">
  <ele>118.600000</ele>
  <time>2012-03-25T09:06:10Z</time>
  <sat>9</sat>
</trkpt>
<trkpt lat="39.714538000" lon="-0.349450000">
  <ele>118.500000</ele>
  <time>2012-03-25T09:06:13Z</time>
  <sat>9</sat>
</trkpt>
<trkpt lat="39.714639000" lon="-0.349454000">
  <ele>118.900000</ele>
  <time>2012-03-25T09:06:16Z</time>
  <sat>8</sat>
</trkpt>
<trkpt lat="39.714751000" lon="-0.349451000">
  <ele>119.000000</ele>
  <time>2012-03-25T09:06:19Z</time>
  <sat>9</sat>
</trkpt>
<trkpt lat="39.714824000" lon="-0.349534000">
  <ele>118.300000</ele>
  <time>2012-03-25T09:06:22Z</time>
  <sat>9</sat>
</trkpt>
<trkpt lat="39.714793000" lon="-0.349719000">
  <ele>118.800000</ele>
  <time>2012-03-25T09:06:25Z</time>
  <sat>10</sat>
</trkpt>
<trkpt lat="39.714799000" lon="-0.349878000">
  <ele>118.900000</ele>
  <time>2012-03-25T09:06:28Z</time>
  <sat>10</sat>
</trkpt>
<trkpt lat="39.714798000" lon="-0.350039000">
  <ele>119.000000</ele>
  <time>2012-03-25T09:06:31Z</time>
  <sat>10</sat>
</trkpt>
<trkpt lat="39.714804000" lon="-0.350196000">
  <ele>120.000000</ele>
  <time>2012-03-25T09:06:34Z</time>
  <sat>8</sat>
</trkpt>
<trkpt lat="39.714804000" lon="-0.350353000">
  <ele>120.500000</ele>
  <time>2012-03-25T09:06:37Z</time>
  <sat>8</sat>
</trkpt>
<trkpt lat="39.714798000" lon="-0.350497000">
  <ele>121.500000</ele>
  <time>2012-03-25T09:06:40Z</time>
  <sat>8</sat>
</trkpt>
<trkpt lat="39.714787000" lon="-0.350640000">
  <ele>121.600000</ele>
  <time>2012-03-25T09:06:43Z</time>
  <sat>9</sat>
</trkpt>
<trkpt lat="39.714723000" lon="-0.350712000">
  <ele>122.300000</ele>
  <time>2012-03-25T09:06:46Z</time>
  <sat>10</sat>
</trkpt>
<trkpt lat="39.714663000" lon="-0.350742000">
  <ele>122.600000</ele>
  <time>2012-03-25T09:06:49Z</time>
  <sat>10</sat>
</trkpt>
<trkpt lat="39.714642000" lon="-0.350738000">
  <ele>122.400000</ele>
  <time>2012-03-25T09:06:52Z</time>
  <sat>10</sat>
</trkpt>
<trkpt lat="39.714642000" lon="-0.350741000">
  <ele>121.300000</ele>
  <time>2012-03-25T09:06:55Z</time>
  <sat>10</sat>
</trkpt>
<trkpt lat="39.714645000" lon="-0.350741000">
  <ele>121.300000</ele>
  <time>2012-03-25T09:06:58Z</time>
  <sat>10</sat>
</trkpt>
<trkpt lat="39.714647000" lon="-0.350738000">
  <ele>121.300000</ele>
  <time>2012-03-25T09:07:00Z</time>
  <sat>10</sat>
</trkpt>
<trkpt lat="39.714650000" lon="-0.350736000">
  <ele>121.100000</ele>
  <time>2012-03-25T09:07:03Z</time>
  <sat>9</sat>
</trkpt>
<trkpt lat="39.714651000" lon="-0.350736000">
  <ele>121.100000</ele>
  <time>2012-03-25T09:07:04Z</time>
  <sat>9</sat>
</trkpt>
<trkpt lat="39.714651000" lon="-0.350735000">
  <ele>121.300000</ele>
  <time>2012-03-25T09:07:09Z</time>
  <sat>9</sat>
</trkpt>
<trkpt lat="39.714651000" lon="-0.350735000">
  <ele>121.300000</ele>
  <time>2012-03-25T09:07:12Z</time>
  <sat>7</sat>
</trkpt>
<trkpt lat="39.714651000" lon="-0.350735000">
  <ele>121.300000</ele>
  <time>2012-03-25T09:07:15Z</time>
  <sat>6</sat>
</trkpt>
<trkpt lat="39.714651000" lon="-0.350735000">
  <ele>121.300000</ele>
  <time>2012-03-25T09:07:18Z</time>
  <sat>9</sat>
</trkpt>
<trkpt lat="39.714651000" lon="-0.350735000">
  <ele>121.400000</ele>
  <time>2012-03-25T09:07:21Z</time>
  <sat>9</sat>
</trkpt>
<trkpt lat="39.714651000" lon="-0.350735000">
  <ele>121.400000</ele>
  <time>2012-03-25T09:07:24Z</time>
  <sat>10</sat>
</trkpt>
<trkpt lat="39.714651000" lon="-0.350735000">
  <ele>121.400000</ele>
  <time>2012-03-25T09:07:27Z</time>
  <sat>10</sat>
</trkpt>
<trkpt lat="39.714651000" lon="-0.350735000">
  <ele>121.500000</ele>
  <time>2012-03-25T09:07:30Z</time>
  <sat>10</sat>
</trkpt>
<trkpt lat="39.714652000" lon="-0.350735000">
  <ele>121.500000</ele>
  <time>2012-03-25T09:07:33Z</time>
  <sat>10</sat>
</trkpt>
<trkpt lat="39.714652000" lon="-0.350735000">
  <ele>121.500000</ele>
  <time>2012-03-25T09:07:36Z</time>
  <sat>10</sat>
</trkpt>
<trkpt lat="39.714652000" lon="-0.350735000">
  <ele>121.500000</ele>
  <time>2012-03-25T09:07:39Z</time>
  <sat>10</sat>
</trkpt>
<trkpt lat="39.714644000" lon="-0.350736000">
  <ele>121.500000</ele>
  <time>2012-03-25T09:07:42Z</time>
  <sat>10</sat>
</trkpt>
<trkpt lat="39.714643000" lon="-0.350737000">
  <ele>121.400000</ele>
  <time>2012-03-25T09:07:45Z</time>
  <sat>10</sat>
</trkpt>
<trkpt lat="39.714644000" lon="-0.350739000">
  <ele>121.400000</ele>
  <time>2012-03-25T09:07:48Z</time>
  <sat>9</sat>
</trkpt>
<trkpt lat="39.714643000" lon="-0.350740000">
  <ele>121.100000</ele>
  <time>2012-03-25T09:07:51Z</time>
  <sat>9</sat>
</trkpt>
<trkpt lat="39.714642000" lon="-0.350740000">
  <ele>121.100000</ele>
  <time>2012-03-25T09:07:54Z</time>
  <sat>9</sat>
</trkpt>
<trkpt lat="39.714643000" lon="-0.350740000">
  <ele>121.100000</ele>
  <time>2012-03-25T09:07:57Z</time>
  <sat>9</sat>
</trkpt>
<trkpt lat="39.714643000" lon="-0.350740000">
  <ele>121.100000</ele>
  <time>2012-03-25T09:07:59Z</time>
  <sat>10</sat>
</trkpt>
<trkpt lat="39.714643000" lon="-0.350740000">
  <ele>121.100000</ele>
  <time>2012-03-25T09:08:01Z</time>
  <sat>10</sat>
</trkpt>
<trkpt lat="39.714643000" lon="-0.350740000">
  <ele>121.100000</ele>
  <time>2012-03-25T09:08:04Z</time>
  <sat>10</sat>
</trkpt>
<trkpt lat="39.714643000" lon="-0.350740000">
  <ele>121.100000</ele>
  <time>2012-03-25T09:08:05Z</time>
  <sat>9</sat>
</trkpt>
<trkpt lat="39.714642000" lon="-0.350741000">
  <ele>121.800000</ele>
  <time>2012-03-25T09:08:10Z</time>
  <sat>9</sat>
</trkpt>
<trkpt lat="39.714637000" lon="-0.350739000">
  <ele>122.000000</ele>
  <time>2012-03-25T09:08:13Z</time>
  <sat>10</sat>
</trkpt>
<trkpt lat="39.714613000" lon="-0.350756000">
  <ele>123.000000</ele>
  <time>2012-03-25T09:08:16Z</time>
  <sat>10</sat>
</trkpt>
<trkpt lat="39.714596000" lon="-0.350775000">
  <ele>124.000000</ele>
  <time>2012-03-25T09:08:19Z</time>
  <sat>10</sat>
</trkpt>
<trkpt lat="39.714587000" lon="-0.350752000">
  <ele>124.600000</ele>
  <time>2012-03-25T09:08:22Z</time>
  <sat>10</sat>
</trkpt>
<trkpt lat="39.714583000" lon="-0.350751000">
  <ele>125.000000</ele>
  <time>2012-03-25T09:08:25Z</time>
  <sat>10</sat>
</trkpt>
<trkpt lat="39.714582000" lon="-0.350749000">
  <ele>125.000000</ele>
  <time>2012-03-25T09:08:28Z</time>
  <sat>10</sat>
</trkpt>
<trkpt lat="39.714579000" lon="-0.350745000">
  <ele>124.800000</ele>
  <time>2012-03-25T09:08:31Z</time>
  <sat>10</sat>
</trkpt>
<trkpt lat="39.714579000" lon="-0.350744000">
  <ele>124.600000</ele>
  <time>2012-03-25T09:08:33Z</time>
  <sat>9</sat>
</trkpt>
<trkpt lat="39.714579000" lon="-0.350743000">
  <ele>124.600000</ele>
  <time>2012-03-25T09:08:42Z</time>
  <sat>7</sat>
</trkpt>
<trkpt lat="39.714579000" lon="-0.350743000">
  <ele>124.600000</ele>
  <time>2012-03-25T09:08:45Z</time>
  <sat>8</sat>
</trkpt>
<trkpt lat="39.714579000" lon="-0.350743000">
  <ele>124.600000</ele>
  <time>2012-03-25T09:08:48Z</time>
  <sat>8</sat>
</trkpt>
<trkpt lat="39.714579000" lon="-0.350743000">
  <ele>124.600000</ele>
  <time>2012-03-25T09:08:51Z</time>
  <sat>7</sat>
</trkpt>
<trkpt lat="39.714579000" lon="-0.350743000">
  <ele>124.600000</ele>
  <time>2012-03-25T09:08:54Z</time>
  <sat>7</sat>
</trkpt>
<trkpt lat="39.714563000" lon="-0.350803000">
  <ele>125.900000</ele>
  <time>2012-03-25T09:08:57Z</time>
  <sat>9</sat>
</trkpt>
<trkpt lat="39.714598000" lon="-0.350770000">
  <ele>123.900000</ele>
  <time>2012-03-25T09:09:00Z</time>
  <sat>10</sat>
</trkpt>
<trkpt lat="39.714627000" lon="-0.350766000">
  <ele>124.300000</ele>
  <time>2012-03-25T09:09:03Z</time>
  <sat>10</sat>
</trkpt>
<trkpt lat="39.714660000" lon="-0.350750000">
  <ele>124.500000</ele>
  <time>2012-03-25T09:09:06Z</time>
  <sat>10</sat>
</trkpt>
<trkpt lat="39.714661000" lon="-0.350744000">
  <ele>125.000000</ele>
  <time>2012-03-25T09:09:07Z</time>
  <sat>10</sat>
</trkpt>
<trkpt lat="39.714665000" lon="-0.350742000">
  <ele>125.900000</ele>
  <time>2012-03-25T09:09:12Z</time>
  <sat>10</sat>
</trkpt>
<trkpt lat="39.714663000" lon="-0.350743000">
  <ele>125.800000</ele>
  <time>2012-03-25T09:09:15Z</time>
  <sat>10</sat>
</trkpt>
<trkpt lat="39.714658000" lon="-0.350744000">
  <ele>125.500000</ele>
  <time>2012-03-25T09:09:18Z</time>
  <sat>10</sat>
</trkpt>
<trkpt lat="39.714658000" lon="-0.350745000">
  <ele>125.500000</ele>
  <time>2012-03-25T09:09:21Z</time>
  <sat>9</sat>
</trkpt>
<trkpt lat="39.714658000" lon="-0.350745000">
  <ele>125.500000</ele>
  <time>2012-03-25T09:09:24Z</time>
  <sat>10</sat>
</trkpt>
<trkpt lat="39.714658000" lon="-0.350745000">
  <ele>125.500000</ele>
  <time>2012-03-25T09:09:27Z</time>
  <sat>10</sat>
</trkpt>
<trkpt lat="39.714658000" lon="-0.350745000">
  <ele>125.500000</ele>
  <time>2012-03-25T09:09:30Z</time>
  <sat>9</sat>
</trkpt>
<trkpt lat="39.714658000" lon="-0.350745000">
  <ele>125.500000</ele>
  <time>2012-03-25T09:09:33Z</time>
  <sat>9</sat>
</trkpt>
<trkpt lat="39.714658000" lon="-0.350745000">
  <ele>125.500000</ele>
  <time>2012-03-25T09:09:36Z</time>
  <sat>10</sat>
</trkpt>
<trkpt lat="39.714658000" lon="-0.350745000">
  <ele>125.500000</ele>
  <time>2012-03-25T09:09:39Z</time>
  <sat>10</sat>
</trkpt>
<trkpt lat="39.714658000" lon="-0.350745000">
  <ele>125.500000</ele>
  <time>2012-03-25T09:09:42Z</time>
  <sat>9</sat>
</trkpt>
<trkpt lat="39.714658000" lon="-0.350745000">
  <ele>125.500000</ele>
  <time>2012-03-25T09:09:45Z</time>
  <sat>10</sat>
</trkpt>
<trkpt lat="39.714658000" lon="-0.350745000">
  <ele>125.500000</ele>
  <time>2012-03-25T09:09:48Z</time>
  <sat>10</sat>
</trkpt>
<trkpt lat="39.714658000" lon="-0.350745000">
  <ele>125.500000</ele>
  <time>2012-03-25T09:09:51Z</time>
  <sat>10</sat>
</trkpt>
<trkpt lat="39.714659000" lon="-0.350745000">
  <ele>125.500000</ele>
  <time>2012-03-25T09:09:54Z</time>
  <sat>10</sat>
</trkpt>
<trkpt lat="39.714659000" lon="-0.350742000">
  <ele>125.400000</ele>
  <time>2012-03-25T09:09:57Z</time>
  <sat>10</sat>
</trkpt>
<trkpt lat="39.714654000" lon="-0.350743000">
  <ele>125.400000</ele>
  <time>2012-03-25T09:10:00Z</time>
  <sat>9</sat>
</trkpt>
<trkpt lat="39.714658000" lon="-0.350744000">
  <ele>125.500000</ele>
  <time>2012-03-25T09:10:03Z</time>
  <sat>9</sat>
</trkpt>
<trkpt lat="39.714658000" lon="-0.350744000">
  <ele>125.500000</ele>
  <time>2012-03-25T09:10:06Z</time>
  <sat>9</sat>
</trkpt>
<trkpt lat="39.714658000" lon="-0.350743000">
  <ele>125.800000</ele>
  <time>2012-03-25T09:10:09Z</time>
  <sat>10</sat>
</trkpt>
<trkpt lat="39.714658000" lon="-0.350743000">
  <ele>125.800000</ele>
  <time>2012-03-25T09:10:10Z</time>
  <sat>10</sat>
</trkpt>
<trkpt lat="39.714658000" lon="-0.350744000">
  <ele>125.800000</ele>
  <time>2012-03-25T09:10:15Z</time>
  <sat>8</sat>
</trkpt>
<trkpt lat="39.714658000" lon="-0.350745000">
  <ele>125.800000</ele>
  <time>2012-03-25T09:10:18Z</time>
  <sat>7</sat>
</trkpt>
<trkpt lat="39.714657000" lon="-0.350745000">
  <ele>125.800000</ele>
  <time>2012-03-25T09:10:21Z</time>
  <sat>8</sat>
</trkpt>
<trkpt lat="39.714657000" lon="-0.350745000">
  <ele>125.800000</ele>
  <time>2012-03-25T09:10:21Z</time>
  <sat>8</sat>
</trkpt>
</trkseg>
</trk>
</gpx>
